<?xml version="1.0" encoding="UTF-8" standalone="no" ?>
<gpx xmlns="http://www.topografix.com/GPX/1/1" xmlns:xsi="http://www.w3.org/2001/XMLSchema-instance" xsi:schemaLocation="http://www.topografix.com/GPX/1/1 http://www.topografix.com/GPX/1/1/gpx.xsd" version="1.1" creator="VisuGPX - https://www.visugpx.com">
  <metadata>
    <name>ETAPE 1 : MONTPELLIER -MONTARNAUD</name>
    <desc><![CDATA[Chemin de Compostelle , dit VOIE d'ARLES 
départ le 23 MAI 2023 de la gare TGV Montpellier-SUD 
parcours en tramway et bus jusqu'à GRABELS ,
et petite étape pédestre jusqu'au Gite de MONTARNAUD.
Généralement , les pélerins (ou randonneurs) évitent de faire 
la traversée totale de Montpelleir à pieds.
les banlieues de grandes villes sont sans intérêt. 
Notre récit complet avec photos : [url]http://www.chabant.fr[/url] ]]></desc>
  </metadata>
  <trk>
    <name><![CDATA[Montpellier Course à pied]]></name>
    <extensions>
      <line xmlns="http://www.topografix.com/GPX/gpx_style/0/2">
        <color>0000FF</color>
        <width>4</width>
      </line>
    </extensions>
    <trkseg>
      <trkpt lat="43.59704" lon="3.92211">
        <ele>13.39999961853</ele>
        <time>2023-05-23T11:01:15.000Z</time>
      </trkpt>
      <trkpt lat="43.59715" lon="3.92199">
        <ele>13.39999961853</ele>
        <time>2023-05-23T11:01:26.000Z</time>
      </trkpt>
      <trkpt lat="43.5973" lon="3.92185">
        <ele>13.39999961853</ele>
        <time>2023-05-23T11:01:41.000Z</time>
      </trkpt>
      <trkpt lat="43.59736" lon="3.9218">
        <ele>13.39999961853</ele>
        <time>2023-05-23T11:01:47.000Z</time>
      </trkpt>
      <trkpt lat="43.59744" lon="3.92174">
        <ele>13.39999961853</ele>
        <time>2023-05-23T11:01:54.000Z</time>
      </trkpt>
      <trkpt lat="43.59757" lon="3.92162">
        <ele>13.199999809265</ele>
        <time>2023-05-23T11:02:06.000Z</time>
      </trkpt>
      <trkpt lat="43.5977" lon="3.92151">
        <ele>13.199999809265</ele>
        <time>2023-05-23T11:02:18.000Z</time>
      </trkpt>
      <trkpt lat="43.59782" lon="3.9214">
        <ele>13.39999961853</ele>
        <time>2023-05-23T11:02:30.000Z</time>
      </trkpt>
      <trkpt lat="43.59795" lon="3.9213">
        <ele>13.39999961853</ele>
        <time>2023-05-23T11:02:42.000Z</time>
      </trkpt>
      <trkpt lat="43.59806" lon="3.9212">
        <ele>13.60000038147</ele>
        <time>2023-05-23T11:02:53.000Z</time>
      </trkpt>
      <trkpt lat="43.59816" lon="3.92109">
        <ele>13.800000190735</ele>
        <time>2023-05-23T11:03:03.000Z</time>
      </trkpt>
      <trkpt lat="43.59825" lon="3.92096">
        <ele>13.800000190735</ele>
        <time>2023-05-23T11:03:14.000Z</time>
      </trkpt>
      <trkpt lat="43.59835" lon="3.92084">
        <ele>13.800000190735</ele>
        <time>2023-05-23T11:03:24.000Z</time>
      </trkpt>
      <trkpt lat="43.59845" lon="3.92074">
        <ele>14</ele>
        <time>2023-05-23T11:03:34.000Z</time>
      </trkpt>
      <trkpt lat="43.59854" lon="3.92068">
        <ele>14</ele>
        <time>2023-05-23T11:03:42.000Z</time>
      </trkpt>
      <trkpt lat="43.59864" lon="3.92058">
        <ele>13.800000190735</ele>
        <time>2023-05-23T11:03:52.000Z</time>
      </trkpt>
      <trkpt lat="43.59873" lon="3.92051">
        <ele>14</ele>
        <time>2023-05-23T11:04:00.000Z</time>
      </trkpt>
      <trkpt lat="43.59878" lon="3.92042">
        <ele>14.199999809265</ele>
        <time>2023-05-23T11:04:09.000Z</time>
      </trkpt>
      <trkpt lat="43.59884" lon="3.92033">
        <ele>14.39999961853</ele>
        <time>2023-05-23T11:04:16.000Z</time>
      </trkpt>
      <trkpt lat="43.59885" lon="3.92031">
        <ele>14.39999961853</ele>
        <time>2023-05-23T11:04:17.000Z</time>
      </trkpt>
      <trkpt lat="43.59896" lon="3.92019">
        <ele>14.60000038147</ele>
        <time>2023-05-23T11:04:28.000Z</time>
      </trkpt>
      <trkpt lat="43.59907" lon="3.92004">
        <ele>15</ele>
        <time>2023-05-23T11:04:40.000Z</time>
      </trkpt>
      <trkpt lat="43.59921" lon="3.91991">
        <ele>15.199999809265</ele>
        <time>2023-05-23T11:04:53.000Z</time>
      </trkpt>
      <trkpt lat="43.59924" lon="3.91988">
        <ele>15.199999809265</ele>
        <time>2023-05-23T11:04:57.000Z</time>
      </trkpt>
      <trkpt lat="43.59927" lon="3.91985">
        <ele>15.199999809265</ele>
        <time>2023-05-23T11:05:00.000Z</time>
      </trkpt>
      <trkpt lat="43.59938" lon="3.91971">
        <ele>15.199999809265</ele>
        <time>2023-05-23T11:05:12.000Z</time>
      </trkpt>
      <trkpt lat="43.59947" lon="3.91964">
        <ele>15.39999961853</ele>
        <time>2023-05-23T11:05:21.000Z</time>
      </trkpt>
      <trkpt lat="43.59949" lon="3.91962">
        <ele>15.39999961853</ele>
        <time>2023-05-23T11:05:23.000Z</time>
      </trkpt>
      <trkpt lat="43.59959" lon="3.91953">
        <ele>15.800000190735</ele>
        <time>2023-05-23T11:05:32.000Z</time>
      </trkpt>
      <trkpt lat="43.59971" lon="3.91943">
        <ele>16.200000762939</ele>
        <time>2023-05-23T11:05:43.000Z</time>
      </trkpt>
      <trkpt lat="43.59981" lon="3.91934">
        <ele>16.39999961853</ele>
        <time>2023-05-23T11:05:53.000Z</time>
      </trkpt>
      <trkpt lat="43.59986" lon="3.91931">
        <ele>16.60000038147</ele>
        <time>2023-05-23T11:05:57.000Z</time>
      </trkpt>
      <trkpt lat="43.59993" lon="3.91924">
        <ele>16.60000038147</ele>
        <time>2023-05-23T11:06:04.000Z</time>
      </trkpt>
      <trkpt lat="43.59999" lon="3.9192">
        <ele>17</ele>
        <time>2023-05-23T11:06:10.000Z</time>
      </trkpt>
      <trkpt lat="43.6" lon="3.9192">
        <ele>17</ele>
        <time>2023-05-23T11:06:11.000Z</time>
      </trkpt>
      <trkpt lat="43.60001" lon="3.91919">
        <ele>17</ele>
        <time>2023-05-23T11:06:18.000Z</time>
      </trkpt>
      <trkpt lat="43.60011" lon="3.91914">
        <ele>17.200000762939</ele>
        <time>2023-05-23T11:06:27.000Z</time>
      </trkpt>
      <trkpt lat="43.60015" lon="3.91912">
        <ele>17.60000038147</ele>
        <time>2023-05-23T11:06:30.000Z</time>
      </trkpt>
      <trkpt lat="43.6002" lon="3.91907">
        <ele>17.60000038147</ele>
        <time>2023-05-23T11:06:35.000Z</time>
      </trkpt>
      <trkpt lat="43.60028" lon="3.91903">
        <ele>17.60000038147</ele>
        <time>2023-05-23T11:06:42.000Z</time>
      </trkpt>
      <trkpt lat="43.60036" lon="3.91896">
        <ele>17.799999237061</ele>
        <time>2023-05-23T11:06:50.000Z</time>
      </trkpt>
      <trkpt lat="43.60037" lon="3.91895">
        <ele>17.799999237061</ele>
        <time>2023-05-23T11:06:51.000Z</time>
      </trkpt>
      <trkpt lat="43.60049" lon="3.91887">
        <ele>18</ele>
        <time>2023-05-23T11:07:01.000Z</time>
      </trkpt>
      <trkpt lat="43.60053" lon="3.91882">
        <ele>18.200000762939</ele>
        <time>2023-05-23T11:07:06.000Z</time>
      </trkpt>
      <trkpt lat="43.60056" lon="3.9188">
        <ele>17.799999237061</ele>
        <time>2023-05-23T11:07:08.000Z</time>
      </trkpt>
      <trkpt lat="43.60067" lon="3.9187">
        <ele>17.60000038147</ele>
        <time>2023-05-23T11:07:18.000Z</time>
      </trkpt>
      <trkpt lat="43.60078" lon="3.91861">
        <ele>17.39999961853</ele>
        <time>2023-05-23T11:07:28.000Z</time>
      </trkpt>
      <trkpt lat="43.60088" lon="3.91853">
        <ele>17.200000762939</ele>
        <time>2023-05-23T11:07:37.000Z</time>
      </trkpt>
      <trkpt lat="43.60099" lon="3.91843">
        <ele>17</ele>
        <time>2023-05-23T11:07:47.000Z</time>
      </trkpt>
      <trkpt lat="43.6011" lon="3.91833">
        <ele>16.799999237061</ele>
        <time>2023-05-23T11:07:57.000Z</time>
      </trkpt>
      <trkpt lat="43.60112" lon="3.91831">
        <ele>16.60000038147</ele>
        <time>2023-05-23T11:07:59.000Z</time>
      </trkpt>
      <trkpt lat="43.60115" lon="3.91829">
        <ele>16.60000038147</ele>
        <time>2023-05-23T11:08:02.000Z</time>
      </trkpt>
      <trkpt lat="43.60123" lon="3.91822">
        <ele>16.39999961853</ele>
        <time>2023-05-23T11:08:09.000Z</time>
      </trkpt>
      <trkpt lat="43.60133" lon="3.91813">
        <ele>16.39999961853</ele>
        <time>2023-05-23T11:08:18.000Z</time>
      </trkpt>
      <trkpt lat="43.60144" lon="3.91805">
        <ele>16.200000762939</ele>
        <time>2023-05-23T11:08:27.000Z</time>
      </trkpt>
      <trkpt lat="43.60155" lon="3.91802">
        <ele>16</ele>
        <time>2023-05-23T11:08:36.000Z</time>
      </trkpt>
      <trkpt lat="43.60167" lon="3.91798">
        <ele>15.60000038147</ele>
        <time>2023-05-23T11:08:45.000Z</time>
      </trkpt>
      <trkpt lat="43.60169" lon="3.91797">
        <ele>15.60000038147</ele>
        <time>2023-05-23T11:08:47.000Z</time>
      </trkpt>
      <trkpt lat="43.60169" lon="3.91796">
        <ele>15.39999961853</ele>
        <time>2023-05-23T11:08:49.000Z</time>
      </trkpt>
      <trkpt lat="43.60172" lon="3.91794">
        <ele>15.39999961853</ele>
        <time>2023-05-23T11:08:51.000Z</time>
      </trkpt>
      <trkpt lat="43.60173" lon="3.91794">
        <ele>15.39999961853</ele>
        <time>2023-05-23T11:08:52.000Z</time>
      </trkpt>
      <trkpt lat="43.60176" lon="3.91793">
        <ele>15.39999961853</ele>
        <time>2023-05-23T11:08:54.000Z</time>
      </trkpt>
      <trkpt lat="43.60177" lon="3.91794">
        <ele>15.39999961853</ele>
        <time>2023-05-23T11:08:55.000Z</time>
      </trkpt>
      <trkpt lat="43.60177" lon="3.91797">
        <ele>15.39999961853</ele>
        <time>2023-05-23T11:08:57.000Z</time>
      </trkpt>
      <trkpt lat="43.60177" lon="3.91799">
        <ele>15.60000038147</ele>
        <time>2023-05-23T11:08:59.000Z</time>
      </trkpt>
      <trkpt lat="43.60178" lon="3.91805">
        <ele>15.39999961853</ele>
        <time>2023-05-23T11:09:08.000Z</time>
      </trkpt>
      <trkpt lat="43.60184" lon="3.91804">
        <ele>15.39999961853</ele>
        <time>2023-05-23T11:09:14.000Z</time>
      </trkpt>
      <trkpt lat="43.60189" lon="3.91804">
        <ele>15.199999809265</ele>
        <time>2023-05-23T11:09:19.000Z</time>
      </trkpt>
      <trkpt lat="43.60191" lon="3.91805">
        <ele>15.199999809265</ele>
        <time>2023-05-23T11:09:20.000Z</time>
      </trkpt>
      <trkpt lat="43.60202" lon="3.91805">
        <ele>15</ele>
        <time>2023-05-23T11:09:29.000Z</time>
      </trkpt>
      <trkpt lat="43.60211" lon="3.91804">
        <ele>15</ele>
        <time>2023-05-23T11:09:37.000Z</time>
      </trkpt>
      <trkpt lat="43.60219" lon="3.91802">
        <ele>15</ele>
        <time>2023-05-23T11:09:46.000Z</time>
      </trkpt>
      <trkpt lat="43.6022" lon="3.91801">
        <ele>15</ele>
        <time>2023-05-23T11:09:47.000Z</time>
      </trkpt>
      <trkpt lat="43.60225" lon="3.91799">
        <ele>15.199999809265</ele>
        <time>2023-05-23T11:09:51.000Z</time>
      </trkpt>
      <trkpt lat="43.60234" lon="3.91797">
        <ele>15.39999961853</ele>
        <time>2023-05-23T11:09:59.000Z</time>
      </trkpt>
      <trkpt lat="43.60234" lon="3.91796">
        <ele>15.39999961853</ele>
        <time>2023-05-23T11:10:00.000Z</time>
      </trkpt>
      <trkpt lat="43.60237" lon="3.91796">
        <ele>15.60000038147</ele>
        <time>2023-05-23T11:10:02.000Z</time>
      </trkpt>
      <trkpt lat="43.60239" lon="3.91794">
        <ele>15.800000190735</ele>
        <time>2023-05-23T11:10:04.000Z</time>
      </trkpt>
      <trkpt lat="43.60248" lon="3.91792">
        <ele>15.60000038147</ele>
        <time>2023-05-23T11:10:11.000Z</time>
      </trkpt>
      <trkpt lat="43.60249" lon="3.91791">
        <ele>15.60000038147</ele>
        <time>2023-05-23T11:10:15.000Z</time>
      </trkpt>
      <trkpt lat="43.60256" lon="3.91785">
        <ele>15.39999961853</ele>
        <time>2023-05-23T11:10:22.000Z</time>
      </trkpt>
      <trkpt lat="43.60268" lon="3.91774">
        <ele>15.800000190735</ele>
        <time>2023-05-23T11:10:33.000Z</time>
      </trkpt>
      <trkpt lat="43.60277" lon="3.91766">
        <ele>16.200000762939</ele>
        <time>2023-05-23T11:10:41.000Z</time>
      </trkpt>
      <trkpt lat="43.60284" lon="3.91761">
        <ele>15.800000190735</ele>
        <time>2023-05-23T11:10:48.000Z</time>
      </trkpt>
      <trkpt lat="43.60293" lon="3.91755">
        <ele>16.200000762939</ele>
        <time>2023-05-23T11:10:56.000Z</time>
      </trkpt>
      <trkpt lat="43.60294" lon="3.91755">
        <ele>16.200000762939</ele>
        <time>2023-05-23T11:10:57.000Z</time>
      </trkpt>
      <trkpt lat="43.60305" lon="3.91751">
        <ele>16.39999961853</ele>
        <time>2023-05-23T11:11:05.000Z</time>
      </trkpt>
      <trkpt lat="43.60306" lon="3.91751">
        <ele>16.60000038147</ele>
        <time>2023-05-23T11:11:06.000Z</time>
      </trkpt>
      <trkpt lat="43.60308" lon="3.9175">
        <ele>16.60000038147</ele>
        <time>2023-05-23T11:11:07.000Z</time>
      </trkpt>
      <trkpt lat="43.6031" lon="3.91747">
        <ele>16.60000038147</ele>
        <time>2023-05-23T11:11:10.000Z</time>
      </trkpt>
      <trkpt lat="43.6031" lon="3.91746">
        <ele>16.39999961853</ele>
        <time>2023-05-23T11:11:11.000Z</time>
      </trkpt>
      <trkpt lat="43.60314" lon="3.91742">
        <ele>16.39999961853</ele>
        <time>2023-05-23T11:11:15.000Z</time>
      </trkpt>
      <trkpt lat="43.60314" lon="3.91741">
        <ele>16.39999961853</ele>
        <time>2023-05-23T11:11:17.000Z</time>
      </trkpt>
      <trkpt lat="43.60316" lon="3.91739">
        <ele>16.39999961853</ele>
        <time>2023-05-23T11:11:19.000Z</time>
      </trkpt>
      <trkpt lat="43.60316" lon="3.91737">
        <ele>16.39999961853</ele>
        <time>2023-05-23T11:11:23.000Z</time>
      </trkpt>
      <trkpt lat="43.60319" lon="3.91737">
        <ele>16.39999961853</ele>
        <time>2023-05-23T11:11:24.000Z</time>
      </trkpt>
      <trkpt lat="43.60321" lon="3.91731">
        <ele>16.60000038147</ele>
        <time>2023-05-23T11:11:29.000Z</time>
      </trkpt>
      <trkpt lat="43.6033" lon="3.91713">
        <ele>16.60000038147</ele>
        <time>2023-05-23T11:11:39.000Z</time>
      </trkpt>
      <trkpt lat="43.60336" lon="3.91705">
        <ele>16.60000038147</ele>
        <time>2023-05-23T11:11:43.000Z</time>
      </trkpt>
      <trkpt lat="43.60339" lon="3.917">
        <ele>16.799999237061</ele>
        <time>2023-05-23T11:11:46.000Z</time>
      </trkpt>
      <trkpt lat="43.6034" lon="3.91698">
        <ele>16.60000038147</ele>
        <time>2023-05-23T11:11:50.000Z</time>
      </trkpt>
      <trkpt lat="43.60348" lon="3.91689">
        <ele>16.799999237061</ele>
        <time>2023-05-23T11:11:56.000Z</time>
      </trkpt>
      <trkpt lat="43.60357" lon="3.91675">
        <ele>16.60000038147</ele>
        <time>2023-05-23T11:12:04.000Z</time>
      </trkpt>
      <trkpt lat="43.60359" lon="3.91673">
        <ele>16.799999237061</ele>
        <time>2023-05-23T11:12:06.000Z</time>
      </trkpt>
      <trkpt lat="43.60361" lon="3.91665">
        <ele>16.799999237061</ele>
        <time>2023-05-23T11:12:10.000Z</time>
      </trkpt>
      <trkpt lat="43.60361" lon="3.91664">
        <ele>16.60000038147</ele>
        <time>2023-05-23T11:12:11.000Z</time>
      </trkpt>
      <trkpt lat="43.60363" lon="3.91653">
        <ele>16.799999237061</ele>
        <time>2023-05-23T11:12:17.000Z</time>
      </trkpt>
      <trkpt lat="43.60363" lon="3.91651">
        <ele>16.799999237061</ele>
        <time>2023-05-23T11:12:18.000Z</time>
      </trkpt>
      <trkpt lat="43.60364" lon="3.91648">
        <ele>16.799999237061</ele>
        <time>2023-05-23T11:12:21.000Z</time>
      </trkpt>
      <trkpt lat="43.60367" lon="3.9164">
        <ele>16.799999237061</ele>
        <time>2023-05-23T11:12:26.000Z</time>
      </trkpt>
      <trkpt lat="43.60366" lon="3.91621">
        <ele>17</ele>
        <time>2023-05-23T11:12:36.000Z</time>
      </trkpt>
      <trkpt lat="43.60367" lon="3.91611">
        <ele>16.799999237061</ele>
        <time>2023-05-23T11:12:42.000Z</time>
      </trkpt>
      <trkpt lat="43.6037" lon="3.91609">
        <ele>16.799999237061</ele>
        <time>2023-05-23T11:12:45.000Z</time>
      </trkpt>
      <trkpt lat="43.60375" lon="3.91606">
        <ele>16.799999237061</ele>
        <time>2023-05-23T11:12:52.000Z</time>
      </trkpt>
      <trkpt lat="43.60376" lon="3.91607">
        <ele>16.799999237061</ele>
        <time>2023-05-23T11:12:54.000Z</time>
      </trkpt>
      <trkpt lat="43.60378" lon="3.91612">
        <ele>16.799999237061</ele>
        <time>2023-05-23T11:12:58.000Z</time>
      </trkpt>
      <trkpt lat="43.60379" lon="3.91614">
        <ele>17</ele>
        <time>2023-05-23T11:13:00.000Z</time>
      </trkpt>
      <trkpt lat="43.60381" lon="3.91613">
        <ele>17</ele>
        <time>2023-05-23T11:13:02.000Z</time>
      </trkpt>
      <trkpt lat="43.60383" lon="3.91612">
        <ele>16.799999237061</ele>
        <time>2023-05-23T11:13:04.000Z</time>
      </trkpt>
      <trkpt lat="43.60387" lon="3.91608">
        <ele>16.60000038147</ele>
        <time>2023-05-23T11:13:10.000Z</time>
      </trkpt>
      <trkpt lat="43.60387" lon="3.91607">
        <ele>16.799999237061</ele>
        <time>2023-05-23T11:13:11.000Z</time>
      </trkpt>
      <trkpt lat="43.60387" lon="3.91602">
        <ele>17</ele>
        <time>2023-05-23T11:13:15.000Z</time>
      </trkpt>
      <trkpt lat="43.60386" lon="3.916">
        <ele>17</ele>
        <time>2023-05-23T11:13:18.000Z</time>
      </trkpt>
      <trkpt lat="43.60384" lon="3.91599">
        <ele>17</ele>
        <time>2023-05-23T11:13:24.000Z</time>
      </trkpt>
      <trkpt lat="43.60383" lon="3.91599">
        <ele>17</ele>
        <time>2023-05-23T11:13:32.000Z</time>
      </trkpt>
      <trkpt lat="43.60382" lon="3.91596">
        <ele>17</ele>
        <time>2023-05-23T11:13:46.000Z</time>
      </trkpt>
      <trkpt lat="43.60382" lon="3.91598">
        <ele>17</ele>
        <time>2023-05-23T11:14:00.000Z</time>
      </trkpt>
      <trkpt lat="43.60379" lon="3.91592">
        <ele>17</ele>
        <time>2023-05-23T11:14:14.000Z</time>
      </trkpt>
      <trkpt lat="43.60379" lon="3.91591">
        <ele>16.799999237061</ele>
        <time>2023-05-23T11:14:28.000Z</time>
      </trkpt>
      <trkpt lat="43.60375" lon="3.9159">
        <ele>17.200000762939</ele>
        <time>2023-05-23T11:14:46.000Z</time>
      </trkpt>
      <trkpt lat="43.60376" lon="3.9159">
        <ele>17</ele>
        <time>2023-05-23T11:15:00.000Z</time>
      </trkpt>
      <trkpt lat="43.60377" lon="3.91588">
        <ele>16.799999237061</ele>
        <time>2023-05-23T11:15:14.000Z</time>
      </trkpt>
      <trkpt lat="43.60375" lon="3.91587">
        <ele>16.60000038147</ele>
        <time>2023-05-23T11:15:23.000Z</time>
      </trkpt>
      <trkpt lat="43.60375" lon="3.91585">
        <ele>16.799999237061</ele>
        <time>2023-05-23T11:15:39.000Z</time>
      </trkpt>
      <trkpt lat="43.60375" lon="3.91585">
        <ele>16.39999961853</ele>
        <time>2023-05-23T11:15:50.000Z</time>
      </trkpt>
      <trkpt lat="43.60376" lon="3.91586">
        <ele>16.60000038147</ele>
        <time>2023-05-23T11:16:00.000Z</time>
      </trkpt>
      <trkpt lat="43.60377" lon="3.91587">
        <ele>16.39999961853</ele>
        <time>2023-05-23T11:16:13.000Z</time>
      </trkpt>
      <trkpt lat="43.60376" lon="3.91588">
        <ele>16.60000038147</ele>
        <time>2023-05-23T11:16:23.000Z</time>
      </trkpt>
      <trkpt lat="43.60379" lon="3.9159">
        <ele>16.799999237061</ele>
        <time>2023-05-23T11:16:36.000Z</time>
      </trkpt>
      <trkpt lat="43.6038" lon="3.91594">
        <ele>16.799999237061</ele>
        <time>2023-05-23T11:16:50.000Z</time>
      </trkpt>
      <trkpt lat="43.6038" lon="3.91594">
        <ele>16.60000038147</ele>
        <time>2023-05-23T11:17:05.000Z</time>
      </trkpt>
      <trkpt lat="43.6038" lon="3.91593">
        <ele>16.799999237061</ele>
        <time>2023-05-23T11:17:15.000Z</time>
      </trkpt>
      <trkpt lat="43.60378" lon="3.91591">
        <ele>16.799999237061</ele>
        <time>2023-05-23T11:17:21.000Z</time>
      </trkpt>
      <trkpt lat="43.60378" lon="3.91591">
        <ele>16.799999237061</ele>
        <time>2023-05-23T11:17:28.000Z</time>
      </trkpt>
      <trkpt lat="43.60377" lon="3.91591">
        <ele>17.200000762939</ele>
        <time>2023-05-23T11:17:33.000Z</time>
      </trkpt>
      <trkpt lat="43.60377" lon="3.91592">
        <ele>17</ele>
        <time>2023-05-23T11:17:40.000Z</time>
      </trkpt>
      <trkpt lat="43.60377" lon="3.91592">
        <ele>17</ele>
        <time>2023-05-23T11:17:48.000Z</time>
      </trkpt>
      <trkpt lat="43.60375" lon="3.9158">
        <ele>16</ele>
        <time>2023-05-23T11:17:55.000Z</time>
      </trkpt>
      <trkpt lat="43.60372" lon="3.91562">
        <ele>15.60000038147</ele>
        <time>2023-05-23T11:17:58.000Z</time>
      </trkpt>
      <trkpt lat="43.6037" lon="3.91556">
        <ele>15.39999961853</ele>
        <time>2023-05-23T11:17:59.000Z</time>
      </trkpt>
      <trkpt lat="43.6036" lon="3.91526">
        <ele>16.39999961853</ele>
        <time>2023-05-23T11:18:02.000Z</time>
      </trkpt>
      <trkpt lat="43.60358" lon="3.91515">
        <ele>16.60000038147</ele>
        <time>2023-05-23T11:18:03.000Z</time>
      </trkpt>
      <trkpt lat="43.6035" lon="3.91485">
        <ele>16.60000038147</ele>
        <time>2023-05-23T11:18:06.000Z</time>
      </trkpt>
      <trkpt lat="43.60342" lon="3.91464">
        <ele>17</ele>
        <time>2023-05-23T11:18:08.000Z</time>
      </trkpt>
      <trkpt lat="43.60334" lon="3.91437">
        <ele>17.39999961853</ele>
        <time>2023-05-23T11:18:11.000Z</time>
      </trkpt>
      <trkpt lat="43.60327" lon="3.91404">
        <ele>17.200000762939</ele>
        <time>2023-05-23T11:18:14.000Z</time>
      </trkpt>
      <trkpt lat="43.60326" lon="3.91392">
        <ele>17</ele>
        <time>2023-05-23T11:18:15.000Z</time>
      </trkpt>
      <trkpt lat="43.60327" lon="3.91369">
        <ele>16.60000038147</ele>
        <time>2023-05-23T11:18:17.000Z</time>
      </trkpt>
      <trkpt lat="43.60329" lon="3.91358">
        <ele>16.799999237061</ele>
        <time>2023-05-23T11:18:18.000Z</time>
      </trkpt>
      <trkpt lat="43.60335" lon="3.91334">
        <ele>17</ele>
        <time>2023-05-23T11:18:20.000Z</time>
      </trkpt>
      <trkpt lat="43.6034" lon="3.91311">
        <ele>17.60000038147</ele>
        <time>2023-05-23T11:18:22.000Z</time>
      </trkpt>
      <trkpt lat="43.60347" lon="3.91279">
        <ele>18.200000762939</ele>
        <time>2023-05-23T11:18:25.000Z</time>
      </trkpt>
      <trkpt lat="43.60348" lon="3.9127">
        <ele>18.39999961853</ele>
        <time>2023-05-23T11:18:26.000Z</time>
      </trkpt>
      <trkpt lat="43.60353" lon="3.9124">
        <ele>18.60000038147</ele>
        <time>2023-05-23T11:18:29.000Z</time>
      </trkpt>
      <trkpt lat="43.60357" lon="3.91207">
        <ele>18.39999961853</ele>
        <time>2023-05-23T11:18:32.000Z</time>
      </trkpt>
      <trkpt lat="43.60358" lon="3.91195">
        <ele>18.200000762939</ele>
        <time>2023-05-23T11:18:33.000Z</time>
      </trkpt>
      <trkpt lat="43.60354" lon="3.91161">
        <ele>18</ele>
        <time>2023-05-23T11:18:36.000Z</time>
      </trkpt>
      <trkpt lat="43.60351" lon="3.91148">
        <ele>17.799999237061</ele>
        <time>2023-05-23T11:18:37.000Z</time>
      </trkpt>
      <trkpt lat="43.60346" lon="3.91123">
        <ele>18</ele>
        <time>2023-05-23T11:18:39.000Z</time>
      </trkpt>
      <trkpt lat="43.60339" lon="3.9109">
        <ele>18</ele>
        <time>2023-05-23T11:18:42.000Z</time>
      </trkpt>
      <trkpt lat="43.60334" lon="3.91071">
        <ele>18.200000762939</ele>
        <time>2023-05-23T11:18:44.000Z</time>
      </trkpt>
      <trkpt lat="43.6033" lon="3.91046">
        <ele>18.200000762939</ele>
        <time>2023-05-23T11:18:47.000Z</time>
      </trkpt>
      <trkpt lat="43.60329" lon="3.91039">
        <ele>18.200000762939</ele>
        <time>2023-05-23T11:18:48.000Z</time>
      </trkpt>
      <trkpt lat="43.60327" lon="3.91022">
        <ele>18.39999961853</ele>
        <time>2023-05-23T11:18:52.000Z</time>
      </trkpt>
      <trkpt lat="43.60327" lon="3.91018">
        <ele>18.39999961853</ele>
        <time>2023-05-23T11:18:56.000Z</time>
      </trkpt>
      <trkpt lat="43.60327" lon="3.91018">
        <ele>17.60000038147</ele>
        <time>2023-05-23T11:19:03.000Z</time>
      </trkpt>
      <trkpt lat="43.60325" lon="3.91019">
        <ele>17.39999961853</ele>
        <time>2023-05-23T11:19:13.000Z</time>
      </trkpt>
      <trkpt lat="43.60327" lon="3.91019">
        <ele>17.39999961853</ele>
        <time>2023-05-23T11:19:19.000Z</time>
      </trkpt>
      <trkpt lat="43.60326" lon="3.91009">
        <ele>16.60000038147</ele>
        <time>2023-05-23T11:19:25.000Z</time>
      </trkpt>
      <trkpt lat="43.60325" lon="3.91006">
        <ele>16.200000762939</ele>
        <time>2023-05-23T11:19:26.000Z</time>
      </trkpt>
      <trkpt lat="43.60323" lon="3.90986">
        <ele>15.60000038147</ele>
        <time>2023-05-23T11:19:29.000Z</time>
      </trkpt>
      <trkpt lat="43.60321" lon="3.90958">
        <ele>16.200000762939</ele>
        <time>2023-05-23T11:19:32.000Z</time>
      </trkpt>
      <trkpt lat="43.6032" lon="3.90937">
        <ele>16.60000038147</ele>
        <time>2023-05-23T11:19:34.000Z</time>
      </trkpt>
      <trkpt lat="43.60321" lon="3.90901">
        <ele>16.799999237061</ele>
        <time>2023-05-23T11:19:37.000Z</time>
      </trkpt>
      <trkpt lat="43.60324" lon="3.90876">
        <ele>16.799999237061</ele>
        <time>2023-05-23T11:19:39.000Z</time>
      </trkpt>
      <trkpt lat="43.60328" lon="3.90838">
        <ele>16.60000038147</ele>
        <time>2023-05-23T11:19:42.000Z</time>
      </trkpt>
      <trkpt lat="43.60331" lon="3.90813">
        <ele>15.800000190735</ele>
        <time>2023-05-23T11:19:44.000Z</time>
      </trkpt>
      <trkpt lat="43.60333" lon="3.9079">
        <ele>15</ele>
        <time>2023-05-23T11:19:46.000Z</time>
      </trkpt>
      <trkpt lat="43.60336" lon="3.90765">
        <ele>14</ele>
        <time>2023-05-23T11:19:48.000Z</time>
      </trkpt>
      <trkpt lat="43.60338" lon="3.90729">
        <ele>13</ele>
        <time>2023-05-23T11:19:51.000Z</time>
      </trkpt>
      <trkpt lat="43.60337" lon="3.90717">
        <ele>12.60000038147</ele>
        <time>2023-05-23T11:19:52.000Z</time>
      </trkpt>
      <trkpt lat="43.60335" lon="3.90695">
        <ele>12</ele>
        <time>2023-05-23T11:19:54.000Z</time>
      </trkpt>
      <trkpt lat="43.60333" lon="3.90672">
        <ele>11.60000038147</ele>
        <time>2023-05-23T11:19:56.000Z</time>
      </trkpt>
      <trkpt lat="43.6033" lon="3.9065">
        <ele>10.800000190735</ele>
        <time>2023-05-23T11:19:58.000Z</time>
      </trkpt>
      <trkpt lat="43.60325" lon="3.90625">
        <ele>9.8000001907349</ele>
        <time>2023-05-23T11:20:00.000Z</time>
      </trkpt>
      <trkpt lat="43.60323" lon="3.90614">
        <ele>9.6000003814697</ele>
        <time>2023-05-23T11:20:01.000Z</time>
      </trkpt>
      <trkpt lat="43.60318" lon="3.90589">
        <ele>9</ele>
        <time>2023-05-23T11:20:03.000Z</time>
      </trkpt>
      <trkpt lat="43.6031" lon="3.90555">
        <ele>8.1999998092651</ele>
        <time>2023-05-23T11:20:06.000Z</time>
      </trkpt>
      <trkpt lat="43.60307" lon="3.90545">
        <ele>7.8000001907349</ele>
        <time>2023-05-23T11:20:07.000Z</time>
      </trkpt>
      <trkpt lat="43.60302" lon="3.90524">
        <ele>7.1999998092651</ele>
        <time>2023-05-23T11:20:09.000Z</time>
      </trkpt>
      <trkpt lat="43.60299" lon="3.90508">
        <ele>6.5999999046326</ele>
        <time>2023-05-23T11:20:11.000Z</time>
      </trkpt>
      <trkpt lat="43.60295" lon="3.90499">
        <ele>6.4000000953674</ele>
        <time>2023-05-23T11:20:12.000Z</time>
      </trkpt>
      <trkpt lat="43.60289" lon="3.90484">
        <ele>6</ele>
        <time>2023-05-23T11:20:14.000Z</time>
      </trkpt>
      <trkpt lat="43.60285" lon="3.90478">
        <ele>5.8000001907349</ele>
        <time>2023-05-23T11:20:15.000Z</time>
      </trkpt>
      <trkpt lat="43.60277" lon="3.90453">
        <ele>5.4000000953674</ele>
        <time>2023-05-23T11:20:19.000Z</time>
      </trkpt>
      <trkpt lat="43.60276" lon="3.90441">
        <ele>5.5999999046326</ele>
        <time>2023-05-23T11:20:23.000Z</time>
      </trkpt>
      <trkpt lat="43.60276" lon="3.90441">
        <ele>5.5999999046326</ele>
        <time>2023-05-23T11:20:24.000Z</time>
      </trkpt>
      <trkpt lat="43.60275" lon="3.90441">
        <ele>5.4000000953674</ele>
        <time>2023-05-23T11:20:28.000Z</time>
      </trkpt>
      <trkpt lat="43.60277" lon="3.90436">
        <ele>5</ele>
        <time>2023-05-23T11:20:32.000Z</time>
      </trkpt>
      <trkpt lat="43.60275" lon="3.90434">
        <ele>5</ele>
        <time>2023-05-23T11:20:41.000Z</time>
      </trkpt>
      <trkpt lat="43.60276" lon="3.90433">
        <ele>5.4000000953674</ele>
        <time>2023-05-23T11:20:49.000Z</time>
      </trkpt>
      <trkpt lat="43.60273" lon="3.90423">
        <ele>4.4000000953674</ele>
        <time>2023-05-23T11:20:53.000Z</time>
      </trkpt>
      <trkpt lat="43.60271" lon="3.9041">
        <ele>3.7999999523163</ele>
        <time>2023-05-23T11:20:55.000Z</time>
      </trkpt>
      <trkpt lat="43.60268" lon="3.90395">
        <ele>3.7999999523163</ele>
        <time>2023-05-23T11:20:57.000Z</time>
      </trkpt>
      <trkpt lat="43.60262" lon="3.90368">
        <ele>4.1999998092651</ele>
        <time>2023-05-23T11:21:00.000Z</time>
      </trkpt>
      <trkpt lat="43.60258" lon="3.9035">
        <ele>4.4000000953674</ele>
        <time>2023-05-23T11:21:02.000Z</time>
      </trkpt>
      <trkpt lat="43.60252" lon="3.90322">
        <ele>4.8000001907349</ele>
        <time>2023-05-23T11:21:05.000Z</time>
      </trkpt>
      <trkpt lat="43.6025" lon="3.90312">
        <ele>4.8000001907349</ele>
        <time>2023-05-23T11:21:06.000Z</time>
      </trkpt>
      <trkpt lat="43.60243" lon="3.90286">
        <ele>4.8000001907349</ele>
        <time>2023-05-23T11:21:09.000Z</time>
      </trkpt>
      <trkpt lat="43.60236" lon="3.90258">
        <ele>4.8000001907349</ele>
        <time>2023-05-23T11:21:13.000Z</time>
      </trkpt>
      <trkpt lat="43.60234" lon="3.90253">
        <ele>5</ele>
        <time>2023-05-23T11:21:14.000Z</time>
      </trkpt>
      <trkpt lat="43.60232" lon="3.90244">
        <ele>5</ele>
        <time>2023-05-23T11:21:16.000Z</time>
      </trkpt>
      <trkpt lat="43.60229" lon="3.90231">
        <ele>4.5999999046326</ele>
        <time>2023-05-23T11:21:19.000Z</time>
      </trkpt>
      <trkpt lat="43.60228" lon="3.90227">
        <ele>4.5999999046326</ele>
        <time>2023-05-23T11:21:20.000Z</time>
      </trkpt>
      <trkpt lat="43.60227" lon="3.90224">
        <ele>4.5999999046326</ele>
        <time>2023-05-23T11:21:21.000Z</time>
      </trkpt>
      <trkpt lat="43.60223" lon="3.90203">
        <ele>3.7999999523163</ele>
        <time>2023-05-23T11:21:25.000Z</time>
      </trkpt>
      <trkpt lat="43.60216" lon="3.90175">
        <ele>3.2000000476837</ele>
        <time>2023-05-23T11:21:29.000Z</time>
      </trkpt>
      <trkpt lat="43.60213" lon="3.9016">
        <ele>3.4000000953674</ele>
        <time>2023-05-23T11:21:31.000Z</time>
      </trkpt>
      <trkpt lat="43.60206" lon="3.90133">
        <ele>3.7999999523163</ele>
        <time>2023-05-23T11:21:35.000Z</time>
      </trkpt>
      <trkpt lat="43.60203" lon="3.90123">
        <ele>4</ele>
        <time>2023-05-23T11:21:37.000Z</time>
      </trkpt>
      <trkpt lat="43.60195" lon="3.90096">
        <ele>4</ele>
        <time>2023-05-23T11:21:43.000Z</time>
      </trkpt>
      <trkpt lat="43.60191" lon="3.90085">
        <ele>3.5999999046326</ele>
        <time>2023-05-23T11:21:45.000Z</time>
      </trkpt>
      <trkpt lat="43.60182" lon="3.90059">
        <ele>3.4000000953674</ele>
        <time>2023-05-23T11:21:49.000Z</time>
      </trkpt>
      <trkpt lat="43.60178" lon="3.90046">
        <ele>3.5999999046326</ele>
        <time>2023-05-23T11:21:51.000Z</time>
      </trkpt>
      <trkpt lat="43.60169" lon="3.9002">
        <ele>4.4000000953674</ele>
        <time>2023-05-23T11:21:55.000Z</time>
      </trkpt>
      <trkpt lat="43.60166" lon="3.9001">
        <ele>4.5999999046326</ele>
        <time>2023-05-23T11:21:57.000Z</time>
      </trkpt>
      <trkpt lat="43.60165" lon="3.90005">
        <ele>4.8000001907349</ele>
        <time>2023-05-23T11:21:58.000Z</time>
      </trkpt>
      <trkpt lat="43.60161" lon="3.89995">
        <ele>5</ele>
        <time>2023-05-23T11:22:00.000Z</time>
      </trkpt>
      <trkpt lat="43.60157" lon="3.89984">
        <ele>4.8000001907349</ele>
        <time>2023-05-23T11:22:02.000Z</time>
      </trkpt>
      <trkpt lat="43.60152" lon="3.8996">
        <ele>5</ele>
        <time>2023-05-23T11:22:07.000Z</time>
      </trkpt>
      <trkpt lat="43.60151" lon="3.89955">
        <ele>5.5999999046326</ele>
        <time>2023-05-23T11:22:10.000Z</time>
      </trkpt>
      <trkpt lat="43.60151" lon="3.89955">
        <ele>5.5999999046326</ele>
        <time>2023-05-23T11:22:11.000Z</time>
      </trkpt>
      <trkpt lat="43.60153" lon="3.89952">
        <ele>5</ele>
        <time>2023-05-23T11:22:26.000Z</time>
      </trkpt>
      <trkpt lat="43.60155" lon="3.89948">
        <ele>4.5999999046326</ele>
        <time>2023-05-23T11:22:41.000Z</time>
      </trkpt>
      <trkpt lat="43.60151" lon="3.89941">
        <ele>3.7999999523163</ele>
        <time>2023-05-23T11:22:43.000Z</time>
      </trkpt>
      <trkpt lat="43.60146" lon="3.89933">
        <ele>3.2000000476837</ele>
        <time>2023-05-23T11:22:45.000Z</time>
      </trkpt>
      <trkpt lat="43.60138" lon="3.89914">
        <ele>3.7999999523163</ele>
        <time>2023-05-23T11:22:48.000Z</time>
      </trkpt>
      <trkpt lat="43.60129" lon="3.89891">
        <ele>4.1999998092651</ele>
        <time>2023-05-23T11:22:51.000Z</time>
      </trkpt>
      <trkpt lat="43.60123" lon="3.89878">
        <ele>4.5999999046326</ele>
        <time>2023-05-23T11:22:53.000Z</time>
      </trkpt>
      <trkpt lat="43.6012" lon="3.89871">
        <ele>4.8000001907349</ele>
        <time>2023-05-23T11:22:54.000Z</time>
      </trkpt>
      <trkpt lat="43.60112" lon="3.89851">
        <ele>5</ele>
        <time>2023-05-23T11:22:57.000Z</time>
      </trkpt>
      <trkpt lat="43.60104" lon="3.89829">
        <ele>4.8000001907349</ele>
        <time>2023-05-23T11:23:00.000Z</time>
      </trkpt>
      <trkpt lat="43.60096" lon="3.89801">
        <ele>5</ele>
        <time>2023-05-23T11:23:04.000Z</time>
      </trkpt>
      <trkpt lat="43.60094" lon="3.89796">
        <ele>5.1999998092651</ele>
        <time>2023-05-23T11:23:05.000Z</time>
      </trkpt>
      <trkpt lat="43.60083" lon="3.89769">
        <ele>5</ele>
        <time>2023-05-23T11:23:09.000Z</time>
      </trkpt>
      <trkpt lat="43.60077" lon="3.89757">
        <ele>5</ele>
        <time>2023-05-23T11:23:11.000Z</time>
      </trkpt>
      <trkpt lat="43.60065" lon="3.89734">
        <ele>5.8000001907349</ele>
        <time>2023-05-23T11:23:15.000Z</time>
      </trkpt>
      <trkpt lat="43.60062" lon="3.89729">
        <ele>5.8000001907349</ele>
        <time>2023-05-23T11:23:16.000Z</time>
      </trkpt>
      <trkpt lat="43.6006" lon="3.89724">
        <ele>6</ele>
        <time>2023-05-23T11:23:17.000Z</time>
      </trkpt>
      <trkpt lat="43.6005" lon="3.89701">
        <ele>6.4000000953674</ele>
        <time>2023-05-23T11:23:22.000Z</time>
      </trkpt>
      <trkpt lat="43.60049" lon="3.89698">
        <ele>6.5999999046326</ele>
        <time>2023-05-23T11:23:23.000Z</time>
      </trkpt>
      <trkpt lat="43.60039" lon="3.89678">
        <ele>6.8000001907349</ele>
        <time>2023-05-23T11:23:29.000Z</time>
      </trkpt>
      <trkpt lat="43.60037" lon="3.89673">
        <ele>6.8000001907349</ele>
        <time>2023-05-23T11:23:31.000Z</time>
      </trkpt>
      <trkpt lat="43.60032" lon="3.89665">
        <ele>6.8000001907349</ele>
        <time>2023-05-23T11:23:36.000Z</time>
      </trkpt>
      <trkpt lat="43.60024" lon="3.89641">
        <ele>6.4000000953674</ele>
        <time>2023-05-23T11:23:44.000Z</time>
      </trkpt>
      <trkpt lat="43.60023" lon="3.89638">
        <ele>6.4000000953674</ele>
        <time>2023-05-23T11:23:45.000Z</time>
      </trkpt>
      <trkpt lat="43.6002" lon="3.89621">
        <ele>6.4000000953674</ele>
        <time>2023-05-23T11:23:51.000Z</time>
      </trkpt>
      <trkpt lat="43.60022" lon="3.89607">
        <ele>6</ele>
        <time>2023-05-23T11:23:56.000Z</time>
      </trkpt>
      <trkpt lat="43.60027" lon="3.89598">
        <ele>5.8000001907349</ele>
        <time>2023-05-23T11:23:59.000Z</time>
      </trkpt>
      <trkpt lat="43.60031" lon="3.89592">
        <ele>5.4000000953674</ele>
        <time>2023-05-23T11:24:01.000Z</time>
      </trkpt>
      <trkpt lat="43.60043" lon="3.8958">
        <ele>6</ele>
        <time>2023-05-23T11:24:06.000Z</time>
      </trkpt>
      <trkpt lat="43.60046" lon="3.89577">
        <ele>6.4000000953674</ele>
        <time>2023-05-23T11:24:11.000Z</time>
      </trkpt>
      <trkpt lat="43.60047" lon="3.89574">
        <ele>6.1999998092651</ele>
        <time>2023-05-23T11:24:22.000Z</time>
      </trkpt>
      <trkpt lat="43.6005" lon="3.89572">
        <ele>6</ele>
        <time>2023-05-23T11:24:43.000Z</time>
      </trkpt>
      <trkpt lat="43.60055" lon="3.89567">
        <ele>5.4000000953674</ele>
        <time>2023-05-23T11:24:47.000Z</time>
      </trkpt>
      <trkpt lat="43.60064" lon="3.89557">
        <ele>4.5999999046326</ele>
        <time>2023-05-23T11:24:50.000Z</time>
      </trkpt>
      <trkpt lat="43.60072" lon="3.89549">
        <ele>4.8000001907349</ele>
        <time>2023-05-23T11:24:52.000Z</time>
      </trkpt>
      <trkpt lat="43.6009" lon="3.8953">
        <ele>5.1999998092651</ele>
        <time>2023-05-23T11:24:56.000Z</time>
      </trkpt>
      <trkpt lat="43.60095" lon="3.89524">
        <ele>5.1999998092651</ele>
        <time>2023-05-23T11:24:57.000Z</time>
      </trkpt>
      <trkpt lat="43.60102" lon="3.89521">
        <ele>5.1999998092651</ele>
        <time>2023-05-23T11:24:58.000Z</time>
      </trkpt>
      <trkpt lat="43.60116" lon="3.89519">
        <ele>5.1999998092651</ele>
        <time>2023-05-23T11:25:00.000Z</time>
      </trkpt>
      <trkpt lat="43.60134" lon="3.89517">
        <ele>5.4000000953674</ele>
        <time>2023-05-23T11:25:03.000Z</time>
      </trkpt>
      <trkpt lat="43.60144" lon="3.89514">
        <ele>5.5999999046326</ele>
        <time>2023-05-23T11:25:05.000Z</time>
      </trkpt>
      <trkpt lat="43.60149" lon="3.89513">
        <ele>5.5999999046326</ele>
        <time>2023-05-23T11:25:06.000Z</time>
      </trkpt>
      <trkpt lat="43.6016" lon="3.89512">
        <ele>5.8000001907349</ele>
        <time>2023-05-23T11:25:08.000Z</time>
      </trkpt>
      <trkpt lat="43.60168" lon="3.89509">
        <ele>5.5999999046326</ele>
        <time>2023-05-23T11:25:10.000Z</time>
      </trkpt>
      <trkpt lat="43.60172" lon="3.89507">
        <ele>5.5999999046326</ele>
        <time>2023-05-23T11:25:11.000Z</time>
      </trkpt>
      <trkpt lat="43.60184" lon="3.89498">
        <ele>5.5999999046326</ele>
        <time>2023-05-23T11:25:14.000Z</time>
      </trkpt>
      <trkpt lat="43.60201" lon="3.89484">
        <ele>5</ele>
        <time>2023-05-23T11:25:18.000Z</time>
      </trkpt>
      <trkpt lat="43.60206" lon="3.8948">
        <ele>5.1999998092651</ele>
        <time>2023-05-23T11:25:19.000Z</time>
      </trkpt>
      <trkpt lat="43.60219" lon="3.8947">
        <ele>5.5999999046326</ele>
        <time>2023-05-23T11:25:22.000Z</time>
      </trkpt>
      <trkpt lat="43.60229" lon="3.89461">
        <ele>5.5999999046326</ele>
        <time>2023-05-23T11:25:24.000Z</time>
      </trkpt>
      <trkpt lat="43.60234" lon="3.89458">
        <ele>5.4000000953674</ele>
        <time>2023-05-23T11:25:25.000Z</time>
      </trkpt>
      <trkpt lat="43.6025" lon="3.89456">
        <ele>5.4000000953674</ele>
        <time>2023-05-23T11:25:28.000Z</time>
      </trkpt>
      <trkpt lat="43.6026" lon="3.89455">
        <ele>5.5999999046326</ele>
        <time>2023-05-23T11:25:30.000Z</time>
      </trkpt>
      <trkpt lat="43.60271" lon="3.89456">
        <ele>5.8000001907349</ele>
        <time>2023-05-23T11:25:32.000Z</time>
      </trkpt>
      <trkpt lat="43.60276" lon="3.89457">
        <ele>6</ele>
        <time>2023-05-23T11:25:33.000Z</time>
      </trkpt>
      <trkpt lat="43.60284" lon="3.89457">
        <ele>6</ele>
        <time>2023-05-23T11:25:35.000Z</time>
      </trkpt>
      <trkpt lat="43.60291" lon="3.8946">
        <ele>6</ele>
        <time>2023-05-23T11:25:37.000Z</time>
      </trkpt>
      <trkpt lat="43.60299" lon="3.89461">
        <ele>6.1999998092651</ele>
        <time>2023-05-23T11:25:39.000Z</time>
      </trkpt>
      <trkpt lat="43.60308" lon="3.89464">
        <ele>6.1999998092651</ele>
        <time>2023-05-23T11:25:41.000Z</time>
      </trkpt>
      <trkpt lat="43.60313" lon="3.89465">
        <ele>6.1999998092651</ele>
        <time>2023-05-23T11:25:42.000Z</time>
      </trkpt>
      <trkpt lat="43.60321" lon="3.89469">
        <ele>6.4000000953674</ele>
        <time>2023-05-23T11:25:45.000Z</time>
      </trkpt>
      <trkpt lat="43.60326" lon="3.89472">
        <ele>6.1999998092651</ele>
        <time>2023-05-23T11:25:47.000Z</time>
      </trkpt>
      <trkpt lat="43.60337" lon="3.89477">
        <ele>5.8000001907349</ele>
        <time>2023-05-23T11:25:51.000Z</time>
      </trkpt>
      <trkpt lat="43.60349" lon="3.89482">
        <ele>6</ele>
        <time>2023-05-23T11:25:55.000Z</time>
      </trkpt>
      <trkpt lat="43.60351" lon="3.89482">
        <ele>6</ele>
        <time>2023-05-23T11:25:56.000Z</time>
      </trkpt>
      <trkpt lat="43.60371" lon="3.89482">
        <ele>6</ele>
        <time>2023-05-23T11:26:01.000Z</time>
      </trkpt>
      <trkpt lat="43.6039" lon="3.89479">
        <ele>6.1999998092651</ele>
        <time>2023-05-23T11:26:06.000Z</time>
      </trkpt>
      <trkpt lat="43.60393" lon="3.89479">
        <ele>6.4000000953674</ele>
        <time>2023-05-23T11:26:07.000Z</time>
      </trkpt>
      <trkpt lat="43.60397" lon="3.89479">
        <ele>6.8000001907349</ele>
        <time>2023-05-23T11:26:09.000Z</time>
      </trkpt>
      <trkpt lat="43.604" lon="3.89479">
        <ele>7</ele>
        <time>2023-05-23T11:26:12.000Z</time>
      </trkpt>
      <trkpt lat="43.60401" lon="3.89481">
        <ele>6.5999999046326</ele>
        <time>2023-05-23T11:26:19.000Z</time>
      </trkpt>
      <trkpt lat="43.60403" lon="3.89486">
        <ele>6.5999999046326</ele>
        <time>2023-05-23T11:26:30.000Z</time>
      </trkpt>
      <trkpt lat="43.60407" lon="3.89491">
        <ele>6.1999998092651</ele>
        <time>2023-05-23T11:26:43.000Z</time>
      </trkpt>
      <trkpt lat="43.60412" lon="3.8949">
        <ele>5.5999999046326</ele>
        <time>2023-05-23T11:26:45.000Z</time>
      </trkpt>
      <trkpt lat="43.60419" lon="3.89488">
        <ele>5.1999998092651</ele>
        <time>2023-05-23T11:26:47.000Z</time>
      </trkpt>
      <trkpt lat="43.60442" lon="3.89483">
        <ele>6.1999998092651</ele>
        <time>2023-05-23T11:26:52.000Z</time>
      </trkpt>
      <trkpt lat="43.60446" lon="3.89482">
        <ele>6.5999999046326</ele>
        <time>2023-05-23T11:26:53.000Z</time>
      </trkpt>
      <trkpt lat="43.60452" lon="3.89481">
        <ele>6.5999999046326</ele>
        <time>2023-05-23T11:26:54.000Z</time>
      </trkpt>
      <trkpt lat="43.60472" lon="3.89475">
        <ele>6.5999999046326</ele>
        <time>2023-05-23T11:26:58.000Z</time>
      </trkpt>
      <trkpt lat="43.60478" lon="3.89473">
        <ele>6.5999999046326</ele>
        <time>2023-05-23T11:26:59.000Z</time>
      </trkpt>
      <trkpt lat="43.60496" lon="3.89463">
        <ele>6.8000001907349</ele>
        <time>2023-05-23T11:27:02.000Z</time>
      </trkpt>
      <trkpt lat="43.60509" lon="3.89457">
        <ele>6.8000001907349</ele>
        <time>2023-05-23T11:27:04.000Z</time>
      </trkpt>
      <trkpt lat="43.60529" lon="3.89447">
        <ele>7.1999998092651</ele>
        <time>2023-05-23T11:27:07.000Z</time>
      </trkpt>
      <trkpt lat="43.6055" lon="3.89438">
        <ele>7.4000000953674</ele>
        <time>2023-05-23T11:27:10.000Z</time>
      </trkpt>
      <trkpt lat="43.60556" lon="3.89436">
        <ele>7.4000000953674</ele>
        <time>2023-05-23T11:27:11.000Z</time>
      </trkpt>
      <trkpt lat="43.60574" lon="3.89428">
        <ele>7.5999999046326</ele>
        <time>2023-05-23T11:27:14.000Z</time>
      </trkpt>
      <trkpt lat="43.60592" lon="3.89421">
        <ele>7.4000000953674</ele>
        <time>2023-05-23T11:27:17.000Z</time>
      </trkpt>
      <trkpt lat="43.60609" lon="3.8941">
        <ele>7.4000000953674</ele>
        <time>2023-05-23T11:27:20.000Z</time>
      </trkpt>
      <trkpt lat="43.60619" lon="3.89402">
        <ele>7.5999999046326</ele>
        <time>2023-05-23T11:27:22.000Z</time>
      </trkpt>
      <trkpt lat="43.60625" lon="3.894">
        <ele>7.5999999046326</ele>
        <time>2023-05-23T11:27:23.000Z</time>
      </trkpt>
      <trkpt lat="43.60631" lon="3.89398">
        <ele>7.5999999046326</ele>
        <time>2023-05-23T11:27:24.000Z</time>
      </trkpt>
      <trkpt lat="43.60643" lon="3.89398">
        <ele>7.8000001907349</ele>
        <time>2023-05-23T11:27:26.000Z</time>
      </trkpt>
      <trkpt lat="43.60649" lon="3.89398">
        <ele>7.8000001907349</ele>
        <time>2023-05-23T11:27:27.000Z</time>
      </trkpt>
      <trkpt lat="43.60659" lon="3.89399">
        <ele>7.8000001907349</ele>
        <time>2023-05-23T11:27:29.000Z</time>
      </trkpt>
      <trkpt lat="43.60675" lon="3.89394">
        <ele>8</ele>
        <time>2023-05-23T11:27:32.000Z</time>
      </trkpt>
      <trkpt lat="43.60681" lon="3.89393">
        <ele>8</ele>
        <time>2023-05-23T11:27:33.000Z</time>
      </trkpt>
      <trkpt lat="43.60696" lon="3.89388">
        <ele>8</ele>
        <time>2023-05-23T11:27:36.000Z</time>
      </trkpt>
      <trkpt lat="43.60706" lon="3.89389">
        <ele>8</ele>
        <time>2023-05-23T11:27:38.000Z</time>
      </trkpt>
      <trkpt lat="43.60716" lon="3.89392">
        <ele>8.1999998092651</ele>
        <time>2023-05-23T11:27:40.000Z</time>
      </trkpt>
      <trkpt lat="43.60728" lon="3.89397">
        <ele>8.6000003814697</ele>
        <time>2023-05-23T11:27:43.000Z</time>
      </trkpt>
      <trkpt lat="43.60731" lon="3.89398">
        <ele>8.8000001907349</ele>
        <time>2023-05-23T11:27:44.000Z</time>
      </trkpt>
      <trkpt lat="43.60736" lon="3.89403">
        <ele>9.1999998092651</ele>
        <time>2023-05-23T11:27:47.000Z</time>
      </trkpt>
      <trkpt lat="43.60736" lon="3.89404">
        <ele>9.1999998092651</ele>
        <time>2023-05-23T11:27:48.000Z</time>
      </trkpt>
      <trkpt lat="43.60734" lon="3.89408">
        <ele>8.8000001907349</ele>
        <time>2023-05-23T11:27:55.000Z</time>
      </trkpt>
      <trkpt lat="43.6073" lon="3.89411">
        <ele>8.8000001907349</ele>
        <time>2023-05-23T11:28:05.000Z</time>
      </trkpt>
      <trkpt lat="43.60729" lon="3.89412">
        <ele>8.8000001907349</ele>
        <time>2023-05-23T11:28:15.000Z</time>
      </trkpt>
      <trkpt lat="43.60729" lon="3.89414">
        <ele>8.6000003814697</ele>
        <time>2023-05-23T11:28:24.000Z</time>
      </trkpt>
      <trkpt lat="43.60737" lon="3.89415">
        <ele>8</ele>
        <time>2023-05-23T11:28:29.000Z</time>
      </trkpt>
      <trkpt lat="43.60745" lon="3.89415">
        <ele>7.5999999046326</ele>
        <time>2023-05-23T11:28:31.000Z</time>
      </trkpt>
      <trkpt lat="43.60753" lon="3.89416">
        <ele>7.8000001907349</ele>
        <time>2023-05-23T11:28:33.000Z</time>
      </trkpt>
      <trkpt lat="43.60773" lon="3.89411">
        <ele>8.1999998092651</ele>
        <time>2023-05-23T11:28:38.000Z</time>
      </trkpt>
      <trkpt lat="43.6079" lon="3.89414">
        <ele>8</ele>
        <time>2023-05-23T11:28:43.000Z</time>
      </trkpt>
      <trkpt lat="43.60797" lon="3.89411">
        <ele>8.1999998092651</ele>
        <time>2023-05-23T11:28:46.000Z</time>
      </trkpt>
      <trkpt lat="43.60797" lon="3.89408">
        <ele>8.1999998092651</ele>
        <time>2023-05-23T11:28:47.000Z</time>
      </trkpt>
      <trkpt lat="43.60802" lon="3.89404">
        <ele>8.3999996185303</ele>
        <time>2023-05-23T11:28:51.000Z</time>
      </trkpt>
      <trkpt lat="43.60809" lon="3.89407">
        <ele>8</ele>
        <time>2023-05-23T11:28:55.000Z</time>
      </trkpt>
      <trkpt lat="43.60815" lon="3.89409">
        <ele>7.5999999046326</ele>
        <time>2023-05-23T11:28:58.000Z</time>
      </trkpt>
      <trkpt lat="43.6083" lon="3.89411">
        <ele>7.4000000953674</ele>
        <time>2023-05-23T11:29:03.000Z</time>
      </trkpt>
      <trkpt lat="43.60837" lon="3.89409">
        <ele>7.1999998092651</ele>
        <time>2023-05-23T11:29:05.000Z</time>
      </trkpt>
      <trkpt lat="43.60845" lon="3.894">
        <ele>7.1999998092651</ele>
        <time>2023-05-23T11:29:07.000Z</time>
      </trkpt>
      <trkpt lat="43.60852" lon="3.8938">
        <ele>7.4000000953674</ele>
        <time>2023-05-23T11:29:10.000Z</time>
      </trkpt>
      <trkpt lat="43.60855" lon="3.89353">
        <ele>7.4000000953674</ele>
        <time>2023-05-23T11:29:13.000Z</time>
      </trkpt>
      <trkpt lat="43.60856" lon="3.89344">
        <ele>7.4000000953674</ele>
        <time>2023-05-23T11:29:14.000Z</time>
      </trkpt>
      <trkpt lat="43.60856" lon="3.89318">
        <ele>7.4000000953674</ele>
        <time>2023-05-23T11:29:17.000Z</time>
      </trkpt>
      <trkpt lat="43.60857" lon="3.89299">
        <ele>7.5999999046326</ele>
        <time>2023-05-23T11:29:19.000Z</time>
      </trkpt>
      <trkpt lat="43.60858" lon="3.89269">
        <ele>7.4000000953674</ele>
        <time>2023-05-23T11:29:22.000Z</time>
      </trkpt>
      <trkpt lat="43.6086" lon="3.89248">
        <ele>7.4000000953674</ele>
        <time>2023-05-23T11:29:24.000Z</time>
      </trkpt>
      <trkpt lat="43.60864" lon="3.89219">
        <ele>8.1999998092651</ele>
        <time>2023-05-23T11:29:27.000Z</time>
      </trkpt>
      <trkpt lat="43.60865" lon="3.89201">
        <ele>8.6000003814697</ele>
        <time>2023-05-23T11:29:29.000Z</time>
      </trkpt>
      <trkpt lat="43.60866" lon="3.89192">
        <ele>8.6000003814697</ele>
        <time>2023-05-23T11:29:30.000Z</time>
      </trkpt>
      <trkpt lat="43.60869" lon="3.8916">
        <ele>8.8000001907349</ele>
        <time>2023-05-23T11:29:34.000Z</time>
      </trkpt>
      <trkpt lat="43.6087" lon="3.89155">
        <ele>9</ele>
        <time>2023-05-23T11:29:35.000Z</time>
      </trkpt>
      <trkpt lat="43.60872" lon="3.89125">
        <ele>9.3999996185303</ele>
        <time>2023-05-23T11:29:39.000Z</time>
      </trkpt>
      <trkpt lat="43.60874" lon="3.89101">
        <ele>9.1999998092651</ele>
        <time>2023-05-23T11:29:42.000Z</time>
      </trkpt>
      <trkpt lat="43.60876" lon="3.89077">
        <ele>9.3999996185303</ele>
        <time>2023-05-23T11:29:45.000Z</time>
      </trkpt>
      <trkpt lat="43.60877" lon="3.89062">
        <ele>9.8000001907349</ele>
        <time>2023-05-23T11:29:47.000Z</time>
      </trkpt>
      <trkpt lat="43.60878" lon="3.89056">
        <ele>10.199999809265</ele>
        <time>2023-05-23T11:29:48.000Z</time>
      </trkpt>
      <trkpt lat="43.60879" lon="3.8905">
        <ele>10.39999961853</ele>
        <time>2023-05-23T11:29:49.000Z</time>
      </trkpt>
      <trkpt lat="43.6088" lon="3.89039">
        <ele>10.60000038147</ele>
        <time>2023-05-23T11:29:52.000Z</time>
      </trkpt>
      <trkpt lat="43.6088" lon="3.89038">
        <ele>10.800000190735</ele>
        <time>2023-05-23T11:29:53.000Z</time>
      </trkpt>
      <trkpt lat="43.6088" lon="3.89038">
        <ele>11</ele>
        <time>2023-05-23T11:29:54.000Z</time>
      </trkpt>
      <trkpt lat="43.6088" lon="3.89038">
        <ele>10.800000190735</ele>
        <time>2023-05-23T11:29:59.000Z</time>
      </trkpt>
      <trkpt lat="43.60882" lon="3.89037">
        <ele>10.800000190735</ele>
        <time>2023-05-23T11:30:06.000Z</time>
      </trkpt>
      <trkpt lat="43.60883" lon="3.89035">
        <ele>10.800000190735</ele>
        <time>2023-05-23T11:30:12.000Z</time>
      </trkpt>
      <trkpt lat="43.60883" lon="3.89035">
        <ele>10.800000190735</ele>
        <time>2023-05-23T11:30:18.000Z</time>
      </trkpt>
      <trkpt lat="43.60885" lon="3.89036">
        <ele>10.60000038147</ele>
        <time>2023-05-23T11:30:30.000Z</time>
      </trkpt>
      <trkpt lat="43.60885" lon="3.89031">
        <ele>10</ele>
        <time>2023-05-23T11:30:35.000Z</time>
      </trkpt>
      <trkpt lat="43.60885" lon="3.89029">
        <ele>9.6000003814697</ele>
        <time>2023-05-23T11:30:36.000Z</time>
      </trkpt>
      <trkpt lat="43.60887" lon="3.89014">
        <ele>9.1999998092651</ele>
        <time>2023-05-23T11:30:39.000Z</time>
      </trkpt>
      <trkpt lat="43.60888" lon="3.88984">
        <ele>9.8000001907349</ele>
        <time>2023-05-23T11:30:43.000Z</time>
      </trkpt>
      <trkpt lat="43.6089" lon="3.88961">
        <ele>10.199999809265</ele>
        <time>2023-05-23T11:30:46.000Z</time>
      </trkpt>
      <trkpt lat="43.6089" lon="3.88944">
        <ele>10.60000038147</ele>
        <time>2023-05-23T11:30:48.000Z</time>
      </trkpt>
      <trkpt lat="43.60892" lon="3.88924">
        <ele>10.800000190735</ele>
        <time>2023-05-23T11:30:50.000Z</time>
      </trkpt>
      <trkpt lat="43.60893" lon="3.88899">
        <ele>11.199999809265</ele>
        <time>2023-05-23T11:30:53.000Z</time>
      </trkpt>
      <trkpt lat="43.60894" lon="3.88882">
        <ele>11.39999961853</ele>
        <time>2023-05-23T11:30:55.000Z</time>
      </trkpt>
      <trkpt lat="43.60896" lon="3.88862">
        <ele>11.60000038147</ele>
        <time>2023-05-23T11:30:57.000Z</time>
      </trkpt>
      <trkpt lat="43.60898" lon="3.88833">
        <ele>11.800000190735</ele>
        <time>2023-05-23T11:31:00.000Z</time>
      </trkpt>
      <trkpt lat="43.60899" lon="3.88825">
        <ele>11.800000190735</ele>
        <time>2023-05-23T11:31:01.000Z</time>
      </trkpt>
      <trkpt lat="43.60899" lon="3.88815">
        <ele>12</ele>
        <time>2023-05-23T11:31:02.000Z</time>
      </trkpt>
      <trkpt lat="43.60903" lon="3.88788">
        <ele>12.800000190735</ele>
        <time>2023-05-23T11:31:05.000Z</time>
      </trkpt>
      <trkpt lat="43.60903" lon="3.88781">
        <ele>13</ele>
        <time>2023-05-23T11:31:06.000Z</time>
      </trkpt>
      <trkpt lat="43.60904" lon="3.88774">
        <ele>13</ele>
        <time>2023-05-23T11:31:07.000Z</time>
      </trkpt>
      <trkpt lat="43.60905" lon="3.88761">
        <ele>13.60000038147</ele>
        <time>2023-05-23T11:31:09.000Z</time>
      </trkpt>
      <trkpt lat="43.60906" lon="3.88743">
        <ele>13.60000038147</ele>
        <time>2023-05-23T11:31:12.000Z</time>
      </trkpt>
      <trkpt lat="43.60907" lon="3.88719">
        <ele>13.60000038147</ele>
        <time>2023-05-23T11:31:15.000Z</time>
      </trkpt>
      <trkpt lat="43.60905" lon="3.88711">
        <ele>13.60000038147</ele>
        <time>2023-05-23T11:31:16.000Z</time>
      </trkpt>
      <trkpt lat="43.60891" lon="3.88695">
        <ele>13.39999961853</ele>
        <time>2023-05-23T11:31:19.000Z</time>
      </trkpt>
      <trkpt lat="43.60881" lon="3.88691">
        <ele>13.39999961853</ele>
        <time>2023-05-23T11:31:21.000Z</time>
      </trkpt>
      <trkpt lat="43.60874" lon="3.88688">
        <ele>13.39999961853</ele>
        <time>2023-05-23T11:31:23.000Z</time>
      </trkpt>
      <trkpt lat="43.6087" lon="3.88687">
        <ele>13.60000038147</ele>
        <time>2023-05-23T11:31:26.000Z</time>
      </trkpt>
      <trkpt lat="43.6087" lon="3.88687">
        <ele>13.60000038147</ele>
        <time>2023-05-23T11:31:27.000Z</time>
      </trkpt>
      <trkpt lat="43.60868" lon="3.88688">
        <ele>13</ele>
        <time>2023-05-23T11:31:37.000Z</time>
      </trkpt>
      <trkpt lat="43.60867" lon="3.88691">
        <ele>13</ele>
        <time>2023-05-23T11:31:54.000Z</time>
      </trkpt>
      <trkpt lat="43.60866" lon="3.88693">
        <ele>12.800000190735</ele>
        <time>2023-05-23T11:32:06.000Z</time>
      </trkpt>
      <trkpt lat="43.60861" lon="3.88691">
        <ele>12</ele>
        <time>2023-05-23T11:32:08.000Z</time>
      </trkpt>
      <trkpt lat="43.60853" lon="3.88689">
        <ele>11.199999809265</ele>
        <time>2023-05-23T11:32:10.000Z</time>
      </trkpt>
      <trkpt lat="43.60833" lon="3.88683">
        <ele>11.60000038147</ele>
        <time>2023-05-23T11:32:14.000Z</time>
      </trkpt>
      <trkpt lat="43.60828" lon="3.88682">
        <ele>11.60000038147</ele>
        <time>2023-05-23T11:32:15.000Z</time>
      </trkpt>
      <trkpt lat="43.60805" lon="3.88679">
        <ele>12.199999809265</ele>
        <time>2023-05-23T11:32:19.000Z</time>
      </trkpt>
      <trkpt lat="43.60784" lon="3.88675">
        <ele>12.60000038147</ele>
        <time>2023-05-23T11:32:23.000Z</time>
      </trkpt>
      <trkpt lat="43.60765" lon="3.88669">
        <ele>12.199999809265</ele>
        <time>2023-05-23T11:32:26.000Z</time>
      </trkpt>
      <trkpt lat="43.60759" lon="3.88662">
        <ele>12</ele>
        <time>2023-05-23T11:32:27.000Z</time>
      </trkpt>
      <trkpt lat="43.60752" lon="3.88632">
        <ele>12.60000038147</ele>
        <time>2023-05-23T11:32:30.000Z</time>
      </trkpt>
      <trkpt lat="43.60752" lon="3.88622">
        <ele>13</ele>
        <time>2023-05-23T11:32:31.000Z</time>
      </trkpt>
      <trkpt lat="43.60753" lon="3.88611">
        <ele>13.39999961853</ele>
        <time>2023-05-23T11:32:32.000Z</time>
      </trkpt>
      <trkpt lat="43.60752" lon="3.8859">
        <ele>14.800000190735</ele>
        <time>2023-05-23T11:32:34.000Z</time>
      </trkpt>
      <trkpt lat="43.6075" lon="3.8857">
        <ele>16</ele>
        <time>2023-05-23T11:32:36.000Z</time>
      </trkpt>
      <trkpt lat="43.60748" lon="3.88546">
        <ele>17.200000762939</ele>
        <time>2023-05-23T11:32:38.000Z</time>
      </trkpt>
      <trkpt lat="43.60749" lon="3.88535">
        <ele>17.799999237061</ele>
        <time>2023-05-23T11:32:39.000Z</time>
      </trkpt>
      <trkpt lat="43.60753" lon="3.88515">
        <ele>18.60000038147</ele>
        <time>2023-05-23T11:32:41.000Z</time>
      </trkpt>
      <trkpt lat="43.60757" lon="3.88504">
        <ele>19.200000762939</ele>
        <time>2023-05-23T11:32:42.000Z</time>
      </trkpt>
      <trkpt lat="43.6076" lon="3.88494">
        <ele>19.60000038147</ele>
        <time>2023-05-23T11:32:43.000Z</time>
      </trkpt>
      <trkpt lat="43.60763" lon="3.88485">
        <ele>20.200000762939</ele>
        <time>2023-05-23T11:32:44.000Z</time>
      </trkpt>
      <trkpt lat="43.60771" lon="3.88469">
        <ele>21.200000762939</ele>
        <time>2023-05-23T11:32:46.000Z</time>
      </trkpt>
      <trkpt lat="43.60779" lon="3.88452">
        <ele>22.200000762939</ele>
        <time>2023-05-23T11:32:48.000Z</time>
      </trkpt>
      <trkpt lat="43.60783" lon="3.88445">
        <ele>22.60000038147</ele>
        <time>2023-05-23T11:32:49.000Z</time>
      </trkpt>
      <trkpt lat="43.60795" lon="3.88421">
        <ele>24</ele>
        <time>2023-05-23T11:32:53.000Z</time>
      </trkpt>
      <trkpt lat="43.60806" lon="3.88397">
        <ele>24.39999961853</ele>
        <time>2023-05-23T11:32:57.000Z</time>
      </trkpt>
      <trkpt lat="43.60808" lon="3.88384">
        <ele>24.60000038147</ele>
        <time>2023-05-23T11:32:59.000Z</time>
      </trkpt>
      <trkpt lat="43.60802" lon="3.88363">
        <ele>24.799999237061</ele>
        <time>2023-05-23T11:33:02.000Z</time>
      </trkpt>
      <trkpt lat="43.60786" lon="3.8835">
        <ele>24.39999961853</ele>
        <time>2023-05-23T11:33:05.000Z</time>
      </trkpt>
      <trkpt lat="43.60772" lon="3.88348">
        <ele>24.39999961853</ele>
        <time>2023-05-23T11:33:07.000Z</time>
      </trkpt>
      <trkpt lat="43.60753" lon="3.88344">
        <ele>24.60000038147</ele>
        <time>2023-05-23T11:33:10.000Z</time>
      </trkpt>
      <trkpt lat="43.60732" lon="3.88337">
        <ele>24.799999237061</ele>
        <time>2023-05-23T11:33:14.000Z</time>
      </trkpt>
      <trkpt lat="43.60729" lon="3.88335">
        <ele>25</ele>
        <time>2023-05-23T11:33:15.000Z</time>
      </trkpt>
      <trkpt lat="43.60721" lon="3.88333">
        <ele>25.39999961853</ele>
        <time>2023-05-23T11:33:19.000Z</time>
      </trkpt>
      <trkpt lat="43.60722" lon="3.88333">
        <ele>24.799999237061</ele>
        <time>2023-05-23T11:33:28.000Z</time>
      </trkpt>
      <trkpt lat="43.60717" lon="3.88333">
        <ele>25</ele>
        <time>2023-05-23T11:33:42.000Z</time>
      </trkpt>
      <trkpt lat="43.6071" lon="3.88335">
        <ele>24.200000762939</ele>
        <time>2023-05-23T11:33:46.000Z</time>
      </trkpt>
      <trkpt lat="43.60705" lon="3.88333">
        <ele>23.799999237061</ele>
        <time>2023-05-23T11:33:47.000Z</time>
      </trkpt>
      <trkpt lat="43.60689" lon="3.88325">
        <ele>23.39999961853</ele>
        <time>2023-05-23T11:33:50.000Z</time>
      </trkpt>
      <trkpt lat="43.60666" lon="3.88314">
        <ele>24.60000038147</ele>
        <time>2023-05-23T11:33:54.000Z</time>
      </trkpt>
      <trkpt lat="43.60649" lon="3.88303">
        <ele>24.799999237061</ele>
        <time>2023-05-23T11:33:57.000Z</time>
      </trkpt>
      <trkpt lat="43.60629" lon="3.88288">
        <ele>25</ele>
        <time>2023-05-23T11:34:01.000Z</time>
      </trkpt>
      <trkpt lat="43.60616" lon="3.88278">
        <ele>25.200000762939</ele>
        <time>2023-05-23T11:34:04.000Z</time>
      </trkpt>
      <trkpt lat="43.60604" lon="3.88268">
        <ele>25.200000762939</ele>
        <time>2023-05-23T11:34:08.000Z</time>
      </trkpt>
      <trkpt lat="43.60602" lon="3.88266">
        <ele>25.39999961853</ele>
        <time>2023-05-23T11:34:09.000Z</time>
      </trkpt>
      <trkpt lat="43.60601" lon="3.88265">
        <ele>25.39999961853</ele>
        <time>2023-05-23T11:34:10.000Z</time>
      </trkpt>
      <trkpt lat="43.60596" lon="3.88262">
        <ele>25.200000762939</ele>
        <time>2023-05-23T11:34:14.000Z</time>
      </trkpt>
      <trkpt lat="43.60596" lon="3.88261">
        <ele>24.799999237061</ele>
        <time>2023-05-23T11:34:23.000Z</time>
      </trkpt>
      <trkpt lat="43.6059" lon="3.88256">
        <ele>24.200000762939</ele>
        <time>2023-05-23T11:34:28.000Z</time>
      </trkpt>
      <trkpt lat="43.60576" lon="3.88241">
        <ele>24.200000762939</ele>
        <time>2023-05-23T11:34:35.000Z</time>
      </trkpt>
      <trkpt lat="43.60571" lon="3.88221">
        <ele>24</ele>
        <time>2023-05-23T11:34:40.000Z</time>
      </trkpt>
      <trkpt lat="43.60572" lon="3.88217">
        <ele>24</ele>
        <time>2023-05-23T11:34:41.000Z</time>
      </trkpt>
      <trkpt lat="43.60572" lon="3.88189">
        <ele>23.200000762939</ele>
        <time>2023-05-23T11:34:47.000Z</time>
      </trkpt>
      <trkpt lat="43.60562" lon="3.88167">
        <ele>23</ele>
        <time>2023-05-23T11:34:52.000Z</time>
      </trkpt>
      <trkpt lat="43.60556" lon="3.88158">
        <ele>22.799999237061</ele>
        <time>2023-05-23T11:34:55.000Z</time>
      </trkpt>
      <trkpt lat="43.60551" lon="3.88151">
        <ele>22.39999961853</ele>
        <time>2023-05-23T11:34:58.000Z</time>
      </trkpt>
      <trkpt lat="43.60549" lon="3.88149">
        <ele>21.799999237061</ele>
        <time>2023-05-23T11:35:01.000Z</time>
      </trkpt>
      <trkpt lat="43.60549" lon="3.88149">
        <ele>21.60000038147</ele>
        <time>2023-05-23T11:35:03.000Z</time>
      </trkpt>
      <trkpt lat="43.60545" lon="3.88143">
        <ele>20.200000762939</ele>
        <time>2023-05-23T11:35:07.000Z</time>
      </trkpt>
      <trkpt lat="43.60533" lon="3.88124">
        <ele>19.799999237061</ele>
        <time>2023-05-23T11:35:15.000Z</time>
      </trkpt>
      <trkpt lat="43.60529" lon="3.88118">
        <ele>19</ele>
        <time>2023-05-23T11:35:18.000Z</time>
      </trkpt>
      <trkpt lat="43.60522" lon="3.88108">
        <ele>18.39999961853</ele>
        <time>2023-05-23T11:35:23.000Z</time>
      </trkpt>
      <trkpt lat="43.60513" lon="3.88093">
        <ele>18</ele>
        <time>2023-05-23T11:35:29.000Z</time>
      </trkpt>
      <trkpt lat="43.60512" lon="3.8809">
        <ele>18</ele>
        <time>2023-05-23T11:35:30.000Z</time>
      </trkpt>
      <trkpt lat="43.6051" lon="3.88068">
        <ele>18</ele>
        <time>2023-05-23T11:35:37.000Z</time>
      </trkpt>
      <trkpt lat="43.60518" lon="3.88048">
        <ele>17.799999237061</ele>
        <time>2023-05-23T11:35:43.000Z</time>
      </trkpt>
      <trkpt lat="43.60535" lon="3.88036">
        <ele>17.200000762939</ele>
        <time>2023-05-23T11:35:47.000Z</time>
      </trkpt>
      <trkpt lat="43.60539" lon="3.88034">
        <ele>17</ele>
        <time>2023-05-23T11:35:48.000Z</time>
      </trkpt>
      <trkpt lat="43.60552" lon="3.88028">
        <ele>17.39999961853</ele>
        <time>2023-05-23T11:35:51.000Z</time>
      </trkpt>
      <trkpt lat="43.6056" lon="3.88023">
        <ele>18</ele>
        <time>2023-05-23T11:35:53.000Z</time>
      </trkpt>
      <trkpt lat="43.60566" lon="3.8802">
        <ele>18.39999961853</ele>
        <time>2023-05-23T11:35:55.000Z</time>
      </trkpt>
      <trkpt lat="43.60569" lon="3.8802">
        <ele>18.60000038147</ele>
        <time>2023-05-23T11:35:56.000Z</time>
      </trkpt>
      <trkpt lat="43.60575" lon="3.88017">
        <ele>19</ele>
        <time>2023-05-23T11:35:59.000Z</time>
      </trkpt>
      <trkpt lat="43.60575" lon="3.88017">
        <ele>19.200000762939</ele>
        <time>2023-05-23T11:36:00.000Z</time>
      </trkpt>
      <trkpt lat="43.60574" lon="3.88016">
        <ele>19.39999961853</ele>
        <time>2023-05-23T11:36:04.000Z</time>
      </trkpt>
      <trkpt lat="43.60574" lon="3.88017">
        <ele>19.200000762939</ele>
        <time>2023-05-23T11:36:16.000Z</time>
      </trkpt>
      <trkpt lat="43.60581" lon="3.88014">
        <ele>19.200000762939</ele>
        <time>2023-05-23T11:36:31.000Z</time>
      </trkpt>
      <trkpt lat="43.60585" lon="3.88015">
        <ele>19</ele>
        <time>2023-05-23T11:36:47.000Z</time>
      </trkpt>
      <trkpt lat="43.60596" lon="3.8801">
        <ele>18.200000762939</ele>
        <time>2023-05-23T11:36:51.000Z</time>
      </trkpt>
      <trkpt lat="43.60612" lon="3.88">
        <ele>19.60000038147</ele>
        <time>2023-05-23T11:36:56.000Z</time>
      </trkpt>
      <trkpt lat="43.60632" lon="3.87989">
        <ele>19.60000038147</ele>
        <time>2023-05-23T11:37:00.000Z</time>
      </trkpt>
      <trkpt lat="43.60644" lon="3.87986">
        <ele>20.200000762939</ele>
        <time>2023-05-23T11:37:02.000Z</time>
      </trkpt>
      <trkpt lat="43.60666" lon="3.8798">
        <ele>21</ele>
        <time>2023-05-23T11:37:06.000Z</time>
      </trkpt>
      <trkpt lat="43.60674" lon="3.87978">
        <ele>21.200000762939</ele>
        <time>2023-05-23T11:37:07.000Z</time>
      </trkpt>
      <trkpt lat="43.6068" lon="3.87975">
        <ele>21.39999961853</ele>
        <time>2023-05-23T11:37:08.000Z</time>
      </trkpt>
      <trkpt lat="43.60694" lon="3.87971">
        <ele>21.799999237061</ele>
        <time>2023-05-23T11:37:10.000Z</time>
      </trkpt>
      <trkpt lat="43.60699" lon="3.8797">
        <ele>22</ele>
        <time>2023-05-23T11:37:11.000Z</time>
      </trkpt>
      <trkpt lat="43.60712" lon="3.87966">
        <ele>22.200000762939</ele>
        <time>2023-05-23T11:37:13.000Z</time>
      </trkpt>
      <trkpt lat="43.60729" lon="3.87959">
        <ele>22.799999237061</ele>
        <time>2023-05-23T11:37:16.000Z</time>
      </trkpt>
      <trkpt lat="43.60745" lon="3.87952">
        <ele>23.60000038147</ele>
        <time>2023-05-23T11:37:19.000Z</time>
      </trkpt>
      <trkpt lat="43.60754" lon="3.8795">
        <ele>23.799999237061</ele>
        <time>2023-05-23T11:37:21.000Z</time>
      </trkpt>
      <trkpt lat="43.60759" lon="3.87949">
        <ele>24</ele>
        <time>2023-05-23T11:37:22.000Z</time>
      </trkpt>
      <trkpt lat="43.60776" lon="3.87942">
        <ele>24.200000762939</ele>
        <time>2023-05-23T11:37:26.000Z</time>
      </trkpt>
      <trkpt lat="43.60785" lon="3.8794">
        <ele>24.39999961853</ele>
        <time>2023-05-23T11:37:28.000Z</time>
      </trkpt>
      <trkpt lat="43.60789" lon="3.87939">
        <ele>24.60000038147</ele>
        <time>2023-05-23T11:37:29.000Z</time>
      </trkpt>
      <trkpt lat="43.60793" lon="3.87939">
        <ele>24.60000038147</ele>
        <time>2023-05-23T11:37:30.000Z</time>
      </trkpt>
      <trkpt lat="43.60807" lon="3.8794">
        <ele>24.60000038147</ele>
        <time>2023-05-23T11:37:33.000Z</time>
      </trkpt>
      <trkpt lat="43.60817" lon="3.87948">
        <ele>25</ele>
        <time>2023-05-23T11:37:36.000Z</time>
      </trkpt>
      <trkpt lat="43.6082" lon="3.87951">
        <ele>25.200000762939</ele>
        <time>2023-05-23T11:37:37.000Z</time>
      </trkpt>
      <trkpt lat="43.60825" lon="3.87955">
        <ele>25.60000038147</ele>
        <time>2023-05-23T11:37:39.000Z</time>
      </trkpt>
      <trkpt lat="43.60829" lon="3.87959">
        <ele>26</ele>
        <time>2023-05-23T11:37:42.000Z</time>
      </trkpt>
      <trkpt lat="43.60829" lon="3.87958">
        <ele>26</ele>
        <time>2023-05-23T11:37:50.000Z</time>
      </trkpt>
      <trkpt lat="43.60829" lon="3.87959">
        <ele>26</ele>
        <time>2023-05-23T11:38:06.000Z</time>
      </trkpt>
      <trkpt lat="43.6084" lon="3.87964">
        <ele>25.799999237061</ele>
        <time>2023-05-23T11:38:24.000Z</time>
      </trkpt>
      <trkpt lat="43.60847" lon="3.87978">
        <ele>24.799999237061</ele>
        <time>2023-05-23T11:38:28.000Z</time>
      </trkpt>
      <trkpt lat="43.60863" lon="3.88">
        <ele>25.39999961853</ele>
        <time>2023-05-23T11:38:33.000Z</time>
      </trkpt>
      <trkpt lat="43.6087" lon="3.88011">
        <ele>25.60000038147</ele>
        <time>2023-05-23T11:38:35.000Z</time>
      </trkpt>
      <trkpt lat="43.60882" lon="3.88031">
        <ele>25.200000762939</ele>
        <time>2023-05-23T11:38:38.000Z</time>
      </trkpt>
      <trkpt lat="43.60892" lon="3.88053">
        <ele>25.39999961853</ele>
        <time>2023-05-23T11:38:41.000Z</time>
      </trkpt>
      <trkpt lat="43.60903" lon="3.88079">
        <ele>25.60000038147</ele>
        <time>2023-05-23T11:38:44.000Z</time>
      </trkpt>
      <trkpt lat="43.60914" lon="3.88103">
        <ele>25.60000038147</ele>
        <time>2023-05-23T11:38:47.000Z</time>
      </trkpt>
      <trkpt lat="43.60918" lon="3.88112">
        <ele>25.200000762939</ele>
        <time>2023-05-23T11:38:48.000Z</time>
      </trkpt>
      <trkpt lat="43.60933" lon="3.88135">
        <ele>24.200000762939</ele>
        <time>2023-05-23T11:38:51.000Z</time>
      </trkpt>
      <trkpt lat="43.60953" lon="3.88165">
        <ele>22</ele>
        <time>2023-05-23T11:38:55.000Z</time>
      </trkpt>
      <trkpt lat="43.61259" lon="3.88266">
        <ele>19.799999237061</ele>
        <time>2023-05-23T11:39:39.000Z</time>
      </trkpt>
      <trkpt lat="43.61266" lon="3.88262">
        <ele>19.799999237061</ele>
        <time>2023-05-23T11:39:40.000Z</time>
      </trkpt>
      <trkpt lat="43.61284" lon="3.88261">
        <ele>20.200000762939</ele>
        <time>2023-05-23T11:39:43.000Z</time>
      </trkpt>
      <trkpt lat="43.6129" lon="3.88261">
        <ele>20.200000762939</ele>
        <time>2023-05-23T11:39:44.000Z</time>
      </trkpt>
      <trkpt lat="43.61305" lon="3.8826">
        <ele>20.799999237061</ele>
        <time>2023-05-23T11:39:47.000Z</time>
      </trkpt>
      <trkpt lat="43.61327" lon="3.8826">
        <ele>21.39999961853</ele>
        <time>2023-05-23T11:39:51.000Z</time>
      </trkpt>
      <trkpt lat="43.61347" lon="3.88261">
        <ele>20.60000038147</ele>
        <time>2023-05-23T11:39:55.000Z</time>
      </trkpt>
      <trkpt lat="43.61354" lon="3.88262">
        <ele>20.200000762939</ele>
        <time>2023-05-23T11:39:57.000Z</time>
      </trkpt>
      <trkpt lat="43.61358" lon="3.88263">
        <ele>20</ele>
        <time>2023-05-23T11:39:58.000Z</time>
      </trkpt>
      <trkpt lat="43.61362" lon="3.88264">
        <ele>19.60000038147</ele>
        <time>2023-05-23T11:39:59.000Z</time>
      </trkpt>
      <trkpt lat="43.61369" lon="3.88266">
        <ele>18.799999237061</ele>
        <time>2023-05-23T11:40:01.000Z</time>
      </trkpt>
      <trkpt lat="43.61372" lon="3.88267">
        <ele>18.60000038147</ele>
        <time>2023-05-23T11:40:02.000Z</time>
      </trkpt>
      <trkpt lat="43.61375" lon="3.88268">
        <ele>18.200000762939</ele>
        <time>2023-05-23T11:40:03.000Z</time>
      </trkpt>
      <trkpt lat="43.61382" lon="3.88271">
        <ele>17.39999961853</ele>
        <time>2023-05-23T11:40:06.000Z</time>
      </trkpt>
      <trkpt lat="43.61386" lon="3.88271">
        <ele>17</ele>
        <time>2023-05-23T11:40:08.000Z</time>
      </trkpt>
      <trkpt lat="43.61387" lon="3.88272">
        <ele>16.39999961853</ele>
        <time>2023-05-23T11:40:14.000Z</time>
      </trkpt>
      <trkpt lat="43.61394" lon="3.88273">
        <ele>15.199999809265</ele>
        <time>2023-05-23T11:40:21.000Z</time>
      </trkpt>
      <trkpt lat="43.61414" lon="3.88275">
        <ele>14.800000190735</ele>
        <time>2023-05-23T11:40:29.000Z</time>
      </trkpt>
      <trkpt lat="43.61422" lon="3.88277">
        <ele>14</ele>
        <time>2023-05-23T11:40:33.000Z</time>
      </trkpt>
      <trkpt lat="43.61431" lon="3.88274">
        <ele>13.39999961853</ele>
        <time>2023-05-23T11:40:37.000Z</time>
      </trkpt>
      <trkpt lat="43.61441" lon="3.88261">
        <ele>13.199999809265</ele>
        <time>2023-05-23T11:40:44.000Z</time>
      </trkpt>
      <trkpt lat="43.61442" lon="3.88242">
        <ele>13.199999809265</ele>
        <time>2023-05-23T11:40:50.000Z</time>
      </trkpt>
      <trkpt lat="43.61433" lon="3.88216">
        <ele>13.199999809265</ele>
        <time>2023-05-23T11:40:57.000Z</time>
      </trkpt>
      <trkpt lat="43.61431" lon="3.88211">
        <ele>13</ele>
        <time>2023-05-23T11:40:58.000Z</time>
      </trkpt>
      <trkpt lat="43.61421" lon="3.88189">
        <ele>13</ele>
        <time>2023-05-23T11:41:03.000Z</time>
      </trkpt>
      <trkpt lat="43.61419" lon="3.88186">
        <ele>13.199999809265</ele>
        <time>2023-05-23T11:41:04.000Z</time>
      </trkpt>
      <trkpt lat="43.61416" lon="3.88181">
        <ele>13.60000038147</ele>
        <time>2023-05-23T11:41:08.000Z</time>
      </trkpt>
      <trkpt lat="43.61416" lon="3.88183">
        <ele>13.39999961853</ele>
        <time>2023-05-23T11:41:21.000Z</time>
      </trkpt>
      <trkpt lat="43.61418" lon="3.88184">
        <ele>13.199999809265</ele>
        <time>2023-05-23T11:41:34.000Z</time>
      </trkpt>
      <trkpt lat="43.61412" lon="3.88176">
        <ele>12</ele>
        <time>2023-05-23T11:41:38.000Z</time>
      </trkpt>
      <trkpt lat="43.61409" lon="3.88174">
        <ele>11.60000038147</ele>
        <time>2023-05-23T11:41:39.000Z</time>
      </trkpt>
      <trkpt lat="43.61397" lon="3.88158">
        <ele>12.800000190735</ele>
        <time>2023-05-23T11:41:44.000Z</time>
      </trkpt>
      <trkpt lat="43.61395" lon="3.88151">
        <ele>13</ele>
        <time>2023-05-23T11:41:45.000Z</time>
      </trkpt>
      <trkpt lat="43.61394" lon="3.88127">
        <ele>13.800000190735</ele>
        <time>2023-05-23T11:41:48.000Z</time>
      </trkpt>
      <trkpt lat="43.61394" lon="3.88119">
        <ele>14.39999961853</ele>
        <time>2023-05-23T11:41:49.000Z</time>
      </trkpt>
      <trkpt lat="43.61399" lon="3.88093">
        <ele>15.60000038147</ele>
        <time>2023-05-23T11:41:52.000Z</time>
      </trkpt>
      <trkpt lat="43.61412" lon="3.88069">
        <ele>16.200000762939</ele>
        <time>2023-05-23T11:41:55.000Z</time>
      </trkpt>
      <trkpt lat="43.61417" lon="3.88062">
        <ele>16.39999961853</ele>
        <time>2023-05-23T11:41:56.000Z</time>
      </trkpt>
      <trkpt lat="43.61422" lon="3.88055">
        <ele>16.60000038147</ele>
        <time>2023-05-23T11:41:57.000Z</time>
      </trkpt>
      <trkpt lat="43.61437" lon="3.88037">
        <ele>17</ele>
        <time>2023-05-23T11:42:00.000Z</time>
      </trkpt>
      <trkpt lat="43.6144" lon="3.8803">
        <ele>17</ele>
        <time>2023-05-23T11:42:01.000Z</time>
      </trkpt>
      <trkpt lat="43.61449" lon="3.88007">
        <ele>16.60000038147</ele>
        <time>2023-05-23T11:42:04.000Z</time>
      </trkpt>
      <trkpt lat="43.61452" lon="3.87999">
        <ele>16.60000038147</ele>
        <time>2023-05-23T11:42:05.000Z</time>
      </trkpt>
      <trkpt lat="43.61455" lon="3.87991">
        <ele>16.60000038147</ele>
        <time>2023-05-23T11:42:06.000Z</time>
      </trkpt>
      <trkpt lat="43.61457" lon="3.87973">
        <ele>16.799999237061</ele>
        <time>2023-05-23T11:42:08.000Z</time>
      </trkpt>
      <trkpt lat="43.61458" lon="3.87953">
        <ele>16.60000038147</ele>
        <time>2023-05-23T11:42:10.000Z</time>
      </trkpt>
      <trkpt lat="43.6146" lon="3.87925">
        <ele>16.39999961853</ele>
        <time>2023-05-23T11:42:13.000Z</time>
      </trkpt>
      <trkpt lat="43.61461" lon="3.87909">
        <ele>16.200000762939</ele>
        <time>2023-05-23T11:42:15.000Z</time>
      </trkpt>
      <trkpt lat="43.61463" lon="3.87877">
        <ele>15.800000190735</ele>
        <time>2023-05-23T11:42:19.000Z</time>
      </trkpt>
      <trkpt lat="43.61463" lon="3.8787">
        <ele>15.800000190735</ele>
        <time>2023-05-23T11:42:20.000Z</time>
      </trkpt>
      <trkpt lat="43.61464" lon="3.87851">
        <ele>15.60000038147</ele>
        <time>2023-05-23T11:42:23.000Z</time>
      </trkpt>
      <trkpt lat="43.61464" lon="3.87845">
        <ele>15.60000038147</ele>
        <time>2023-05-23T11:42:24.000Z</time>
      </trkpt>
      <trkpt lat="43.61464" lon="3.87841">
        <ele>15.60000038147</ele>
        <time>2023-05-23T11:42:25.000Z</time>
      </trkpt>
      <trkpt lat="43.61464" lon="3.87838">
        <ele>15.60000038147</ele>
        <time>2023-05-23T11:42:26.000Z</time>
      </trkpt>
      <trkpt lat="43.61465" lon="3.87834">
        <ele>15.800000190735</ele>
        <time>2023-05-23T11:42:29.000Z</time>
      </trkpt>
      <trkpt lat="43.61464" lon="3.87834">
        <ele>15.60000038147</ele>
        <time>2023-05-23T11:42:36.000Z</time>
      </trkpt>
      <trkpt lat="43.61463" lon="3.87835">
        <ele>15.60000038147</ele>
        <time>2023-05-23T11:42:52.000Z</time>
      </trkpt>
      <trkpt lat="43.61465" lon="3.87817">
        <ele>14.800000190735</ele>
        <time>2023-05-23T11:42:58.000Z</time>
      </trkpt>
      <trkpt lat="43.61465" lon="3.87814">
        <ele>14.60000038147</ele>
        <time>2023-05-23T11:42:59.000Z</time>
      </trkpt>
      <trkpt lat="43.61467" lon="3.87791">
        <ele>14.199999809265</ele>
        <time>2023-05-23T11:43:03.000Z</time>
      </trkpt>
      <trkpt lat="43.61469" lon="3.87761">
        <ele>14.39999961853</ele>
        <time>2023-05-23T11:43:07.000Z</time>
      </trkpt>
      <trkpt lat="43.61473" lon="3.87734">
        <ele>14.800000190735</ele>
        <time>2023-05-23T11:43:10.000Z</time>
      </trkpt>
      <trkpt lat="43.61477" lon="3.87716">
        <ele>14.800000190735</ele>
        <time>2023-05-23T11:43:12.000Z</time>
      </trkpt>
      <trkpt lat="43.61483" lon="3.87685">
        <ele>14.60000038147</ele>
        <time>2023-05-23T11:43:15.000Z</time>
      </trkpt>
      <trkpt lat="43.61488" lon="3.87666">
        <ele>14.800000190735</ele>
        <time>2023-05-23T11:43:17.000Z</time>
      </trkpt>
      <trkpt lat="43.61494" lon="3.87636">
        <ele>15.199999809265</ele>
        <time>2023-05-23T11:43:20.000Z</time>
      </trkpt>
      <trkpt lat="43.615" lon="3.87609">
        <ele>15.60000038147</ele>
        <time>2023-05-23T11:43:23.000Z</time>
      </trkpt>
      <trkpt lat="43.61505" lon="3.87584">
        <ele>16</ele>
        <time>2023-05-23T11:43:26.000Z</time>
      </trkpt>
      <trkpt lat="43.61506" lon="3.87578">
        <ele>16</ele>
        <time>2023-05-23T11:43:27.000Z</time>
      </trkpt>
      <trkpt lat="43.61509" lon="3.87561">
        <ele>16.60000038147</ele>
        <time>2023-05-23T11:43:31.000Z</time>
      </trkpt>
      <trkpt lat="43.61509" lon="3.8756">
        <ele>16.799999237061</ele>
        <time>2023-05-23T11:43:33.000Z</time>
      </trkpt>
      <trkpt lat="43.61509" lon="3.8756">
        <ele>17</ele>
        <time>2023-05-23T11:43:35.000Z</time>
      </trkpt>
      <trkpt lat="43.6151" lon="3.87557">
        <ele>16.200000762939</ele>
        <time>2023-05-23T11:43:38.000Z</time>
      </trkpt>
      <trkpt lat="43.61511" lon="3.87554">
        <ele>15.800000190735</ele>
        <time>2023-05-23T11:43:39.000Z</time>
      </trkpt>
      <trkpt lat="43.61512" lon="3.87551">
        <ele>15.39999961853</ele>
        <time>2023-05-23T11:43:40.000Z</time>
      </trkpt>
      <trkpt lat="43.61515" lon="3.87532">
        <ele>15.39999961853</ele>
        <time>2023-05-23T11:43:45.000Z</time>
      </trkpt>
      <trkpt lat="43.61515" lon="3.87527">
        <ele>15.60000038147</ele>
        <time>2023-05-23T11:43:46.000Z</time>
      </trkpt>
      <trkpt lat="43.61516" lon="3.87519">
        <ele>15.800000190735</ele>
        <time>2023-05-23T11:43:48.000Z</time>
      </trkpt>
      <trkpt lat="43.61518" lon="3.87513">
        <ele>16.200000762939</ele>
        <time>2023-05-23T11:43:50.000Z</time>
      </trkpt>
      <trkpt lat="43.6152" lon="3.87506">
        <ele>16.200000762939</ele>
        <time>2023-05-23T11:43:52.000Z</time>
      </trkpt>
      <trkpt lat="43.61527" lon="3.87482">
        <ele>16.60000038147</ele>
        <time>2023-05-23T11:43:58.000Z</time>
      </trkpt>
      <trkpt lat="43.61538" lon="3.87461">
        <ele>16.799999237061</ele>
        <time>2023-05-23T11:44:04.000Z</time>
      </trkpt>
      <trkpt lat="43.6154" lon="3.87459">
        <ele>16.799999237061</ele>
        <time>2023-05-23T11:44:05.000Z</time>
      </trkpt>
      <trkpt lat="43.61549" lon="3.87449">
        <ele>17</ele>
        <time>2023-05-23T11:44:09.000Z</time>
      </trkpt>
      <trkpt lat="43.61552" lon="3.87448">
        <ele>17</ele>
        <time>2023-05-23T11:44:10.000Z</time>
      </trkpt>
      <trkpt lat="43.61563" lon="3.87447">
        <ele>17.200000762939</ele>
        <time>2023-05-23T11:44:14.000Z</time>
      </trkpt>
      <trkpt lat="43.61566" lon="3.87447">
        <ele>17.200000762939</ele>
        <time>2023-05-23T11:44:15.000Z</time>
      </trkpt>
      <trkpt lat="43.61586" lon="3.87449">
        <ele>17.39999961853</ele>
        <time>2023-05-23T11:44:22.000Z</time>
      </trkpt>
      <trkpt lat="43.61606" lon="3.87453">
        <ele>17.799999237061</ele>
        <time>2023-05-23T11:44:29.000Z</time>
      </trkpt>
      <trkpt lat="43.61609" lon="3.87452">
        <ele>17.799999237061</ele>
        <time>2023-05-23T11:44:30.000Z</time>
      </trkpt>
      <trkpt lat="43.61623" lon="3.87441">
        <ele>17.200000762939</ele>
        <time>2023-05-23T11:44:35.000Z</time>
      </trkpt>
      <trkpt lat="43.61634" lon="3.87428">
        <ele>18</ele>
        <time>2023-05-23T11:44:40.000Z</time>
      </trkpt>
      <trkpt lat="43.61637" lon="3.87425">
        <ele>18.60000038147</ele>
        <time>2023-05-23T11:44:45.000Z</time>
      </trkpt>
      <trkpt lat="43.61639" lon="3.87425">
        <ele>18</ele>
        <time>2023-05-23T11:44:58.000Z</time>
      </trkpt>
      <trkpt lat="43.6164" lon="3.87428">
        <ele>18</ele>
        <time>2023-05-23T11:45:11.000Z</time>
      </trkpt>
      <trkpt lat="43.61645" lon="3.8742">
        <ele>16.799999237061</ele>
        <time>2023-05-23T11:45:16.000Z</time>
      </trkpt>
      <trkpt lat="43.61647" lon="3.87416">
        <ele>16.60000038147</ele>
        <time>2023-05-23T11:45:17.000Z</time>
      </trkpt>
      <trkpt lat="43.61659" lon="3.87398">
        <ele>17</ele>
        <time>2023-05-23T11:45:21.000Z</time>
      </trkpt>
      <trkpt lat="43.61667" lon="3.87387">
        <ele>17.799999237061</ele>
        <time>2023-05-23T11:45:24.000Z</time>
      </trkpt>
      <trkpt lat="43.61669" lon="3.87383">
        <ele>18.200000762939</ele>
        <time>2023-05-23T11:45:26.000Z</time>
      </trkpt>
      <trkpt lat="43.61674" lon="3.87372">
        <ele>17.799999237061</ele>
        <time>2023-05-23T11:45:30.000Z</time>
      </trkpt>
      <trkpt lat="43.61682" lon="3.87352">
        <ele>16.39999961853</ele>
        <time>2023-05-23T11:45:33.000Z</time>
      </trkpt>
      <trkpt lat="43.61691" lon="3.87323">
        <ele>16.39999961853</ele>
        <time>2023-05-23T11:45:36.000Z</time>
      </trkpt>
      <trkpt lat="43.61696" lon="3.87304">
        <ele>16.799999237061</ele>
        <time>2023-05-23T11:45:38.000Z</time>
      </trkpt>
      <trkpt lat="43.61704" lon="3.87276">
        <ele>17.60000038147</ele>
        <time>2023-05-23T11:45:41.000Z</time>
      </trkpt>
      <trkpt lat="43.61713" lon="3.87248">
        <ele>18</ele>
        <time>2023-05-23T11:45:44.000Z</time>
      </trkpt>
      <trkpt lat="43.61716" lon="3.87239">
        <ele>18</ele>
        <time>2023-05-23T11:45:45.000Z</time>
      </trkpt>
      <trkpt lat="43.61725" lon="3.87208">
        <ele>18</ele>
        <time>2023-05-23T11:45:48.000Z</time>
      </trkpt>
      <trkpt lat="43.61736" lon="3.87179">
        <ele>18.39999961853</ele>
        <time>2023-05-23T11:45:51.000Z</time>
      </trkpt>
      <trkpt lat="43.6174" lon="3.87171">
        <ele>18.799999237061</ele>
        <time>2023-05-23T11:45:52.000Z</time>
      </trkpt>
      <trkpt lat="43.61749" lon="3.87142">
        <ele>19</ele>
        <time>2023-05-23T11:45:55.000Z</time>
      </trkpt>
      <trkpt lat="43.61751" lon="3.87132">
        <ele>18.799999237061</ele>
        <time>2023-05-23T11:45:56.000Z</time>
      </trkpt>
      <trkpt lat="43.6175" lon="3.871">
        <ele>18.60000038147</ele>
        <time>2023-05-23T11:45:59.000Z</time>
      </trkpt>
      <trkpt lat="43.61748" lon="3.87089">
        <ele>18.60000038147</ele>
        <time>2023-05-23T11:46:00.000Z</time>
      </trkpt>
      <trkpt lat="43.61744" lon="3.87061">
        <ele>19</ele>
        <time>2023-05-23T11:46:03.000Z</time>
      </trkpt>
      <trkpt lat="43.61742" lon="3.87043">
        <ele>19.200000762939</ele>
        <time>2023-05-23T11:46:05.000Z</time>
      </trkpt>
      <trkpt lat="43.61742" lon="3.87033">
        <ele>19.39999961853</ele>
        <time>2023-05-23T11:46:06.000Z</time>
      </trkpt>
      <trkpt lat="43.61747" lon="3.87007">
        <ele>19.60000038147</ele>
        <time>2023-05-23T11:46:09.000Z</time>
      </trkpt>
      <trkpt lat="43.6175" lon="3.86999">
        <ele>19.60000038147</ele>
        <time>2023-05-23T11:46:10.000Z</time>
      </trkpt>
      <trkpt lat="43.61752" lon="3.86991">
        <ele>19.799999237061</ele>
        <time>2023-05-23T11:46:11.000Z</time>
      </trkpt>
      <trkpt lat="43.6176" lon="3.86974">
        <ele>19.799999237061</ele>
        <time>2023-05-23T11:46:13.000Z</time>
      </trkpt>
      <trkpt lat="43.61772" lon="3.86959">
        <ele>19.799999237061</ele>
        <time>2023-05-23T11:46:15.000Z</time>
      </trkpt>
      <trkpt lat="43.61794" lon="3.86948">
        <ele>19.799999237061</ele>
        <time>2023-05-23T11:46:18.000Z</time>
      </trkpt>
      <trkpt lat="43.61811" lon="3.86947">
        <ele>19.799999237061</ele>
        <time>2023-05-23T11:46:20.000Z</time>
      </trkpt>
      <trkpt lat="43.61834" lon="3.86947">
        <ele>20</ele>
        <time>2023-05-23T11:46:23.000Z</time>
      </trkpt>
      <trkpt lat="43.61854" lon="3.86946">
        <ele>20.799999237061</ele>
        <time>2023-05-23T11:46:26.000Z</time>
      </trkpt>
      <trkpt lat="43.6186" lon="3.86946">
        <ele>20.799999237061</ele>
        <time>2023-05-23T11:46:27.000Z</time>
      </trkpt>
      <trkpt lat="43.61865" lon="3.86945">
        <ele>21</ele>
        <time>2023-05-23T11:46:28.000Z</time>
      </trkpt>
      <trkpt lat="43.6188" lon="3.86944">
        <ele>21.39999961853</ele>
        <time>2023-05-23T11:46:32.000Z</time>
      </trkpt>
      <trkpt lat="43.61882" lon="3.86944">
        <ele>21.60000038147</ele>
        <time>2023-05-23T11:46:33.000Z</time>
      </trkpt>
      <trkpt lat="43.61883" lon="3.86945">
        <ele>21.799999237061</ele>
        <time>2023-05-23T11:46:36.000Z</time>
      </trkpt>
      <trkpt lat="43.61883" lon="3.86945">
        <ele>21.39999961853</ele>
        <time>2023-05-23T11:46:47.000Z</time>
      </trkpt>
      <trkpt lat="43.61884" lon="3.86947">
        <ele>21</ele>
        <time>2023-05-23T11:46:58.000Z</time>
      </trkpt>
      <trkpt lat="43.61886" lon="3.86947">
        <ele>20.60000038147</ele>
        <time>2023-05-23T11:46:59.000Z</time>
      </trkpt>
      <trkpt lat="43.61896" lon="3.86946">
        <ele>19.799999237061</ele>
        <time>2023-05-23T11:47:02.000Z</time>
      </trkpt>
      <trkpt lat="43.61915" lon="3.86946">
        <ele>20.39999961853</ele>
        <time>2023-05-23T11:47:06.000Z</time>
      </trkpt>
      <trkpt lat="43.61921" lon="3.86946">
        <ele>20.60000038147</ele>
        <time>2023-05-23T11:47:07.000Z</time>
      </trkpt>
      <trkpt lat="43.61939" lon="3.86943">
        <ele>20.799999237061</ele>
        <time>2023-05-23T11:47:10.000Z</time>
      </trkpt>
      <trkpt lat="43.61953" lon="3.8694">
        <ele>21</ele>
        <time>2023-05-23T11:47:12.000Z</time>
      </trkpt>
      <trkpt lat="43.61974" lon="3.86932">
        <ele>21.39999961853</ele>
        <time>2023-05-23T11:47:15.000Z</time>
      </trkpt>
      <trkpt lat="43.6198" lon="3.86929">
        <ele>21.60000038147</ele>
        <time>2023-05-23T11:47:16.000Z</time>
      </trkpt>
      <trkpt lat="43.61987" lon="3.86926">
        <ele>22</ele>
        <time>2023-05-23T11:47:17.000Z</time>
      </trkpt>
      <trkpt lat="43.62007" lon="3.86916">
        <ele>22.200000762939</ele>
        <time>2023-05-23T11:47:20.000Z</time>
      </trkpt>
      <trkpt lat="43.62031" lon="3.86906">
        <ele>22</ele>
        <time>2023-05-23T11:47:23.000Z</time>
      </trkpt>
      <trkpt lat="43.62048" lon="3.86898">
        <ele>22</ele>
        <time>2023-05-23T11:47:25.000Z</time>
      </trkpt>
      <trkpt lat="43.62073" lon="3.86887">
        <ele>22.60000038147</ele>
        <time>2023-05-23T11:47:28.000Z</time>
      </trkpt>
      <trkpt lat="43.62082" lon="3.86882">
        <ele>22.799999237061</ele>
        <time>2023-05-23T11:47:29.000Z</time>
      </trkpt>
      <trkpt lat="43.62106" lon="3.86871">
        <ele>23.39999961853</ele>
        <time>2023-05-23T11:47:32.000Z</time>
      </trkpt>
      <trkpt lat="43.62121" lon="3.86864">
        <ele>24</ele>
        <time>2023-05-23T11:47:34.000Z</time>
      </trkpt>
      <trkpt lat="43.62145" lon="3.86853">
        <ele>24.39999961853</ele>
        <time>2023-05-23T11:47:37.000Z</time>
      </trkpt>
      <trkpt lat="43.62169" lon="3.86842">
        <ele>24.60000038147</ele>
        <time>2023-05-23T11:47:40.000Z</time>
      </trkpt>
      <trkpt lat="43.62191" lon="3.86832">
        <ele>25</ele>
        <time>2023-05-23T11:47:43.000Z</time>
      </trkpt>
      <trkpt lat="43.62211" lon="3.86823">
        <ele>25.60000038147</ele>
        <time>2023-05-23T11:47:46.000Z</time>
      </trkpt>
      <trkpt lat="43.62231" lon="3.86814">
        <ele>26</ele>
        <time>2023-05-23T11:47:50.000Z</time>
      </trkpt>
      <trkpt lat="43.62235" lon="3.86812">
        <ele>26</ele>
        <time>2023-05-23T11:47:51.000Z</time>
      </trkpt>
      <trkpt lat="43.62238" lon="3.86811">
        <ele>26.200000762939</ele>
        <time>2023-05-23T11:47:52.000Z</time>
      </trkpt>
      <trkpt lat="43.62241" lon="3.86811">
        <ele>26.60000038147</ele>
        <time>2023-05-23T11:47:54.000Z</time>
      </trkpt>
      <trkpt lat="43.62241" lon="3.86811">
        <ele>26.799999237061</ele>
        <time>2023-05-23T11:47:59.000Z</time>
      </trkpt>
      <trkpt lat="43.62243" lon="3.86815">
        <ele>26.39999961853</ele>
        <time>2023-05-23T11:48:10.000Z</time>
      </trkpt>
      <trkpt lat="43.62243" lon="3.86818">
        <ele>26.39999961853</ele>
        <time>2023-05-23T11:48:16.000Z</time>
      </trkpt>
      <trkpt lat="43.62248" lon="3.86815">
        <ele>26</ele>
        <time>2023-05-23T11:48:25.000Z</time>
      </trkpt>
      <trkpt lat="43.62263" lon="3.86808">
        <ele>25</ele>
        <time>2023-05-23T11:48:28.000Z</time>
      </trkpt>
      <trkpt lat="43.6227" lon="3.86805">
        <ele>24.60000038147</ele>
        <time>2023-05-23T11:48:29.000Z</time>
      </trkpt>
      <trkpt lat="43.62292" lon="3.86795">
        <ele>25</ele>
        <time>2023-05-23T11:48:32.000Z</time>
      </trkpt>
      <trkpt lat="43.62299" lon="3.86791">
        <ele>25.39999961853</ele>
        <time>2023-05-23T11:48:33.000Z</time>
      </trkpt>
      <trkpt lat="43.62318" lon="3.86783">
        <ele>25.799999237061</ele>
        <time>2023-05-23T11:48:35.000Z</time>
      </trkpt>
      <trkpt lat="43.62326" lon="3.86779">
        <ele>26</ele>
        <time>2023-05-23T11:48:36.000Z</time>
      </trkpt>
      <trkpt lat="43.62334" lon="3.86775">
        <ele>26.200000762939</ele>
        <time>2023-05-23T11:48:37.000Z</time>
      </trkpt>
      <trkpt lat="43.62353" lon="3.86767">
        <ele>26.60000038147</ele>
        <time>2023-05-23T11:48:39.000Z</time>
      </trkpt>
      <trkpt lat="43.62377" lon="3.86756">
        <ele>27</ele>
        <time>2023-05-23T11:48:42.000Z</time>
      </trkpt>
      <trkpt lat="43.62385" lon="3.86752">
        <ele>27.200000762939</ele>
        <time>2023-05-23T11:48:43.000Z</time>
      </trkpt>
      <trkpt lat="43.62403" lon="3.86743">
        <ele>27.200000762939</ele>
        <time>2023-05-23T11:48:45.000Z</time>
      </trkpt>
      <trkpt lat="43.62426" lon="3.86732">
        <ele>27.60000038147</ele>
        <time>2023-05-23T11:48:48.000Z</time>
      </trkpt>
      <trkpt lat="43.62439" lon="3.86725">
        <ele>28.200000762939</ele>
        <time>2023-05-23T11:48:50.000Z</time>
      </trkpt>
      <trkpt lat="43.62452" lon="3.86719">
        <ele>28.39999961853</ele>
        <time>2023-05-23T11:48:52.000Z</time>
      </trkpt>
      <trkpt lat="43.62477" lon="3.86709">
        <ele>28.39999961853</ele>
        <time>2023-05-23T11:48:55.000Z</time>
      </trkpt>
      <trkpt lat="43.62486" lon="3.86705">
        <ele>28.39999961853</ele>
        <time>2023-05-23T11:48:56.000Z</time>
      </trkpt>
      <trkpt lat="43.62503" lon="3.86697">
        <ele>28.799999237061</ele>
        <time>2023-05-23T11:48:58.000Z</time>
      </trkpt>
      <trkpt lat="43.62518" lon="3.86691">
        <ele>29.200000762939</ele>
        <time>2023-05-23T11:49:00.000Z</time>
      </trkpt>
      <trkpt lat="43.62527" lon="3.86687">
        <ele>29.39999961853</ele>
        <time>2023-05-23T11:49:01.000Z</time>
      </trkpt>
      <trkpt lat="43.62541" lon="3.86678">
        <ele>30.200000762939</ele>
        <time>2023-05-23T11:49:03.000Z</time>
      </trkpt>
      <trkpt lat="43.62548" lon="3.86675">
        <ele>30.60000038147</ele>
        <time>2023-05-23T11:49:04.000Z</time>
      </trkpt>
      <trkpt lat="43.62554" lon="3.86672">
        <ele>31</ele>
        <time>2023-05-23T11:49:05.000Z</time>
      </trkpt>
      <trkpt lat="43.62568" lon="3.86666">
        <ele>31.799999237061</ele>
        <time>2023-05-23T11:49:07.000Z</time>
      </trkpt>
      <trkpt lat="43.62578" lon="3.86662">
        <ele>32.599998474121</ele>
        <time>2023-05-23T11:49:09.000Z</time>
      </trkpt>
      <trkpt lat="43.62582" lon="3.8666">
        <ele>32.799999237061</ele>
        <time>2023-05-23T11:49:10.000Z</time>
      </trkpt>
      <trkpt lat="43.62601" lon="3.86651">
        <ele>32.799999237061</ele>
        <time>2023-05-23T11:49:14.000Z</time>
      </trkpt>
      <trkpt lat="43.62618" lon="3.86642">
        <ele>32.599998474121</ele>
        <time>2023-05-23T11:49:17.000Z</time>
      </trkpt>
      <trkpt lat="43.6263" lon="3.86637">
        <ele>32.599998474121</ele>
        <time>2023-05-23T11:49:19.000Z</time>
      </trkpt>
      <trkpt lat="43.62643" lon="3.86629">
        <ele>33.200000762939</ele>
        <time>2023-05-23T11:49:21.000Z</time>
      </trkpt>
      <trkpt lat="43.62659" lon="3.86615">
        <ele>33.799999237061</ele>
        <time>2023-05-23T11:49:24.000Z</time>
      </trkpt>
      <trkpt lat="43.62664" lon="3.86609">
        <ele>33.799999237061</ele>
        <time>2023-05-23T11:49:25.000Z</time>
      </trkpt>
      <trkpt lat="43.62668" lon="3.86604">
        <ele>34</ele>
        <time>2023-05-23T11:49:26.000Z</time>
      </trkpt>
      <trkpt lat="43.62674" lon="3.86596">
        <ele>34.400001525879</ele>
        <time>2023-05-23T11:49:28.000Z</time>
      </trkpt>
      <trkpt lat="43.62677" lon="3.86591">
        <ele>34.599998474121</ele>
        <time>2023-05-23T11:49:29.000Z</time>
      </trkpt>
      <trkpt lat="43.62682" lon="3.86583">
        <ele>34.799999237061</ele>
        <time>2023-05-23T11:49:32.000Z</time>
      </trkpt>
      <trkpt lat="43.62682" lon="3.86582">
        <ele>35</ele>
        <time>2023-05-23T11:49:34.000Z</time>
      </trkpt>
      <trkpt lat="43.62682" lon="3.86582">
        <ele>35.200000762939</ele>
        <time>2023-05-23T11:49:36.000Z</time>
      </trkpt>
      <trkpt lat="43.62683" lon="3.86581">
        <ele>34.799999237061</ele>
        <time>2023-05-23T11:49:51.000Z</time>
      </trkpt>
      <trkpt lat="43.62685" lon="3.86577">
        <ele>34.599998474121</ele>
        <time>2023-05-23T11:50:06.000Z</time>
      </trkpt>
      <trkpt lat="43.62693" lon="3.86567">
        <ele>33.799999237061</ele>
        <time>2023-05-23T11:50:09.000Z</time>
      </trkpt>
      <trkpt lat="43.62697" lon="3.86563">
        <ele>33.599998474121</ele>
        <time>2023-05-23T11:50:10.000Z</time>
      </trkpt>
      <trkpt lat="43.62714" lon="3.86541">
        <ele>33.400001525879</ele>
        <time>2023-05-23T11:50:14.000Z</time>
      </trkpt>
      <trkpt lat="43.62729" lon="3.86521">
        <ele>34.200000762939</ele>
        <time>2023-05-23T11:50:17.000Z</time>
      </trkpt>
      <trkpt lat="43.62745" lon="3.865">
        <ele>34.799999237061</ele>
        <time>2023-05-23T11:50:20.000Z</time>
      </trkpt>
      <trkpt lat="43.62762" lon="3.86478">
        <ele>35</ele>
        <time>2023-05-23T11:50:23.000Z</time>
      </trkpt>
      <trkpt lat="43.62781" lon="3.86455">
        <ele>35</ele>
        <time>2023-05-23T11:50:26.000Z</time>
      </trkpt>
      <trkpt lat="43.62801" lon="3.86432">
        <ele>35.200000762939</ele>
        <time>2023-05-23T11:50:29.000Z</time>
      </trkpt>
      <trkpt lat="43.62817" lon="3.86418">
        <ele>35.400001525879</ele>
        <time>2023-05-23T11:50:31.000Z</time>
      </trkpt>
      <trkpt lat="43.62834" lon="3.86407">
        <ele>35.200000762939</ele>
        <time>2023-05-23T11:50:33.000Z</time>
      </trkpt>
      <trkpt lat="43.62852" lon="3.86397">
        <ele>35.400001525879</ele>
        <time>2023-05-23T11:50:35.000Z</time>
      </trkpt>
      <trkpt lat="43.62861" lon="3.86393">
        <ele>35.599998474121</ele>
        <time>2023-05-23T11:50:36.000Z</time>
      </trkpt>
      <trkpt lat="43.62877" lon="3.86384">
        <ele>36</ele>
        <time>2023-05-23T11:50:38.000Z</time>
      </trkpt>
      <trkpt lat="43.629" lon="3.86372">
        <ele>36.400001525879</ele>
        <time>2023-05-23T11:50:41.000Z</time>
      </trkpt>
      <trkpt lat="43.6292" lon="3.86361">
        <ele>36.599998474121</ele>
        <time>2023-05-23T11:50:44.000Z</time>
      </trkpt>
      <trkpt lat="43.62933" lon="3.86351">
        <ele>36.400001525879</ele>
        <time>2023-05-23T11:50:46.000Z</time>
      </trkpt>
      <trkpt lat="43.62938" lon="3.86345">
        <ele>36.400001525879</ele>
        <time>2023-05-23T11:50:47.000Z</time>
      </trkpt>
      <trkpt lat="43.6295" lon="3.8632">
        <ele>36.200000762939</ele>
        <time>2023-05-23T11:50:50.000Z</time>
      </trkpt>
      <trkpt lat="43.62952" lon="3.86291">
        <ele>36.400001525879</ele>
        <time>2023-05-23T11:50:53.000Z</time>
      </trkpt>
      <trkpt lat="43.62951" lon="3.86281">
        <ele>36.400001525879</ele>
        <time>2023-05-23T11:50:54.000Z</time>
      </trkpt>
      <trkpt lat="43.62944" lon="3.86253">
        <ele>36.400001525879</ele>
        <time>2023-05-23T11:50:57.000Z</time>
      </trkpt>
      <trkpt lat="43.62941" lon="3.86246">
        <ele>36.400001525879</ele>
        <time>2023-05-23T11:50:58.000Z</time>
      </trkpt>
      <trkpt lat="43.62932" lon="3.86221">
        <ele>36.599998474121</ele>
        <time>2023-05-23T11:51:01.000Z</time>
      </trkpt>
      <trkpt lat="43.62924" lon="3.862">
        <ele>36.400001525879</ele>
        <time>2023-05-23T11:51:04.000Z</time>
      </trkpt>
      <trkpt lat="43.6292" lon="3.86185">
        <ele>36.400001525879</ele>
        <time>2023-05-23T11:51:07.000Z</time>
      </trkpt>
      <trkpt lat="43.62918" lon="3.86182">
        <ele>36.400001525879</ele>
        <time>2023-05-23T11:51:08.000Z</time>
      </trkpt>
      <trkpt lat="43.62915" lon="3.86176">
        <ele>36.799999237061</ele>
        <time>2023-05-23T11:51:12.000Z</time>
      </trkpt>
      <trkpt lat="43.62915" lon="3.86177">
        <ele>36.200000762939</ele>
        <time>2023-05-23T11:51:19.000Z</time>
      </trkpt>
      <trkpt lat="43.62918" lon="3.8618">
        <ele>36</ele>
        <time>2023-05-23T11:51:35.000Z</time>
      </trkpt>
      <trkpt lat="43.62915" lon="3.8617">
        <ele>35</ele>
        <time>2023-05-23T11:51:42.000Z</time>
      </trkpt>
      <trkpt lat="43.62913" lon="3.86165">
        <ele>34.799999237061</ele>
        <time>2023-05-23T11:51:43.000Z</time>
      </trkpt>
      <trkpt lat="43.62906" lon="3.86145">
        <ele>34.400001525879</ele>
        <time>2023-05-23T11:51:46.000Z</time>
      </trkpt>
      <trkpt lat="43.62895" lon="3.86117">
        <ele>34.400001525879</ele>
        <time>2023-05-23T11:51:49.000Z</time>
      </trkpt>
      <trkpt lat="43.62892" lon="3.86107">
        <ele>34.400001525879</ele>
        <time>2023-05-23T11:51:50.000Z</time>
      </trkpt>
      <trkpt lat="43.6288" lon="3.86074">
        <ele>34.799999237061</ele>
        <time>2023-05-23T11:51:53.000Z</time>
      </trkpt>
      <trkpt lat="43.62872" lon="3.8605">
        <ele>35</ele>
        <time>2023-05-23T11:51:55.000Z</time>
      </trkpt>
      <trkpt lat="43.62864" lon="3.86027">
        <ele>35.200000762939</ele>
        <time>2023-05-23T11:51:57.000Z</time>
      </trkpt>
      <trkpt lat="43.62856" lon="3.86004">
        <ele>35.200000762939</ele>
        <time>2023-05-23T11:51:59.000Z</time>
      </trkpt>
      <trkpt lat="43.62843" lon="3.85972">
        <ele>35</ele>
        <time>2023-05-23T11:52:02.000Z</time>
      </trkpt>
      <trkpt lat="43.62832" lon="3.85941">
        <ele>35</ele>
        <time>2023-05-23T11:52:05.000Z</time>
      </trkpt>
      <trkpt lat="43.62822" lon="3.85913">
        <ele>34.799999237061</ele>
        <time>2023-05-23T11:52:08.000Z</time>
      </trkpt>
      <trkpt lat="43.62812" lon="3.85884">
        <ele>34.400001525879</ele>
        <time>2023-05-23T11:52:11.000Z</time>
      </trkpt>
      <trkpt lat="43.6281" lon="3.85875">
        <ele>34.200000762939</ele>
        <time>2023-05-23T11:52:12.000Z</time>
      </trkpt>
      <trkpt lat="43.62808" lon="3.85864">
        <ele>34.200000762939</ele>
        <time>2023-05-23T11:52:13.000Z</time>
      </trkpt>
      <trkpt lat="43.62806" lon="3.85831">
        <ele>33.799999237061</ele>
        <time>2023-05-23T11:52:16.000Z</time>
      </trkpt>
      <trkpt lat="43.62808" lon="3.85821">
        <ele>33.599998474121</ele>
        <time>2023-05-23T11:52:17.000Z</time>
      </trkpt>
      <trkpt lat="43.62813" lon="3.85799">
        <ele>33.400001525879</ele>
        <time>2023-05-23T11:52:19.000Z</time>
      </trkpt>
      <trkpt lat="43.62822" lon="3.85777">
        <ele>33.400001525879</ele>
        <time>2023-05-23T11:52:21.000Z</time>
      </trkpt>
      <trkpt lat="43.62834" lon="3.85757">
        <ele>33.400001525879</ele>
        <time>2023-05-23T11:52:23.000Z</time>
      </trkpt>
      <trkpt lat="43.62851" lon="3.85739">
        <ele>33.599998474121</ele>
        <time>2023-05-23T11:52:25.000Z</time>
      </trkpt>
      <trkpt lat="43.62859" lon="3.85731">
        <ele>33.799999237061</ele>
        <time>2023-05-23T11:52:26.000Z</time>
      </trkpt>
      <trkpt lat="43.62867" lon="3.85723">
        <ele>34</ele>
        <time>2023-05-23T11:52:27.000Z</time>
      </trkpt>
      <trkpt lat="43.62884" lon="3.85707">
        <ele>34.400001525879</ele>
        <time>2023-05-23T11:52:29.000Z</time>
      </trkpt>
      <trkpt lat="43.62901" lon="3.8569">
        <ele>34.799999237061</ele>
        <time>2023-05-23T11:52:31.000Z</time>
      </trkpt>
      <trkpt lat="43.6291" lon="3.85681">
        <ele>34.799999237061</ele>
        <time>2023-05-23T11:52:32.000Z</time>
      </trkpt>
      <trkpt lat="43.62918" lon="3.85673">
        <ele>35</ele>
        <time>2023-05-23T11:52:33.000Z</time>
      </trkpt>
      <trkpt lat="43.62936" lon="3.85655">
        <ele>35.200000762939</ele>
        <time>2023-05-23T11:52:35.000Z</time>
      </trkpt>
      <trkpt lat="43.62954" lon="3.85637">
        <ele>35.599998474121</ele>
        <time>2023-05-23T11:52:37.000Z</time>
      </trkpt>
      <trkpt lat="43.62971" lon="3.85618">
        <ele>35.799999237061</ele>
        <time>2023-05-23T11:52:39.000Z</time>
      </trkpt>
      <trkpt lat="43.6298" lon="3.85609">
        <ele>36</ele>
        <time>2023-05-23T11:52:40.000Z</time>
      </trkpt>
      <trkpt lat="43.62989" lon="3.85599">
        <ele>36.200000762939</ele>
        <time>2023-05-23T11:52:41.000Z</time>
      </trkpt>
      <trkpt lat="43.63005" lon="3.85577">
        <ele>36.400001525879</ele>
        <time>2023-05-23T11:52:43.000Z</time>
      </trkpt>
      <trkpt lat="43.63021" lon="3.85553">
        <ele>36.599998474121</ele>
        <time>2023-05-23T11:52:45.000Z</time>
      </trkpt>
      <trkpt lat="43.63035" lon="3.85527">
        <ele>36.799999237061</ele>
        <time>2023-05-23T11:52:47.000Z</time>
      </trkpt>
      <trkpt lat="43.63049" lon="3.85502">
        <ele>37</ele>
        <time>2023-05-23T11:52:49.000Z</time>
      </trkpt>
      <trkpt lat="43.63056" lon="3.85489">
        <ele>37.200000762939</ele>
        <time>2023-05-23T11:52:50.000Z</time>
      </trkpt>
      <trkpt lat="43.63069" lon="3.85466">
        <ele>37.400001525879</ele>
        <time>2023-05-23T11:52:52.000Z</time>
      </trkpt>
      <trkpt lat="43.63081" lon="3.85443">
        <ele>37.799999237061</ele>
        <time>2023-05-23T11:52:54.000Z</time>
      </trkpt>
      <trkpt lat="43.63088" lon="3.85431">
        <ele>38</ele>
        <time>2023-05-23T11:52:55.000Z</time>
      </trkpt>
      <trkpt lat="43.63097" lon="3.85411">
        <ele>38.400001525879</ele>
        <time>2023-05-23T11:52:57.000Z</time>
      </trkpt>
      <trkpt lat="43.63109" lon="3.85381">
        <ele>39</ele>
        <time>2023-05-23T11:53:00.000Z</time>
      </trkpt>
      <trkpt lat="43.63115" lon="3.85362">
        <ele>39</ele>
        <time>2023-05-23T11:53:02.000Z</time>
      </trkpt>
      <trkpt lat="43.63122" lon="3.85333">
        <ele>39</ele>
        <time>2023-05-23T11:53:06.000Z</time>
      </trkpt>
      <trkpt lat="43.63124" lon="3.85326">
        <ele>39</ele>
        <time>2023-05-23T11:53:07.000Z</time>
      </trkpt>
      <trkpt lat="43.63137" lon="3.85302">
        <ele>39</ele>
        <time>2023-05-23T11:53:11.000Z</time>
      </trkpt>
      <trkpt lat="43.63139" lon="3.85298">
        <ele>39</ele>
        <time>2023-05-23T11:53:12.000Z</time>
      </trkpt>
      <trkpt lat="43.63147" lon="3.85283">
        <ele>39</ele>
        <time>2023-05-23T11:53:15.000Z</time>
      </trkpt>
      <trkpt lat="43.63149" lon="3.85281">
        <ele>39.200000762939</ele>
        <time>2023-05-23T11:53:16.000Z</time>
      </trkpt>
      <trkpt lat="43.63152" lon="3.85279">
        <ele>39.200000762939</ele>
        <time>2023-05-23T11:53:17.000Z</time>
      </trkpt>
      <trkpt lat="43.63152" lon="3.85277">
        <ele>39.400001525879</ele>
        <time>2023-05-23T11:53:18.000Z</time>
      </trkpt>
      <trkpt lat="43.63153" lon="3.85277">
        <ele>39.599998474121</ele>
        <time>2023-05-23T11:53:21.000Z</time>
      </trkpt>
      <trkpt lat="43.63154" lon="3.85279">
        <ele>39.200000762939</ele>
        <time>2023-05-23T11:53:27.000Z</time>
      </trkpt>
      <trkpt lat="43.63154" lon="3.85279">
        <ele>39</ele>
        <time>2023-05-23T11:53:33.000Z</time>
      </trkpt>
      <trkpt lat="43.63156" lon="3.85274">
        <ele>39</ele>
        <time>2023-05-23T11:53:45.000Z</time>
      </trkpt>
      <trkpt lat="43.63163" lon="3.85262">
        <ele>38</ele>
        <time>2023-05-23T11:53:48.000Z</time>
      </trkpt>
      <trkpt lat="43.63166" lon="3.85257">
        <ele>37.799999237061</ele>
        <time>2023-05-23T11:53:49.000Z</time>
      </trkpt>
      <trkpt lat="43.63179" lon="3.85237">
        <ele>38.200000762939</ele>
        <time>2023-05-23T11:53:53.000Z</time>
      </trkpt>
      <trkpt lat="43.63188" lon="3.85223">
        <ele>38.599998474121</ele>
        <time>2023-05-23T11:53:56.000Z</time>
      </trkpt>
      <trkpt lat="43.63194" lon="3.85213">
        <ele>39</ele>
        <time>2023-05-23T11:54:00.000Z</time>
      </trkpt>
      <trkpt lat="43.63204" lon="3.85198">
        <ele>38.599998474121</ele>
        <time>2023-05-23T11:54:04.000Z</time>
      </trkpt>
      <trkpt lat="43.63208" lon="3.85192">
        <ele>38</ele>
        <time>2023-05-23T11:54:05.000Z</time>
      </trkpt>
      <trkpt lat="43.63219" lon="3.85176">
        <ele>37</ele>
        <time>2023-05-23T11:54:07.000Z</time>
      </trkpt>
      <trkpt lat="43.63224" lon="3.85168">
        <ele>36.599998474121</ele>
        <time>2023-05-23T11:54:08.000Z</time>
      </trkpt>
      <trkpt lat="43.63237" lon="3.85148">
        <ele>36.799999237061</ele>
        <time>2023-05-23T11:54:10.000Z</time>
      </trkpt>
      <trkpt lat="43.63249" lon="3.85128">
        <ele>37.400001525879</ele>
        <time>2023-05-23T11:54:12.000Z</time>
      </trkpt>
      <trkpt lat="43.63256" lon="3.85118">
        <ele>37.599998474121</ele>
        <time>2023-05-23T11:54:13.000Z</time>
      </trkpt>
      <trkpt lat="43.63264" lon="3.85107">
        <ele>38</ele>
        <time>2023-05-23T11:54:14.000Z</time>
      </trkpt>
      <trkpt lat="43.63277" lon="3.85087">
        <ele>38.400001525879</ele>
        <time>2023-05-23T11:54:16.000Z</time>
      </trkpt>
      <trkpt lat="43.63289" lon="3.85068">
        <ele>38.799999237061</ele>
        <time>2023-05-23T11:54:18.000Z</time>
      </trkpt>
      <trkpt lat="43.63303" lon="3.85047">
        <ele>39.200000762939</ele>
        <time>2023-05-23T11:54:20.000Z</time>
      </trkpt>
      <trkpt lat="43.63316" lon="3.85028">
        <ele>39.400001525879</ele>
        <time>2023-05-23T11:54:22.000Z</time>
      </trkpt>
      <trkpt lat="43.63322" lon="3.85019">
        <ele>39.400001525879</ele>
        <time>2023-05-23T11:54:23.000Z</time>
      </trkpt>
      <trkpt lat="43.63335" lon="3.84998">
        <ele>39.599998474121</ele>
        <time>2023-05-23T11:54:25.000Z</time>
      </trkpt>
      <trkpt lat="43.63354" lon="3.84971">
        <ele>39.799999237061</ele>
        <time>2023-05-23T11:54:28.000Z</time>
      </trkpt>
      <trkpt lat="43.63365" lon="3.84953">
        <ele>40.200000762939</ele>
        <time>2023-05-23T11:54:30.000Z</time>
      </trkpt>
      <trkpt lat="43.63371" lon="3.84945">
        <ele>40.200000762939</ele>
        <time>2023-05-23T11:54:31.000Z</time>
      </trkpt>
      <trkpt lat="43.63387" lon="3.84922">
        <ele>40.400001525879</ele>
        <time>2023-05-23T11:54:34.000Z</time>
      </trkpt>
      <trkpt lat="43.63404" lon="3.84901">
        <ele>40.200000762939</ele>
        <time>2023-05-23T11:54:37.000Z</time>
      </trkpt>
      <trkpt lat="43.63409" lon="3.84894">
        <ele>40</ele>
        <time>2023-05-23T11:54:38.000Z</time>
      </trkpt>
      <trkpt lat="43.63425" lon="3.84879">
        <ele>40.200000762939</ele>
        <time>2023-05-23T11:54:41.000Z</time>
      </trkpt>
      <trkpt lat="43.63433" lon="3.84871">
        <ele>40.400001525879</ele>
        <time>2023-05-23T11:54:43.000Z</time>
      </trkpt>
      <trkpt lat="43.63446" lon="3.8486">
        <ele>40.799999237061</ele>
        <time>2023-05-23T11:54:47.000Z</time>
      </trkpt>
      <trkpt lat="43.63449" lon="3.84858">
        <ele>41</ele>
        <time>2023-05-23T11:54:51.000Z</time>
      </trkpt>
      <trkpt lat="43.6345" lon="3.84856">
        <ele>40.400001525879</ele>
        <time>2023-05-23T11:55:08.000Z</time>
      </trkpt>
      <trkpt lat="43.63451" lon="3.84855">
        <ele>40.200000762939</ele>
        <time>2023-05-23T11:55:18.000Z</time>
      </trkpt>
      <trkpt lat="43.63463" lon="3.84847">
        <ele>39</ele>
        <time>2023-05-23T11:55:22.000Z</time>
      </trkpt>
      <trkpt lat="43.63481" lon="3.84832">
        <ele>39.200000762939</ele>
        <time>2023-05-23T11:55:26.000Z</time>
      </trkpt>
      <trkpt lat="43.63486" lon="3.84827">
        <ele>39.200000762939</ele>
        <time>2023-05-23T11:55:27.000Z</time>
      </trkpt>
      <trkpt lat="43.63503" lon="3.84813">
        <ele>39.799999237061</ele>
        <time>2023-05-23T11:55:30.000Z</time>
      </trkpt>
      <trkpt lat="43.63514" lon="3.84803">
        <ele>40</ele>
        <time>2023-05-23T11:55:32.000Z</time>
      </trkpt>
      <trkpt lat="43.63531" lon="3.84788">
        <ele>40.400001525879</ele>
        <time>2023-05-23T11:55:35.000Z</time>
      </trkpt>
      <trkpt lat="43.6355" lon="3.84771">
        <ele>41</ele>
        <time>2023-05-23T11:55:39.000Z</time>
      </trkpt>
      <trkpt lat="43.6356" lon="3.84763">
        <ele>40.799999237061</ele>
        <time>2023-05-23T11:55:41.000Z</time>
      </trkpt>
      <trkpt lat="43.63568" lon="3.84751">
        <ele>40.599998474121</ele>
        <time>2023-05-23T11:55:43.000Z</time>
      </trkpt>
      <trkpt lat="43.63576" lon="3.84735">
        <ele>40.599998474121</ele>
        <time>2023-05-23T11:55:45.000Z</time>
      </trkpt>
      <trkpt lat="43.63579" lon="3.84704">
        <ele>40.400001525879</ele>
        <time>2023-05-23T11:55:48.000Z</time>
      </trkpt>
      <trkpt lat="43.63575" lon="3.84679">
        <ele>40.400001525879</ele>
        <time>2023-05-23T11:55:50.000Z</time>
      </trkpt>
      <trkpt lat="43.63572" lon="3.84667">
        <ele>40.400001525879</ele>
        <time>2023-05-23T11:55:51.000Z</time>
      </trkpt>
      <trkpt lat="43.63568" lon="3.84655">
        <ele>40.400001525879</ele>
        <time>2023-05-23T11:55:52.000Z</time>
      </trkpt>
      <trkpt lat="43.6356" lon="3.8463">
        <ele>40.599998474121</ele>
        <time>2023-05-23T11:55:54.000Z</time>
      </trkpt>
      <trkpt lat="43.63552" lon="3.84606">
        <ele>41</ele>
        <time>2023-05-23T11:55:56.000Z</time>
      </trkpt>
      <trkpt lat="43.63548" lon="3.84593">
        <ele>41.200000762939</ele>
        <time>2023-05-23T11:55:57.000Z</time>
      </trkpt>
      <trkpt lat="43.63541" lon="3.8457">
        <ele>41.200000762939</ele>
        <time>2023-05-23T11:55:59.000Z</time>
      </trkpt>
      <trkpt lat="43.63533" lon="3.84546">
        <ele>41.200000762939</ele>
        <time>2023-05-23T11:56:01.000Z</time>
      </trkpt>
      <trkpt lat="43.63522" lon="3.84512">
        <ele>41.400001525879</ele>
        <time>2023-05-23T11:56:04.000Z</time>
      </trkpt>
      <trkpt lat="43.63518" lon="3.84501">
        <ele>41.400001525879</ele>
        <time>2023-05-23T11:56:05.000Z</time>
      </trkpt>
      <trkpt lat="43.63508" lon="3.84468">
        <ele>41.400001525879</ele>
        <time>2023-05-23T11:56:08.000Z</time>
      </trkpt>
      <trkpt lat="43.63499" lon="3.84438">
        <ele>42.200000762939</ele>
        <time>2023-05-23T11:56:11.000Z</time>
      </trkpt>
      <trkpt lat="43.63491" lon="3.84407">
        <ele>42.400001525879</ele>
        <time>2023-05-23T11:56:14.000Z</time>
      </trkpt>
      <trkpt lat="43.6348" lon="3.84389">
        <ele>42.599998474121</ele>
        <time>2023-05-23T11:56:16.000Z</time>
      </trkpt>
      <trkpt lat="43.63455" lon="3.84374">
        <ele>43</ele>
        <time>2023-05-23T11:56:19.000Z</time>
      </trkpt>
      <trkpt lat="43.63447" lon="3.8437">
        <ele>43.200000762939</ele>
        <time>2023-05-23T11:56:20.000Z</time>
      </trkpt>
      <trkpt lat="43.6343" lon="3.84362">
        <ele>43.599998474121</ele>
        <time>2023-05-23T11:56:22.000Z</time>
      </trkpt>
      <trkpt lat="43.63414" lon="3.84356">
        <ele>44.200000762939</ele>
        <time>2023-05-23T11:56:24.000Z</time>
      </trkpt>
      <trkpt lat="43.63405" lon="3.84353">
        <ele>44.599998474121</ele>
        <time>2023-05-23T11:56:25.000Z</time>
      </trkpt>
      <trkpt lat="43.6338" lon="3.84346">
        <ele>44.799999237061</ele>
        <time>2023-05-23T11:56:28.000Z</time>
      </trkpt>
      <trkpt lat="43.6337" lon="3.84345">
        <ele>44.599998474121</ele>
        <time>2023-05-23T11:56:29.000Z</time>
      </trkpt>
      <trkpt lat="43.63351" lon="3.84342">
        <ele>44.400001525879</ele>
        <time>2023-05-23T11:56:31.000Z</time>
      </trkpt>
      <trkpt lat="43.63331" lon="3.84339">
        <ele>44.400001525879</ele>
        <time>2023-05-23T11:56:33.000Z</time>
      </trkpt>
      <trkpt lat="43.63321" lon="3.84336">
        <ele>44.400001525879</ele>
        <time>2023-05-23T11:56:34.000Z</time>
      </trkpt>
      <trkpt lat="43.63302" lon="3.8433">
        <ele>44.400001525879</ele>
        <time>2023-05-23T11:56:36.000Z</time>
      </trkpt>
      <trkpt lat="43.63276" lon="3.84321">
        <ele>44.400001525879</ele>
        <time>2023-05-23T11:56:39.000Z</time>
      </trkpt>
      <trkpt lat="43.63268" lon="3.84318">
        <ele>44.400001525879</ele>
        <time>2023-05-23T11:56:40.000Z</time>
      </trkpt>
      <trkpt lat="43.63247" lon="3.84311">
        <ele>44.400001525879</ele>
        <time>2023-05-23T11:56:43.000Z</time>
      </trkpt>
      <trkpt lat="43.63222" lon="3.84306">
        <ele>43.799999237061</ele>
        <time>2023-05-23T11:56:46.000Z</time>
      </trkpt>
      <trkpt lat="43.63202" lon="3.84308">
        <ele>43.599998474121</ele>
        <time>2023-05-23T11:56:49.000Z</time>
      </trkpt>
      <trkpt lat="43.63197" lon="3.84308">
        <ele>43.799999237061</ele>
        <time>2023-05-23T11:56:50.000Z</time>
      </trkpt>
      <trkpt lat="43.63177" lon="3.84312">
        <ele>44</ele>
        <time>2023-05-23T11:56:55.000Z</time>
      </trkpt>
      <trkpt lat="43.63175" lon="3.84312">
        <ele>44.200000762939</ele>
        <time>2023-05-23T11:56:57.000Z</time>
      </trkpt>
      <trkpt lat="43.63176" lon="3.84312">
        <ele>44.400001525879</ele>
        <time>2023-05-23T11:56:59.000Z</time>
      </trkpt>
      <trkpt lat="43.63174" lon="3.84313">
        <ele>43.799999237061</ele>
        <time>2023-05-23T11:57:10.000Z</time>
      </trkpt>
      <trkpt lat="43.63171" lon="3.84314">
        <ele>44</ele>
        <time>2023-05-23T11:57:18.000Z</time>
      </trkpt>
      <trkpt lat="43.63161" lon="3.84314">
        <ele>43.200000762939</ele>
        <time>2023-05-23T11:57:21.000Z</time>
      </trkpt>
      <trkpt lat="43.63157" lon="3.84315">
        <ele>43</ele>
        <time>2023-05-23T11:57:22.000Z</time>
      </trkpt>
      <trkpt lat="43.63134" lon="3.84317">
        <ele>42.799999237061</ele>
        <time>2023-05-23T11:57:26.000Z</time>
      </trkpt>
      <trkpt lat="43.63116" lon="3.84319">
        <ele>44</ele>
        <time>2023-05-23T11:57:30.000Z</time>
      </trkpt>
      <trkpt lat="43.63111" lon="3.84319">
        <ele>44.200000762939</ele>
        <time>2023-05-23T11:57:31.000Z</time>
      </trkpt>
      <trkpt lat="43.63106" lon="3.8432">
        <ele>44.400001525879</ele>
        <time>2023-05-23T11:57:32.000Z</time>
      </trkpt>
      <trkpt lat="43.63089" lon="3.84317">
        <ele>44.200000762939</ele>
        <time>2023-05-23T11:57:35.000Z</time>
      </trkpt>
      <trkpt lat="43.63083" lon="3.84314">
        <ele>44</ele>
        <time>2023-05-23T11:57:36.000Z</time>
      </trkpt>
      <trkpt lat="43.63066" lon="3.84296">
        <ele>44</ele>
        <time>2023-05-23T11:57:39.000Z</time>
      </trkpt>
      <trkpt lat="43.63055" lon="3.8427">
        <ele>44.400001525879</ele>
        <time>2023-05-23T11:57:42.000Z</time>
      </trkpt>
      <trkpt lat="43.63051" lon="3.84261">
        <ele>44.599998474121</ele>
        <time>2023-05-23T11:57:43.000Z</time>
      </trkpt>
      <trkpt lat="43.63047" lon="3.84231">
        <ele>45</ele>
        <time>2023-05-23T11:57:46.000Z</time>
      </trkpt>
      <trkpt lat="43.63047" lon="3.84222">
        <ele>45.200000762939</ele>
        <time>2023-05-23T11:57:47.000Z</time>
      </trkpt>
      <trkpt lat="43.63047" lon="3.84214">
        <ele>45.400001525879</ele>
        <time>2023-05-23T11:57:48.000Z</time>
      </trkpt>
      <trkpt lat="43.63053" lon="3.8418">
        <ele>45.799999237061</ele>
        <time>2023-05-23T11:57:51.000Z</time>
      </trkpt>
      <trkpt lat="43.63062" lon="3.84158">
        <ele>46</ele>
        <time>2023-05-23T11:57:53.000Z</time>
      </trkpt>
      <trkpt lat="43.63066" lon="3.8415">
        <ele>46</ele>
        <time>2023-05-23T11:57:54.000Z</time>
      </trkpt>
      <trkpt lat="43.63074" lon="3.84136">
        <ele>46</ele>
        <time>2023-05-23T11:57:55.000Z</time>
      </trkpt>
      <trkpt lat="43.63087" lon="3.84113">
        <ele>46.200000762939</ele>
        <time>2023-05-23T11:57:57.000Z</time>
      </trkpt>
      <trkpt lat="43.63093" lon="3.84101">
        <ele>46.400001525879</ele>
        <time>2023-05-23T11:57:58.000Z</time>
      </trkpt>
      <trkpt lat="43.63099" lon="3.84088">
        <ele>46.599998474121</ele>
        <time>2023-05-23T11:57:59.000Z</time>
      </trkpt>
      <trkpt lat="43.63108" lon="3.8406">
        <ele>46.799999237061</ele>
        <time>2023-05-23T11:58:01.000Z</time>
      </trkpt>
      <trkpt lat="43.63111" lon="3.84044">
        <ele>46.799999237061</ele>
        <time>2023-05-23T11:58:02.000Z</time>
      </trkpt>
      <trkpt lat="43.63119" lon="3.84012">
        <ele>46.799999237061</ele>
        <time>2023-05-23T11:58:04.000Z</time>
      </trkpt>
      <trkpt lat="43.63126" lon="3.8398">
        <ele>47.200000762939</ele>
        <time>2023-05-23T11:58:06.000Z</time>
      </trkpt>
      <trkpt lat="43.63131" lon="3.83963">
        <ele>47.400001525879</ele>
        <time>2023-05-23T11:58:07.000Z</time>
      </trkpt>
      <trkpt lat="43.63139" lon="3.83932">
        <ele>47.799999237061</ele>
        <time>2023-05-23T11:58:09.000Z</time>
      </trkpt>
      <trkpt lat="43.63147" lon="3.83901">
        <ele>48.400001525879</ele>
        <time>2023-05-23T11:58:11.000Z</time>
      </trkpt>
      <trkpt lat="43.63151" lon="3.83887">
        <ele>48.799999237061</ele>
        <time>2023-05-23T11:58:12.000Z</time>
      </trkpt>
      <trkpt lat="43.63155" lon="3.83873">
        <ele>49.200000762939</ele>
        <time>2023-05-23T11:58:13.000Z</time>
      </trkpt>
      <trkpt lat="43.63165" lon="3.83848">
        <ele>49.799999237061</ele>
        <time>2023-05-23T11:58:15.000Z</time>
      </trkpt>
      <trkpt lat="43.6317" lon="3.83838">
        <ele>50.200000762939</ele>
        <time>2023-05-23T11:58:16.000Z</time>
      </trkpt>
      <trkpt lat="43.63185" lon="3.83811">
        <ele>51.200000762939</ele>
        <time>2023-05-23T11:58:19.000Z</time>
      </trkpt>
      <trkpt lat="43.63192" lon="3.83801">
        <ele>51.200000762939</ele>
        <time>2023-05-23T11:58:20.000Z</time>
      </trkpt>
      <trkpt lat="43.63208" lon="3.83782">
        <ele>51</ele>
        <time>2023-05-23T11:58:22.000Z</time>
      </trkpt>
      <trkpt lat="43.63226" lon="3.83761">
        <ele>50.799999237061</ele>
        <time>2023-05-23T11:58:24.000Z</time>
      </trkpt>
      <trkpt lat="43.63248" lon="3.83736">
        <ele>50.400001525879</ele>
        <time>2023-05-23T11:58:26.000Z</time>
      </trkpt>
      <trkpt lat="43.63268" lon="3.83713">
        <ele>50.599998474121</ele>
        <time>2023-05-23T11:58:28.000Z</time>
      </trkpt>
      <trkpt lat="43.63279" lon="3.837">
        <ele>50.599998474121</ele>
        <time>2023-05-23T11:58:29.000Z</time>
      </trkpt>
      <trkpt lat="43.63297" lon="3.83674">
        <ele>50.599998474121</ele>
        <time>2023-05-23T11:58:31.000Z</time>
      </trkpt>
      <trkpt lat="43.63315" lon="3.83646">
        <ele>50.799999237061</ele>
        <time>2023-05-23T11:58:33.000Z</time>
      </trkpt>
      <trkpt lat="43.63324" lon="3.83629">
        <ele>51</ele>
        <time>2023-05-23T11:58:34.000Z</time>
      </trkpt>
      <trkpt lat="43.6334" lon="3.836">
        <ele>51.400001525879</ele>
        <time>2023-05-23T11:58:36.000Z</time>
      </trkpt>
      <trkpt lat="43.63353" lon="3.83571">
        <ele>52.200000762939</ele>
        <time>2023-05-23T11:58:38.000Z</time>
      </trkpt>
      <trkpt lat="43.6336" lon="3.83555">
        <ele>52.599998474121</ele>
        <time>2023-05-23T11:58:39.000Z</time>
      </trkpt>
      <trkpt lat="43.63372" lon="3.83525">
        <ele>53.599998474121</ele>
        <time>2023-05-23T11:58:41.000Z</time>
      </trkpt>
      <trkpt lat="43.63377" lon="3.8351">
        <ele>53.799999237061</ele>
        <time>2023-05-23T11:58:42.000Z</time>
      </trkpt>
      <trkpt lat="43.63389" lon="3.8348">
        <ele>54.599998474121</ele>
        <time>2023-05-23T11:58:44.000Z</time>
      </trkpt>
      <trkpt lat="43.63394" lon="3.83467">
        <ele>55.200000762939</ele>
        <time>2023-05-23T11:58:45.000Z</time>
      </trkpt>
      <trkpt lat="43.63402" lon="3.83443">
        <ele>56.200000762939</ele>
        <time>2023-05-23T11:58:47.000Z</time>
      </trkpt>
      <trkpt lat="43.63411" lon="3.83421">
        <ele>57</ele>
        <time>2023-05-23T11:58:49.000Z</time>
      </trkpt>
      <trkpt lat="43.63415" lon="3.83411">
        <ele>57.599998474121</ele>
        <time>2023-05-23T11:58:50.000Z</time>
      </trkpt>
      <trkpt lat="43.63428" lon="3.83383">
        <ele>58.599998474121</ele>
        <time>2023-05-23T11:58:53.000Z</time>
      </trkpt>
      <trkpt lat="43.63432" lon="3.83376">
        <ele>58.799999237061</ele>
        <time>2023-05-23T11:58:54.000Z</time>
      </trkpt>
      <trkpt lat="43.63445" lon="3.83356">
        <ele>59.400001525879</ele>
        <time>2023-05-23T11:58:57.000Z</time>
      </trkpt>
      <trkpt lat="43.63451" lon="3.83346">
        <ele>59.799999237061</ele>
        <time>2023-05-23T11:58:59.000Z</time>
      </trkpt>
      <trkpt lat="43.63454" lon="3.83342">
        <ele>59.799999237061</ele>
        <time>2023-05-23T11:59:00.000Z</time>
      </trkpt>
      <trkpt lat="43.63456" lon="3.83337">
        <ele>60.200000762939</ele>
        <time>2023-05-23T11:59:03.000Z</time>
      </trkpt>
      <trkpt lat="43.63456" lon="3.83336">
        <ele>60.400001525879</ele>
        <time>2023-05-23T11:59:08.000Z</time>
      </trkpt>
      <trkpt lat="43.63456" lon="3.83339">
        <ele>59.799999237061</ele>
        <time>2023-05-23T11:59:10.000Z</time>
      </trkpt>
      <trkpt lat="43.63459" lon="3.83344">
        <ele>59.799999237061</ele>
        <time>2023-05-23T11:59:14.000Z</time>
      </trkpt>
      <trkpt lat="43.63459" lon="3.83344">
        <ele>59.799999237061</ele>
        <time>2023-05-23T11:59:19.000Z</time>
      </trkpt>
      <trkpt lat="43.63458" lon="3.83343">
        <ele>71.599998474121</ele>
        <time>2023-05-23T11:59:25.000Z</time>
      </trkpt>
      <trkpt lat="43.63458" lon="3.83342">
        <ele>71.400001525879</ele>
        <time>2023-05-23T11:59:28.000Z</time>
      </trkpt>
      <trkpt lat="43.63457" lon="3.83344">
        <ele>72.199996948242</ele>
        <time>2023-05-23T11:59:37.000Z</time>
      </trkpt>
      <trkpt lat="43.63454" lon="3.83347">
        <ele>72.800003051758</ele>
        <time>2023-05-23T11:59:40.000Z</time>
      </trkpt>
      <trkpt lat="43.63449" lon="3.83354">
        <ele>73</ele>
        <time>2023-05-23T11:59:46.000Z</time>
      </trkpt>
      <trkpt lat="43.63449" lon="3.83364">
        <ele>73.599998474121</ele>
        <time>2023-05-23T11:59:52.000Z</time>
      </trkpt>
      <trkpt lat="43.63451" lon="3.83367">
        <ele>73.800003051758</ele>
        <time>2023-05-23T11:59:54.000Z</time>
      </trkpt>
      <trkpt lat="43.63451" lon="3.83368">
        <ele>74</ele>
        <time>2023-05-23T11:59:58.000Z</time>
      </trkpt>
      <trkpt lat="43.63451" lon="3.83367">
        <ele>74.800003051758</ele>
        <time>2023-05-23T12:00:03.000Z</time>
      </trkpt>
      <trkpt lat="43.63451" lon="3.83367">
        <ele>75</ele>
        <time>2023-05-23T12:00:04.000Z</time>
      </trkpt>
      <trkpt lat="43.63452" lon="3.83367">
        <ele>76</ele>
        <time>2023-05-23T12:00:10.000Z</time>
      </trkpt>
      <trkpt lat="43.63455" lon="3.8337">
        <ele>74.800003051758</ele>
        <time>2023-05-23T12:00:22.000Z</time>
      </trkpt>
      <trkpt lat="43.63459" lon="3.83377">
        <ele>73.800003051758</ele>
        <time>2023-05-23T12:00:28.000Z</time>
      </trkpt>
      <trkpt lat="43.6346" lon="3.83378">
        <ele>73.599998474121</ele>
        <time>2023-05-23T12:00:29.000Z</time>
      </trkpt>
      <trkpt lat="43.6346" lon="3.83379">
        <ele>72.800003051758</ele>
        <time>2023-05-23T12:00:35.000Z</time>
      </trkpt>
      <trkpt lat="43.6346" lon="3.83378">
        <ele>72.800003051758</ele>
        <time>2023-05-23T12:00:37.000Z</time>
      </trkpt>
      <trkpt lat="43.63462" lon="3.8338">
        <ele>72</ele>
        <time>2023-05-23T12:00:43.000Z</time>
      </trkpt>
      <trkpt lat="43.63465" lon="3.8338">
        <ele>71.599998474121</ele>
        <time>2023-05-23T12:00:45.000Z</time>
      </trkpt>
      <trkpt lat="43.63469" lon="3.83377">
        <ele>71</ele>
        <time>2023-05-23T12:00:50.000Z</time>
      </trkpt>
      <trkpt lat="43.6347" lon="3.83376">
        <ele>70.599998474121</ele>
        <time>2023-05-23T12:00:55.000Z</time>
      </trkpt>
      <trkpt lat="43.6347" lon="3.83376">
        <ele>70.400001525879</ele>
        <time>2023-05-23T12:00:57.000Z</time>
      </trkpt>
      <trkpt lat="43.6347" lon="3.83376">
        <ele>69.400001525879</ele>
        <time>2023-05-23T12:01:03.000Z</time>
      </trkpt>
      <trkpt lat="43.6347" lon="3.83376">
        <ele>68.800003051758</ele>
        <time>2023-05-23T12:01:08.000Z</time>
      </trkpt>
      <trkpt lat="43.63469" lon="3.83377">
        <ele>68.400001525879</ele>
        <time>2023-05-23T12:01:13.000Z</time>
      </trkpt>
      <trkpt lat="43.63468" lon="3.83377">
        <ele>68</ele>
        <time>2023-05-23T12:01:15.000Z</time>
      </trkpt>
      <trkpt lat="43.63468" lon="3.83377">
        <ele>67.400001525879</ele>
        <time>2023-05-23T12:01:21.000Z</time>
      </trkpt>
      <trkpt lat="43.63468" lon="3.83377">
        <ele>67.199996948242</ele>
        <time>2023-05-23T12:01:22.000Z</time>
      </trkpt>
      <trkpt lat="43.63468" lon="3.83378">
        <ele>66.199996948242</ele>
        <time>2023-05-23T12:01:27.000Z</time>
      </trkpt>
      <trkpt lat="43.63468" lon="3.83378">
        <ele>66</ele>
        <time>2023-05-23T12:01:29.000Z</time>
      </trkpt>
      <trkpt lat="43.63468" lon="3.83373">
        <ele>65.199996948242</ele>
        <time>2023-05-23T12:01:34.000Z</time>
      </trkpt>
      <trkpt lat="43.63467" lon="3.83375">
        <ele>64.400001525879</ele>
        <time>2023-05-23T12:01:40.000Z</time>
      </trkpt>
      <trkpt lat="43.63466" lon="3.83375">
        <ele>64.199996948242</ele>
        <time>2023-05-23T12:01:42.000Z</time>
      </trkpt>
      <trkpt lat="43.63466" lon="3.83376">
        <ele>63.599998474121</ele>
        <time>2023-05-23T12:01:46.000Z</time>
      </trkpt>
      <trkpt lat="43.63467" lon="3.83375">
        <ele>63.200000762939</ele>
        <time>2023-05-23T12:01:49.000Z</time>
      </trkpt>
      <trkpt lat="43.63467" lon="3.83375">
        <ele>63</ele>
        <time>2023-05-23T12:01:51.000Z</time>
      </trkpt>
      <trkpt lat="43.63468" lon="3.83375">
        <ele>62</ele>
        <time>2023-05-23T12:01:58.000Z</time>
      </trkpt>
      <trkpt lat="43.63468" lon="3.83375">
        <ele>61.799999237061</ele>
        <time>2023-05-23T12:01:59.000Z</time>
      </trkpt>
      <trkpt lat="43.63468" lon="3.83375">
        <ele>61</ele>
        <time>2023-05-23T12:02:04.000Z</time>
      </trkpt>
      <trkpt lat="43.63468" lon="3.83375">
        <ele>60.799999237061</ele>
        <time>2023-05-23T12:02:07.000Z</time>
      </trkpt>
      <trkpt lat="43.63468" lon="3.83375">
        <ele>60</ele>
        <time>2023-05-23T12:02:13.000Z</time>
      </trkpt>
      <trkpt lat="43.63468" lon="3.83375">
        <ele>60</ele>
        <time>2023-05-23T12:02:18.000Z</time>
      </trkpt>
      <trkpt lat="43.63467" lon="3.83374">
        <ele>59.799999237061</ele>
        <time>2023-05-23T12:02:27.000Z</time>
      </trkpt>
      <trkpt lat="43.63466" lon="3.83373">
        <ele>59.599998474121</ele>
        <time>2023-05-23T12:02:39.000Z</time>
      </trkpt>
      <trkpt lat="43.63466" lon="3.83372">
        <ele>60</ele>
        <time>2023-05-23T12:02:48.000Z</time>
      </trkpt>
      <trkpt lat="43.63465" lon="3.83371">
        <ele>59.799999237061</ele>
        <time>2023-05-23T12:02:55.000Z</time>
      </trkpt>
      <trkpt lat="43.63464" lon="3.83371">
        <ele>59.799999237061</ele>
        <time>2023-05-23T12:03:03.000Z</time>
      </trkpt>
      <trkpt lat="43.63465" lon="3.83369">
        <ele>59.799999237061</ele>
        <time>2023-05-23T12:03:09.000Z</time>
      </trkpt>
      <trkpt lat="43.63465" lon="3.8337">
        <ele>60</ele>
        <time>2023-05-23T12:03:14.000Z</time>
      </trkpt>
      <trkpt lat="43.63466" lon="3.83369">
        <ele>59.799999237061</ele>
        <time>2023-05-23T12:03:23.000Z</time>
      </trkpt>
      <trkpt lat="43.63466" lon="3.83368">
        <ele>60</ele>
        <time>2023-05-23T12:03:29.000Z</time>
      </trkpt>
      <trkpt lat="43.63465" lon="3.83371">
        <ele>59.799999237061</ele>
        <time>2023-05-23T12:03:37.000Z</time>
      </trkpt>
      <trkpt lat="43.63462" lon="3.83373">
        <ele>59.799999237061</ele>
        <time>2023-05-23T12:03:45.000Z</time>
      </trkpt>
      <trkpt lat="43.63463" lon="3.83376">
        <ele>59.599998474121</ele>
        <time>2023-05-23T12:03:52.000Z</time>
      </trkpt>
      <trkpt lat="43.63459" lon="3.83375">
        <ele>59.599998474121</ele>
        <time>2023-05-23T12:03:58.000Z</time>
      </trkpt>
      <trkpt lat="43.63458" lon="3.83376">
        <ele>59.599998474121</ele>
        <time>2023-05-23T12:04:04.000Z</time>
      </trkpt>
      <trkpt lat="43.6346" lon="3.83378">
        <ele>60</ele>
        <time>2023-05-23T12:04:17.000Z</time>
      </trkpt>
      <trkpt lat="43.63461" lon="3.83379">
        <ele>59.799999237061</ele>
        <time>2023-05-23T12:04:35.000Z</time>
      </trkpt>
      <trkpt lat="43.63461" lon="3.83379">
        <ele>59.799999237061</ele>
        <time>2023-05-23T12:04:51.000Z</time>
      </trkpt>
      <trkpt lat="43.63462" lon="3.83378">
        <ele>59.799999237061</ele>
        <time>2023-05-23T12:04:59.000Z</time>
      </trkpt>
      <trkpt lat="43.63462" lon="3.83378">
        <ele>59.799999237061</ele>
        <time>2023-05-23T12:05:16.000Z</time>
      </trkpt>
      <trkpt lat="43.63462" lon="3.83379">
        <ele>59.799999237061</ele>
        <time>2023-05-23T12:05:28.000Z</time>
      </trkpt>
      <trkpt lat="43.63466" lon="3.8338">
        <ele>59.599998474121</ele>
        <time>2023-05-23T12:05:34.000Z</time>
      </trkpt>
      <trkpt lat="43.6347" lon="3.83376">
        <ele>59.599998474121</ele>
        <time>2023-05-23T12:05:42.000Z</time>
      </trkpt>
      <trkpt lat="43.63471" lon="3.83375">
        <ele>59.799999237061</ele>
        <time>2023-05-23T12:05:48.000Z</time>
      </trkpt>
      <trkpt lat="43.6347" lon="3.83375">
        <ele>60.200000762939</ele>
        <time>2023-05-23T12:05:58.000Z</time>
      </trkpt>
      <trkpt lat="43.6347" lon="3.83375">
        <ele>59.599998474121</ele>
        <time>2023-05-23T12:06:04.000Z</time>
      </trkpt>
      <trkpt lat="43.63469" lon="3.83376">
        <ele>59.400001525879</ele>
        <time>2023-05-23T12:06:11.000Z</time>
      </trkpt>
      <trkpt lat="43.63468" lon="3.83378">
        <ele>59.200000762939</ele>
        <time>2023-05-23T12:06:18.000Z</time>
      </trkpt>
      <trkpt lat="43.63468" lon="3.83376">
        <ele>59.200000762939</ele>
        <time>2023-05-23T12:06:25.000Z</time>
      </trkpt>
      <trkpt lat="43.63469" lon="3.83375">
        <ele>59.200000762939</ele>
        <time>2023-05-23T12:06:30.000Z</time>
      </trkpt>
      <trkpt lat="43.63469" lon="3.83375">
        <ele>59.400001525879</ele>
        <time>2023-05-23T12:06:38.000Z</time>
      </trkpt>
      <trkpt lat="43.63469" lon="3.83376">
        <ele>59.400001525879</ele>
        <time>2023-05-23T12:06:46.000Z</time>
      </trkpt>
      <trkpt lat="43.6347" lon="3.83376">
        <ele>59.400001525879</ele>
        <time>2023-05-23T12:06:53.000Z</time>
      </trkpt>
      <trkpt lat="43.6347" lon="3.83376">
        <ele>59.400001525879</ele>
        <time>2023-05-23T12:07:01.000Z</time>
      </trkpt>
      <trkpt lat="43.63469" lon="3.83377">
        <ele>59.200000762939</ele>
        <time>2023-05-23T12:07:09.000Z</time>
      </trkpt>
      <trkpt lat="43.63467" lon="3.83375">
        <ele>59.200000762939</ele>
        <time>2023-05-23T12:07:17.000Z</time>
      </trkpt>
      <trkpt lat="43.63467" lon="3.83376">
        <ele>59.200000762939</ele>
        <time>2023-05-23T12:07:24.000Z</time>
      </trkpt>
      <trkpt lat="43.63466" lon="3.83377">
        <ele>59.200000762939</ele>
        <time>2023-05-23T12:07:30.000Z</time>
      </trkpt>
      <trkpt lat="43.63465" lon="3.83378">
        <ele>59.200000762939</ele>
        <time>2023-05-23T12:07:38.000Z</time>
      </trkpt>
      <trkpt lat="43.63465" lon="3.83378">
        <ele>59.200000762939</ele>
        <time>2023-05-23T12:07:45.000Z</time>
      </trkpt>
      <trkpt lat="43.63464" lon="3.8338">
        <ele>59</ele>
        <time>2023-05-23T12:07:52.000Z</time>
      </trkpt>
      <trkpt lat="43.63466" lon="3.83378">
        <ele>59.200000762939</ele>
        <time>2023-05-23T12:07:58.000Z</time>
      </trkpt>
      <trkpt lat="43.63468" lon="3.83376">
        <ele>59.200000762939</ele>
        <time>2023-05-23T12:08:06.000Z</time>
      </trkpt>
      <trkpt lat="43.63469" lon="3.83375">
        <ele>59.400001525879</ele>
        <time>2023-05-23T12:08:15.000Z</time>
      </trkpt>
      <trkpt lat="43.63469" lon="3.83375">
        <ele>59.400001525879</ele>
        <time>2023-05-23T12:08:22.000Z</time>
      </trkpt>
      <trkpt lat="43.6347" lon="3.83374">
        <ele>59.400001525879</ele>
        <time>2023-05-23T12:08:27.000Z</time>
      </trkpt>
      <trkpt lat="43.6347" lon="3.83373">
        <ele>60</ele>
        <time>2023-05-23T12:08:35.000Z</time>
      </trkpt>
      <trkpt lat="43.6347" lon="3.83372">
        <ele>59.400001525879</ele>
        <time>2023-05-23T12:08:42.000Z</time>
      </trkpt>
      <trkpt lat="43.63468" lon="3.83374">
        <ele>59.400001525879</ele>
        <time>2023-05-23T12:08:49.000Z</time>
      </trkpt>
      <trkpt lat="43.63468" lon="3.83375">
        <ele>59.400001525879</ele>
        <time>2023-05-23T12:08:57.000Z</time>
      </trkpt>
      <trkpt lat="43.63467" lon="3.83379">
        <ele>59.799999237061</ele>
        <time>2023-05-23T12:09:11.000Z</time>
      </trkpt>
      <trkpt lat="43.63469" lon="3.83376">
        <ele>60.200000762939</ele>
        <time>2023-05-23T12:09:17.000Z</time>
      </trkpt>
      <trkpt lat="43.6347" lon="3.83376">
        <ele>60.200000762939</ele>
        <time>2023-05-23T12:09:26.000Z</time>
      </trkpt>
      <trkpt lat="43.63468" lon="3.83377">
        <ele>60.200000762939</ele>
        <time>2023-05-23T12:09:38.000Z</time>
      </trkpt>
      <trkpt lat="43.63467" lon="3.83378">
        <ele>60.200000762939</ele>
        <time>2023-05-23T12:09:46.000Z</time>
      </trkpt>
      <trkpt lat="43.63469" lon="3.83377">
        <ele>60</ele>
        <time>2023-05-23T12:09:52.000Z</time>
      </trkpt>
      <trkpt lat="43.63468" lon="3.83377">
        <ele>60</ele>
        <time>2023-05-23T12:09:57.000Z</time>
      </trkpt>
      <trkpt lat="43.63469" lon="3.83375">
        <ele>60.200000762939</ele>
        <time>2023-05-23T12:10:02.000Z</time>
      </trkpt>
      <trkpt lat="43.63469" lon="3.83375">
        <ele>60.200000762939</ele>
        <time>2023-05-23T12:10:09.000Z</time>
      </trkpt>
      <trkpt lat="43.6347" lon="3.83374">
        <ele>60.200000762939</ele>
        <time>2023-05-23T12:10:20.000Z</time>
      </trkpt>
      <trkpt lat="43.6347" lon="3.83375">
        <ele>59.799999237061</ele>
        <time>2023-05-23T12:10:30.000Z</time>
      </trkpt>
      <trkpt lat="43.63471" lon="3.83375">
        <ele>60</ele>
        <time>2023-05-23T12:10:43.000Z</time>
      </trkpt>
      <trkpt lat="43.63472" lon="3.83374">
        <ele>60</ele>
        <time>2023-05-23T12:10:52.000Z</time>
      </trkpt>
      <trkpt lat="43.63472" lon="3.83374">
        <ele>60</ele>
        <time>2023-05-23T12:11:02.000Z</time>
      </trkpt>
      <trkpt lat="43.6347" lon="3.83375">
        <ele>60.200000762939</ele>
        <time>2023-05-23T12:11:10.000Z</time>
      </trkpt>
      <trkpt lat="43.63469" lon="3.83374">
        <ele>59.599998474121</ele>
        <time>2023-05-23T12:11:20.000Z</time>
      </trkpt>
      <trkpt lat="43.63473" lon="3.83366">
        <ele>59</ele>
        <time>2023-05-23T12:11:23.000Z</time>
      </trkpt>
      <trkpt lat="43.63486" lon="3.83346">
        <ele>59.400001525879</ele>
        <time>2023-05-23T12:11:27.000Z</time>
      </trkpt>
      <trkpt lat="43.63501" lon="3.83326">
        <ele>60</ele>
        <time>2023-05-23T12:11:30.000Z</time>
      </trkpt>
      <trkpt lat="43.63507" lon="3.83318">
        <ele>60</ele>
        <time>2023-05-23T12:11:31.000Z</time>
      </trkpt>
      <trkpt lat="43.63527" lon="3.83292">
        <ele>60.799999237061</ele>
        <time>2023-05-23T12:11:34.000Z</time>
      </trkpt>
      <trkpt lat="43.63534" lon="3.83284">
        <ele>61.200000762939</ele>
        <time>2023-05-23T12:11:35.000Z</time>
      </trkpt>
      <trkpt lat="43.63541" lon="3.83275">
        <ele>61.400001525879</ele>
        <time>2023-05-23T12:11:36.000Z</time>
      </trkpt>
      <trkpt lat="43.63558" lon="3.83256">
        <ele>62</ele>
        <time>2023-05-23T12:11:38.000Z</time>
      </trkpt>
      <trkpt lat="43.63566" lon="3.83247">
        <ele>62.400001525879</ele>
        <time>2023-05-23T12:11:39.000Z</time>
      </trkpt>
      <trkpt lat="43.63582" lon="3.83229">
        <ele>62.799999237061</ele>
        <time>2023-05-23T12:11:41.000Z</time>
      </trkpt>
      <trkpt lat="43.6359" lon="3.83221">
        <ele>63</ele>
        <time>2023-05-23T12:11:42.000Z</time>
      </trkpt>
      <trkpt lat="43.63607" lon="3.83207">
        <ele>63.400001525879</ele>
        <time>2023-05-23T12:11:44.000Z</time>
      </trkpt>
      <trkpt lat="43.63629" lon="3.83191">
        <ele>63.799999237061</ele>
        <time>2023-05-23T12:11:47.000Z</time>
      </trkpt>
      <trkpt lat="43.63645" lon="3.8318">
        <ele>64</ele>
        <time>2023-05-23T12:11:50.000Z</time>
      </trkpt>
      <trkpt lat="43.6365" lon="3.83177">
        <ele>63.799999237061</ele>
        <time>2023-05-23T12:11:51.000Z</time>
      </trkpt>
      <trkpt lat="43.63657" lon="3.83176">
        <ele>63.799999237061</ele>
        <time>2023-05-23T12:11:54.000Z</time>
      </trkpt>
      <trkpt lat="43.63659" lon="3.83176">
        <ele>63.799999237061</ele>
        <time>2023-05-23T12:11:55.000Z</time>
      </trkpt>
      <trkpt lat="43.63668" lon="3.83181">
        <ele>64</ele>
        <time>2023-05-23T12:11:58.000Z</time>
      </trkpt>
      <trkpt lat="43.63672" lon="3.83185">
        <ele>64</ele>
        <time>2023-05-23T12:11:59.000Z</time>
      </trkpt>
      <trkpt lat="43.63688" lon="3.83195">
        <ele>64.599998474121</ele>
        <time>2023-05-23T12:12:02.000Z</time>
      </trkpt>
      <trkpt lat="43.63695" lon="3.83196">
        <ele>64.800003051758</ele>
        <time>2023-05-23T12:12:03.000Z</time>
      </trkpt>
      <trkpt lat="43.63709" lon="3.83195">
        <ele>65.400001525879</ele>
        <time>2023-05-23T12:12:05.000Z</time>
      </trkpt>
      <trkpt lat="43.63716" lon="3.83191">
        <ele>65.599998474121</ele>
        <time>2023-05-23T12:12:06.000Z</time>
      </trkpt>
      <trkpt lat="43.63728" lon="3.8318">
        <ele>66</ele>
        <time>2023-05-23T12:12:08.000Z</time>
      </trkpt>
      <trkpt lat="43.63737" lon="3.83164">
        <ele>66.800003051758</ele>
        <time>2023-05-23T12:12:10.000Z</time>
      </trkpt>
      <trkpt lat="43.63739" lon="3.83156">
        <ele>67</ele>
        <time>2023-05-23T12:12:11.000Z</time>
      </trkpt>
      <trkpt lat="43.63743" lon="3.83128">
        <ele>67.199996948242</ele>
        <time>2023-05-23T12:12:14.000Z</time>
      </trkpt>
      <trkpt lat="43.63745" lon="3.83119">
        <ele>67</ele>
        <time>2023-05-23T12:12:15.000Z</time>
      </trkpt>
      <trkpt lat="43.6376" lon="3.83096">
        <ele>66.199996948242</ele>
        <time>2023-05-23T12:12:18.000Z</time>
      </trkpt>
      <trkpt lat="43.63775" lon="3.83084">
        <ele>65.599998474121</ele>
        <time>2023-05-23T12:12:20.000Z</time>
      </trkpt>
      <trkpt lat="43.63797" lon="3.83065">
        <ele>65.199996948242</ele>
        <time>2023-05-23T12:12:23.000Z</time>
      </trkpt>
      <trkpt lat="43.63814" lon="3.8305">
        <ele>65.199996948242</ele>
        <time>2023-05-23T12:12:25.000Z</time>
      </trkpt>
      <trkpt lat="43.6383" lon="3.83032">
        <ele>65.199996948242</ele>
        <time>2023-05-23T12:12:27.000Z</time>
      </trkpt>
      <trkpt lat="43.63839" lon="3.83021">
        <ele>65.400001525879</ele>
        <time>2023-05-23T12:12:28.000Z</time>
      </trkpt>
      <trkpt lat="43.63857" lon="3.83">
        <ele>66</ele>
        <time>2023-05-23T12:12:30.000Z</time>
      </trkpt>
      <trkpt lat="43.63873" lon="3.82978">
        <ele>66.400001525879</ele>
        <time>2023-05-23T12:12:32.000Z</time>
      </trkpt>
      <trkpt lat="43.63881" lon="3.82966">
        <ele>66.800003051758</ele>
        <time>2023-05-23T12:12:33.000Z</time>
      </trkpt>
      <trkpt lat="43.63888" lon="3.82956">
        <ele>67</ele>
        <time>2023-05-23T12:12:34.000Z</time>
      </trkpt>
      <trkpt lat="43.63901" lon="3.82937">
        <ele>67.199996948242</ele>
        <time>2023-05-23T12:12:36.000Z</time>
      </trkpt>
      <trkpt lat="43.63911" lon="3.8292">
        <ele>67.599998474121</ele>
        <time>2023-05-23T12:12:38.000Z</time>
      </trkpt>
      <trkpt lat="43.63924" lon="3.82897">
        <ele>67.599998474121</ele>
        <time>2023-05-23T12:12:42.000Z</time>
      </trkpt>
      <trkpt lat="43.63927" lon="3.8289">
        <ele>67.800003051758</ele>
        <time>2023-05-23T12:12:44.000Z</time>
      </trkpt>
      <trkpt lat="43.63929" lon="3.82887">
        <ele>67.800003051758</ele>
        <time>2023-05-23T12:12:46.000Z</time>
      </trkpt>
      <trkpt lat="43.63929" lon="3.82888">
        <ele>68.400001525879</ele>
        <time>2023-05-23T12:12:51.000Z</time>
      </trkpt>
      <trkpt lat="43.63929" lon="3.82888">
        <ele>67.800003051758</ele>
        <time>2023-05-23T12:12:58.000Z</time>
      </trkpt>
      <trkpt lat="43.63928" lon="3.82887">
        <ele>68</ele>
        <time>2023-05-23T12:13:11.000Z</time>
      </trkpt>
      <trkpt lat="43.63934" lon="3.82876">
        <ele>68.199996948242</ele>
        <time>2023-05-23T12:13:18.000Z</time>
      </trkpt>
      <trkpt lat="43.63948" lon="3.82851">
        <ele>68.599998474121</ele>
        <time>2023-05-23T12:13:23.000Z</time>
      </trkpt>
      <trkpt lat="43.63952" lon="3.82843">
        <ele>68.800003051758</ele>
        <time>2023-05-23T12:13:24.000Z</time>
      </trkpt>
      <trkpt lat="43.63967" lon="3.82821">
        <ele>69.400001525879</ele>
        <time>2023-05-23T12:13:27.000Z</time>
      </trkpt>
      <trkpt lat="43.63972" lon="3.82815">
        <ele>69.800003051758</ele>
        <time>2023-05-23T12:13:28.000Z</time>
      </trkpt>
      <trkpt lat="43.63977" lon="3.82811">
        <ele>70</ele>
        <time>2023-05-23T12:13:29.000Z</time>
      </trkpt>
      <trkpt lat="43.63983" lon="3.82808">
        <ele>70.199996948242</ele>
        <time>2023-05-23T12:13:30.000Z</time>
      </trkpt>
      <trkpt lat="43.63995" lon="3.82807">
        <ele>70.400001525879</ele>
        <time>2023-05-23T12:13:32.000Z</time>
      </trkpt>
      <trkpt lat="43.64008" lon="3.82807">
        <ele>71</ele>
        <time>2023-05-23T12:13:34.000Z</time>
      </trkpt>
      <trkpt lat="43.64014" lon="3.82806">
        <ele>71.400001525879</ele>
        <time>2023-05-23T12:13:35.000Z</time>
      </trkpt>
      <trkpt lat="43.64021" lon="3.82804">
        <ele>71.599998474121</ele>
        <time>2023-05-23T12:13:36.000Z</time>
      </trkpt>
      <trkpt lat="43.64028" lon="3.82802">
        <ele>72</ele>
        <time>2023-05-23T12:13:37.000Z</time>
      </trkpt>
      <trkpt lat="43.64043" lon="3.82793">
        <ele>73.199996948242</ele>
        <time>2023-05-23T12:13:39.000Z</time>
      </trkpt>
      <trkpt lat="43.6405" lon="3.82788">
        <ele>73.599998474121</ele>
        <time>2023-05-23T12:13:40.000Z</time>
      </trkpt>
      <trkpt lat="43.64064" lon="3.82775">
        <ele>74.400001525879</ele>
        <time>2023-05-23T12:13:42.000Z</time>
      </trkpt>
      <trkpt lat="43.64082" lon="3.82759">
        <ele>75</ele>
        <time>2023-05-23T12:13:44.000Z</time>
      </trkpt>
      <trkpt lat="43.641" lon="3.8274">
        <ele>75.599998474121</ele>
        <time>2023-05-23T12:13:46.000Z</time>
      </trkpt>
      <trkpt lat="43.6412" lon="3.8272">
        <ele>76.400001525879</ele>
        <time>2023-05-23T12:13:48.000Z</time>
      </trkpt>
      <trkpt lat="43.6413" lon="3.82709">
        <ele>76.800003051758</ele>
        <time>2023-05-23T12:13:49.000Z</time>
      </trkpt>
      <trkpt lat="43.6415" lon="3.82688">
        <ele>77.599998474121</ele>
        <time>2023-05-23T12:13:51.000Z</time>
      </trkpt>
      <trkpt lat="43.64159" lon="3.82677">
        <ele>77.800003051758</ele>
        <time>2023-05-23T12:13:52.000Z</time>
      </trkpt>
      <trkpt lat="43.6418" lon="3.82652">
        <ele>78.599998474121</ele>
        <time>2023-05-23T12:13:54.000Z</time>
      </trkpt>
      <trkpt lat="43.64191" lon="3.82639">
        <ele>79</ele>
        <time>2023-05-23T12:13:55.000Z</time>
      </trkpt>
      <trkpt lat="43.64211" lon="3.82613">
        <ele>80.199996948242</ele>
        <time>2023-05-23T12:13:57.000Z</time>
      </trkpt>
      <trkpt lat="43.6423" lon="3.82582">
        <ele>81.400001525879</ele>
        <time>2023-05-23T12:13:59.000Z</time>
      </trkpt>
      <trkpt lat="43.64239" lon="3.82565">
        <ele>82.199996948242</ele>
        <time>2023-05-23T12:14:00.000Z</time>
      </trkpt>
      <trkpt lat="43.64247" lon="3.82548">
        <ele>82.800003051758</ele>
        <time>2023-05-23T12:14:01.000Z</time>
      </trkpt>
      <trkpt lat="43.64263" lon="3.82512">
        <ele>84</ele>
        <time>2023-05-23T12:14:03.000Z</time>
      </trkpt>
      <trkpt lat="43.64277" lon="3.82478">
        <ele>84.800003051758</ele>
        <time>2023-05-23T12:14:05.000Z</time>
      </trkpt>
      <trkpt lat="43.64284" lon="3.82461">
        <ele>85</ele>
        <time>2023-05-23T12:14:06.000Z</time>
      </trkpt>
      <trkpt lat="43.64298" lon="3.82432">
        <ele>85.400001525879</ele>
        <time>2023-05-23T12:14:08.000Z</time>
      </trkpt>
      <trkpt lat="43.64313" lon="3.82407">
        <ele>85.800003051758</ele>
        <time>2023-05-23T12:14:10.000Z</time>
      </trkpt>
      <trkpt lat="43.64328" lon="3.82387">
        <ele>86.199996948242</ele>
        <time>2023-05-23T12:14:12.000Z</time>
      </trkpt>
      <trkpt lat="43.64343" lon="3.82372">
        <ele>86.599998474121</ele>
        <time>2023-05-23T12:14:14.000Z</time>
      </trkpt>
      <trkpt lat="43.64355" lon="3.8236">
        <ele>87</ele>
        <time>2023-05-23T12:14:16.000Z</time>
      </trkpt>
      <trkpt lat="43.6436" lon="3.82356">
        <ele>87</ele>
        <time>2023-05-23T12:14:17.000Z</time>
      </trkpt>
      <trkpt lat="43.6437" lon="3.82352">
        <ele>87</ele>
        <time>2023-05-23T12:14:19.000Z</time>
      </trkpt>
      <trkpt lat="43.64375" lon="3.82352">
        <ele>87</ele>
        <time>2023-05-23T12:14:22.000Z</time>
      </trkpt>
      <trkpt lat="43.64382" lon="3.82357">
        <ele>87</ele>
        <time>2023-05-23T12:14:25.000Z</time>
      </trkpt>
      <trkpt lat="43.64386" lon="3.8236">
        <ele>87</ele>
        <time>2023-05-23T12:14:26.000Z</time>
      </trkpt>
      <trkpt lat="43.64401" lon="3.82373">
        <ele>87</ele>
        <time>2023-05-23T12:14:29.000Z</time>
      </trkpt>
      <trkpt lat="43.64414" lon="3.82377">
        <ele>87.199996948242</ele>
        <time>2023-05-23T12:14:31.000Z</time>
      </trkpt>
      <trkpt lat="43.6442" lon="3.82377">
        <ele>87.199996948242</ele>
        <time>2023-05-23T12:14:32.000Z</time>
      </trkpt>
      <trkpt lat="43.6444" lon="3.82368">
        <ele>87.400001525879</ele>
        <time>2023-05-23T12:14:35.000Z</time>
      </trkpt>
      <trkpt lat="43.64451" lon="3.82356">
        <ele>87.599998474121</ele>
        <time>2023-05-23T12:14:37.000Z</time>
      </trkpt>
      <trkpt lat="43.64455" lon="3.82347">
        <ele>87.800003051758</ele>
        <time>2023-05-23T12:14:38.000Z</time>
      </trkpt>
      <trkpt lat="43.64458" lon="3.82337">
        <ele>88</ele>
        <time>2023-05-23T12:14:39.000Z</time>
      </trkpt>
      <trkpt lat="43.64461" lon="3.82311">
        <ele>88.199996948242</ele>
        <time>2023-05-23T12:14:42.000Z</time>
      </trkpt>
      <trkpt lat="43.64463" lon="3.82302">
        <ele>88.199996948242</ele>
        <time>2023-05-23T12:14:43.000Z</time>
      </trkpt>
      <trkpt lat="43.6447" lon="3.82287">
        <ele>88.400001525879</ele>
        <time>2023-05-23T12:14:45.000Z</time>
      </trkpt>
      <trkpt lat="43.6449" lon="3.82271">
        <ele>88.800003051758</ele>
        <time>2023-05-23T12:14:48.000Z</time>
      </trkpt>
      <trkpt lat="43.64505" lon="3.82258">
        <ele>89.199996948242</ele>
        <time>2023-05-23T12:14:50.000Z</time>
      </trkpt>
      <trkpt lat="43.64514" lon="3.82251">
        <ele>89.199996948242</ele>
        <time>2023-05-23T12:14:51.000Z</time>
      </trkpt>
      <trkpt lat="43.64522" lon="3.82243">
        <ele>89.400001525879</ele>
        <time>2023-05-23T12:14:52.000Z</time>
      </trkpt>
      <trkpt lat="43.64539" lon="3.82223">
        <ele>89.199996948242</ele>
        <time>2023-05-23T12:14:54.000Z</time>
      </trkpt>
      <trkpt lat="43.64556" lon="3.822">
        <ele>88.800003051758</ele>
        <time>2023-05-23T12:14:56.000Z</time>
      </trkpt>
      <trkpt lat="43.64572" lon="3.82174">
        <ele>88.199996948242</ele>
        <time>2023-05-23T12:14:58.000Z</time>
      </trkpt>
      <trkpt lat="43.64585" lon="3.82146">
        <ele>87.400001525879</ele>
        <time>2023-05-23T12:15:00.000Z</time>
      </trkpt>
      <trkpt lat="43.64591" lon="3.82131">
        <ele>87</ele>
        <time>2023-05-23T12:15:01.000Z</time>
      </trkpt>
      <trkpt lat="43.64602" lon="3.821">
        <ele>86</ele>
        <time>2023-05-23T12:15:03.000Z</time>
      </trkpt>
      <trkpt lat="43.64607" lon="3.82084">
        <ele>85.800003051758</ele>
        <time>2023-05-23T12:15:04.000Z</time>
      </trkpt>
      <trkpt lat="43.6461" lon="3.82069">
        <ele>85.400001525879</ele>
        <time>2023-05-23T12:15:05.000Z</time>
      </trkpt>
      <trkpt lat="43.64616" lon="3.82034">
        <ele>84.599998474121</ele>
        <time>2023-05-23T12:15:07.000Z</time>
      </trkpt>
      <trkpt lat="43.64618" lon="3.81998">
        <ele>83</ele>
        <time>2023-05-23T12:15:09.000Z</time>
      </trkpt>
      <trkpt lat="43.64618" lon="3.81962">
        <ele>81.400001525879</ele>
        <time>2023-05-23T12:15:11.000Z</time>
      </trkpt>
      <trkpt lat="43.64617" lon="3.81922">
        <ele>80.199996948242</ele>
        <time>2023-05-23T12:15:13.000Z</time>
      </trkpt>
      <trkpt lat="43.64616" lon="3.81902">
        <ele>79.800003051758</ele>
        <time>2023-05-23T12:15:14.000Z</time>
      </trkpt>
      <trkpt lat="43.64615" lon="3.81862">
        <ele>78.800003051758</ele>
        <time>2023-05-23T12:15:16.000Z</time>
      </trkpt>
      <trkpt lat="43.64613" lon="3.81822">
        <ele>77.800003051758</ele>
        <time>2023-05-23T12:15:18.000Z</time>
      </trkpt>
      <trkpt lat="43.64612" lon="3.81783">
        <ele>77</ele>
        <time>2023-05-23T12:15:20.000Z</time>
      </trkpt>
      <trkpt lat="43.64611" lon="3.81763">
        <ele>76.599998474121</ele>
        <time>2023-05-23T12:15:21.000Z</time>
      </trkpt>
      <trkpt lat="43.64609" lon="3.81725">
        <ele>75.599998474121</ele>
        <time>2023-05-23T12:15:23.000Z</time>
      </trkpt>
      <trkpt lat="43.64609" lon="3.81704">
        <ele>75.199996948242</ele>
        <time>2023-05-23T12:15:24.000Z</time>
      </trkpt>
      <trkpt lat="43.64608" lon="3.81684">
        <ele>74.599998474121</ele>
        <time>2023-05-23T12:15:25.000Z</time>
      </trkpt>
      <trkpt lat="43.64607" lon="3.81665">
        <ele>73.800003051758</ele>
        <time>2023-05-23T12:15:26.000Z</time>
      </trkpt>
      <trkpt lat="43.64606" lon="3.81628">
        <ele>72.599998474121</ele>
        <time>2023-05-23T12:15:28.000Z</time>
      </trkpt>
      <trkpt lat="43.64605" lon="3.81592">
        <ele>71.199996948242</ele>
        <time>2023-05-23T12:15:30.000Z</time>
      </trkpt>
      <trkpt lat="43.64604" lon="3.81562">
        <ele>69.800003051758</ele>
        <time>2023-05-23T12:15:32.000Z</time>
      </trkpt>
      <trkpt lat="43.64603" lon="3.81536">
        <ele>68.400001525879</ele>
        <time>2023-05-23T12:15:34.000Z</time>
      </trkpt>
      <trkpt lat="43.64604" lon="3.81511">
        <ele>67.199996948242</ele>
        <time>2023-05-23T12:15:37.000Z</time>
      </trkpt>
      <trkpt lat="43.64608" lon="3.81494">
        <ele>66</ele>
        <time>2023-05-23T12:15:40.000Z</time>
      </trkpt>
      <trkpt lat="43.64608" lon="3.81489">
        <ele>65.400001525879</ele>
        <time>2023-05-23T12:15:41.000Z</time>
      </trkpt>
      <trkpt lat="43.64606" lon="3.81478">
        <ele>64.800003051758</ele>
        <time>2023-05-23T12:15:43.000Z</time>
      </trkpt>
      <trkpt lat="43.64603" lon="3.81471">
        <ele>64.599998474121</ele>
        <time>2023-05-23T12:15:44.000Z</time>
      </trkpt>
      <trkpt lat="43.64601" lon="3.81464">
        <ele>64.400001525879</ele>
        <time>2023-05-23T12:15:45.000Z</time>
      </trkpt>
      <trkpt lat="43.646" lon="3.81447">
        <ele>64.199996948242</ele>
        <time>2023-05-23T12:15:47.000Z</time>
      </trkpt>
      <trkpt lat="43.64598" lon="3.81424">
        <ele>63.599998474121</ele>
        <time>2023-05-23T12:15:49.000Z</time>
      </trkpt>
      <trkpt lat="43.64597" lon="3.81398">
        <ele>63</ele>
        <time>2023-05-23T12:15:51.000Z</time>
      </trkpt>
      <trkpt lat="43.64597" lon="3.81371">
        <ele>62.799999237061</ele>
        <time>2023-05-23T12:15:53.000Z</time>
      </trkpt>
      <trkpt lat="43.64596" lon="3.81339">
        <ele>62.400001525879</ele>
        <time>2023-05-23T12:15:55.000Z</time>
      </trkpt>
      <trkpt lat="43.64595" lon="3.81324">
        <ele>62.200000762939</ele>
        <time>2023-05-23T12:15:56.000Z</time>
      </trkpt>
      <trkpt lat="43.64594" lon="3.81293">
        <ele>61.799999237061</ele>
        <time>2023-05-23T12:15:58.000Z</time>
      </trkpt>
      <trkpt lat="43.64593" lon="3.81262">
        <ele>61.400001525879</ele>
        <time>2023-05-23T12:16:00.000Z</time>
      </trkpt>
      <trkpt lat="43.64593" lon="3.81232">
        <ele>60.400001525879</ele>
        <time>2023-05-23T12:16:02.000Z</time>
      </trkpt>
      <trkpt lat="43.64592" lon="3.81217">
        <ele>60</ele>
        <time>2023-05-23T12:16:03.000Z</time>
      </trkpt>
      <trkpt lat="43.64592" lon="3.81191">
        <ele>59.200000762939</ele>
        <time>2023-05-23T12:16:05.000Z</time>
      </trkpt>
      <trkpt lat="43.64593" lon="3.81177">
        <ele>58.799999237061</ele>
        <time>2023-05-23T12:16:06.000Z</time>
      </trkpt>
      <trkpt lat="43.64594" lon="3.81151">
        <ele>58.200000762939</ele>
        <time>2023-05-23T12:16:08.000Z</time>
      </trkpt>
      <trkpt lat="43.64595" lon="3.81138">
        <ele>57.799999237061</ele>
        <time>2023-05-23T12:16:09.000Z</time>
      </trkpt>
      <trkpt lat="43.64598" lon="3.81116">
        <ele>57.200000762939</ele>
        <time>2023-05-23T12:16:11.000Z</time>
      </trkpt>
      <trkpt lat="43.64602" lon="3.81097">
        <ele>56.799999237061</ele>
        <time>2023-05-23T12:16:13.000Z</time>
      </trkpt>
      <trkpt lat="43.64604" lon="3.81089">
        <ele>56.599998474121</ele>
        <time>2023-05-23T12:16:14.000Z</time>
      </trkpt>
      <trkpt lat="43.64607" lon="3.81082">
        <ele>56.200000762939</ele>
        <time>2023-05-23T12:16:15.000Z</time>
      </trkpt>
      <trkpt lat="43.64608" lon="3.81077">
        <ele>56.200000762939</ele>
        <time>2023-05-23T12:16:16.000Z</time>
      </trkpt>
      <trkpt lat="43.64609" lon="3.81066">
        <ele>55.599998474121</ele>
        <time>2023-05-23T12:16:18.000Z</time>
      </trkpt>
      <trkpt lat="43.64608" lon="3.8106">
        <ele>55.400001525879</ele>
        <time>2023-05-23T12:16:19.000Z</time>
      </trkpt>
      <trkpt lat="43.64606" lon="3.81054">
        <ele>55.200000762939</ele>
        <time>2023-05-23T12:16:20.000Z</time>
      </trkpt>
      <trkpt lat="43.64605" lon="3.81047">
        <ele>55.200000762939</ele>
        <time>2023-05-23T12:16:21.000Z</time>
      </trkpt>
      <trkpt lat="43.64605" lon="3.81021">
        <ele>55</ele>
        <time>2023-05-23T12:16:24.000Z</time>
      </trkpt>
      <trkpt lat="43.64609" lon="3.8099">
        <ele>55.200000762939</ele>
        <time>2023-05-23T12:16:27.000Z</time>
      </trkpt>
      <trkpt lat="43.6461" lon="3.80977">
        <ele>55.200000762939</ele>
        <time>2023-05-23T12:16:28.000Z</time>
      </trkpt>
      <trkpt lat="43.64615" lon="3.80951">
        <ele>55.400001525879</ele>
        <time>2023-05-23T12:16:30.000Z</time>
      </trkpt>
      <trkpt lat="43.6462" lon="3.80925">
        <ele>55.599998474121</ele>
        <time>2023-05-23T12:16:32.000Z</time>
      </trkpt>
      <trkpt lat="43.64626" lon="3.80898">
        <ele>55.799999237061</ele>
        <time>2023-05-23T12:16:34.000Z</time>
      </trkpt>
      <trkpt lat="43.64632" lon="3.80873">
        <ele>55.799999237061</ele>
        <time>2023-05-23T12:16:36.000Z</time>
      </trkpt>
      <trkpt lat="43.64638" lon="3.80854">
        <ele>55.599998474121</ele>
        <time>2023-05-23T12:16:38.000Z</time>
      </trkpt>
      <trkpt lat="43.64646" lon="3.80825">
        <ele>54.599998474121</ele>
        <time>2023-05-23T12:16:42.000Z</time>
      </trkpt>
      <trkpt lat="43.64654" lon="3.80797">
        <ele>54.200000762939</ele>
        <time>2023-05-23T12:16:45.000Z</time>
      </trkpt>
      <trkpt lat="43.64659" lon="3.80781">
        <ele>54</ele>
        <time>2023-05-23T12:16:47.000Z</time>
      </trkpt>
      <trkpt lat="43.6467" lon="3.80751">
        <ele>53.799999237061</ele>
        <time>2023-05-23T12:16:51.000Z</time>
      </trkpt>
      <trkpt lat="43.64672" lon="3.80743">
        <ele>53.799999237061</ele>
        <time>2023-05-23T12:16:52.000Z</time>
      </trkpt>
      <trkpt lat="43.64679" lon="3.80711">
        <ele>54</ele>
        <time>2023-05-23T12:16:55.000Z</time>
      </trkpt>
      <trkpt lat="43.6468" lon="3.807">
        <ele>54</ele>
        <time>2023-05-23T12:16:56.000Z</time>
      </trkpt>
      <trkpt lat="43.64683" lon="3.80675">
        <ele>53.799999237061</ele>
        <time>2023-05-23T12:16:59.000Z</time>
      </trkpt>
      <trkpt lat="43.64683" lon="3.80666">
        <ele>53.599998474121</ele>
        <time>2023-05-23T12:17:00.000Z</time>
      </trkpt>
      <trkpt lat="43.64684" lon="3.80657">
        <ele>53.400001525879</ele>
        <time>2023-05-23T12:17:01.000Z</time>
      </trkpt>
      <trkpt lat="43.64686" lon="3.80625">
        <ele>53.400001525879</ele>
        <time>2023-05-23T12:17:04.000Z</time>
      </trkpt>
      <trkpt lat="43.64686" lon="3.80598">
        <ele>53.200000762939</ele>
        <time>2023-05-23T12:17:07.000Z</time>
      </trkpt>
      <trkpt lat="43.64685" lon="3.8059">
        <ele>53.200000762939</ele>
        <time>2023-05-23T12:17:08.000Z</time>
      </trkpt>
      <trkpt lat="43.64684" lon="3.80579">
        <ele>53</ele>
        <time>2023-05-23T12:17:11.000Z</time>
      </trkpt>
      <trkpt lat="43.64684" lon="3.80578">
        <ele>52.799999237061</ele>
        <time>2023-05-23T12:17:12.000Z</time>
      </trkpt>
      <trkpt lat="43.64684" lon="3.80578">
        <ele>52.400001525879</ele>
        <time>2023-05-23T12:17:13.000Z</time>
      </trkpt>
      <trkpt lat="43.64684" lon="3.80578">
        <ele>52.200000762939</ele>
        <time>2023-05-23T12:17:15.000Z</time>
      </trkpt>
      <trkpt lat="43.64684" lon="3.80578">
        <ele>52.400001525879</ele>
        <time>2023-05-23T12:17:23.000Z</time>
      </trkpt>
      <trkpt lat="43.64682" lon="3.8057">
        <ele>52.200000762939</ele>
        <time>2023-05-23T12:17:27.000Z</time>
      </trkpt>
      <trkpt lat="43.64679" lon="3.80541">
        <ele>52.200000762939</ele>
        <time>2023-05-23T12:17:31.000Z</time>
      </trkpt>
      <trkpt lat="43.64676" lon="3.80509">
        <ele>52.200000762939</ele>
        <time>2023-05-23T12:17:34.000Z</time>
      </trkpt>
      <trkpt lat="43.64675" lon="3.80498">
        <ele>52.400001525879</ele>
        <time>2023-05-23T12:17:35.000Z</time>
      </trkpt>
      <trkpt lat="43.64672" lon="3.80472">
        <ele>52.400001525879</ele>
        <time>2023-05-23T12:17:37.000Z</time>
      </trkpt>
      <trkpt lat="43.64669" lon="3.80444">
        <ele>52.599998474121</ele>
        <time>2023-05-23T12:17:39.000Z</time>
      </trkpt>
      <trkpt lat="43.64668" lon="3.80418">
        <ele>52.799999237061</ele>
        <time>2023-05-23T12:17:41.000Z</time>
      </trkpt>
      <trkpt lat="43.64669" lon="3.8039">
        <ele>52.599998474121</ele>
        <time>2023-05-23T12:17:43.000Z</time>
      </trkpt>
      <trkpt lat="43.64671" lon="3.80353">
        <ele>52.599998474121</ele>
        <time>2023-05-23T12:17:46.000Z</time>
      </trkpt>
      <trkpt lat="43.64673" lon="3.80324">
        <ele>52.400001525879</ele>
        <time>2023-05-23T12:17:49.000Z</time>
      </trkpt>
      <trkpt lat="43.64674" lon="3.80307">
        <ele>52.200000762939</ele>
        <time>2023-05-23T12:17:51.000Z</time>
      </trkpt>
      <trkpt lat="43.64675" lon="3.80284">
        <ele>52.400001525879</ele>
        <time>2023-05-23T12:17:55.000Z</time>
      </trkpt>
      <trkpt lat="43.64677" lon="3.80256">
        <ele>52.599998474121</ele>
        <time>2023-05-23T12:17:59.000Z</time>
      </trkpt>
      <trkpt lat="43.64678" lon="3.80247">
        <ele>52.599998474121</ele>
        <time>2023-05-23T12:18:00.000Z</time>
      </trkpt>
      <trkpt lat="43.64682" lon="3.80219">
        <ele>52.599998474121</ele>
        <time>2023-05-23T12:18:03.000Z</time>
      </trkpt>
      <trkpt lat="43.64686" lon="3.80196">
        <ele>52.799999237061</ele>
        <time>2023-05-23T12:18:06.000Z</time>
      </trkpt>
      <trkpt lat="43.6469" lon="3.80182">
        <ele>52.400001525879</ele>
        <time>2023-05-23T12:18:10.000Z</time>
      </trkpt>
      <trkpt lat="43.64691" lon="3.8018">
        <ele>52.400001525879</ele>
        <time>2023-05-23T12:18:15.000Z</time>
      </trkpt>
      <trkpt lat="43.6469" lon="3.80183">
        <ele>53</ele>
        <time>2023-05-23T12:18:33.000Z</time>
      </trkpt>
      <trkpt lat="43.6469" lon="3.80183">
        <ele>52.799999237061</ele>
        <time>2023-05-23T12:18:39.000Z</time>
      </trkpt>
      <trkpt lat="43.6469" lon="3.80184">
        <ele>52.599998474121</ele>
        <time>2023-05-23T12:18:49.000Z</time>
      </trkpt>
      <trkpt lat="43.64691" lon="3.80175">
        <ele>52.400001525879</ele>
        <time>2023-05-23T12:18:53.000Z</time>
      </trkpt>
      <trkpt lat="43.64698" lon="3.80149">
        <ele>52.400001525879</ele>
        <time>2023-05-23T12:18:57.000Z</time>
      </trkpt>
      <trkpt lat="43.64709" lon="3.80122">
        <ele>53</ele>
        <time>2023-05-23T12:19:00.000Z</time>
      </trkpt>
      <trkpt lat="43.64713" lon="3.80113">
        <ele>53.400001525879</ele>
        <time>2023-05-23T12:19:01.000Z</time>
      </trkpt>
      <trkpt lat="43.64717" lon="3.80103">
        <ele>53.599998474121</ele>
        <time>2023-05-23T12:19:02.000Z</time>
      </trkpt>
      <trkpt lat="43.64726" lon="3.80081">
        <ele>54.400001525879</ele>
        <time>2023-05-23T12:19:04.000Z</time>
      </trkpt>
      <trkpt lat="43.6473" lon="3.8007">
        <ele>54.799999237061</ele>
        <time>2023-05-23T12:19:05.000Z</time>
      </trkpt>
      <trkpt lat="43.64735" lon="3.80058">
        <ele>55</ele>
        <time>2023-05-23T12:19:06.000Z</time>
      </trkpt>
      <trkpt lat="43.64742" lon="3.80034">
        <ele>55.599998474121</ele>
        <time>2023-05-23T12:19:08.000Z</time>
      </trkpt>
      <trkpt lat="43.64746" lon="3.80021">
        <ele>56</ele>
        <time>2023-05-23T12:19:09.000Z</time>
      </trkpt>
      <trkpt lat="43.6475" lon="3.79999">
        <ele>56.200000762939</ele>
        <time>2023-05-23T12:19:11.000Z</time>
      </trkpt>
      <trkpt lat="43.64753" lon="3.79964">
        <ele>56.400001525879</ele>
        <time>2023-05-23T12:19:14.000Z</time>
      </trkpt>
      <trkpt lat="43.64755" lon="3.79944">
        <ele>56.200000762939</ele>
        <time>2023-05-23T12:19:16.000Z</time>
      </trkpt>
      <trkpt lat="43.64757" lon="3.79915">
        <ele>55.400001525879</ele>
        <time>2023-05-23T12:19:19.000Z</time>
      </trkpt>
      <trkpt lat="43.64758" lon="3.79893">
        <ele>54.799999237061</ele>
        <time>2023-05-23T12:19:21.000Z</time>
      </trkpt>
      <trkpt lat="43.64759" lon="3.79882">
        <ele>54.599998474121</ele>
        <time>2023-05-23T12:19:22.000Z</time>
      </trkpt>
      <trkpt lat="43.64762" lon="3.79848">
        <ele>54.599998474121</ele>
        <time>2023-05-23T12:19:25.000Z</time>
      </trkpt>
      <trkpt lat="43.64764" lon="3.79816">
        <ele>54.599998474121</ele>
        <time>2023-05-23T12:19:28.000Z</time>
      </trkpt>
      <trkpt lat="43.64765" lon="3.79806">
        <ele>54.599998474121</ele>
        <time>2023-05-23T12:19:29.000Z</time>
      </trkpt>
      <trkpt lat="43.64767" lon="3.79795">
        <ele>54.400001525879</ele>
        <time>2023-05-23T12:19:30.000Z</time>
      </trkpt>
      <trkpt lat="43.64774" lon="3.79777">
        <ele>54.400001525879</ele>
        <time>2023-05-23T12:19:32.000Z</time>
      </trkpt>
      <trkpt lat="43.64782" lon="3.79759">
        <ele>54.200000762939</ele>
        <time>2023-05-23T12:19:34.000Z</time>
      </trkpt>
      <trkpt lat="43.64794" lon="3.7974">
        <ele>54.400001525879</ele>
        <time>2023-05-23T12:19:37.000Z</time>
      </trkpt>
      <trkpt lat="43.64807" lon="3.79721">
        <ele>55</ele>
        <time>2023-05-23T12:19:41.000Z</time>
      </trkpt>
      <trkpt lat="43.64809" lon="3.79717">
        <ele>55</ele>
        <time>2023-05-23T12:19:42.000Z</time>
      </trkpt>
      <trkpt lat="43.64811" lon="3.79712">
        <ele>55.200000762939</ele>
        <time>2023-05-23T12:19:43.000Z</time>
      </trkpt>
      <trkpt lat="43.64822" lon="3.79685">
        <ele>55.200000762939</ele>
        <time>2023-05-23T12:19:48.000Z</time>
      </trkpt>
      <trkpt lat="43.64829" lon="3.79672">
        <ele>55</ele>
        <time>2023-05-23T12:19:50.000Z</time>
      </trkpt>
      <trkpt lat="43.64839" lon="3.79651">
        <ele>54.599998474121</ele>
        <time>2023-05-23T12:19:53.000Z</time>
      </trkpt>
      <trkpt lat="43.64847" lon="3.79637">
        <ele>54.400001525879</ele>
        <time>2023-05-23T12:19:57.000Z</time>
      </trkpt>
      <trkpt lat="43.64855" lon="3.79618">
        <ele>54.400001525879</ele>
        <time>2023-05-23T12:20:01.000Z</time>
      </trkpt>
      <trkpt lat="43.64867" lon="3.79598">
        <ele>54.599998474121</ele>
        <time>2023-05-23T12:20:04.000Z</time>
      </trkpt>
      <trkpt lat="43.64871" lon="3.7959">
        <ele>54.599998474121</ele>
        <time>2023-05-23T12:20:05.000Z</time>
      </trkpt>
      <trkpt lat="43.64886" lon="3.79559">
        <ele>54.799999237061</ele>
        <time>2023-05-23T12:20:08.000Z</time>
      </trkpt>
      <trkpt lat="43.64891" lon="3.79549">
        <ele>55</ele>
        <time>2023-05-23T12:20:09.000Z</time>
      </trkpt>
      <trkpt lat="43.64901" lon="3.79527">
        <ele>55.200000762939</ele>
        <time>2023-05-23T12:20:11.000Z</time>
      </trkpt>
      <trkpt lat="43.64912" lon="3.79504">
        <ele>55.200000762939</ele>
        <time>2023-05-23T12:20:13.000Z</time>
      </trkpt>
      <trkpt lat="43.64925" lon="3.79478">
        <ele>54.799999237061</ele>
        <time>2023-05-23T12:20:16.000Z</time>
      </trkpt>
      <trkpt lat="43.64936" lon="3.79453">
        <ele>54.200000762939</ele>
        <time>2023-05-23T12:20:20.000Z</time>
      </trkpt>
      <trkpt lat="43.64945" lon="3.79427">
        <ele>54</ele>
        <time>2023-05-23T12:20:24.000Z</time>
      </trkpt>
      <trkpt lat="43.64949" lon="3.79418">
        <ele>54</ele>
        <time>2023-05-23T12:20:25.000Z</time>
      </trkpt>
      <trkpt lat="43.6496" lon="3.79387">
        <ele>54.200000762939</ele>
        <time>2023-05-23T12:20:28.000Z</time>
      </trkpt>
      <trkpt lat="43.64962" lon="3.79377">
        <ele>54.200000762939</ele>
        <time>2023-05-23T12:20:29.000Z</time>
      </trkpt>
      <trkpt lat="43.64968" lon="3.79351">
        <ele>54.799999237061</ele>
        <time>2023-05-23T12:20:31.000Z</time>
      </trkpt>
      <trkpt lat="43.64973" lon="3.79325">
        <ele>55</ele>
        <time>2023-05-23T12:20:33.000Z</time>
      </trkpt>
      <trkpt lat="43.64975" lon="3.79313">
        <ele>55.200000762939</ele>
        <time>2023-05-23T12:20:34.000Z</time>
      </trkpt>
      <trkpt lat="43.64981" lon="3.79288">
        <ele>54.799999237061</ele>
        <time>2023-05-23T12:20:37.000Z</time>
      </trkpt>
      <trkpt lat="43.64985" lon="3.79269">
        <ele>54.400001525879</ele>
        <time>2023-05-23T12:20:41.000Z</time>
      </trkpt>
      <trkpt lat="43.64992" lon="3.7924">
        <ele>54.400001525879</ele>
        <time>2023-05-23T12:20:45.000Z</time>
      </trkpt>
      <trkpt lat="43.64993" lon="3.79231">
        <ele>54.400001525879</ele>
        <time>2023-05-23T12:20:46.000Z</time>
      </trkpt>
      <trkpt lat="43.65001" lon="3.79204">
        <ele>54.799999237061</ele>
        <time>2023-05-23T12:20:49.000Z</time>
      </trkpt>
      <trkpt lat="43.65004" lon="3.79197">
        <ele>54.799999237061</ele>
        <time>2023-05-23T12:20:50.000Z</time>
      </trkpt>
      <trkpt lat="43.65007" lon="3.7919">
        <ele>55</ele>
        <time>2023-05-23T12:20:51.000Z</time>
      </trkpt>
      <trkpt lat="43.65023" lon="3.79172">
        <ele>55</ele>
        <time>2023-05-23T12:20:55.000Z</time>
      </trkpt>
      <trkpt lat="43.65028" lon="3.79168">
        <ele>54.799999237061</ele>
        <time>2023-05-23T12:20:58.000Z</time>
      </trkpt>
      <trkpt lat="43.65028" lon="3.79168">
        <ele>55.200000762939</ele>
        <time>2023-05-23T12:21:04.000Z</time>
      </trkpt>
      <trkpt lat="43.65029" lon="3.79169">
        <ele>55.799999237061</ele>
        <time>2023-05-23T12:21:07.000Z</time>
      </trkpt>
      <trkpt lat="43.6503" lon="3.79169">
        <ele>55.799999237061</ele>
        <time>2023-05-23T12:21:10.000Z</time>
      </trkpt>
      <trkpt lat="43.65031" lon="3.79169">
        <ele>55.599998474121</ele>
        <time>2023-05-23T12:21:14.000Z</time>
      </trkpt>
      <trkpt lat="43.65033" lon="3.79166">
        <ele>55.599998474121</ele>
        <time>2023-05-23T12:21:19.000Z</time>
      </trkpt>
      <trkpt lat="43.65037" lon="3.79162">
        <ele>55.799999237061</ele>
        <time>2023-05-23T12:21:26.000Z</time>
      </trkpt>
      <trkpt lat="43.65037" lon="3.79161">
        <ele>56</ele>
        <time>2023-05-23T12:21:36.000Z</time>
      </trkpt>
      <trkpt lat="43.65038" lon="3.79162">
        <ele>56</ele>
        <time>2023-05-23T12:21:47.000Z</time>
      </trkpt>
      <trkpt lat="43.65038" lon="3.79163">
        <ele>56.200000762939</ele>
        <time>2023-05-23T12:21:56.000Z</time>
      </trkpt>
      <trkpt lat="43.65038" lon="3.79163">
        <ele>56</ele>
        <time>2023-05-23T12:22:05.000Z</time>
      </trkpt>
      <trkpt lat="43.65039" lon="3.79164">
        <ele>56.400001525879</ele>
        <time>2023-05-23T12:22:18.000Z</time>
      </trkpt>
      <trkpt lat="43.65039" lon="3.79165">
        <ele>56.400001525879</ele>
        <time>2023-05-23T12:22:30.000Z</time>
      </trkpt>
      <trkpt lat="43.65039" lon="3.79165">
        <ele>56.599998474121</ele>
        <time>2023-05-23T12:22:50.000Z</time>
      </trkpt>
      <trkpt lat="43.65039" lon="3.79166">
        <ele>56.400001525879</ele>
        <time>2023-05-23T12:23:02.000Z</time>
      </trkpt>
      <trkpt lat="43.65038" lon="3.79165">
        <ele>56.400001525879</ele>
        <time>2023-05-23T12:23:19.000Z</time>
      </trkpt>
      <trkpt lat="43.65038" lon="3.79164">
        <ele>56.400001525879</ele>
        <time>2023-05-23T12:23:35.000Z</time>
      </trkpt>
      <trkpt lat="43.65038" lon="3.79164">
        <ele>56.400001525879</ele>
        <time>2023-05-23T12:23:47.000Z</time>
      </trkpt>
      <trkpt lat="43.65038" lon="3.79166">
        <ele>56.599998474121</ele>
        <time>2023-05-23T12:24:06.000Z</time>
      </trkpt>
      <trkpt lat="43.65039" lon="3.79166">
        <ele>56.200000762939</ele>
        <time>2023-05-23T12:24:15.000Z</time>
      </trkpt>
      <trkpt lat="43.65039" lon="3.79167">
        <ele>56.200000762939</ele>
        <time>2023-05-23T12:24:21.000Z</time>
      </trkpt>
      <trkpt lat="43.65038" lon="3.79167">
        <ele>56.400001525879</ele>
        <time>2023-05-23T12:24:29.000Z</time>
      </trkpt>
      <trkpt lat="43.6504" lon="3.79162">
        <ele>56.400001525879</ele>
        <time>2023-05-23T12:24:37.000Z</time>
      </trkpt>
      <trkpt lat="43.65045" lon="3.79146">
        <ele>56.200000762939</ele>
        <time>2023-05-23T12:24:47.000Z</time>
      </trkpt>
      <trkpt lat="43.65045" lon="3.79147">
        <ele>56.200000762939</ele>
        <time>2023-05-23T12:24:52.000Z</time>
      </trkpt>
      <trkpt lat="43.65041" lon="3.79139">
        <ele>56.200000762939</ele>
        <time>2023-05-23T12:24:57.000Z</time>
      </trkpt>
      <trkpt lat="43.65042" lon="3.79129">
        <ele>56</ele>
        <time>2023-05-23T12:25:03.000Z</time>
      </trkpt>
      <trkpt lat="43.65043" lon="3.79128">
        <ele>56</ele>
        <time>2023-05-23T12:25:04.000Z</time>
      </trkpt>
      <trkpt lat="43.65046" lon="3.79122">
        <ele>56</ele>
        <time>2023-05-23T12:25:08.000Z</time>
      </trkpt>
      <trkpt lat="43.65051" lon="3.79116">
        <ele>56</ele>
        <time>2023-05-23T12:25:13.000Z</time>
      </trkpt>
      <trkpt lat="43.65053" lon="3.79114">
        <ele>56</ele>
        <time>2023-05-23T12:25:15.000Z</time>
      </trkpt>
      <trkpt lat="43.65056" lon="3.79109">
        <ele>56</ele>
        <time>2023-05-23T12:25:19.000Z</time>
      </trkpt>
      <trkpt lat="43.65058" lon="3.79108">
        <ele>56</ele>
        <time>2023-05-23T12:25:21.000Z</time>
      </trkpt>
      <trkpt lat="43.65066" lon="3.79101">
        <ele>56.599998474121</ele>
        <time>2023-05-23T12:25:29.000Z</time>
      </trkpt>
      <trkpt lat="43.65068" lon="3.79095">
        <ele>56.599998474121</ele>
        <time>2023-05-23T12:25:33.000Z</time>
      </trkpt>
      <trkpt lat="43.65068" lon="3.79092">
        <ele>56.599998474121</ele>
        <time>2023-05-23T12:25:35.000Z</time>
      </trkpt>
      <trkpt lat="43.65068" lon="3.79088">
        <ele>56.200000762939</ele>
        <time>2023-05-23T12:25:41.000Z</time>
      </trkpt>
      <trkpt lat="43.65068" lon="3.79083">
        <ele>55.799999237061</ele>
        <time>2023-05-23T12:25:46.000Z</time>
      </trkpt>
      <trkpt lat="43.65072" lon="3.79074">
        <ele>55.400001525879</ele>
        <time>2023-05-23T12:25:51.000Z</time>
      </trkpt>
      <trkpt lat="43.65077" lon="3.79065">
        <ele>54.799999237061</ele>
        <time>2023-05-23T12:25:58.000Z</time>
      </trkpt>
      <trkpt lat="43.6508" lon="3.79063">
        <ele>54.599998474121</ele>
        <time>2023-05-23T12:26:00.000Z</time>
      </trkpt>
      <trkpt lat="43.65088" lon="3.79052">
        <ele>54</ele>
        <time>2023-05-23T12:26:09.000Z</time>
      </trkpt>
      <trkpt lat="43.6509" lon="3.79047">
        <ele>53.799999237061</ele>
        <time>2023-05-23T12:26:13.000Z</time>
      </trkpt>
      <trkpt lat="43.65091" lon="3.79046">
        <ele>53.799999237061</ele>
        <time>2023-05-23T12:26:14.000Z</time>
      </trkpt>
      <trkpt lat="43.65093" lon="3.79043">
        <ele>53.799999237061</ele>
        <time>2023-05-23T12:26:16.000Z</time>
      </trkpt>
      <trkpt lat="43.65095" lon="3.79039">
        <ele>53.599998474121</ele>
        <time>2023-05-23T12:26:19.000Z</time>
      </trkpt>
      <trkpt lat="43.65097" lon="3.79033">
        <ele>53.400001525879</ele>
        <time>2023-05-23T12:26:23.000Z</time>
      </trkpt>
      <trkpt lat="43.65099" lon="3.79018">
        <ele>53</ele>
        <time>2023-05-23T12:26:32.000Z</time>
      </trkpt>
      <trkpt lat="43.65097" lon="3.79003">
        <ele>52.799999237061</ele>
        <time>2023-05-23T12:26:40.000Z</time>
      </trkpt>
      <trkpt lat="43.65096" lon="3.78995">
        <ele>52.799999237061</ele>
        <time>2023-05-23T12:26:45.000Z</time>
      </trkpt>
      <trkpt lat="43.65094" lon="3.78986">
        <ele>52.799999237061</ele>
        <time>2023-05-23T12:26:50.000Z</time>
      </trkpt>
      <trkpt lat="43.65091" lon="3.78973">
        <ele>53.200000762939</ele>
        <time>2023-05-23T12:26:58.000Z</time>
      </trkpt>
      <trkpt lat="43.65088" lon="3.78961">
        <ele>53.200000762939</ele>
        <time>2023-05-23T12:27:07.000Z</time>
      </trkpt>
      <trkpt lat="43.65084" lon="3.7895">
        <ele>53.400001525879</ele>
        <time>2023-05-23T12:27:14.000Z</time>
      </trkpt>
      <trkpt lat="43.65078" lon="3.78932">
        <ele>53.200000762939</ele>
        <time>2023-05-23T12:27:25.000Z</time>
      </trkpt>
      <trkpt lat="43.65073" lon="3.7892">
        <ele>53.400001525879</ele>
        <time>2023-05-23T12:27:34.000Z</time>
      </trkpt>
      <trkpt lat="43.65072" lon="3.78911">
        <ele>53.400001525879</ele>
        <time>2023-05-23T12:27:41.000Z</time>
      </trkpt>
      <trkpt lat="43.65071" lon="3.78907">
        <ele>53.400001525879</ele>
        <time>2023-05-23T12:27:43.000Z</time>
      </trkpt>
      <trkpt lat="43.65071" lon="3.78902">
        <ele>53.200000762939</ele>
        <time>2023-05-23T12:27:46.000Z</time>
      </trkpt>
      <trkpt lat="43.65071" lon="3.78901">
        <ele>53.200000762939</ele>
        <time>2023-05-23T12:27:47.000Z</time>
      </trkpt>
      <trkpt lat="43.65074" lon="3.78893">
        <ele>53.400001525879</ele>
        <time>2023-05-23T12:27:53.000Z</time>
      </trkpt>
      <trkpt lat="43.6508" lon="3.78881">
        <ele>53.599998474121</ele>
        <time>2023-05-23T12:28:02.000Z</time>
      </trkpt>
      <trkpt lat="43.65085" lon="3.78876">
        <ele>53.599998474121</ele>
        <time>2023-05-23T12:28:08.000Z</time>
      </trkpt>
      <trkpt lat="43.65084" lon="3.78876">
        <ele>53.599998474121</ele>
        <time>2023-05-23T12:28:09.000Z</time>
      </trkpt>
      <trkpt lat="43.65084" lon="3.78876">
        <ele>53.799999237061</ele>
        <time>2023-05-23T12:28:10.000Z</time>
      </trkpt>
      <trkpt lat="43.65085" lon="3.78874">
        <ele>54</ele>
        <time>2023-05-23T12:28:19.000Z</time>
      </trkpt>
      <trkpt lat="43.65088" lon="3.78869">
        <ele>54.200000762939</ele>
        <time>2023-05-23T12:28:32.000Z</time>
      </trkpt>
      <trkpt lat="43.65092" lon="3.78862">
        <ele>54</ele>
        <time>2023-05-23T12:28:38.000Z</time>
      </trkpt>
      <trkpt lat="43.65099" lon="3.78855">
        <ele>54</ele>
        <time>2023-05-23T12:28:46.000Z</time>
      </trkpt>
      <trkpt lat="43.65102" lon="3.78851">
        <ele>54</ele>
        <time>2023-05-23T12:28:50.000Z</time>
      </trkpt>
      <trkpt lat="43.65105" lon="3.78849">
        <ele>54</ele>
        <time>2023-05-23T12:28:52.000Z</time>
      </trkpt>
      <trkpt lat="43.65107" lon="3.78848">
        <ele>54</ele>
        <time>2023-05-23T12:28:54.000Z</time>
      </trkpt>
      <trkpt lat="43.65113" lon="3.78842">
        <ele>54</ele>
        <time>2023-05-23T12:29:00.000Z</time>
      </trkpt>
      <trkpt lat="43.65122" lon="3.78834">
        <ele>54</ele>
        <time>2023-05-23T12:29:09.000Z</time>
      </trkpt>
      <trkpt lat="43.65132" lon="3.78824">
        <ele>54.200000762939</ele>
        <time>2023-05-23T12:29:20.000Z</time>
      </trkpt>
      <trkpt lat="43.65142" lon="3.78817">
        <ele>54.599998474121</ele>
        <time>2023-05-23T12:29:29.000Z</time>
      </trkpt>
      <trkpt lat="43.65144" lon="3.78813">
        <ele>54.400001525879</ele>
        <time>2023-05-23T12:29:34.000Z</time>
      </trkpt>
      <trkpt lat="43.65144" lon="3.7881">
        <ele>54.599998474121</ele>
        <time>2023-05-23T12:29:36.000Z</time>
      </trkpt>
      <trkpt lat="43.65144" lon="3.78807">
        <ele>54.799999237061</ele>
        <time>2023-05-23T12:29:39.000Z</time>
      </trkpt>
      <trkpt lat="43.65143" lon="3.78802">
        <ele>55</ele>
        <time>2023-05-23T12:29:43.000Z</time>
      </trkpt>
      <trkpt lat="43.65142" lon="3.78795">
        <ele>55.799999237061</ele>
        <time>2023-05-23T12:29:49.000Z</time>
      </trkpt>
      <trkpt lat="43.65141" lon="3.78791">
        <ele>56.200000762939</ele>
        <time>2023-05-23T12:29:53.000Z</time>
      </trkpt>
      <trkpt lat="43.6514" lon="3.78783">
        <ele>57</ele>
        <time>2023-05-23T12:30:01.000Z</time>
      </trkpt>
      <trkpt lat="43.65139" lon="3.78781">
        <ele>57.200000762939</ele>
        <time>2023-05-23T12:30:03.000Z</time>
      </trkpt>
      <trkpt lat="43.65138" lon="3.78774">
        <ele>58</ele>
        <time>2023-05-23T12:30:09.000Z</time>
      </trkpt>
      <trkpt lat="43.65137" lon="3.78772">
        <ele>58.200000762939</ele>
        <time>2023-05-23T12:30:11.000Z</time>
      </trkpt>
      <trkpt lat="43.65136" lon="3.78764">
        <ele>59</ele>
        <time>2023-05-23T12:30:19.000Z</time>
      </trkpt>
      <trkpt lat="43.65137" lon="3.78761">
        <ele>59.200000762939</ele>
        <time>2023-05-23T12:30:22.000Z</time>
      </trkpt>
      <trkpt lat="43.65139" lon="3.78757">
        <ele>59.200000762939</ele>
        <time>2023-05-23T12:30:26.000Z</time>
      </trkpt>
      <trkpt lat="43.65143" lon="3.78746">
        <ele>60.200000762939</ele>
        <time>2023-05-23T12:30:36.000Z</time>
      </trkpt>
      <trkpt lat="43.65143" lon="3.78736">
        <ele>61</ele>
        <time>2023-05-23T12:30:45.000Z</time>
      </trkpt>
      <trkpt lat="43.65143" lon="3.78734">
        <ele>61.400001525879</ele>
        <time>2023-05-23T12:30:47.000Z</time>
      </trkpt>
      <trkpt lat="43.65142" lon="3.78732">
        <ele>61.599998474121</ele>
        <time>2023-05-23T12:30:49.000Z</time>
      </trkpt>
      <trkpt lat="43.65141" lon="3.78728">
        <ele>62</ele>
        <time>2023-05-23T12:30:54.000Z</time>
      </trkpt>
      <trkpt lat="43.65138" lon="3.78724">
        <ele>62.400001525879</ele>
        <time>2023-05-23T12:30:58.000Z</time>
      </trkpt>
      <trkpt lat="43.65137" lon="3.78719">
        <ele>62.799999237061</ele>
        <time>2023-05-23T12:31:02.000Z</time>
      </trkpt>
      <trkpt lat="43.65137" lon="3.78717">
        <ele>63</ele>
        <time>2023-05-23T12:31:04.000Z</time>
      </trkpt>
      <trkpt lat="43.65137" lon="3.78713">
        <ele>63.400001525879</ele>
        <time>2023-05-23T12:31:08.000Z</time>
      </trkpt>
      <trkpt lat="43.65137" lon="3.78711">
        <ele>63.599998474121</ele>
        <time>2023-05-23T12:31:09.000Z</time>
      </trkpt>
      <trkpt lat="43.65138" lon="3.78703">
        <ele>64.199996948242</ele>
        <time>2023-05-23T12:31:16.000Z</time>
      </trkpt>
      <trkpt lat="43.65138" lon="3.78701">
        <ele>64.199996948242</ele>
        <time>2023-05-23T12:31:18.000Z</time>
      </trkpt>
      <trkpt lat="43.65139" lon="3.78694">
        <ele>64.400001525879</ele>
        <time>2023-05-23T12:31:24.000Z</time>
      </trkpt>
      <trkpt lat="43.65139" lon="3.78692">
        <ele>64.400001525879</ele>
        <time>2023-05-23T12:31:25.000Z</time>
      </trkpt>
      <trkpt lat="43.65139" lon="3.78682">
        <ele>65.400001525879</ele>
        <time>2023-05-23T12:31:32.000Z</time>
      </trkpt>
      <trkpt lat="43.65139" lon="3.7868">
        <ele>65.599998474121</ele>
        <time>2023-05-23T12:31:33.000Z</time>
      </trkpt>
      <trkpt lat="43.65137" lon="3.78663">
        <ele>66</ele>
        <time>2023-05-23T12:31:45.000Z</time>
      </trkpt>
      <trkpt lat="43.65136" lon="3.78652">
        <ele>66.599998474121</ele>
        <time>2023-05-23T12:31:53.000Z</time>
      </trkpt>
      <trkpt lat="43.65136" lon="3.78651">
        <ele>66.599998474121</ele>
        <time>2023-05-23T12:31:54.000Z</time>
      </trkpt>
      <trkpt lat="43.65135" lon="3.78638">
        <ele>67</ele>
        <time>2023-05-23T12:32:03.000Z</time>
      </trkpt>
      <trkpt lat="43.65135" lon="3.78626">
        <ele>67.199996948242</ele>
        <time>2023-05-23T12:32:12.000Z</time>
      </trkpt>
      <trkpt lat="43.65134" lon="3.78624">
        <ele>67.400001525879</ele>
        <time>2023-05-23T12:32:17.000Z</time>
      </trkpt>
      <trkpt lat="43.65135" lon="3.78616">
        <ele>67.400001525879</ele>
        <time>2023-05-23T12:32:23.000Z</time>
      </trkpt>
      <trkpt lat="43.65135" lon="3.78612">
        <ele>67.400001525879</ele>
        <time>2023-05-23T12:32:26.000Z</time>
      </trkpt>
      <trkpt lat="43.65135" lon="3.78605">
        <ele>67.199996948242</ele>
        <time>2023-05-23T12:32:31.000Z</time>
      </trkpt>
      <trkpt lat="43.65135" lon="3.78604">
        <ele>66.800003051758</ele>
        <time>2023-05-23T12:32:37.000Z</time>
      </trkpt>
      <trkpt lat="43.65133" lon="3.78602">
        <ele>67.199996948242</ele>
        <time>2023-05-23T12:32:45.000Z</time>
      </trkpt>
      <trkpt lat="43.65135" lon="3.786">
        <ele>67</ele>
        <time>2023-05-23T12:32:51.000Z</time>
      </trkpt>
      <trkpt lat="43.65135" lon="3.78594">
        <ele>67</ele>
        <time>2023-05-23T12:32:59.000Z</time>
      </trkpt>
      <trkpt lat="43.65134" lon="3.78587">
        <ele>66.800003051758</ele>
        <time>2023-05-23T12:33:06.000Z</time>
      </trkpt>
      <trkpt lat="43.65136" lon="3.7858">
        <ele>66</ele>
        <time>2023-05-23T12:33:13.000Z</time>
      </trkpt>
      <trkpt lat="43.65135" lon="3.7857">
        <ele>65.599998474121</ele>
        <time>2023-05-23T12:33:19.000Z</time>
      </trkpt>
      <trkpt lat="43.65135" lon="3.78568">
        <ele>65.400001525879</ele>
        <time>2023-05-23T12:33:20.000Z</time>
      </trkpt>
      <trkpt lat="43.65132" lon="3.78556">
        <ele>65.199996948242</ele>
        <time>2023-05-23T12:33:28.000Z</time>
      </trkpt>
      <trkpt lat="43.65126" lon="3.78543">
        <ele>65.400001525879</ele>
        <time>2023-05-23T12:33:37.000Z</time>
      </trkpt>
      <trkpt lat="43.65126" lon="3.78543">
        <ele>65.199996948242</ele>
        <time>2023-05-23T12:33:43.000Z</time>
      </trkpt>
      <trkpt lat="43.65124" lon="3.78535">
        <ele>65.400001525879</ele>
        <time>2023-05-23T12:33:48.000Z</time>
      </trkpt>
      <trkpt lat="43.65124" lon="3.78526">
        <ele>65.599998474121</ele>
        <time>2023-05-23T12:33:55.000Z</time>
      </trkpt>
      <trkpt lat="43.65124" lon="3.78522">
        <ele>65.800003051758</ele>
        <time>2023-05-23T12:33:59.000Z</time>
      </trkpt>
      <trkpt lat="43.65124" lon="3.7852">
        <ele>66</ele>
        <time>2023-05-23T12:34:02.000Z</time>
      </trkpt>
      <trkpt lat="43.65122" lon="3.78513">
        <ele>65.800003051758</ele>
        <time>2023-05-23T12:34:08.000Z</time>
      </trkpt>
      <trkpt lat="43.65122" lon="3.78504">
        <ele>66</ele>
        <time>2023-05-23T12:34:13.000Z</time>
      </trkpt>
      <trkpt lat="43.65122" lon="3.78504">
        <ele>66</ele>
        <time>2023-05-23T12:34:14.000Z</time>
      </trkpt>
      <trkpt lat="43.65122" lon="3.78502">
        <ele>66</ele>
        <time>2023-05-23T12:34:15.000Z</time>
      </trkpt>
      <trkpt lat="43.65123" lon="3.78493">
        <ele>66.400001525879</ele>
        <time>2023-05-23T12:34:21.000Z</time>
      </trkpt>
      <trkpt lat="43.65122" lon="3.78482">
        <ele>66.599998474121</ele>
        <time>2023-05-23T12:34:29.000Z</time>
      </trkpt>
      <trkpt lat="43.65118" lon="3.78476">
        <ele>67</ele>
        <time>2023-05-23T12:34:34.000Z</time>
      </trkpt>
      <trkpt lat="43.65117" lon="3.78473">
        <ele>67</ele>
        <time>2023-05-23T12:34:36.000Z</time>
      </trkpt>
      <trkpt lat="43.65111" lon="3.78469">
        <ele>67.599998474121</ele>
        <time>2023-05-23T12:34:43.000Z</time>
      </trkpt>
      <trkpt lat="43.65111" lon="3.78469">
        <ele>67.599998474121</ele>
        <time>2023-05-23T12:34:44.000Z</time>
      </trkpt>
      <trkpt lat="43.65109" lon="3.78467">
        <ele>68</ele>
        <time>2023-05-23T12:34:47.000Z</time>
      </trkpt>
      <trkpt lat="43.65101" lon="3.78463">
        <ele>68.400001525879</ele>
        <time>2023-05-23T12:34:55.000Z</time>
      </trkpt>
      <trkpt lat="43.65098" lon="3.78462">
        <ele>68.599998474121</ele>
        <time>2023-05-23T12:34:58.000Z</time>
      </trkpt>
      <trkpt lat="43.65096" lon="3.7846">
        <ele>68.800003051758</ele>
        <time>2023-05-23T12:35:01.000Z</time>
      </trkpt>
      <trkpt lat="43.65094" lon="3.78456">
        <ele>69.199996948242</ele>
        <time>2023-05-23T12:35:05.000Z</time>
      </trkpt>
      <trkpt lat="43.65093" lon="3.78454">
        <ele>69.400001525879</ele>
        <time>2023-05-23T12:35:07.000Z</time>
      </trkpt>
      <trkpt lat="43.65089" lon="3.78447">
        <ele>69.599998474121</ele>
        <time>2023-05-23T12:35:13.000Z</time>
      </trkpt>
      <trkpt lat="43.65087" lon="3.78445">
        <ele>69.800003051758</ele>
        <time>2023-05-23T12:35:15.000Z</time>
      </trkpt>
      <trkpt lat="43.65083" lon="3.78436">
        <ele>70</ele>
        <time>2023-05-23T12:35:22.000Z</time>
      </trkpt>
      <trkpt lat="43.65079" lon="3.78427">
        <ele>70.400001525879</ele>
        <time>2023-05-23T12:35:30.000Z</time>
      </trkpt>
      <trkpt lat="43.65076" lon="3.78417">
        <ele>70.599998474121</ele>
        <time>2023-05-23T12:35:37.000Z</time>
      </trkpt>
      <trkpt lat="43.65075" lon="3.78415">
        <ele>70.800003051758</ele>
        <time>2023-05-23T12:35:39.000Z</time>
      </trkpt>
      <trkpt lat="43.65075" lon="3.78414">
        <ele>70.800003051758</ele>
        <time>2023-05-23T12:35:40.000Z</time>
      </trkpt>
      <trkpt lat="43.65072" lon="3.78409">
        <ele>71.199996948242</ele>
        <time>2023-05-23T12:35:44.000Z</time>
      </trkpt>
      <trkpt lat="43.6507" lon="3.78405">
        <ele>71.199996948242</ele>
        <time>2023-05-23T12:35:48.000Z</time>
      </trkpt>
      <trkpt lat="43.65067" lon="3.784">
        <ele>71.199996948242</ele>
        <time>2023-05-23T12:35:52.000Z</time>
      </trkpt>
      <trkpt lat="43.65062" lon="3.78389">
        <ele>71.599998474121</ele>
        <time>2023-05-23T12:36:01.000Z</time>
      </trkpt>
      <trkpt lat="43.65062" lon="3.78389">
        <ele>71.599998474121</ele>
        <time>2023-05-23T12:36:02.000Z</time>
      </trkpt>
      <trkpt lat="43.65061" lon="3.78386">
        <ele>72</ele>
        <time>2023-05-23T12:36:07.000Z</time>
      </trkpt>
      <trkpt lat="43.65058" lon="3.78376">
        <ele>72.400001525879</ele>
        <time>2023-05-23T12:36:15.000Z</time>
      </trkpt>
      <trkpt lat="43.65054" lon="3.78369">
        <ele>72.800003051758</ele>
        <time>2023-05-23T12:36:21.000Z</time>
      </trkpt>
      <trkpt lat="43.65053" lon="3.78367">
        <ele>72.800003051758</ele>
        <time>2023-05-23T12:36:23.000Z</time>
      </trkpt>
      <trkpt lat="43.65049" lon="3.78359">
        <ele>73.199996948242</ele>
        <time>2023-05-23T12:36:30.000Z</time>
      </trkpt>
      <trkpt lat="43.65045" lon="3.78352">
        <ele>73.400001525879</ele>
        <time>2023-05-23T12:36:36.000Z</time>
      </trkpt>
      <trkpt lat="43.65042" lon="3.78347">
        <ele>73.800003051758</ele>
        <time>2023-05-23T12:36:40.000Z</time>
      </trkpt>
      <trkpt lat="43.65039" lon="3.78342">
        <ele>74</ele>
        <time>2023-05-23T12:36:45.000Z</time>
      </trkpt>
      <trkpt lat="43.65033" lon="3.78333">
        <ele>74.599998474121</ele>
        <time>2023-05-23T12:36:54.000Z</time>
      </trkpt>
      <trkpt lat="43.65031" lon="3.7833">
        <ele>74.800003051758</ele>
        <time>2023-05-23T12:36:57.000Z</time>
      </trkpt>
      <trkpt lat="43.65029" lon="3.78326">
        <ele>75</ele>
        <time>2023-05-23T12:37:01.000Z</time>
      </trkpt>
      <trkpt lat="43.65025" lon="3.7832">
        <ele>75.199996948242</ele>
        <time>2023-05-23T12:37:07.000Z</time>
      </trkpt>
      <trkpt lat="43.65022" lon="3.78317">
        <ele>75.800003051758</ele>
        <time>2023-05-23T12:37:11.000Z</time>
      </trkpt>
      <trkpt lat="43.65021" lon="3.78315">
        <ele>76</ele>
        <time>2023-05-23T12:37:13.000Z</time>
      </trkpt>
      <trkpt lat="43.65016" lon="3.78304">
        <ele>76.599998474121</ele>
        <time>2023-05-23T12:37:22.000Z</time>
      </trkpt>
      <trkpt lat="43.65015" lon="3.78302">
        <ele>76.800003051758</ele>
        <time>2023-05-23T12:37:24.000Z</time>
      </trkpt>
      <trkpt lat="43.65013" lon="3.78296">
        <ele>77.199996948242</ele>
        <time>2023-05-23T12:37:29.000Z</time>
      </trkpt>
      <trkpt lat="43.65013" lon="3.78295">
        <ele>77.199996948242</ele>
        <time>2023-05-23T12:37:30.000Z</time>
      </trkpt>
      <trkpt lat="43.65012" lon="3.78293">
        <ele>77.400001525879</ele>
        <time>2023-05-23T12:37:32.000Z</time>
      </trkpt>
      <trkpt lat="43.65011" lon="3.78294">
        <ele>77.599998474121</ele>
        <time>2023-05-23T12:37:35.000Z</time>
      </trkpt>
      <trkpt lat="43.6501" lon="3.78287">
        <ele>77.800003051758</ele>
        <time>2023-05-23T12:37:41.000Z</time>
      </trkpt>
      <trkpt lat="43.65007" lon="3.78284">
        <ele>78</ele>
        <time>2023-05-23T12:37:45.000Z</time>
      </trkpt>
      <trkpt lat="43.65005" lon="3.78283">
        <ele>78</ele>
        <time>2023-05-23T12:37:47.000Z</time>
      </trkpt>
      <trkpt lat="43.65" lon="3.78277">
        <ele>78.400001525879</ele>
        <time>2023-05-23T12:37:55.000Z</time>
      </trkpt>
      <trkpt lat="43.64999" lon="3.78275">
        <ele>78.599998474121</ele>
        <time>2023-05-23T12:37:57.000Z</time>
      </trkpt>
      <trkpt lat="43.64997" lon="3.78272">
        <ele>79</ele>
        <time>2023-05-23T12:38:01.000Z</time>
      </trkpt>
      <trkpt lat="43.64993" lon="3.78263">
        <ele>79.599998474121</ele>
        <time>2023-05-23T12:38:10.000Z</time>
      </trkpt>
      <trkpt lat="43.6499" lon="3.78256">
        <ele>80</ele>
        <time>2023-05-23T12:38:18.000Z</time>
      </trkpt>
      <trkpt lat="43.64989" lon="3.78255">
        <ele>80.199996948242</ele>
        <time>2023-05-23T12:38:19.000Z</time>
      </trkpt>
      <trkpt lat="43.64986" lon="3.78249">
        <ele>80.599998474121</ele>
        <time>2023-05-23T12:38:26.000Z</time>
      </trkpt>
      <trkpt lat="43.64984" lon="3.78246">
        <ele>81</ele>
        <time>2023-05-23T12:38:30.000Z</time>
      </trkpt>
      <trkpt lat="43.64982" lon="3.78243">
        <ele>81.199996948242</ele>
        <time>2023-05-23T12:38:33.000Z</time>
      </trkpt>
      <trkpt lat="43.64978" lon="3.78236">
        <ele>82</ele>
        <time>2023-05-23T12:38:41.000Z</time>
      </trkpt>
      <trkpt lat="43.64978" lon="3.78235">
        <ele>82.199996948242</ele>
        <time>2023-05-23T12:38:42.000Z</time>
      </trkpt>
      <trkpt lat="43.64973" lon="3.78223">
        <ele>82.599998474121</ele>
        <time>2023-05-23T12:38:50.000Z</time>
      </trkpt>
      <trkpt lat="43.64969" lon="3.78213">
        <ele>83.199996948242</ele>
        <time>2023-05-23T12:38:59.000Z</time>
      </trkpt>
      <trkpt lat="43.64969" lon="3.78214">
        <ele>83.400001525879</ele>
        <time>2023-05-23T12:39:09.000Z</time>
      </trkpt>
      <trkpt lat="43.64963" lon="3.78204">
        <ele>83.400001525879</ele>
        <time>2023-05-23T12:39:17.000Z</time>
      </trkpt>
      <trkpt lat="43.64958" lon="3.78194">
        <ele>83.599998474121</ele>
        <time>2023-05-23T12:39:26.000Z</time>
      </trkpt>
      <trkpt lat="43.64954" lon="3.78186">
        <ele>84</ele>
        <time>2023-05-23T12:39:34.000Z</time>
      </trkpt>
      <trkpt lat="43.64954" lon="3.78185">
        <ele>84.199996948242</ele>
        <time>2023-05-23T12:39:35.000Z</time>
      </trkpt>
      <trkpt lat="43.6495" lon="3.78179">
        <ele>84.800003051758</ele>
        <time>2023-05-23T12:39:42.000Z</time>
      </trkpt>
      <trkpt lat="43.64947" lon="3.78173">
        <ele>85.199996948242</ele>
        <time>2023-05-23T12:39:48.000Z</time>
      </trkpt>
      <trkpt lat="43.64947" lon="3.78171">
        <ele>85.599998474121</ele>
        <time>2023-05-23T12:39:50.000Z</time>
      </trkpt>
      <trkpt lat="43.64944" lon="3.78166">
        <ele>86.400001525879</ele>
        <time>2023-05-23T12:39:57.000Z</time>
      </trkpt>
      <trkpt lat="43.64944" lon="3.78166">
        <ele>86.400001525879</ele>
        <time>2023-05-23T12:39:58.000Z</time>
      </trkpt>
      <trkpt lat="43.64943" lon="3.78165">
        <ele>86.800003051758</ele>
        <time>2023-05-23T12:40:05.000Z</time>
      </trkpt>
      <trkpt lat="43.64941" lon="3.78162">
        <ele>87</ele>
        <time>2023-05-23T12:40:12.000Z</time>
      </trkpt>
      <trkpt lat="43.64939" lon="3.78159">
        <ele>87.400001525879</ele>
        <time>2023-05-23T12:40:16.000Z</time>
      </trkpt>
      <trkpt lat="43.64937" lon="3.78155">
        <ele>87.800003051758</ele>
        <time>2023-05-23T12:40:22.000Z</time>
      </trkpt>
      <trkpt lat="43.64935" lon="3.7815">
        <ele>88.400001525879</ele>
        <time>2023-05-23T12:40:28.000Z</time>
      </trkpt>
      <trkpt lat="43.64934" lon="3.78148">
        <ele>88.599998474121</ele>
        <time>2023-05-23T12:40:31.000Z</time>
      </trkpt>
      <trkpt lat="43.6493" lon="3.78139">
        <ele>88.800003051758</ele>
        <time>2023-05-23T12:40:38.000Z</time>
      </trkpt>
      <trkpt lat="43.64929" lon="3.7813">
        <ele>88.800003051758</ele>
        <time>2023-05-23T12:40:44.000Z</time>
      </trkpt>
      <trkpt lat="43.64928" lon="3.78118">
        <ele>88.599998474121</ele>
        <time>2023-05-23T12:40:53.000Z</time>
      </trkpt>
      <trkpt lat="43.64925" lon="3.78103">
        <ele>87.800003051758</ele>
        <time>2023-05-23T12:41:02.000Z</time>
      </trkpt>
      <trkpt lat="43.64921" lon="3.7809">
        <ele>87.400001525879</ele>
        <time>2023-05-23T12:41:11.000Z</time>
      </trkpt>
      <trkpt lat="43.64918" lon="3.78076">
        <ele>87.199996948242</ele>
        <time>2023-05-23T12:41:20.000Z</time>
      </trkpt>
      <trkpt lat="43.64915" lon="3.78063">
        <ele>87</ele>
        <time>2023-05-23T12:41:29.000Z</time>
      </trkpt>
      <trkpt lat="43.64911" lon="3.7805">
        <ele>87</ele>
        <time>2023-05-23T12:41:38.000Z</time>
      </trkpt>
      <trkpt lat="43.64907" lon="3.78035">
        <ele>86.800003051758</ele>
        <time>2023-05-23T12:41:48.000Z</time>
      </trkpt>
      <trkpt lat="43.64904" lon="3.78024">
        <ele>87</ele>
        <time>2023-05-23T12:41:56.000Z</time>
      </trkpt>
      <trkpt lat="43.64903" lon="3.78014">
        <ele>87.400001525879</ele>
        <time>2023-05-23T12:42:03.000Z</time>
      </trkpt>
      <trkpt lat="43.64901" lon="3.78003">
        <ele>87.599998474121</ele>
        <time>2023-05-23T12:42:12.000Z</time>
      </trkpt>
      <trkpt lat="43.64899" lon="3.77997">
        <ele>88.400001525879</ele>
        <time>2023-05-23T12:42:17.000Z</time>
      </trkpt>
      <trkpt lat="43.64899" lon="3.77995">
        <ele>88.400001525879</ele>
        <time>2023-05-23T12:42:19.000Z</time>
      </trkpt>
      <trkpt lat="43.64897" lon="3.77992">
        <ele>88.599998474121</ele>
        <time>2023-05-23T12:42:22.000Z</time>
      </trkpt>
      <trkpt lat="43.64896" lon="3.77989">
        <ele>88.599998474121</ele>
        <time>2023-05-23T12:42:25.000Z</time>
      </trkpt>
      <trkpt lat="43.64895" lon="3.77979">
        <ele>89.199996948242</ele>
        <time>2023-05-23T12:42:34.000Z</time>
      </trkpt>
      <trkpt lat="43.64894" lon="3.77978">
        <ele>89.199996948242</ele>
        <time>2023-05-23T12:42:35.000Z</time>
      </trkpt>
      <trkpt lat="43.64894" lon="3.77977">
        <ele>89.400001525879</ele>
        <time>2023-05-23T12:42:36.000Z</time>
      </trkpt>
      <trkpt lat="43.64894" lon="3.77973">
        <ele>89.599998474121</ele>
        <time>2023-05-23T12:42:40.000Z</time>
      </trkpt>
      <trkpt lat="43.64891" lon="3.77966">
        <ele>90.199996948242</ele>
        <time>2023-05-23T12:42:48.000Z</time>
      </trkpt>
      <trkpt lat="43.64891" lon="3.77963">
        <ele>90.400001525879</ele>
        <time>2023-05-23T12:42:50.000Z</time>
      </trkpt>
      <trkpt lat="43.6489" lon="3.77957">
        <ele>90.599998474121</ele>
        <time>2023-05-23T12:42:56.000Z</time>
      </trkpt>
      <trkpt lat="43.64888" lon="3.77951">
        <ele>90.800003051758</ele>
        <time>2023-05-23T12:43:02.000Z</time>
      </trkpt>
      <trkpt lat="43.64887" lon="3.77944">
        <ele>91.400001525879</ele>
        <time>2023-05-23T12:43:08.000Z</time>
      </trkpt>
      <trkpt lat="43.64887" lon="3.77943">
        <ele>91.400001525879</ele>
        <time>2023-05-23T12:43:10.000Z</time>
      </trkpt>
      <trkpt lat="43.64887" lon="3.7794">
        <ele>91.599998474121</ele>
        <time>2023-05-23T12:43:12.000Z</time>
      </trkpt>
      <trkpt lat="43.64887" lon="3.77937">
        <ele>91.599998474121</ele>
        <time>2023-05-23T12:43:15.000Z</time>
      </trkpt>
      <trkpt lat="43.64884" lon="3.7793">
        <ele>92.199996948242</ele>
        <time>2023-05-23T12:43:22.000Z</time>
      </trkpt>
      <trkpt lat="43.64883" lon="3.77925">
        <ele>92.400001525879</ele>
        <time>2023-05-23T12:43:26.000Z</time>
      </trkpt>
      <trkpt lat="43.64882" lon="3.77922">
        <ele>92.599998474121</ele>
        <time>2023-05-23T12:43:29.000Z</time>
      </trkpt>
      <trkpt lat="43.64879" lon="3.77916">
        <ele>93.199996948242</ele>
        <time>2023-05-23T12:43:36.000Z</time>
      </trkpt>
      <trkpt lat="43.64877" lon="3.77911">
        <ele>93.400001525879</ele>
        <time>2023-05-23T12:43:40.000Z</time>
      </trkpt>
      <trkpt lat="43.64874" lon="3.77906">
        <ele>94</ele>
        <time>2023-05-23T12:43:45.000Z</time>
      </trkpt>
      <trkpt lat="43.64874" lon="3.77905">
        <ele>94</ele>
        <time>2023-05-23T12:43:47.000Z</time>
      </trkpt>
      <trkpt lat="43.64873" lon="3.77902">
        <ele>94.400001525879</ele>
        <time>2023-05-23T12:43:51.000Z</time>
      </trkpt>
      <trkpt lat="43.64873" lon="3.77902">
        <ele>94.599998474121</ele>
        <time>2023-05-23T12:43:52.000Z</time>
      </trkpt>
      <trkpt lat="43.64871" lon="3.77897">
        <ele>95</ele>
        <time>2023-05-23T12:43:57.000Z</time>
      </trkpt>
      <trkpt lat="43.64869" lon="3.77892">
        <ele>95.599998474121</ele>
        <time>2023-05-23T12:44:02.000Z</time>
      </trkpt>
      <trkpt lat="43.64868" lon="3.77889">
        <ele>95.800003051758</ele>
        <time>2023-05-23T12:44:06.000Z</time>
      </trkpt>
      <trkpt lat="43.64866" lon="3.77882">
        <ele>96.599998474121</ele>
        <time>2023-05-23T12:44:14.000Z</time>
      </trkpt>
      <trkpt lat="43.64866" lon="3.77881">
        <ele>96.800003051758</ele>
        <time>2023-05-23T12:44:15.000Z</time>
      </trkpt>
      <trkpt lat="43.64865" lon="3.77873">
        <ele>97.400001525879</ele>
        <time>2023-05-23T12:44:23.000Z</time>
      </trkpt>
      <trkpt lat="43.64865" lon="3.77869">
        <ele>97.599998474121</ele>
        <time>2023-05-23T12:44:28.000Z</time>
      </trkpt>
      <trkpt lat="43.64864" lon="3.77866">
        <ele>98</ele>
        <time>2023-05-23T12:44:31.000Z</time>
      </trkpt>
      <trkpt lat="43.64864" lon="3.77864">
        <ele>98.800003051758</ele>
        <time>2023-05-23T12:44:36.000Z</time>
      </trkpt>
      <trkpt lat="43.64864" lon="3.77862">
        <ele>99</ele>
        <time>2023-05-23T12:44:38.000Z</time>
      </trkpt>
      <trkpt lat="43.64863" lon="3.77857">
        <ele>99.800003051758</ele>
        <time>2023-05-23T12:44:45.000Z</time>
      </trkpt>
      <trkpt lat="43.64863" lon="3.77855">
        <ele>100.19999694824</ele>
        <time>2023-05-23T12:44:48.000Z</time>
      </trkpt>
      <trkpt lat="43.64861" lon="3.77852">
        <ele>100.80000305176</ele>
        <time>2023-05-23T12:44:55.000Z</time>
      </trkpt>
      <trkpt lat="43.6486" lon="3.77849">
        <ele>100.80000305176</ele>
        <time>2023-05-23T12:44:56.000Z</time>
      </trkpt>
      <trkpt lat="43.64858" lon="3.77843">
        <ele>101.59999847412</ele>
        <time>2023-05-23T12:45:03.000Z</time>
      </trkpt>
      <trkpt lat="43.64858" lon="3.77838">
        <ele>101.80000305176</ele>
        <time>2023-05-23T12:45:07.000Z</time>
      </trkpt>
      <trkpt lat="43.64857" lon="3.77835">
        <ele>102.59999847412</ele>
        <time>2023-05-23T12:45:12.000Z</time>
      </trkpt>
      <trkpt lat="43.64855" lon="3.77828">
        <ele>103</ele>
        <time>2023-05-23T12:45:19.000Z</time>
      </trkpt>
      <trkpt lat="43.64855" lon="3.77827">
        <ele>103</ele>
        <time>2023-05-23T12:45:20.000Z</time>
      </trkpt>
      <trkpt lat="43.64852" lon="3.77819">
        <ele>103.40000152588</ele>
        <time>2023-05-23T12:45:28.000Z</time>
      </trkpt>
      <trkpt lat="43.64848" lon="3.77811">
        <ele>103.80000305176</ele>
        <time>2023-05-23T12:45:37.000Z</time>
      </trkpt>
      <trkpt lat="43.64847" lon="3.77808">
        <ele>104</ele>
        <time>2023-05-23T12:45:42.000Z</time>
      </trkpt>
      <trkpt lat="43.64846" lon="3.77806">
        <ele>103.80000305176</ele>
        <time>2023-05-23T12:45:44.000Z</time>
      </trkpt>
      <trkpt lat="43.64843" lon="3.77794">
        <ele>103.19999694824</ele>
        <time>2023-05-23T12:45:53.000Z</time>
      </trkpt>
      <trkpt lat="43.64842" lon="3.77791">
        <ele>102.80000305176</ele>
        <time>2023-05-23T12:45:56.000Z</time>
      </trkpt>
      <trkpt lat="43.64841" lon="3.77786">
        <ele>102.40000152588</ele>
        <time>2023-05-23T12:46:00.000Z</time>
      </trkpt>
      <trkpt lat="43.64842" lon="3.77784">
        <ele>102.19999694824</ele>
        <time>2023-05-23T12:46:02.000Z</time>
      </trkpt>
      <trkpt lat="43.64841" lon="3.77782">
        <ele>102</ele>
        <time>2023-05-23T12:46:04.000Z</time>
      </trkpt>
      <trkpt lat="43.64838" lon="3.77777">
        <ele>101.80000305176</ele>
        <time>2023-05-23T12:46:09.000Z</time>
      </trkpt>
      <trkpt lat="43.64832" lon="3.77769">
        <ele>101.40000152588</ele>
        <time>2023-05-23T12:46:17.000Z</time>
      </trkpt>
      <trkpt lat="43.64825" lon="3.77764">
        <ele>101.19999694824</ele>
        <time>2023-05-23T12:46:25.000Z</time>
      </trkpt>
      <trkpt lat="43.64825" lon="3.77763">
        <ele>101.19999694824</ele>
        <time>2023-05-23T12:46:26.000Z</time>
      </trkpt>
      <trkpt lat="43.64823" lon="3.77761">
        <ele>101</ele>
        <time>2023-05-23T12:46:33.000Z</time>
      </trkpt>
      <trkpt lat="43.64822" lon="3.77756">
        <ele>100.80000305176</ele>
        <time>2023-05-23T12:46:37.000Z</time>
      </trkpt>
      <trkpt lat="43.64822" lon="3.77753">
        <ele>100.40000152588</ele>
        <time>2023-05-23T12:46:40.000Z</time>
      </trkpt>
      <trkpt lat="43.64823" lon="3.77744">
        <ele>99.800003051758</ele>
        <time>2023-05-23T12:46:46.000Z</time>
      </trkpt>
      <trkpt lat="43.64824" lon="3.77742">
        <ele>99.800003051758</ele>
        <time>2023-05-23T12:46:47.000Z</time>
      </trkpt>
      <trkpt lat="43.64823" lon="3.77739">
        <ele>99.800003051758</ele>
        <time>2023-05-23T12:46:52.000Z</time>
      </trkpt>
      <trkpt lat="43.64819" lon="3.7773">
        <ele>99.400001525879</ele>
        <time>2023-05-23T12:47:00.000Z</time>
      </trkpt>
      <trkpt lat="43.64817" lon="3.77727">
        <ele>97.199996948242</ele>
        <time>2023-05-23T12:47:03.000Z</time>
      </trkpt>
      <trkpt lat="43.64813" lon="3.77721">
        <ele>98</ele>
        <time>2023-05-23T12:47:09.000Z</time>
      </trkpt>
      <trkpt lat="43.64813" lon="3.77721">
        <ele>97.800003051758</ele>
        <time>2023-05-23T12:47:16.000Z</time>
      </trkpt>
      <trkpt lat="43.64806" lon="3.7772">
        <ele>97.599998474121</ele>
        <time>2023-05-23T12:47:22.000Z</time>
      </trkpt>
      <trkpt lat="43.64793" lon="3.77718">
        <ele>97.400001525879</ele>
        <time>2023-05-23T12:47:32.000Z</time>
      </trkpt>
      <trkpt lat="43.64783" lon="3.77715">
        <ele>97.599998474121</ele>
        <time>2023-05-23T12:47:41.000Z</time>
      </trkpt>
      <trkpt lat="43.64779" lon="3.77708">
        <ele>97.599998474121</ele>
        <time>2023-05-23T12:47:47.000Z</time>
      </trkpt>
      <trkpt lat="43.64773" lon="3.77699">
        <ele>97.199996948242</ele>
        <time>2023-05-23T12:47:55.000Z</time>
      </trkpt>
      <trkpt lat="43.64765" lon="3.77688">
        <ele>97</ele>
        <time>2023-05-23T12:48:04.000Z</time>
      </trkpt>
      <trkpt lat="43.64758" lon="3.7768">
        <ele>96.400001525879</ele>
        <time>2023-05-23T12:48:12.000Z</time>
      </trkpt>
      <trkpt lat="43.64753" lon="3.77672">
        <ele>96.199996948242</ele>
        <time>2023-05-23T12:48:19.000Z</time>
      </trkpt>
      <trkpt lat="43.64748" lon="3.77662">
        <ele>96.199996948242</ele>
        <time>2023-05-23T12:48:27.000Z</time>
      </trkpt>
      <trkpt lat="43.64746" lon="3.77659">
        <ele>96.199996948242</ele>
        <time>2023-05-23T12:48:29.000Z</time>
      </trkpt>
      <trkpt lat="43.64744" lon="3.77654">
        <ele>96</ele>
        <time>2023-05-23T12:48:33.000Z</time>
      </trkpt>
      <trkpt lat="43.64743" lon="3.77652">
        <ele>96</ele>
        <time>2023-05-23T12:48:34.000Z</time>
      </trkpt>
      <trkpt lat="43.64742" lon="3.77649">
        <ele>96</ele>
        <time>2023-05-23T12:48:38.000Z</time>
      </trkpt>
      <trkpt lat="43.64741" lon="3.77646">
        <ele>96.199996948242</ele>
        <time>2023-05-23T12:48:40.000Z</time>
      </trkpt>
      <trkpt lat="43.64737" lon="3.77636">
        <ele>95.599998474121</ele>
        <time>2023-05-23T12:48:48.000Z</time>
      </trkpt>
      <trkpt lat="43.64734" lon="3.7763">
        <ele>95.400001525879</ele>
        <time>2023-05-23T12:48:53.000Z</time>
      </trkpt>
      <trkpt lat="43.64733" lon="3.77627">
        <ele>95.400001525879</ele>
        <time>2023-05-23T12:48:55.000Z</time>
      </trkpt>
      <trkpt lat="43.6473" lon="3.77619">
        <ele>95.599998474121</ele>
        <time>2023-05-23T12:49:01.000Z</time>
      </trkpt>
      <trkpt lat="43.64728" lon="3.77616">
        <ele>95.400001525879</ele>
        <time>2023-05-23T12:49:04.000Z</time>
      </trkpt>
      <trkpt lat="43.64727" lon="3.77612">
        <ele>95.599998474121</ele>
        <time>2023-05-23T12:49:08.000Z</time>
      </trkpt>
      <trkpt lat="43.64726" lon="3.77609">
        <ele>95.599998474121</ele>
        <time>2023-05-23T12:49:10.000Z</time>
      </trkpt>
      <trkpt lat="43.64724" lon="3.77606">
        <ele>95.599998474121</ele>
        <time>2023-05-23T12:49:13.000Z</time>
      </trkpt>
      <trkpt lat="43.64723" lon="3.77604">
        <ele>95.599998474121</ele>
        <time>2023-05-23T12:49:15.000Z</time>
      </trkpt>
      <trkpt lat="43.64721" lon="3.776">
        <ele>95.800003051758</ele>
        <time>2023-05-23T12:49:18.000Z</time>
      </trkpt>
      <trkpt lat="43.6472" lon="3.77596">
        <ele>96.199996948242</ele>
        <time>2023-05-23T12:49:22.000Z</time>
      </trkpt>
      <trkpt lat="43.64717" lon="3.77588">
        <ele>96.199996948242</ele>
        <time>2023-05-23T12:49:30.000Z</time>
      </trkpt>
      <trkpt lat="43.64716" lon="3.77585">
        <ele>96.400001525879</ele>
        <time>2023-05-23T12:49:35.000Z</time>
      </trkpt>
      <trkpt lat="43.64713" lon="3.77576">
        <ele>96.800003051758</ele>
        <time>2023-05-23T12:49:43.000Z</time>
      </trkpt>
      <trkpt lat="43.64712" lon="3.77572">
        <ele>96.800003051758</ele>
        <time>2023-05-23T12:49:47.000Z</time>
      </trkpt>
      <trkpt lat="43.64711" lon="3.77568">
        <ele>96.800003051758</ele>
        <time>2023-05-23T12:49:50.000Z</time>
      </trkpt>
      <trkpt lat="43.64709" lon="3.77558">
        <ele>97.199996948242</ele>
        <time>2023-05-23T12:49:57.000Z</time>
      </trkpt>
      <trkpt lat="43.64709" lon="3.77557">
        <ele>97.199996948242</ele>
        <time>2023-05-23T12:49:58.000Z</time>
      </trkpt>
      <trkpt lat="43.64709" lon="3.77553">
        <ele>97.199996948242</ele>
        <time>2023-05-23T12:50:01.000Z</time>
      </trkpt>
      <trkpt lat="43.64709" lon="3.77551">
        <ele>97.400001525879</ele>
        <time>2023-05-23T12:50:03.000Z</time>
      </trkpt>
      <trkpt lat="43.64709" lon="3.77549">
        <ele>97.400001525879</ele>
        <time>2023-05-23T12:50:05.000Z</time>
      </trkpt>
      <trkpt lat="43.64709" lon="3.77541">
        <ele>97.599998474121</ele>
        <time>2023-05-23T12:50:12.000Z</time>
      </trkpt>
      <trkpt lat="43.64709" lon="3.7754">
        <ele>98.599998474121</ele>
        <time>2023-05-23T12:50:13.000Z</time>
      </trkpt>
      <trkpt lat="43.64709" lon="3.77539">
        <ele>100.59999847412</ele>
        <time>2023-05-23T12:50:14.000Z</time>
      </trkpt>
      <trkpt lat="43.64709" lon="3.77537">
        <ele>102</ele>
        <time>2023-05-23T12:50:16.000Z</time>
      </trkpt>
      <trkpt lat="43.64709" lon="3.77533">
        <ele>100.19999694824</ele>
        <time>2023-05-23T12:50:20.000Z</time>
      </trkpt>
      <trkpt lat="43.64707" lon="3.77526">
        <ele>100</ele>
        <time>2023-05-23T12:50:25.000Z</time>
      </trkpt>
      <trkpt lat="43.64706" lon="3.77523">
        <ele>100.19999694824</ele>
        <time>2023-05-23T12:50:27.000Z</time>
      </trkpt>
      <trkpt lat="43.64705" lon="3.77517">
        <ele>100.80000305176</ele>
        <time>2023-05-23T12:50:32.000Z</time>
      </trkpt>
      <trkpt lat="43.64705" lon="3.77515">
        <ele>100.80000305176</ele>
        <time>2023-05-23T12:50:33.000Z</time>
      </trkpt>
      <trkpt lat="43.64702" lon="3.77507">
        <ele>101</ele>
        <time>2023-05-23T12:50:41.000Z</time>
      </trkpt>
      <trkpt lat="43.64701" lon="3.77505">
        <ele>101</ele>
        <time>2023-05-23T12:50:43.000Z</time>
      </trkpt>
      <trkpt lat="43.64701" lon="3.77503">
        <ele>101.40000152588</ele>
        <time>2023-05-23T12:50:45.000Z</time>
      </trkpt>
      <trkpt lat="43.647" lon="3.775">
        <ele>101.59999847412</ele>
        <time>2023-05-23T12:50:47.000Z</time>
      </trkpt>
      <trkpt lat="43.647" lon="3.77498">
        <ele>101.80000305176</ele>
        <time>2023-05-23T12:50:49.000Z</time>
      </trkpt>
      <trkpt lat="43.64698" lon="3.77491">
        <ele>101</ele>
        <time>2023-05-23T12:50:57.000Z</time>
      </trkpt>
      <trkpt lat="43.64697" lon="3.77485">
        <ele>101.59999847412</ele>
        <time>2023-05-23T12:51:04.000Z</time>
      </trkpt>
      <trkpt lat="43.64697" lon="3.77479">
        <ele>101.19999694824</ele>
        <time>2023-05-23T12:51:10.000Z</time>
      </trkpt>
      <trkpt lat="43.64696" lon="3.7747">
        <ele>100.80000305176</ele>
        <time>2023-05-23T12:51:17.000Z</time>
      </trkpt>
      <trkpt lat="43.64693" lon="3.77459">
        <ele>102</ele>
        <time>2023-05-23T12:51:27.000Z</time>
      </trkpt>
      <trkpt lat="43.64692" lon="3.77454">
        <ele>101.59999847412</ele>
        <time>2023-05-23T12:51:34.000Z</time>
      </trkpt>
      <trkpt lat="43.64691" lon="3.77446">
        <ele>101.19999694824</ele>
        <time>2023-05-23T12:51:42.000Z</time>
      </trkpt>
      <trkpt lat="43.64691" lon="3.77438">
        <ele>101.59999847412</ele>
        <time>2023-05-23T12:51:50.000Z</time>
      </trkpt>
      <trkpt lat="43.64693" lon="3.77429">
        <ele>100.80000305176</ele>
        <time>2023-05-23T12:51:59.000Z</time>
      </trkpt>
      <trkpt lat="43.64694" lon="3.77419">
        <ele>102.40000152588</ele>
        <time>2023-05-23T12:52:07.000Z</time>
      </trkpt>
      <trkpt lat="43.64694" lon="3.77418">
        <ele>102.59999847412</ele>
        <time>2023-05-23T12:52:08.000Z</time>
      </trkpt>
      <trkpt lat="43.64695" lon="3.77412">
        <ele>103.59999847412</ele>
        <time>2023-05-23T12:52:13.000Z</time>
      </trkpt>
      <trkpt lat="43.64697" lon="3.77406">
        <ele>104.59999847412</ele>
        <time>2023-05-23T12:52:18.000Z</time>
      </trkpt>
      <trkpt lat="43.64697" lon="3.77405">
        <ele>104.80000305176</ele>
        <time>2023-05-23T12:52:19.000Z</time>
      </trkpt>
      <trkpt lat="43.64697" lon="3.77399">
        <ele>105.80000305176</ele>
        <time>2023-05-23T12:52:24.000Z</time>
      </trkpt>
      <trkpt lat="43.64697" lon="3.77396">
        <ele>106</ele>
        <time>2023-05-23T12:52:26.000Z</time>
      </trkpt>
      <trkpt lat="43.64697" lon="3.77395">
        <ele>106.19999694824</ele>
        <time>2023-05-23T12:52:27.000Z</time>
      </trkpt>
      <trkpt lat="43.64695" lon="3.77386">
        <ele>106.59999847412</ele>
        <time>2023-05-23T12:52:34.000Z</time>
      </trkpt>
      <trkpt lat="43.64695" lon="3.77381">
        <ele>106.80000305176</ele>
        <time>2023-05-23T12:52:38.000Z</time>
      </trkpt>
      <trkpt lat="43.64695" lon="3.77377">
        <ele>107</ele>
        <time>2023-05-23T12:52:42.000Z</time>
      </trkpt>
      <trkpt lat="43.64693" lon="3.77371">
        <ele>107.40000152588</ele>
        <time>2023-05-23T12:52:47.000Z</time>
      </trkpt>
      <trkpt lat="43.64693" lon="3.77369">
        <ele>107.40000152588</ele>
        <time>2023-05-23T12:52:49.000Z</time>
      </trkpt>
      <trkpt lat="43.64693" lon="3.77367">
        <ele>107.59999847412</ele>
        <time>2023-05-23T12:52:51.000Z</time>
      </trkpt>
      <trkpt lat="43.64692" lon="3.77363">
        <ele>107.80000305176</ele>
        <time>2023-05-23T12:52:55.000Z</time>
      </trkpt>
      <trkpt lat="43.64692" lon="3.77362">
        <ele>108</ele>
        <time>2023-05-23T12:52:56.000Z</time>
      </trkpt>
      <trkpt lat="43.6469" lon="3.77352">
        <ele>108.59999847412</ele>
        <time>2023-05-23T12:53:05.000Z</time>
      </trkpt>
      <trkpt lat="43.64689" lon="3.7735">
        <ele>108</ele>
        <time>2023-05-23T12:53:07.000Z</time>
      </trkpt>
      <trkpt lat="43.64689" lon="3.77348">
        <ele>110.80000305176</ele>
        <time>2023-05-23T12:53:09.000Z</time>
      </trkpt>
      <trkpt lat="43.64689" lon="3.77347">
        <ele>109</ele>
        <time>2023-05-23T12:53:10.000Z</time>
      </trkpt>
      <trkpt lat="43.64688" lon="3.77345">
        <ele>112.80000305176</ele>
        <time>2023-05-23T12:53:12.000Z</time>
      </trkpt>
      <trkpt lat="43.64688" lon="3.77344">
        <ele>112</ele>
        <time>2023-05-23T12:53:13.000Z</time>
      </trkpt>
      <trkpt lat="43.64688" lon="3.77343">
        <ele>105.80000305176</ele>
        <time>2023-05-23T12:53:14.000Z</time>
      </trkpt>
      <trkpt lat="43.64687" lon="3.77342">
        <ele>107.59999847412</ele>
        <time>2023-05-23T12:53:15.000Z</time>
      </trkpt>
      <trkpt lat="43.64687" lon="3.77339">
        <ele>104.19999694824</ele>
        <time>2023-05-23T12:53:17.000Z</time>
      </trkpt>
      <trkpt lat="43.64686" lon="3.77338">
        <ele>105.59999847412</ele>
        <time>2023-05-23T12:53:18.000Z</time>
      </trkpt>
      <trkpt lat="43.64686" lon="3.77337">
        <ele>107.40000152588</ele>
        <time>2023-05-23T12:53:19.000Z</time>
      </trkpt>
      <trkpt lat="43.64685" lon="3.77336">
        <ele>109.40000152588</ele>
        <time>2023-05-23T12:53:20.000Z</time>
      </trkpt>
      <trkpt lat="43.64682" lon="3.77327">
        <ele>109.80000305176</ele>
        <time>2023-05-23T12:53:28.000Z</time>
      </trkpt>
      <trkpt lat="43.6468" lon="3.77322">
        <ele>110.59999847412</ele>
        <time>2023-05-23T12:53:32.000Z</time>
      </trkpt>
      <trkpt lat="43.64679" lon="3.77319">
        <ele>110.80000305176</ele>
        <time>2023-05-23T12:53:35.000Z</time>
      </trkpt>
      <trkpt lat="43.64678" lon="3.77314">
        <ele>111.59999847412</ele>
        <time>2023-05-23T12:53:39.000Z</time>
      </trkpt>
      <trkpt lat="43.64676" lon="3.77309">
        <ele>113</ele>
        <time>2023-05-23T12:53:43.000Z</time>
      </trkpt>
      <trkpt lat="43.64674" lon="3.77303">
        <ele>114.19999694824</ele>
        <time>2023-05-23T12:53:48.000Z</time>
      </trkpt>
      <trkpt lat="43.64674" lon="3.77301">
        <ele>114.59999847412</ele>
        <time>2023-05-23T12:53:50.000Z</time>
      </trkpt>
      <trkpt lat="43.64673" lon="3.77296">
        <ele>115.40000152588</ele>
        <time>2023-05-23T12:53:54.000Z</time>
      </trkpt>
      <trkpt lat="43.64672" lon="3.77293">
        <ele>115.80000305176</ele>
        <time>2023-05-23T12:53:57.000Z</time>
      </trkpt>
      <trkpt lat="43.64672" lon="3.77289">
        <ele>116.40000152588</ele>
        <time>2023-05-23T12:54:00.000Z</time>
      </trkpt>
      <trkpt lat="43.64671" lon="3.77286">
        <ele>116.80000305176</ele>
        <time>2023-05-23T12:54:03.000Z</time>
      </trkpt>
      <trkpt lat="43.64671" lon="3.77283">
        <ele>117</ele>
        <time>2023-05-23T12:54:06.000Z</time>
      </trkpt>
      <trkpt lat="43.64671" lon="3.77281">
        <ele>116.80000305176</ele>
        <time>2023-05-23T12:54:08.000Z</time>
      </trkpt>
      <trkpt lat="43.6467" lon="3.77273">
        <ele>116.59999847412</ele>
        <time>2023-05-23T12:54:16.000Z</time>
      </trkpt>
      <trkpt lat="43.64669" lon="3.77265">
        <ele>116.19999694824</ele>
        <time>2023-05-23T12:54:23.000Z</time>
      </trkpt>
      <trkpt lat="43.64667" lon="3.7726">
        <ele>115.80000305176</ele>
        <time>2023-05-23T12:54:30.000Z</time>
      </trkpt>
      <trkpt lat="43.64665" lon="3.77253">
        <ele>115.40000152588</ele>
        <time>2023-05-23T12:54:37.000Z</time>
      </trkpt>
      <trkpt lat="43.64664" lon="3.77245">
        <ele>116.80000305176</ele>
        <time>2023-05-23T12:54:45.000Z</time>
      </trkpt>
      <trkpt lat="43.64662" lon="3.77239">
        <ele>117.19999694824</ele>
        <time>2023-05-23T12:54:52.000Z</time>
      </trkpt>
      <trkpt lat="43.64662" lon="3.77238">
        <ele>117.40000152588</ele>
        <time>2023-05-23T12:54:53.000Z</time>
      </trkpt>
      <trkpt lat="43.6466" lon="3.77231">
        <ele>117.59999847412</ele>
        <time>2023-05-23T12:55:00.000Z</time>
      </trkpt>
      <trkpt lat="43.64658" lon="3.77225">
        <ele>118.40000152588</ele>
        <time>2023-05-23T12:55:06.000Z</time>
      </trkpt>
      <trkpt lat="43.64657" lon="3.77222">
        <ele>118.40000152588</ele>
        <time>2023-05-23T12:55:09.000Z</time>
      </trkpt>
      <trkpt lat="43.64655" lon="3.77216">
        <ele>117.19999694824</ele>
        <time>2023-05-23T12:55:15.000Z</time>
      </trkpt>
      <trkpt lat="43.64654" lon="3.77212">
        <ele>116.19999694824</ele>
        <time>2023-05-23T12:55:19.000Z</time>
      </trkpt>
      <trkpt lat="43.64652" lon="3.77206">
        <ele>116</ele>
        <time>2023-05-23T12:55:24.000Z</time>
      </trkpt>
      <trkpt lat="43.64652" lon="3.77203">
        <ele>114.80000305176</ele>
        <time>2023-05-23T12:55:27.000Z</time>
      </trkpt>
      <trkpt lat="43.64651" lon="3.77197">
        <ele>113.80000305176</ele>
        <time>2023-05-23T12:55:33.000Z</time>
      </trkpt>
      <trkpt lat="43.64651" lon="3.77196">
        <ele>114.40000152588</ele>
        <time>2023-05-23T12:55:34.000Z</time>
      </trkpt>
      <trkpt lat="43.64651" lon="3.77194">
        <ele>115</ele>
        <time>2023-05-23T12:55:35.000Z</time>
      </trkpt>
      <trkpt lat="43.64651" lon="3.77189">
        <ele>116.59999847412</ele>
        <time>2023-05-23T12:55:39.000Z</time>
      </trkpt>
      <trkpt lat="43.64651" lon="3.77185">
        <ele>115.40000152588</ele>
        <time>2023-05-23T12:55:42.000Z</time>
      </trkpt>
      <trkpt lat="43.6465" lon="3.77183">
        <ele>115</ele>
        <time>2023-05-23T12:55:44.000Z</time>
      </trkpt>
      <trkpt lat="43.64648" lon="3.77182">
        <ele>116.40000152588</ele>
        <time>2023-05-23T12:55:48.000Z</time>
      </trkpt>
      <trkpt lat="43.64648" lon="3.77182">
        <ele>118.19999694824</ele>
        <time>2023-05-23T12:55:49.000Z</time>
      </trkpt>
      <trkpt lat="43.64649" lon="3.77182">
        <ele>120.19999694824</ele>
        <time>2023-05-23T12:55:51.000Z</time>
      </trkpt>
      <trkpt lat="43.64647" lon="3.77181">
        <ele>120.59999847412</ele>
        <time>2023-05-23T12:55:59.000Z</time>
      </trkpt>
      <trkpt lat="43.64647" lon="3.77181">
        <ele>120.59999847412</ele>
        <time>2023-05-23T12:56:05.000Z</time>
      </trkpt>
      <trkpt lat="43.64646" lon="3.77181">
        <ele>121.19999694824</ele>
        <time>2023-05-23T12:56:11.000Z</time>
      </trkpt>
      <trkpt lat="43.64646" lon="3.77181">
        <ele>123.40000152588</ele>
        <time>2023-05-23T12:56:12.000Z</time>
      </trkpt>
      <trkpt lat="43.64646" lon="3.77181">
        <ele>126.80000305176</ele>
        <time>2023-05-23T12:56:13.000Z</time>
      </trkpt>
      <trkpt lat="43.64646" lon="3.7718">
        <ele>124</ele>
        <time>2023-05-23T12:56:14.000Z</time>
      </trkpt>
      <trkpt lat="43.64646" lon="3.7718">
        <ele>124.40000152588</ele>
        <time>2023-05-23T12:56:21.000Z</time>
      </trkpt>
      <trkpt lat="43.64647" lon="3.77179">
        <ele>124</ele>
        <time>2023-05-23T12:56:30.000Z</time>
      </trkpt>
      <trkpt lat="43.64646" lon="3.77181">
        <ele>124</ele>
        <time>2023-05-23T12:56:37.000Z</time>
      </trkpt>
      <trkpt lat="43.64646" lon="3.77182">
        <ele>124</ele>
        <time>2023-05-23T12:56:44.000Z</time>
      </trkpt>
      <trkpt lat="43.64646" lon="3.77181">
        <ele>123.80000305176</ele>
        <time>2023-05-23T12:56:53.000Z</time>
      </trkpt>
      <trkpt lat="43.64647" lon="3.77181">
        <ele>123.59999847412</ele>
        <time>2023-05-23T12:57:06.000Z</time>
      </trkpt>
      <trkpt lat="43.64647" lon="3.77181">
        <ele>123</ele>
        <time>2023-05-23T12:57:10.000Z</time>
      </trkpt>
      <trkpt lat="43.64648" lon="3.7718">
        <ele>122</ele>
        <time>2023-05-23T12:57:19.000Z</time>
      </trkpt>
      <trkpt lat="43.64647" lon="3.7718">
        <ele>120.80000305176</ele>
        <time>2023-05-23T12:57:27.000Z</time>
      </trkpt>
      <trkpt lat="43.64648" lon="3.7718">
        <ele>120.40000152588</ele>
        <time>2023-05-23T12:57:32.000Z</time>
      </trkpt>
      <trkpt lat="43.64649" lon="3.77178">
        <ele>120.19999694824</ele>
        <time>2023-05-23T12:57:43.000Z</time>
      </trkpt>
      <trkpt lat="43.64648" lon="3.77178">
        <ele>120.19999694824</ele>
        <time>2023-05-23T12:58:00.000Z</time>
      </trkpt>
      <trkpt lat="43.64647" lon="3.77178">
        <ele>119.80000305176</ele>
        <time>2023-05-23T12:58:10.000Z</time>
      </trkpt>
      <trkpt lat="43.64647" lon="3.77178">
        <ele>120</ele>
        <time>2023-05-23T12:58:12.000Z</time>
      </trkpt>
      <trkpt lat="43.64648" lon="3.77178">
        <ele>120</ele>
        <time>2023-05-23T12:58:22.000Z</time>
      </trkpt>
      <trkpt lat="43.64648" lon="3.77177">
        <ele>120</ele>
        <time>2023-05-23T12:58:29.000Z</time>
      </trkpt>
      <trkpt lat="43.64648" lon="3.77177">
        <ele>120</ele>
        <time>2023-05-23T12:58:38.000Z</time>
      </trkpt>
      <trkpt lat="43.64647" lon="3.77177">
        <ele>119.80000305176</ele>
        <time>2023-05-23T12:58:49.000Z</time>
      </trkpt>
      <trkpt lat="43.64647" lon="3.77177">
        <ele>120.40000152588</ele>
        <time>2023-05-23T12:58:56.000Z</time>
      </trkpt>
      <trkpt lat="43.64648" lon="3.77176">
        <ele>121</ele>
        <time>2023-05-23T12:59:01.000Z</time>
      </trkpt>
      <trkpt lat="43.64648" lon="3.77176">
        <ele>121</ele>
        <time>2023-05-23T12:59:03.000Z</time>
      </trkpt>
      <trkpt lat="43.64648" lon="3.77176">
        <ele>120.59999847412</ele>
        <time>2023-05-23T12:59:13.000Z</time>
      </trkpt>
      <trkpt lat="43.64647" lon="3.77176">
        <ele>120.59999847412</ele>
        <time>2023-05-23T12:59:22.000Z</time>
      </trkpt>
      <trkpt lat="43.64647" lon="3.77176">
        <ele>120.40000152588</ele>
        <time>2023-05-23T12:59:28.000Z</time>
      </trkpt>
      <trkpt lat="43.64647" lon="3.77177">
        <ele>120.59999847412</ele>
        <time>2023-05-23T12:59:35.000Z</time>
      </trkpt>
      <trkpt lat="43.64646" lon="3.77178">
        <ele>120.19999694824</ele>
        <time>2023-05-23T12:59:47.000Z</time>
      </trkpt>
      <trkpt lat="43.64646" lon="3.77178">
        <ele>120.80000305176</ele>
        <time>2023-05-23T12:59:59.000Z</time>
      </trkpt>
      <trkpt lat="43.64646" lon="3.77178">
        <ele>121.19999694824</ele>
        <time>2023-05-23T13:00:07.000Z</time>
      </trkpt>
      <trkpt lat="43.64646" lon="3.77178">
        <ele>121</ele>
        <time>2023-05-23T13:00:13.000Z</time>
      </trkpt>
      <trkpt lat="43.64646" lon="3.77178">
        <ele>120.80000305176</ele>
        <time>2023-05-23T13:00:22.000Z</time>
      </trkpt>
      <trkpt lat="43.64647" lon="3.77175">
        <ele>120.80000305176</ele>
        <time>2023-05-23T13:00:30.000Z</time>
      </trkpt>
      <trkpt lat="43.64647" lon="3.7717">
        <ele>121.19999694824</ele>
        <time>2023-05-23T13:00:36.000Z</time>
      </trkpt>
      <trkpt lat="43.64646" lon="3.77163">
        <ele>121.59999847412</ele>
        <time>2023-05-23T13:00:44.000Z</time>
      </trkpt>
      <trkpt lat="43.64646" lon="3.77164">
        <ele>121.59999847412</ele>
        <time>2023-05-23T13:00:51.000Z</time>
      </trkpt>
      <trkpt lat="43.64646" lon="3.77164">
        <ele>122</ele>
        <time>2023-05-23T13:00:58.000Z</time>
      </trkpt>
      <trkpt lat="43.6465" lon="3.77167">
        <ele>122</ele>
        <time>2023-05-23T13:01:02.000Z</time>
      </trkpt>
      <trkpt lat="43.64649" lon="3.77162">
        <ele>122.40000152588</ele>
        <time>2023-05-23T13:01:12.000Z</time>
      </trkpt>
      <trkpt lat="43.6465" lon="3.77162">
        <ele>121.80000305176</ele>
        <time>2023-05-23T13:01:22.000Z</time>
      </trkpt>
      <trkpt lat="43.64651" lon="3.77161">
        <ele>121.59999847412</ele>
        <time>2023-05-23T13:01:30.000Z</time>
      </trkpt>
      <trkpt lat="43.64651" lon="3.7716">
        <ele>121.59999847412</ele>
        <time>2023-05-23T13:01:43.000Z</time>
      </trkpt>
      <trkpt lat="43.6465" lon="3.77159">
        <ele>121.80000305176</ele>
        <time>2023-05-23T13:01:54.000Z</time>
      </trkpt>
      <trkpt lat="43.64651" lon="3.77159">
        <ele>121.80000305176</ele>
        <time>2023-05-23T13:02:03.000Z</time>
      </trkpt>
      <trkpt lat="43.64651" lon="3.7716">
        <ele>122.19999694824</ele>
        <time>2023-05-23T13:02:14.000Z</time>
      </trkpt>
      <trkpt lat="43.64652" lon="3.7716">
        <ele>121.80000305176</ele>
        <time>2023-05-23T13:02:27.000Z</time>
      </trkpt>
      <trkpt lat="43.64651" lon="3.77159">
        <ele>122</ele>
        <time>2023-05-23T13:02:36.000Z</time>
      </trkpt>
      <trkpt lat="43.64657" lon="3.77158">
        <ele>121.80000305176</ele>
        <time>2023-05-23T13:02:43.000Z</time>
      </trkpt>
      <trkpt lat="43.64657" lon="3.77159">
        <ele>121.40000152588</ele>
        <time>2023-05-23T13:02:51.000Z</time>
      </trkpt>
      <trkpt lat="43.64657" lon="3.7716">
        <ele>122</ele>
        <time>2023-05-23T13:03:03.000Z</time>
      </trkpt>
      <trkpt lat="43.6466" lon="3.77159">
        <ele>121.59999847412</ele>
        <time>2023-05-23T13:03:17.000Z</time>
      </trkpt>
      <trkpt lat="43.6466" lon="3.77159">
        <ele>122</ele>
        <time>2023-05-23T13:03:25.000Z</time>
      </trkpt>
      <trkpt lat="43.6466" lon="3.77159">
        <ele>122.19999694824</ele>
        <time>2023-05-23T13:03:32.000Z</time>
      </trkpt>
      <trkpt lat="43.64659" lon="3.77159">
        <ele>122.40000152588</ele>
        <time>2023-05-23T13:03:43.000Z</time>
      </trkpt>
      <trkpt lat="43.64659" lon="3.77159">
        <ele>121.59999847412</ele>
        <time>2023-05-23T13:03:57.000Z</time>
      </trkpt>
      <trkpt lat="43.64655" lon="3.77159">
        <ele>122</ele>
        <time>2023-05-23T13:04:11.000Z</time>
      </trkpt>
      <trkpt lat="43.64654" lon="3.77152">
        <ele>122</ele>
        <time>2023-05-23T13:04:19.000Z</time>
      </trkpt>
      <trkpt lat="43.64653" lon="3.77148">
        <ele>122.59999847412</ele>
        <time>2023-05-23T13:04:25.000Z</time>
      </trkpt>
      <trkpt lat="43.6465" lon="3.77138">
        <ele>122.80000305176</ele>
        <time>2023-05-23T13:04:33.000Z</time>
      </trkpt>
      <trkpt lat="43.6465" lon="3.7713">
        <ele>123</ele>
        <time>2023-05-23T13:04:40.000Z</time>
      </trkpt>
      <trkpt lat="43.64649" lon="3.77128">
        <ele>123</ele>
        <time>2023-05-23T13:04:41.000Z</time>
      </trkpt>
      <trkpt lat="43.64649" lon="3.77124">
        <ele>123.40000152588</ele>
        <time>2023-05-23T13:04:47.000Z</time>
      </trkpt>
      <trkpt lat="43.64649" lon="3.77123">
        <ele>124</ele>
        <time>2023-05-23T13:04:52.000Z</time>
      </trkpt>
      <trkpt lat="43.64649" lon="3.77122">
        <ele>124</ele>
        <time>2023-05-23T13:05:00.000Z</time>
      </trkpt>
      <trkpt lat="43.64649" lon="3.77122">
        <ele>123.80000305176</ele>
        <time>2023-05-23T13:05:11.000Z</time>
      </trkpt>
      <trkpt lat="43.64649" lon="3.77122">
        <ele>124</ele>
        <time>2023-05-23T13:05:21.000Z</time>
      </trkpt>
      <trkpt lat="43.6465" lon="3.77121">
        <ele>124</ele>
        <time>2023-05-23T13:05:31.000Z</time>
      </trkpt>
      <trkpt lat="43.64652" lon="3.77114">
        <ele>124.19999694824</ele>
        <time>2023-05-23T13:05:37.000Z</time>
      </trkpt>
      <trkpt lat="43.64656" lon="3.77106">
        <ele>125</ele>
        <time>2023-05-23T13:05:44.000Z</time>
      </trkpt>
      <trkpt lat="43.6466" lon="3.77097">
        <ele>125.80000305176</ele>
        <time>2023-05-23T13:05:52.000Z</time>
      </trkpt>
      <trkpt lat="43.64663" lon="3.77091">
        <ele>126</ele>
        <time>2023-05-23T13:05:58.000Z</time>
      </trkpt>
      <trkpt lat="43.64665" lon="3.77089">
        <ele>126.40000152588</ele>
        <time>2023-05-23T13:06:01.000Z</time>
      </trkpt>
      <trkpt lat="43.64668" lon="3.77088">
        <ele>126.80000305176</ele>
        <time>2023-05-23T13:06:04.000Z</time>
      </trkpt>
      <trkpt lat="43.64669" lon="3.77089">
        <ele>126.80000305176</ele>
        <time>2023-05-23T13:06:06.000Z</time>
      </trkpt>
      <trkpt lat="43.64671" lon="3.7709">
        <ele>127</ele>
        <time>2023-05-23T13:06:08.000Z</time>
      </trkpt>
      <trkpt lat="43.64672" lon="3.77091">
        <ele>127.19999694824</ele>
        <time>2023-05-23T13:06:10.000Z</time>
      </trkpt>
      <trkpt lat="43.64677" lon="3.77095">
        <ele>128</ele>
        <time>2023-05-23T13:06:17.000Z</time>
      </trkpt>
      <trkpt lat="43.64678" lon="3.77096">
        <ele>128.19999694824</ele>
        <time>2023-05-23T13:06:19.000Z</time>
      </trkpt>
      <trkpt lat="43.64681" lon="3.77097">
        <ele>128.80000305176</ele>
        <time>2023-05-23T13:06:25.000Z</time>
      </trkpt>
      <trkpt lat="43.64684" lon="3.77098">
        <ele>129.39999389648</ele>
        <time>2023-05-23T13:06:30.000Z</time>
      </trkpt>
      <trkpt lat="43.64685" lon="3.77098">
        <ele>130</ele>
        <time>2023-05-23T13:06:34.000Z</time>
      </trkpt>
      <trkpt lat="43.64687" lon="3.77098">
        <ele>130.39999389648</ele>
        <time>2023-05-23T13:06:36.000Z</time>
      </trkpt>
      <trkpt lat="43.6469" lon="3.77098">
        <ele>130.80000305176</ele>
        <time>2023-05-23T13:06:41.000Z</time>
      </trkpt>
      <trkpt lat="43.64696" lon="3.77098">
        <ele>131.19999694824</ele>
        <time>2023-05-23T13:06:48.000Z</time>
      </trkpt>
      <trkpt lat="43.64696" lon="3.77098">
        <ele>131.39999389648</ele>
        <time>2023-05-23T13:06:49.000Z</time>
      </trkpt>
      <trkpt lat="43.647" lon="3.77097">
        <ele>132.39999389648</ele>
        <time>2023-05-23T13:06:56.000Z</time>
      </trkpt>
      <trkpt lat="43.64701" lon="3.77096">
        <ele>132.60000610352</ele>
        <time>2023-05-23T13:06:58.000Z</time>
      </trkpt>
      <trkpt lat="43.64704" lon="3.77093">
        <ele>133</ele>
        <time>2023-05-23T13:07:04.000Z</time>
      </trkpt>
      <trkpt lat="43.64706" lon="3.77089">
        <ele>133.60000610352</ele>
        <time>2023-05-23T13:07:08.000Z</time>
      </trkpt>
      <trkpt lat="43.64706" lon="3.77085">
        <ele>133.60000610352</ele>
        <time>2023-05-23T13:07:12.000Z</time>
      </trkpt>
      <trkpt lat="43.64704" lon="3.77074">
        <ele>133.60000610352</ele>
        <time>2023-05-23T13:07:20.000Z</time>
      </trkpt>
      <trkpt lat="43.647" lon="3.77063">
        <ele>133.19999694824</ele>
        <time>2023-05-23T13:07:28.000Z</time>
      </trkpt>
      <trkpt lat="43.64697" lon="3.77055">
        <ele>133.19999694824</ele>
        <time>2023-05-23T13:07:34.000Z</time>
      </trkpt>
      <trkpt lat="43.64696" lon="3.77052">
        <ele>133</ele>
        <time>2023-05-23T13:07:36.000Z</time>
      </trkpt>
      <trkpt lat="43.64694" lon="3.77048">
        <ele>132.60000610352</ele>
        <time>2023-05-23T13:07:39.000Z</time>
      </trkpt>
      <trkpt lat="43.64694" lon="3.77047">
        <ele>132.60000610352</ele>
        <time>2023-05-23T13:07:40.000Z</time>
      </trkpt>
      <trkpt lat="43.64692" lon="3.77041">
        <ele>132.19999694824</ele>
        <time>2023-05-23T13:07:44.000Z</time>
      </trkpt>
      <trkpt lat="43.6469" lon="3.77033">
        <ele>131.39999389648</ele>
        <time>2023-05-23T13:07:50.000Z</time>
      </trkpt>
      <trkpt lat="43.6469" lon="3.7703">
        <ele>131.39999389648</ele>
        <time>2023-05-23T13:07:52.000Z</time>
      </trkpt>
      <trkpt lat="43.64688" lon="3.77021">
        <ele>130.80000305176</ele>
        <time>2023-05-23T13:07:58.000Z</time>
      </trkpt>
      <trkpt lat="43.64687" lon="3.77016">
        <ele>130.39999389648</ele>
        <time>2023-05-23T13:08:01.000Z</time>
      </trkpt>
      <trkpt lat="43.64686" lon="3.77009">
        <ele>130.19999694824</ele>
        <time>2023-05-23T13:08:06.000Z</time>
      </trkpt>
      <trkpt lat="43.64683" lon="3.76992">
        <ele>129.39999389648</ele>
        <time>2023-05-23T13:08:17.000Z</time>
      </trkpt>
      <trkpt lat="43.6468" lon="3.76977">
        <ele>129.19999694824</ele>
        <time>2023-05-23T13:08:27.000Z</time>
      </trkpt>
      <trkpt lat="43.64677" lon="3.76967">
        <ele>129</ele>
        <time>2023-05-23T13:08:34.000Z</time>
      </trkpt>
      <trkpt lat="43.64675" lon="3.76959">
        <ele>128.19999694824</ele>
        <time>2023-05-23T13:08:39.000Z</time>
      </trkpt>
      <trkpt lat="43.64674" lon="3.76955">
        <ele>128</ele>
        <time>2023-05-23T13:08:42.000Z</time>
      </trkpt>
      <trkpt lat="43.64672" lon="3.76944">
        <ele>128</ele>
        <time>2023-05-23T13:08:49.000Z</time>
      </trkpt>
      <trkpt lat="43.64672" lon="3.76935">
        <ele>127.59999847412</ele>
        <time>2023-05-23T13:08:55.000Z</time>
      </trkpt>
      <trkpt lat="43.64673" lon="3.76935">
        <ele>127.80000305176</ele>
        <time>2023-05-23T13:08:56.000Z</time>
      </trkpt>
      <trkpt lat="43.64675" lon="3.76938">
        <ele>128.39999389648</ele>
        <time>2023-05-23T13:09:01.000Z</time>
      </trkpt>
      <trkpt lat="43.64676" lon="3.7694">
        <ele>128.60000610352</ele>
        <time>2023-05-23T13:09:03.000Z</time>
      </trkpt>
      <trkpt lat="43.64677" lon="3.76941">
        <ele>129</ele>
        <time>2023-05-23T13:09:07.000Z</time>
      </trkpt>
      <trkpt lat="43.64677" lon="3.76942">
        <ele>129.19999694824</ele>
        <time>2023-05-23T13:09:10.000Z</time>
      </trkpt>
      <trkpt lat="43.64676" lon="3.76938">
        <ele>129.39999389648</ele>
        <time>2023-05-23T13:09:13.000Z</time>
      </trkpt>
      <trkpt lat="43.64676" lon="3.76927">
        <ele>128.80000305176</ele>
        <time>2023-05-23T13:09:21.000Z</time>
      </trkpt>
      <trkpt lat="43.64676" lon="3.76926">
        <ele>128.80000305176</ele>
        <time>2023-05-23T13:09:22.000Z</time>
      </trkpt>
      <trkpt lat="43.64676" lon="3.76927">
        <ele>128.80000305176</ele>
        <time>2023-05-23T13:09:26.000Z</time>
      </trkpt>
      <trkpt lat="43.64677" lon="3.76926">
        <ele>128.60000610352</ele>
        <time>2023-05-23T13:09:34.000Z</time>
      </trkpt>
      <trkpt lat="43.64678" lon="3.76924">
        <ele>128.60000610352</ele>
        <time>2023-05-23T13:09:41.000Z</time>
      </trkpt>
      <trkpt lat="43.6468" lon="3.76925">
        <ele>128.60000610352</ele>
        <time>2023-05-23T13:09:47.000Z</time>
      </trkpt>
      <trkpt lat="43.64683" lon="3.76925">
        <ele>128.80000305176</ele>
        <time>2023-05-23T13:09:54.000Z</time>
      </trkpt>
      <trkpt lat="43.64687" lon="3.76922">
        <ele>129.19999694824</ele>
        <time>2023-05-23T13:10:00.000Z</time>
      </trkpt>
      <trkpt lat="43.64691" lon="3.76913">
        <ele>130.39999389648</ele>
        <time>2023-05-23T13:10:08.000Z</time>
      </trkpt>
      <trkpt lat="43.64693" lon="3.76905">
        <ele>130.60000610352</ele>
        <time>2023-05-23T13:10:14.000Z</time>
      </trkpt>
      <trkpt lat="43.64697" lon="3.76893">
        <ele>131</ele>
        <time>2023-05-23T13:10:23.000Z</time>
      </trkpt>
      <trkpt lat="43.647" lon="3.76881">
        <ele>131.19999694824</ele>
        <time>2023-05-23T13:10:32.000Z</time>
      </trkpt>
      <trkpt lat="43.647" lon="3.76875">
        <ele>131.39999389648</ele>
        <time>2023-05-23T13:10:36.000Z</time>
      </trkpt>
      <trkpt lat="43.64701" lon="3.76866">
        <ele>131.60000610352</ele>
        <time>2023-05-23T13:10:42.000Z</time>
      </trkpt>
      <trkpt lat="43.64702" lon="3.7685">
        <ele>131</ele>
        <time>2023-05-23T13:10:53.000Z</time>
      </trkpt>
      <trkpt lat="43.64702" lon="3.76839">
        <ele>130.60000610352</ele>
        <time>2023-05-23T13:11:01.000Z</time>
      </trkpt>
      <trkpt lat="43.64701" lon="3.76834">
        <ele>130.39999389648</ele>
        <time>2023-05-23T13:11:05.000Z</time>
      </trkpt>
      <trkpt lat="43.64701" lon="3.76831">
        <ele>130.19999694824</ele>
        <time>2023-05-23T13:11:07.000Z</time>
      </trkpt>
      <trkpt lat="43.647" lon="3.76828">
        <ele>129.80000305176</ele>
        <time>2023-05-23T13:11:09.000Z</time>
      </trkpt>
      <trkpt lat="43.64698" lon="3.76822">
        <ele>129.19999694824</ele>
        <time>2023-05-23T13:11:14.000Z</time>
      </trkpt>
      <trkpt lat="43.64697" lon="3.7682">
        <ele>129</ele>
        <time>2023-05-23T13:11:16.000Z</time>
      </trkpt>
      <trkpt lat="43.64695" lon="3.76811">
        <ele>128.19999694824</ele>
        <time>2023-05-23T13:11:22.000Z</time>
      </trkpt>
      <trkpt lat="43.64695" lon="3.76807">
        <ele>128</ele>
        <time>2023-05-23T13:11:25.000Z</time>
      </trkpt>
      <trkpt lat="43.64691" lon="3.768">
        <ele>128</ele>
        <time>2023-05-23T13:11:32.000Z</time>
      </trkpt>
      <trkpt lat="43.64683" lon="3.768">
        <ele>128</ele>
        <time>2023-05-23T13:11:39.000Z</time>
      </trkpt>
      <trkpt lat="43.64675" lon="3.76798">
        <ele>127.19999694824</ele>
        <time>2023-05-23T13:11:47.000Z</time>
      </trkpt>
      <trkpt lat="43.64669" lon="3.76798">
        <ele>127</ele>
        <time>2023-05-23T13:11:52.000Z</time>
      </trkpt>
      <trkpt lat="43.64665" lon="3.76796">
        <ele>126.59999847412</ele>
        <time>2023-05-23T13:11:56.000Z</time>
      </trkpt>
      <trkpt lat="43.64662" lon="3.76786">
        <ele>126.40000152588</ele>
        <time>2023-05-23T13:12:04.000Z</time>
      </trkpt>
      <trkpt lat="43.64662" lon="3.76775">
        <ele>126.59999847412</ele>
        <time>2023-05-23T13:12:11.000Z</time>
      </trkpt>
      <trkpt lat="43.64664" lon="3.76762">
        <ele>126.40000152588</ele>
        <time>2023-05-23T13:12:21.000Z</time>
      </trkpt>
      <trkpt lat="43.64666" lon="3.76756">
        <ele>126.40000152588</ele>
        <time>2023-05-23T13:12:26.000Z</time>
      </trkpt>
      <trkpt lat="43.64665" lon="3.76756">
        <ele>126.80000305176</ele>
        <time>2023-05-23T13:12:28.000Z</time>
      </trkpt>
      <trkpt lat="43.64666" lon="3.76759">
        <ele>127</ele>
        <time>2023-05-23T13:12:34.000Z</time>
      </trkpt>
      <trkpt lat="43.64668" lon="3.76761">
        <ele>127</ele>
        <time>2023-05-23T13:12:40.000Z</time>
      </trkpt>
      <trkpt lat="43.64668" lon="3.76761">
        <ele>126.80000305176</ele>
        <time>2023-05-23T13:12:46.000Z</time>
      </trkpt>
      <trkpt lat="43.64669" lon="3.76762">
        <ele>126.80000305176</ele>
        <time>2023-05-23T13:12:59.000Z</time>
      </trkpt>
      <trkpt lat="43.6467" lon="3.76765">
        <ele>126.59999847412</ele>
        <time>2023-05-23T13:13:13.000Z</time>
      </trkpt>
      <trkpt lat="43.6467" lon="3.76767">
        <ele>126</ele>
        <time>2023-05-23T13:13:25.000Z</time>
      </trkpt>
      <trkpt lat="43.6467" lon="3.76767">
        <ele>126</ele>
        <time>2023-05-23T13:13:26.000Z</time>
      </trkpt>
      <trkpt lat="43.64669" lon="3.76768">
        <ele>126.40000152588</ele>
        <time>2023-05-23T13:13:38.000Z</time>
      </trkpt>
      <trkpt lat="43.64668" lon="3.76765">
        <ele>126.80000305176</ele>
        <time>2023-05-23T13:13:51.000Z</time>
      </trkpt>
      <trkpt lat="43.64669" lon="3.76766">
        <ele>127</ele>
        <time>2023-05-23T13:14:01.000Z</time>
      </trkpt>
      <trkpt lat="43.64669" lon="3.76766">
        <ele>126.80000305176</ele>
        <time>2023-05-23T13:14:12.000Z</time>
      </trkpt>
      <trkpt lat="43.64669" lon="3.76765">
        <ele>126.80000305176</ele>
        <time>2023-05-23T13:14:19.000Z</time>
      </trkpt>
      <trkpt lat="43.64669" lon="3.76766">
        <ele>126.80000305176</ele>
        <time>2023-05-23T13:14:28.000Z</time>
      </trkpt>
      <trkpt lat="43.64669" lon="3.76765">
        <ele>126.19999694824</ele>
        <time>2023-05-23T13:14:46.000Z</time>
      </trkpt>
      <trkpt lat="43.64669" lon="3.76764">
        <ele>127</ele>
        <time>2023-05-23T13:14:55.000Z</time>
      </trkpt>
      <trkpt lat="43.64669" lon="3.76764">
        <ele>127</ele>
        <time>2023-05-23T13:14:57.000Z</time>
      </trkpt>
      <trkpt lat="43.64669" lon="3.76765">
        <ele>126.80000305176</ele>
        <time>2023-05-23T13:15:07.000Z</time>
      </trkpt>
      <trkpt lat="43.64668" lon="3.76765">
        <ele>126.80000305176</ele>
        <time>2023-05-23T13:15:17.000Z</time>
      </trkpt>
      <trkpt lat="43.64667" lon="3.76765">
        <ele>126.59999847412</ele>
        <time>2023-05-23T13:15:26.000Z</time>
      </trkpt>
      <trkpt lat="43.64666" lon="3.76757">
        <ele>127</ele>
        <time>2023-05-23T13:15:32.000Z</time>
      </trkpt>
      <trkpt lat="43.64667" lon="3.76748">
        <ele>127.19999694824</ele>
        <time>2023-05-23T13:15:40.000Z</time>
      </trkpt>
      <trkpt lat="43.64668" lon="3.7674">
        <ele>127.40000152588</ele>
        <time>2023-05-23T13:15:45.000Z</time>
      </trkpt>
      <trkpt lat="43.64669" lon="3.76731">
        <ele>127.40000152588</ele>
        <time>2023-05-23T13:15:51.000Z</time>
      </trkpt>
      <trkpt lat="43.64669" lon="3.7673">
        <ele>127.40000152588</ele>
        <time>2023-05-23T13:15:52.000Z</time>
      </trkpt>
      <trkpt lat="43.64672" lon="3.76717">
        <ele>127.59999847412</ele>
        <time>2023-05-23T13:16:00.000Z</time>
      </trkpt>
      <trkpt lat="43.64674" lon="3.76704">
        <ele>127.59999847412</ele>
        <time>2023-05-23T13:16:08.000Z</time>
      </trkpt>
      <trkpt lat="43.64676" lon="3.76689">
        <ele>127.80000305176</ele>
        <time>2023-05-23T13:16:17.000Z</time>
      </trkpt>
      <trkpt lat="43.64677" lon="3.76681">
        <ele>128</ele>
        <time>2023-05-23T13:16:22.000Z</time>
      </trkpt>
      <trkpt lat="43.64678" lon="3.76675">
        <ele>128</ele>
        <time>2023-05-23T13:16:26.000Z</time>
      </trkpt>
      <trkpt lat="43.6468" lon="3.76658">
        <ele>128</ele>
        <time>2023-05-23T13:16:36.000Z</time>
      </trkpt>
      <trkpt lat="43.6468" lon="3.76656">
        <ele>128.19999694824</ele>
        <time>2023-05-23T13:16:38.000Z</time>
      </trkpt>
      <trkpt lat="43.64677" lon="3.76654">
        <ele>128.19999694824</ele>
        <time>2023-05-23T13:16:42.000Z</time>
      </trkpt>
      <trkpt lat="43.64675" lon="3.76654">
        <ele>128</ele>
        <time>2023-05-23T13:16:44.000Z</time>
      </trkpt>
      <trkpt lat="43.64669" lon="3.76653">
        <ele>127.40000152588</ele>
        <time>2023-05-23T13:16:50.000Z</time>
      </trkpt>
      <trkpt lat="43.64667" lon="3.76652">
        <ele>127</ele>
        <time>2023-05-23T13:16:54.000Z</time>
      </trkpt>
      <trkpt lat="43.64666" lon="3.76652">
        <ele>126.80000305176</ele>
        <time>2023-05-23T13:16:55.000Z</time>
      </trkpt>
      <trkpt lat="43.64663" lon="3.76653">
        <ele>126.40000152588</ele>
        <time>2023-05-23T13:16:57.000Z</time>
      </trkpt>
      <trkpt lat="43.6466" lon="3.76652">
        <ele>126</ele>
        <time>2023-05-23T13:17:00.000Z</time>
      </trkpt>
      <trkpt lat="43.64657" lon="3.76652">
        <ele>125.80000305176</ele>
        <time>2023-05-23T13:17:02.000Z</time>
      </trkpt>
      <trkpt lat="43.64654" lon="3.76651">
        <ele>125.80000305176</ele>
        <time>2023-05-23T13:17:05.000Z</time>
      </trkpt>
      <trkpt lat="43.64645" lon="3.76648">
        <ele>125.80000305176</ele>
        <time>2023-05-23T13:17:13.000Z</time>
      </trkpt>
      <trkpt lat="43.64631" lon="3.76644">
        <ele>125.80000305176</ele>
        <time>2023-05-23T13:17:25.000Z</time>
      </trkpt>
      <trkpt lat="43.64619" lon="3.76641">
        <ele>125.59999847412</ele>
        <time>2023-05-23T13:17:35.000Z</time>
      </trkpt>
      <trkpt lat="43.64611" lon="3.76639">
        <ele>125.80000305176</ele>
        <time>2023-05-23T13:17:43.000Z</time>
      </trkpt>
      <trkpt lat="43.64607" lon="3.76638">
        <ele>125.80000305176</ele>
        <time>2023-05-23T13:17:47.000Z</time>
      </trkpt>
      <trkpt lat="43.64605" lon="3.76638">
        <ele>126.19999694824</ele>
        <time>2023-05-23T13:17:50.000Z</time>
      </trkpt>
      <trkpt lat="43.646" lon="3.76636">
        <ele>127</ele>
        <time>2023-05-23T13:17:56.000Z</time>
      </trkpt>
      <trkpt lat="43.64598" lon="3.76634">
        <ele>127</ele>
        <time>2023-05-23T13:17:58.000Z</time>
      </trkpt>
      <trkpt lat="43.64597" lon="3.76632">
        <ele>127.19999694824</ele>
        <time>2023-05-23T13:18:00.000Z</time>
      </trkpt>
      <trkpt lat="43.64595" lon="3.76626">
        <ele>127.19999694824</ele>
        <time>2023-05-23T13:18:04.000Z</time>
      </trkpt>
      <trkpt lat="43.64593" lon="3.76618">
        <ele>127.40000152588</ele>
        <time>2023-05-23T13:18:10.000Z</time>
      </trkpt>
      <trkpt lat="43.64592" lon="3.76617">
        <ele>127.59999847412</ele>
        <time>2023-05-23T13:18:11.000Z</time>
      </trkpt>
      <trkpt lat="43.6459" lon="3.76613">
        <ele>128</ele>
        <time>2023-05-23T13:18:14.000Z</time>
      </trkpt>
      <trkpt lat="43.64589" lon="3.76612">
        <ele>128</ele>
        <time>2023-05-23T13:18:15.000Z</time>
      </trkpt>
      <trkpt lat="43.64588" lon="3.76609">
        <ele>127.80000305176</ele>
        <time>2023-05-23T13:18:18.000Z</time>
      </trkpt>
      <trkpt lat="43.64586" lon="3.76599">
        <ele>129</ele>
        <time>2023-05-23T13:18:25.000Z</time>
      </trkpt>
      <trkpt lat="43.64586" lon="3.76598">
        <ele>129.19999694824</ele>
        <time>2023-05-23T13:18:26.000Z</time>
      </trkpt>
      <trkpt lat="43.64587" lon="3.76588">
        <ele>130</ele>
        <time>2023-05-23T13:18:33.000Z</time>
      </trkpt>
      <trkpt lat="43.64587" lon="3.76582">
        <ele>130.19999694824</ele>
        <time>2023-05-23T13:18:38.000Z</time>
      </trkpt>
      <trkpt lat="43.64588" lon="3.76579">
        <ele>130.60000610352</ele>
        <time>2023-05-23T13:18:40.000Z</time>
      </trkpt>
      <trkpt lat="43.64591" lon="3.7657">
        <ele>131</ele>
        <time>2023-05-23T13:18:48.000Z</time>
      </trkpt>
      <trkpt lat="43.64592" lon="3.76558">
        <ele>131.19999694824</ele>
        <time>2023-05-23T13:18:57.000Z</time>
      </trkpt>
      <trkpt lat="43.64593" lon="3.76554">
        <ele>131.19999694824</ele>
        <time>2023-05-23T13:19:00.000Z</time>
      </trkpt>
      <trkpt lat="43.64595" lon="3.76548">
        <ele>131.39999389648</ele>
        <time>2023-05-23T13:19:05.000Z</time>
      </trkpt>
      <trkpt lat="43.64598" lon="3.76533">
        <ele>131.39999389648</ele>
        <time>2023-05-23T13:19:15.000Z</time>
      </trkpt>
      <trkpt lat="43.646" lon="3.76522">
        <ele>131.60000610352</ele>
        <time>2023-05-23T13:19:23.000Z</time>
      </trkpt>
      <trkpt lat="43.64604" lon="3.76506">
        <ele>131.80000305176</ele>
        <time>2023-05-23T13:19:33.000Z</time>
      </trkpt>
      <trkpt lat="43.64608" lon="3.76488">
        <ele>131.80000305176</ele>
        <time>2023-05-23T13:19:44.000Z</time>
      </trkpt>
      <trkpt lat="43.64612" lon="3.76475">
        <ele>132.39999389648</ele>
        <time>2023-05-23T13:19:53.000Z</time>
      </trkpt>
      <trkpt lat="43.64615" lon="3.76457">
        <ele>132.60000610352</ele>
        <time>2023-05-23T13:20:04.000Z</time>
      </trkpt>
      <trkpt lat="43.6462" lon="3.76442">
        <ele>132.80000305176</ele>
        <time>2023-05-23T13:20:14.000Z</time>
      </trkpt>
      <trkpt lat="43.64624" lon="3.76434">
        <ele>132.80000305176</ele>
        <time>2023-05-23T13:20:20.000Z</time>
      </trkpt>
      <trkpt lat="43.64624" lon="3.76429">
        <ele>132.80000305176</ele>
        <time>2023-05-23T13:20:23.000Z</time>
      </trkpt>
      <trkpt lat="43.64624" lon="3.76411">
        <ele>132.80000305176</ele>
        <time>2023-05-23T13:20:33.000Z</time>
      </trkpt>
      <trkpt lat="43.64622" lon="3.76397">
        <ele>132.80000305176</ele>
        <time>2023-05-23T13:20:42.000Z</time>
      </trkpt>
      <trkpt lat="43.64621" lon="3.76382">
        <ele>132.60000610352</ele>
        <time>2023-05-23T13:20:51.000Z</time>
      </trkpt>
      <trkpt lat="43.6462" lon="3.76366">
        <ele>132.39999389648</ele>
        <time>2023-05-23T13:21:01.000Z</time>
      </trkpt>
      <trkpt lat="43.64619" lon="3.76348">
        <ele>132.60000610352</ele>
        <time>2023-05-23T13:21:12.000Z</time>
      </trkpt>
      <trkpt lat="43.64618" lon="3.76333">
        <ele>132.60000610352</ele>
        <time>2023-05-23T13:21:21.000Z</time>
      </trkpt>
      <trkpt lat="43.64617" lon="3.76321">
        <ele>132.60000610352</ele>
        <time>2023-05-23T13:21:28.000Z</time>
      </trkpt>
      <trkpt lat="43.64616" lon="3.76306">
        <ele>132.60000610352</ele>
        <time>2023-05-23T13:21:36.000Z</time>
      </trkpt>
      <trkpt lat="43.64615" lon="3.76293">
        <ele>132.60000610352</ele>
        <time>2023-05-23T13:21:44.000Z</time>
      </trkpt>
      <trkpt lat="43.64615" lon="3.76279">
        <ele>132.80000305176</ele>
        <time>2023-05-23T13:21:52.000Z</time>
      </trkpt>
      <trkpt lat="43.64613" lon="3.76263">
        <ele>132.80000305176</ele>
        <time>2023-05-23T13:22:02.000Z</time>
      </trkpt>
      <trkpt lat="43.64612" lon="3.7625">
        <ele>132.60000610352</ele>
        <time>2023-05-23T13:22:10.000Z</time>
      </trkpt>
      <trkpt lat="43.64612" lon="3.76248">
        <ele>132.60000610352</ele>
        <time>2023-05-23T13:22:11.000Z</time>
      </trkpt>
      <trkpt lat="43.64611" lon="3.7624">
        <ele>132.80000305176</ele>
        <time>2023-05-23T13:22:16.000Z</time>
      </trkpt>
      <trkpt lat="43.64611" lon="3.76236">
        <ele>132.80000305176</ele>
        <time>2023-05-23T13:22:18.000Z</time>
      </trkpt>
      <trkpt lat="43.6461" lon="3.7622">
        <ele>133.19999694824</ele>
        <time>2023-05-23T13:22:27.000Z</time>
      </trkpt>
      <trkpt lat="43.64608" lon="3.76204">
        <ele>133</ele>
        <time>2023-05-23T13:22:36.000Z</time>
      </trkpt>
      <trkpt lat="43.64606" lon="3.76184">
        <ele>133.19999694824</ele>
        <time>2023-05-23T13:22:47.000Z</time>
      </trkpt>
      <trkpt lat="43.64604" lon="3.76168">
        <ele>133.19999694824</ele>
        <time>2023-05-23T13:22:56.000Z</time>
      </trkpt>
      <trkpt lat="43.64602" lon="3.7615">
        <ele>133</ele>
        <time>2023-05-23T13:23:06.000Z</time>
      </trkpt>
      <trkpt lat="43.64601" lon="3.7613">
        <ele>133</ele>
        <time>2023-05-23T13:23:17.000Z</time>
      </trkpt>
      <trkpt lat="43.646" lon="3.76122">
        <ele>133.39999389648</ele>
        <time>2023-05-23T13:23:22.000Z</time>
      </trkpt>
      <trkpt lat="43.646" lon="3.76113">
        <ele>133.39999389648</ele>
        <time>2023-05-23T13:23:27.000Z</time>
      </trkpt>
      <trkpt lat="43.64598" lon="3.76098">
        <ele>133.19999694824</ele>
        <time>2023-05-23T13:23:36.000Z</time>
      </trkpt>
      <trkpt lat="43.64596" lon="3.76084">
        <ele>133</ele>
        <time>2023-05-23T13:23:44.000Z</time>
      </trkpt>
      <trkpt lat="43.64595" lon="3.76071">
        <ele>133.60000610352</ele>
        <time>2023-05-23T13:23:52.000Z</time>
      </trkpt>
      <trkpt lat="43.64594" lon="3.7606">
        <ele>133.39999389648</ele>
        <time>2023-05-23T13:23:59.000Z</time>
      </trkpt>
      <trkpt lat="43.64594" lon="3.76057">
        <ele>133.60000610352</ele>
        <time>2023-05-23T13:24:01.000Z</time>
      </trkpt>
      <trkpt lat="43.64594" lon="3.76051">
        <ele>133.80000305176</ele>
        <time>2023-05-23T13:24:04.000Z</time>
      </trkpt>
      <trkpt lat="43.64592" lon="3.76036">
        <ele>133.80000305176</ele>
        <time>2023-05-23T13:24:13.000Z</time>
      </trkpt>
      <trkpt lat="43.64591" lon="3.76019">
        <ele>134.19999694824</ele>
        <time>2023-05-23T13:24:23.000Z</time>
      </trkpt>
      <trkpt lat="43.6459" lon="3.76011">
        <ele>134.39999389648</ele>
        <time>2023-05-23T13:24:28.000Z</time>
      </trkpt>
      <trkpt lat="43.6459" lon="3.76004">
        <ele>134.39999389648</ele>
        <time>2023-05-23T13:24:32.000Z</time>
      </trkpt>
      <trkpt lat="43.64589" lon="3.75988">
        <ele>134.80000305176</ele>
        <time>2023-05-23T13:24:42.000Z</time>
      </trkpt>
      <trkpt lat="43.64588" lon="3.75975">
        <ele>134.80000305176</ele>
        <time>2023-05-23T13:24:50.000Z</time>
      </trkpt>
      <trkpt lat="43.64587" lon="3.75965">
        <ele>135.19999694824</ele>
        <time>2023-05-23T13:24:57.000Z</time>
      </trkpt>
      <trkpt lat="43.64587" lon="3.7596">
        <ele>135.39999389648</ele>
        <time>2023-05-23T13:25:00.000Z</time>
      </trkpt>
      <trkpt lat="43.64586" lon="3.75952">
        <ele>135.60000610352</ele>
        <time>2023-05-23T13:25:05.000Z</time>
      </trkpt>
      <trkpt lat="43.64585" lon="3.7594">
        <ele>136</ele>
        <time>2023-05-23T13:25:13.000Z</time>
      </trkpt>
      <trkpt lat="43.64583" lon="3.75924">
        <ele>136.19999694824</ele>
        <time>2023-05-23T13:25:23.000Z</time>
      </trkpt>
      <trkpt lat="43.64582" lon="3.75912">
        <ele>136.39999389648</ele>
        <time>2023-05-23T13:25:30.000Z</time>
      </trkpt>
      <trkpt lat="43.64581" lon="3.75911">
        <ele>136.39999389648</ele>
        <time>2023-05-23T13:25:31.000Z</time>
      </trkpt>
      <trkpt lat="43.6458" lon="3.75901">
        <ele>136.39999389648</ele>
        <time>2023-05-23T13:25:37.000Z</time>
      </trkpt>
      <trkpt lat="43.64579" lon="3.75885">
        <ele>136.60000610352</ele>
        <time>2023-05-23T13:25:46.000Z</time>
      </trkpt>
      <trkpt lat="43.64578" lon="3.75873">
        <ele>136.19999694824</ele>
        <time>2023-05-23T13:25:54.000Z</time>
      </trkpt>
      <trkpt lat="43.64577" lon="3.75858">
        <ele>137</ele>
        <time>2023-05-23T13:26:03.000Z</time>
      </trkpt>
      <trkpt lat="43.64573" lon="3.75842">
        <ele>137.19999694824</ele>
        <time>2023-05-23T13:26:13.000Z</time>
      </trkpt>
      <trkpt lat="43.64568" lon="3.75828">
        <ele>136.80000305176</ele>
        <time>2023-05-23T13:26:22.000Z</time>
      </trkpt>
      <trkpt lat="43.64562" lon="3.75811">
        <ele>137</ele>
        <time>2023-05-23T13:26:33.000Z</time>
      </trkpt>
      <trkpt lat="43.64555" lon="3.75795">
        <ele>136.39999389648</ele>
        <time>2023-05-23T13:26:44.000Z</time>
      </trkpt>
      <trkpt lat="43.64546" lon="3.75782">
        <ele>136</ele>
        <time>2023-05-23T13:26:55.000Z</time>
      </trkpt>
      <trkpt lat="43.64538" lon="3.75776">
        <ele>136.19999694824</ele>
        <time>2023-05-23T13:27:03.000Z</time>
      </trkpt>
      <trkpt lat="43.64537" lon="3.75774">
        <ele>136.39999389648</ele>
        <time>2023-05-23T13:27:05.000Z</time>
      </trkpt>
      <trkpt lat="43.64535" lon="3.75767">
        <ele>136.39999389648</ele>
        <time>2023-05-23T13:27:10.000Z</time>
      </trkpt>
      <trkpt lat="43.64535" lon="3.75765">
        <ele>136.39999389648</ele>
        <time>2023-05-23T13:27:11.000Z</time>
      </trkpt>
      <trkpt lat="43.64533" lon="3.75752">
        <ele>136</ele>
        <time>2023-05-23T13:27:19.000Z</time>
      </trkpt>
      <trkpt lat="43.64532" lon="3.75745">
        <ele>135.39999389648</ele>
        <time>2023-05-23T13:27:23.000Z</time>
      </trkpt>
      <trkpt lat="43.6453" lon="3.75735">
        <ele>135</ele>
        <time>2023-05-23T13:27:29.000Z</time>
      </trkpt>
      <trkpt lat="43.64529" lon="3.75721">
        <ele>134.39999389648</ele>
        <time>2023-05-23T13:27:37.000Z</time>
      </trkpt>
      <trkpt lat="43.64528" lon="3.75716">
        <ele>134.39999389648</ele>
        <time>2023-05-23T13:27:40.000Z</time>
      </trkpt>
      <trkpt lat="43.64526" lon="3.75696">
        <ele>134.39999389648</ele>
        <time>2023-05-23T13:27:51.000Z</time>
      </trkpt>
      <trkpt lat="43.64524" lon="3.75676">
        <ele>134.60000610352</ele>
        <time>2023-05-23T13:28:02.000Z</time>
      </trkpt>
      <trkpt lat="43.64521" lon="3.75658">
        <ele>134.39999389648</ele>
        <time>2023-05-23T13:28:13.000Z</time>
      </trkpt>
      <trkpt lat="43.64519" lon="3.75643">
        <ele>134.80000305176</ele>
        <time>2023-05-23T13:28:22.000Z</time>
      </trkpt>
      <trkpt lat="43.64518" lon="3.75639">
        <ele>134.80000305176</ele>
        <time>2023-05-23T13:28:30.000Z</time>
      </trkpt>
      <trkpt lat="43.64517" lon="3.75637">
        <ele>135</ele>
        <time>2023-05-23T13:28:37.000Z</time>
      </trkpt>
      <trkpt lat="43.64517" lon="3.75637">
        <ele>135.19999694824</ele>
        <time>2023-05-23T13:28:45.000Z</time>
      </trkpt>
      <trkpt lat="43.64516" lon="3.75639">
        <ele>135</ele>
        <time>2023-05-23T13:28:51.000Z</time>
      </trkpt>
      <trkpt lat="43.64506" lon="3.75644">
        <ele>135.19999694824</ele>
        <time>2023-05-23T13:28:59.000Z</time>
      </trkpt>
      <trkpt lat="43.64495" lon="3.75644">
        <ele>135</ele>
        <time>2023-05-23T13:29:08.000Z</time>
      </trkpt>
      <trkpt lat="43.64485" lon="3.75638">
        <ele>134.39999389648</ele>
        <time>2023-05-23T13:29:16.000Z</time>
      </trkpt>
      <trkpt lat="43.64473" lon="3.75625">
        <ele>134.19999694824</ele>
        <time>2023-05-23T13:29:28.000Z</time>
      </trkpt>
      <trkpt lat="43.64462" lon="3.75614">
        <ele>134.80000305176</ele>
        <time>2023-05-23T13:29:38.000Z</time>
      </trkpt>
      <trkpt lat="43.64454" lon="3.75605">
        <ele>134.60000610352</ele>
        <time>2023-05-23T13:29:46.000Z</time>
      </trkpt>
      <trkpt lat="43.64446" lon="3.75597">
        <ele>135.60000610352</ele>
        <time>2023-05-23T13:29:54.000Z</time>
      </trkpt>
      <trkpt lat="43.64445" lon="3.75596">
        <ele>136.60000610352</ele>
        <time>2023-05-23T13:29:55.000Z</time>
      </trkpt>
      <trkpt lat="43.64444" lon="3.75596">
        <ele>136.80000305176</ele>
        <time>2023-05-23T13:29:56.000Z</time>
      </trkpt>
      <trkpt lat="43.64435" lon="3.7559">
        <ele>136</ele>
        <time>2023-05-23T13:30:04.000Z</time>
      </trkpt>
      <trkpt lat="43.64423" lon="3.75583">
        <ele>135.60000610352</ele>
        <time>2023-05-23T13:30:14.000Z</time>
      </trkpt>
      <trkpt lat="43.6442" lon="3.75581">
        <ele>135.60000610352</ele>
        <time>2023-05-23T13:30:16.000Z</time>
      </trkpt>
      <trkpt lat="43.64409" lon="3.75577">
        <ele>135.39999389648</ele>
        <time>2023-05-23T13:30:25.000Z</time>
      </trkpt>
      <trkpt lat="43.64396" lon="3.75572">
        <ele>135.19999694824</ele>
        <time>2023-05-23T13:30:35.000Z</time>
      </trkpt>
      <trkpt lat="43.64386" lon="3.75568">
        <ele>135</ele>
        <time>2023-05-23T13:30:43.000Z</time>
      </trkpt>
      <trkpt lat="43.64379" lon="3.75565">
        <ele>134.80000305176</ele>
        <time>2023-05-23T13:30:50.000Z</time>
      </trkpt>
      <trkpt lat="43.64376" lon="3.75563">
        <ele>134.60000610352</ele>
        <time>2023-05-23T13:30:53.000Z</time>
      </trkpt>
      <trkpt lat="43.64373" lon="3.7556">
        <ele>134.60000610352</ele>
        <time>2023-05-23T13:30:56.000Z</time>
      </trkpt>
      <trkpt lat="43.64372" lon="3.75559">
        <ele>134.19999694824</ele>
        <time>2023-05-23T13:30:58.000Z</time>
      </trkpt>
      <trkpt lat="43.64369" lon="3.75558">
        <ele>134</ele>
        <time>2023-05-23T13:31:02.000Z</time>
      </trkpt>
      <trkpt lat="43.64368" lon="3.75557">
        <ele>134.19999694824</ele>
        <time>2023-05-23T13:31:03.000Z</time>
      </trkpt>
      <trkpt lat="43.64359" lon="3.75556">
        <ele>134.19999694824</ele>
        <time>2023-05-23T13:31:11.000Z</time>
      </trkpt>
      <trkpt lat="43.64354" lon="3.75554">
        <ele>133.60000610352</ele>
        <time>2023-05-23T13:31:15.000Z</time>
      </trkpt>
      <trkpt lat="43.64351" lon="3.75553">
        <ele>133</ele>
        <time>2023-05-23T13:31:18.000Z</time>
      </trkpt>
      <trkpt lat="43.64341" lon="3.75547">
        <ele>132.60000610352</ele>
        <time>2023-05-23T13:31:27.000Z</time>
      </trkpt>
      <trkpt lat="43.6434" lon="3.75546">
        <ele>132.39999389648</ele>
        <time>2023-05-23T13:31:28.000Z</time>
      </trkpt>
      <trkpt lat="43.64333" lon="3.7554">
        <ele>132.19999694824</ele>
        <time>2023-05-23T13:31:34.000Z</time>
      </trkpt>
      <trkpt lat="43.64323" lon="3.75533">
        <ele>132</ele>
        <time>2023-05-23T13:31:43.000Z</time>
      </trkpt>
      <trkpt lat="43.64314" lon="3.75525">
        <ele>132</ele>
        <time>2023-05-23T13:31:52.000Z</time>
      </trkpt>
      <trkpt lat="43.64303" lon="3.75516">
        <ele>131.60000610352</ele>
        <time>2023-05-23T13:32:02.000Z</time>
      </trkpt>
      <trkpt lat="43.64295" lon="3.7551">
        <ele>131.39999389648</ele>
        <time>2023-05-23T13:32:10.000Z</time>
      </trkpt>
      <trkpt lat="43.64287" lon="3.75502">
        <ele>131.19999694824</ele>
        <time>2023-05-23T13:32:18.000Z</time>
      </trkpt>
      <trkpt lat="43.6428" lon="3.75497">
        <ele>131</ele>
        <time>2023-05-23T13:32:25.000Z</time>
      </trkpt>
      <trkpt lat="43.64278" lon="3.75496">
        <ele>131.39999389648</ele>
        <time>2023-05-23T13:32:32.000Z</time>
      </trkpt>
      <trkpt lat="43.64277" lon="3.75496">
        <ele>131.39999389648</ele>
        <time>2023-05-23T13:32:45.000Z</time>
      </trkpt>
      <trkpt lat="43.64273" lon="3.75493">
        <ele>131.39999389648</ele>
        <time>2023-05-23T13:32:50.000Z</time>
      </trkpt>
      <trkpt lat="43.64267" lon="3.75487">
        <ele>131</ele>
        <time>2023-05-23T13:32:57.000Z</time>
      </trkpt>
      <trkpt lat="43.64259" lon="3.75478">
        <ele>131.19999694824</ele>
        <time>2023-05-23T13:33:07.000Z</time>
      </trkpt>
      <trkpt lat="43.64253" lon="3.75467">
        <ele>131</ele>
        <time>2023-05-23T13:33:16.000Z</time>
      </trkpt>
      <trkpt lat="43.6425" lon="3.75449">
        <ele>131.39999389648</ele>
        <time>2023-05-23T13:33:27.000Z</time>
      </trkpt>
      <trkpt lat="43.6425" lon="3.75447">
        <ele>131.39999389648</ele>
        <time>2023-05-23T13:33:29.000Z</time>
      </trkpt>
      <trkpt lat="43.64249" lon="3.75443">
        <ele>131.19999694824</ele>
        <time>2023-05-23T13:33:32.000Z</time>
      </trkpt>
      <trkpt lat="43.64249" lon="3.75442">
        <ele>131</ele>
        <time>2023-05-23T13:33:38.000Z</time>
      </trkpt>
      <trkpt lat="43.64248" lon="3.75442">
        <ele>130.80000305176</ele>
        <time>2023-05-23T13:33:50.000Z</time>
      </trkpt>
      <trkpt lat="43.64248" lon="3.75442">
        <ele>130.60000610352</ele>
        <time>2023-05-23T13:33:58.000Z</time>
      </trkpt>
      <trkpt lat="43.64247" lon="3.75436">
        <ele>130.39999389648</ele>
        <time>2023-05-23T13:34:04.000Z</time>
      </trkpt>
      <trkpt lat="43.64248" lon="3.75434">
        <ele>130.19999694824</ele>
        <time>2023-05-23T13:34:10.000Z</time>
      </trkpt>
      <trkpt lat="43.64248" lon="3.75434">
        <ele>129.60000610352</ele>
        <time>2023-05-23T13:34:24.000Z</time>
      </trkpt>
      <trkpt lat="43.64248" lon="3.75433">
        <ele>129.60000610352</ele>
        <time>2023-05-23T13:34:39.000Z</time>
      </trkpt>
      <trkpt lat="43.64248" lon="3.75434">
        <ele>129.80000305176</ele>
        <time>2023-05-23T13:34:45.000Z</time>
      </trkpt>
      <trkpt lat="43.64248" lon="3.75434">
        <ele>130.80000305176</ele>
        <time>2023-05-23T13:34:56.000Z</time>
      </trkpt>
      <trkpt lat="43.64247" lon="3.75436">
        <ele>131</ele>
        <time>2023-05-23T13:35:06.000Z</time>
      </trkpt>
      <trkpt lat="43.64246" lon="3.75432">
        <ele>130.60000610352</ele>
        <time>2023-05-23T13:35:13.000Z</time>
      </trkpt>
      <trkpt lat="43.64245" lon="3.75422">
        <ele>130.60000610352</ele>
        <time>2023-05-23T13:35:21.000Z</time>
      </trkpt>
      <trkpt lat="43.64243" lon="3.75414">
        <ele>131.19999694824</ele>
        <time>2023-05-23T13:35:26.000Z</time>
      </trkpt>
      <trkpt lat="43.64243" lon="3.75409">
        <ele>131.39999389648</ele>
        <time>2023-05-23T13:35:29.000Z</time>
      </trkpt>
      <trkpt lat="43.64239" lon="3.75389">
        <ele>131.39999389648</ele>
        <time>2023-05-23T13:35:41.000Z</time>
      </trkpt>
      <trkpt lat="43.64235" lon="3.75375">
        <ele>131.60000610352</ele>
        <time>2023-05-23T13:35:50.000Z</time>
      </trkpt>
      <trkpt lat="43.64231" lon="3.75365">
        <ele>131.80000305176</ele>
        <time>2023-05-23T13:35:57.000Z</time>
      </trkpt>
      <trkpt lat="43.64227" lon="3.75354">
        <ele>131.60000610352</ele>
        <time>2023-05-23T13:36:05.000Z</time>
      </trkpt>
      <trkpt lat="43.64226" lon="3.75351">
        <ele>132.39999389648</ele>
        <time>2023-05-23T13:36:07.000Z</time>
      </trkpt>
      <trkpt lat="43.64223" lon="3.75337">
        <ele>132.39999389648</ele>
        <time>2023-05-23T13:36:16.000Z</time>
      </trkpt>
      <trkpt lat="43.64219" lon="3.75325">
        <ele>132.80000305176</ele>
        <time>2023-05-23T13:36:25.000Z</time>
      </trkpt>
      <trkpt lat="43.64216" lon="3.75314">
        <ele>132.80000305176</ele>
        <time>2023-05-23T13:36:32.000Z</time>
      </trkpt>
      <trkpt lat="43.64213" lon="3.75304">
        <ele>133</ele>
        <time>2023-05-23T13:36:40.000Z</time>
      </trkpt>
      <trkpt lat="43.64212" lon="3.75301">
        <ele>133.39999389648</ele>
        <time>2023-05-23T13:36:42.000Z</time>
      </trkpt>
      <trkpt lat="43.64207" lon="3.75293">
        <ele>133.39999389648</ele>
        <time>2023-05-23T13:36:49.000Z</time>
      </trkpt>
      <trkpt lat="43.64201" lon="3.75281">
        <ele>133.60000610352</ele>
        <time>2023-05-23T13:36:59.000Z</time>
      </trkpt>
      <trkpt lat="43.64195" lon="3.75271">
        <ele>134</ele>
        <time>2023-05-23T13:37:08.000Z</time>
      </trkpt>
      <trkpt lat="43.6419" lon="3.75261">
        <ele>134.39999389648</ele>
        <time>2023-05-23T13:37:17.000Z</time>
      </trkpt>
      <trkpt lat="43.64183" lon="3.7525">
        <ele>134.80000305176</ele>
        <time>2023-05-23T13:37:27.000Z</time>
      </trkpt>
      <trkpt lat="43.6418" lon="3.75245">
        <ele>135.39999389648</ele>
        <time>2023-05-23T13:37:33.000Z</time>
      </trkpt>
      <trkpt lat="43.64179" lon="3.75243">
        <ele>135.60000610352</ele>
        <time>2023-05-23T13:37:35.000Z</time>
      </trkpt>
      <trkpt lat="43.64174" lon="3.75235">
        <ele>135.60000610352</ele>
        <time>2023-05-23T13:37:43.000Z</time>
      </trkpt>
      <trkpt lat="43.64167" lon="3.75225">
        <ele>136.19999694824</ele>
        <time>2023-05-23T13:37:53.000Z</time>
      </trkpt>
      <trkpt lat="43.64165" lon="3.75222">
        <ele>136.39999389648</ele>
        <time>2023-05-23T13:37:56.000Z</time>
      </trkpt>
      <trkpt lat="43.64161" lon="3.75216">
        <ele>136.80000305176</ele>
        <time>2023-05-23T13:38:02.000Z</time>
      </trkpt>
      <trkpt lat="43.64155" lon="3.75205">
        <ele>137.19999694824</ele>
        <time>2023-05-23T13:38:11.000Z</time>
      </trkpt>
      <trkpt lat="43.64149" lon="3.75189">
        <ele>137.19999694824</ele>
        <time>2023-05-23T13:38:23.000Z</time>
      </trkpt>
      <trkpt lat="43.64144" lon="3.75181">
        <ele>137.39999389648</ele>
        <time>2023-05-23T13:38:30.000Z</time>
      </trkpt>
      <trkpt lat="43.64143" lon="3.75179">
        <ele>137.60000610352</ele>
        <time>2023-05-23T13:38:32.000Z</time>
      </trkpt>
      <trkpt lat="43.64136" lon="3.75166">
        <ele>137.60000610352</ele>
        <time>2023-05-23T13:38:43.000Z</time>
      </trkpt>
      <trkpt lat="43.64132" lon="3.75156">
        <ele>137.60000610352</ele>
        <time>2023-05-23T13:38:50.000Z</time>
      </trkpt>
      <trkpt lat="43.64125" lon="3.75136">
        <ele>138</ele>
        <time>2023-05-23T13:39:04.000Z</time>
      </trkpt>
      <trkpt lat="43.64125" lon="3.75134">
        <ele>138</ele>
        <time>2023-05-23T13:39:06.000Z</time>
      </trkpt>
      <trkpt lat="43.64122" lon="3.75129">
        <ele>138.19999694824</ele>
        <time>2023-05-23T13:39:10.000Z</time>
      </trkpt>
      <trkpt lat="43.64122" lon="3.75127">
        <ele>138.19999694824</ele>
        <time>2023-05-23T13:39:11.000Z</time>
      </trkpt>
      <trkpt lat="43.64116" lon="3.75115">
        <ele>138.39999389648</ele>
        <time>2023-05-23T13:39:21.000Z</time>
      </trkpt>
      <trkpt lat="43.64114" lon="3.7511">
        <ele>138.39999389648</ele>
        <time>2023-05-23T13:39:25.000Z</time>
      </trkpt>
      <trkpt lat="43.64111" lon="3.75104">
        <ele>138.60000610352</ele>
        <time>2023-05-23T13:39:30.000Z</time>
      </trkpt>
      <trkpt lat="43.64107" lon="3.75096">
        <ele>138.80000305176</ele>
        <time>2023-05-23T13:39:37.000Z</time>
      </trkpt>
      <trkpt lat="43.64107" lon="3.75095">
        <ele>138.80000305176</ele>
        <time>2023-05-23T13:39:38.000Z</time>
      </trkpt>
      <trkpt lat="43.64103" lon="3.75085">
        <ele>139</ele>
        <time>2023-05-23T13:39:46.000Z</time>
      </trkpt>
      <trkpt lat="43.64098" lon="3.75076">
        <ele>139</ele>
        <time>2023-05-23T13:39:54.000Z</time>
      </trkpt>
      <trkpt lat="43.64094" lon="3.75067">
        <ele>139</ele>
        <time>2023-05-23T13:40:03.000Z</time>
      </trkpt>
      <trkpt lat="43.64089" lon="3.75059">
        <ele>139.60000610352</ele>
        <time>2023-05-23T13:40:10.000Z</time>
      </trkpt>
      <trkpt lat="43.64088" lon="3.75057">
        <ele>139.80000305176</ele>
        <time>2023-05-23T13:40:12.000Z</time>
      </trkpt>
      <trkpt lat="43.64087" lon="3.75055">
        <ele>139.80000305176</ele>
        <time>2023-05-23T13:40:14.000Z</time>
      </trkpt>
      <trkpt lat="43.64085" lon="3.75051">
        <ele>140.19999694824</ele>
        <time>2023-05-23T13:40:18.000Z</time>
      </trkpt>
      <trkpt lat="43.64081" lon="3.75042">
        <ele>140.39999389648</ele>
        <time>2023-05-23T13:40:25.000Z</time>
      </trkpt>
      <trkpt lat="43.64079" lon="3.75039">
        <ele>140.60000610352</ele>
        <time>2023-05-23T13:40:28.000Z</time>
      </trkpt>
      <trkpt lat="43.64075" lon="3.75033">
        <ele>141</ele>
        <time>2023-05-23T13:40:34.000Z</time>
      </trkpt>
      <trkpt lat="43.64069" lon="3.75025">
        <ele>141.19999694824</ele>
        <time>2023-05-23T13:40:42.000Z</time>
      </trkpt>
      <trkpt lat="43.64067" lon="3.75022">
        <ele>141.80000305176</ele>
        <time>2023-05-23T13:40:45.000Z</time>
      </trkpt>
      <trkpt lat="43.64065" lon="3.75019">
        <ele>141.80000305176</ele>
        <time>2023-05-23T13:40:49.000Z</time>
      </trkpt>
      <trkpt lat="43.64064" lon="3.75018">
        <ele>141.80000305176</ele>
        <time>2023-05-23T13:40:50.000Z</time>
      </trkpt>
      <trkpt lat="43.64057" lon="3.75011">
        <ele>142.19999694824</ele>
        <time>2023-05-23T13:41:00.000Z</time>
      </trkpt>
      <trkpt lat="43.64052" lon="3.75007">
        <ele>142.39999389648</ele>
        <time>2023-05-23T13:41:08.000Z</time>
      </trkpt>
      <trkpt lat="43.6405" lon="3.75005">
        <ele>142.80000305176</ele>
        <time>2023-05-23T13:41:10.000Z</time>
      </trkpt>
      <trkpt lat="43.64048" lon="3.75004">
        <ele>143</ele>
        <time>2023-05-23T13:41:15.000Z</time>
      </trkpt>
      <trkpt lat="43.64042" lon="3.75">
        <ele>143.60000610352</ele>
        <time>2023-05-23T13:41:23.000Z</time>
      </trkpt>
      <trkpt lat="43.64041" lon="3.75">
        <ele>143.80000305176</ele>
        <time>2023-05-23T13:41:24.000Z</time>
      </trkpt>
      <trkpt lat="43.64038" lon="3.74997">
        <ele>144</ele>
        <time>2023-05-23T13:41:31.000Z</time>
      </trkpt>
      <trkpt lat="43.64037" lon="3.74996">
        <ele>144</ele>
        <time>2023-05-23T13:41:38.000Z</time>
      </trkpt>
      <trkpt lat="43.64037" lon="3.74996">
        <ele>143.80000305176</ele>
        <time>2023-05-23T13:41:51.000Z</time>
      </trkpt>
      <trkpt lat="43.64034" lon="3.74996">
        <ele>144.80000305176</ele>
        <time>2023-05-23T13:42:03.000Z</time>
      </trkpt>
      <trkpt lat="43.64028" lon="3.74989">
        <ele>144.39999389648</ele>
        <time>2023-05-23T13:42:11.000Z</time>
      </trkpt>
      <trkpt lat="43.64021" lon="3.7498">
        <ele>144.39999389648</ele>
        <time>2023-05-23T13:42:19.000Z</time>
      </trkpt>
      <trkpt lat="43.64015" lon="3.74969">
        <ele>144.39999389648</ele>
        <time>2023-05-23T13:42:28.000Z</time>
      </trkpt>
      <trkpt lat="43.64011" lon="3.74957">
        <ele>144</ele>
        <time>2023-05-23T13:42:36.000Z</time>
      </trkpt>
      <trkpt lat="43.64006" lon="3.74945">
        <ele>144</ele>
        <time>2023-05-23T13:42:45.000Z</time>
      </trkpt>
      <trkpt lat="43.64001" lon="3.74935">
        <ele>144</ele>
        <time>2023-05-23T13:42:53.000Z</time>
      </trkpt>
      <trkpt lat="43.63995" lon="3.74928">
        <ele>144</ele>
        <time>2023-05-23T13:43:01.000Z</time>
      </trkpt>
      <trkpt lat="43.63992" lon="3.74926">
        <ele>144.39999389648</ele>
        <time>2023-05-23T13:43:09.000Z</time>
      </trkpt>
      <trkpt lat="43.63988" lon="3.74923">
        <ele>144.19999694824</ele>
        <time>2023-05-23T13:43:24.000Z</time>
      </trkpt>
      <trkpt lat="43.63985" lon="3.74919">
        <ele>144.39999389648</ele>
        <time>2023-05-23T13:43:32.000Z</time>
      </trkpt>
      <trkpt lat="43.63983" lon="3.74917">
        <ele>144.80000305176</ele>
        <time>2023-05-23T13:43:38.000Z</time>
      </trkpt>
      <trkpt lat="43.63983" lon="3.74917">
        <ele>144.80000305176</ele>
        <time>2023-05-23T13:43:39.000Z</time>
      </trkpt>
      <trkpt lat="43.63979" lon="3.74911">
        <ele>145</ele>
        <time>2023-05-23T13:43:46.000Z</time>
      </trkpt>
      <trkpt lat="43.63977" lon="3.74909">
        <ele>145.19999694824</ele>
        <time>2023-05-23T13:43:53.000Z</time>
      </trkpt>
      <trkpt lat="43.63975" lon="3.74906">
        <ele>145.39999389648</ele>
        <time>2023-05-23T13:43:59.000Z</time>
      </trkpt>
      <trkpt lat="43.63972" lon="3.74902">
        <ele>145.60000610352</ele>
        <time>2023-05-23T13:44:09.000Z</time>
      </trkpt>
      <trkpt lat="43.63968" lon="3.74888">
        <ele>145.60000610352</ele>
        <time>2023-05-23T13:44:18.000Z</time>
      </trkpt>
      <trkpt lat="43.63967" lon="3.74872">
        <ele>145.39999389648</ele>
        <time>2023-05-23T13:44:29.000Z</time>
      </trkpt>
      <trkpt lat="43.63967" lon="3.74857">
        <ele>145</ele>
        <time>2023-05-23T13:44:38.000Z</time>
      </trkpt>
      <trkpt lat="43.63968" lon="3.74844">
        <ele>144.60000610352</ele>
        <time>2023-05-23T13:44:46.000Z</time>
      </trkpt>
      <trkpt lat="43.63966" lon="3.74833">
        <ele>144.60000610352</ele>
        <time>2023-05-23T13:44:55.000Z</time>
      </trkpt>
      <trkpt lat="43.63965" lon="3.74832">
        <ele>147.60000610352</ele>
        <time>2023-05-23T13:44:56.000Z</time>
      </trkpt>
      <trkpt lat="43.63965" lon="3.7483">
        <ele>148.60000610352</ele>
        <time>2023-05-23T13:44:57.000Z</time>
      </trkpt>
      <trkpt lat="43.63963" lon="3.74826">
        <ele>149</ele>
        <time>2023-05-23T13:45:00.000Z</time>
      </trkpt>
      <trkpt lat="43.63963" lon="3.74824">
        <ele>146</ele>
        <time>2023-05-23T13:45:01.000Z</time>
      </trkpt>
      <trkpt lat="43.63962" lon="3.74819">
        <ele>145</ele>
        <time>2023-05-23T13:45:05.000Z</time>
      </trkpt>
      <trkpt lat="43.63961" lon="3.74814">
        <ele>144.80000305176</ele>
        <time>2023-05-23T13:45:08.000Z</time>
      </trkpt>
      <trkpt lat="43.63959" lon="3.74801">
        <ele>144.39999389648</ele>
        <time>2023-05-23T13:45:17.000Z</time>
      </trkpt>
      <trkpt lat="43.63958" lon="3.74794">
        <ele>144.39999389648</ele>
        <time>2023-05-23T13:45:25.000Z</time>
      </trkpt>
      <trkpt lat="43.63957" lon="3.74793">
        <ele>144.39999389648</ele>
        <time>2023-05-23T13:45:38.000Z</time>
      </trkpt>
      <trkpt lat="43.63956" lon="3.74785">
        <ele>144</ele>
        <time>2023-05-23T13:45:45.000Z</time>
      </trkpt>
      <trkpt lat="43.63954" lon="3.74771">
        <ele>144</ele>
        <time>2023-05-23T13:45:54.000Z</time>
      </trkpt>
      <trkpt lat="43.63953" lon="3.74765">
        <ele>144.39999389648</ele>
        <time>2023-05-23T13:45:59.000Z</time>
      </trkpt>
      <trkpt lat="43.63953" lon="3.74763">
        <ele>144.19999694824</ele>
        <time>2023-05-23T13:46:01.000Z</time>
      </trkpt>
      <trkpt lat="43.63953" lon="3.7476">
        <ele>143.80000305176</ele>
        <time>2023-05-23T13:46:03.000Z</time>
      </trkpt>
      <trkpt lat="43.63952" lon="3.74754">
        <ele>142.39999389648</ele>
        <time>2023-05-23T13:46:07.000Z</time>
      </trkpt>
      <trkpt lat="43.6395" lon="3.74748">
        <ele>142.39999389648</ele>
        <time>2023-05-23T13:46:11.000Z</time>
      </trkpt>
      <trkpt lat="43.6395" lon="3.74747">
        <ele>144.19999694824</ele>
        <time>2023-05-23T13:46:12.000Z</time>
      </trkpt>
      <trkpt lat="43.6395" lon="3.74746">
        <ele>144.19999694824</ele>
        <time>2023-05-23T13:46:13.000Z</time>
      </trkpt>
      <trkpt lat="43.6395" lon="3.74743">
        <ele>144.19999694824</ele>
        <time>2023-05-23T13:46:15.000Z</time>
      </trkpt>
      <trkpt lat="43.63947" lon="3.74732">
        <ele>144.39999389648</ele>
        <time>2023-05-23T13:46:23.000Z</time>
      </trkpt>
      <trkpt lat="43.63946" lon="3.74729">
        <ele>144.39999389648</ele>
        <time>2023-05-23T13:46:25.000Z</time>
      </trkpt>
      <trkpt lat="43.63946" lon="3.74726">
        <ele>144.39999389648</ele>
        <time>2023-05-23T13:46:27.000Z</time>
      </trkpt>
      <trkpt lat="43.63945" lon="3.7472">
        <ele>143.60000610352</ele>
        <time>2023-05-23T13:46:31.000Z</time>
      </trkpt>
      <trkpt lat="43.63945" lon="3.74715">
        <ele>144.19999694824</ele>
        <time>2023-05-23T13:46:34.000Z</time>
      </trkpt>
      <trkpt lat="43.63945" lon="3.74709">
        <ele>144.19999694824</ele>
        <time>2023-05-23T13:46:38.000Z</time>
      </trkpt>
      <trkpt lat="43.63945" lon="3.74706">
        <ele>144.19999694824</ele>
        <time>2023-05-23T13:46:40.000Z</time>
      </trkpt>
      <trkpt lat="43.63945" lon="3.74694">
        <ele>144.19999694824</ele>
        <time>2023-05-23T13:46:47.000Z</time>
      </trkpt>
      <trkpt lat="43.63946" lon="3.7469">
        <ele>144.19999694824</ele>
        <time>2023-05-23T13:46:50.000Z</time>
      </trkpt>
      <trkpt lat="43.63946" lon="3.74685">
        <ele>144.19999694824</ele>
        <time>2023-05-23T13:46:53.000Z</time>
      </trkpt>
      <trkpt lat="43.63946" lon="3.74682">
        <ele>144</ele>
        <time>2023-05-23T13:46:55.000Z</time>
      </trkpt>
      <trkpt lat="43.63946" lon="3.7468">
        <ele>142.19999694824</ele>
        <time>2023-05-23T13:46:56.000Z</time>
      </trkpt>
      <trkpt lat="43.63946" lon="3.74679">
        <ele>144.19999694824</ele>
        <time>2023-05-23T13:46:57.000Z</time>
      </trkpt>
      <trkpt lat="43.63945" lon="3.74672">
        <ele>146.19999694824</ele>
        <time>2023-05-23T13:47:01.000Z</time>
      </trkpt>
      <trkpt lat="43.63945" lon="3.74671">
        <ele>144.39999389648</ele>
        <time>2023-05-23T13:47:02.000Z</time>
      </trkpt>
      <trkpt lat="43.63942" lon="3.74659">
        <ele>144.60000610352</ele>
        <time>2023-05-23T13:47:10.000Z</time>
      </trkpt>
      <trkpt lat="43.6394" lon="3.74645">
        <ele>144.39999389648</ele>
        <time>2023-05-23T13:47:19.000Z</time>
      </trkpt>
      <trkpt lat="43.63937" lon="3.74627">
        <ele>144.60000610352</ele>
        <time>2023-05-23T13:47:30.000Z</time>
      </trkpt>
      <trkpt lat="43.63935" lon="3.74613">
        <ele>144.39999389648</ele>
        <time>2023-05-23T13:47:39.000Z</time>
      </trkpt>
      <trkpt lat="43.63932" lon="3.74599">
        <ele>144.19999694824</ele>
        <time>2023-05-23T13:47:48.000Z</time>
      </trkpt>
      <trkpt lat="43.63929" lon="3.74587">
        <ele>144.39999389648</ele>
        <time>2023-05-23T13:47:56.000Z</time>
      </trkpt>
      <trkpt lat="43.63929" lon="3.74578">
        <ele>144.39999389648</ele>
        <time>2023-05-23T13:48:03.000Z</time>
      </trkpt>
      <trkpt lat="43.63929" lon="3.74577">
        <ele>144.39999389648</ele>
        <time>2023-05-23T13:48:04.000Z</time>
      </trkpt>
      <trkpt lat="43.63923" lon="3.7456">
        <ele>144.60000610352</ele>
        <time>2023-05-23T13:48:15.000Z</time>
      </trkpt>
      <trkpt lat="43.63921" lon="3.74552">
        <ele>144.60000610352</ele>
        <time>2023-05-23T13:48:20.000Z</time>
      </trkpt>
      <trkpt lat="43.6392" lon="3.74549">
        <ele>144.60000610352</ele>
        <time>2023-05-23T13:48:22.000Z</time>
      </trkpt>
      <trkpt lat="43.6392" lon="3.74546">
        <ele>144.80000305176</ele>
        <time>2023-05-23T13:48:24.000Z</time>
      </trkpt>
      <trkpt lat="43.63919" lon="3.74537">
        <ele>145</ele>
        <time>2023-05-23T13:48:30.000Z</time>
      </trkpt>
      <trkpt lat="43.63915" lon="3.74523">
        <ele>145</ele>
        <time>2023-05-23T13:48:40.000Z</time>
      </trkpt>
      <trkpt lat="43.63913" lon="3.74507">
        <ele>145.39999389648</ele>
        <time>2023-05-23T13:48:49.000Z</time>
      </trkpt>
      <trkpt lat="43.63913" lon="3.74506">
        <ele>145.39999389648</ele>
        <time>2023-05-23T13:48:50.000Z</time>
      </trkpt>
      <trkpt lat="43.63911" lon="3.74494">
        <ele>145.19999694824</ele>
        <time>2023-05-23T13:48:58.000Z</time>
      </trkpt>
      <trkpt lat="43.6391" lon="3.7448">
        <ele>145.39999389648</ele>
        <time>2023-05-23T13:49:06.000Z</time>
      </trkpt>
      <trkpt lat="43.6391" lon="3.74465">
        <ele>145.60000610352</ele>
        <time>2023-05-23T13:49:16.000Z</time>
      </trkpt>
      <trkpt lat="43.6391" lon="3.74451">
        <ele>145.80000305176</ele>
        <time>2023-05-23T13:49:25.000Z</time>
      </trkpt>
      <trkpt lat="43.6391" lon="3.7444">
        <ele>145.80000305176</ele>
        <time>2023-05-23T13:49:33.000Z</time>
      </trkpt>
      <trkpt lat="43.63911" lon="3.74427">
        <ele>146</ele>
        <time>2023-05-23T13:49:42.000Z</time>
      </trkpt>
      <trkpt lat="43.63912" lon="3.74411">
        <ele>146</ele>
        <time>2023-05-23T13:49:52.000Z</time>
      </trkpt>
      <trkpt lat="43.63912" lon="3.74397">
        <ele>146.19999694824</ele>
        <time>2023-05-23T13:50:01.000Z</time>
      </trkpt>
      <trkpt lat="43.63912" lon="3.74394">
        <ele>146.19999694824</ele>
        <time>2023-05-23T13:50:03.000Z</time>
      </trkpt>
      <trkpt lat="43.63911" lon="3.7439">
        <ele>146.39999389648</ele>
        <time>2023-05-23T13:50:07.000Z</time>
      </trkpt>
      <trkpt lat="43.63911" lon="3.74389">
        <ele>146.39999389648</ele>
        <time>2023-05-23T13:50:08.000Z</time>
      </trkpt>
      <trkpt lat="43.6391" lon="3.74383">
        <ele>146.39999389648</ele>
        <time>2023-05-23T13:50:13.000Z</time>
      </trkpt>
      <trkpt lat="43.6391" lon="3.74382">
        <ele>146.39999389648</ele>
        <time>2023-05-23T13:50:14.000Z</time>
      </trkpt>
      <trkpt lat="43.63907" lon="3.74374">
        <ele>146.80000305176</ele>
        <time>2023-05-23T13:50:21.000Z</time>
      </trkpt>
      <trkpt lat="43.63907" lon="3.74373">
        <ele>146.80000305176</ele>
        <time>2023-05-23T13:50:22.000Z</time>
      </trkpt>
      <trkpt lat="43.63907" lon="3.74368">
        <ele>146.80000305176</ele>
        <time>2023-05-23T13:50:26.000Z</time>
      </trkpt>
      <trkpt lat="43.63907" lon="3.74363">
        <ele>146.80000305176</ele>
        <time>2023-05-23T13:50:29.000Z</time>
      </trkpt>
      <trkpt lat="43.63907" lon="3.74356">
        <ele>147</ele>
        <time>2023-05-23T13:50:33.000Z</time>
      </trkpt>
      <trkpt lat="43.63905" lon="3.74345">
        <ele>146.19999694824</ele>
        <time>2023-05-23T13:50:39.000Z</time>
      </trkpt>
      <trkpt lat="43.63902" lon="3.74332">
        <ele>145.60000610352</ele>
        <time>2023-05-23T13:50:47.000Z</time>
      </trkpt>
      <trkpt lat="43.63901" lon="3.74327">
        <ele>145.60000610352</ele>
        <time>2023-05-23T13:50:50.000Z</time>
      </trkpt>
      <trkpt lat="43.639" lon="3.74322">
        <ele>144</ele>
        <time>2023-05-23T13:50:53.000Z</time>
      </trkpt>
      <trkpt lat="43.63899" lon="3.74314">
        <ele>145.39999389648</ele>
        <time>2023-05-23T13:50:58.000Z</time>
      </trkpt>
      <trkpt lat="43.63898" lon="3.74312">
        <ele>145</ele>
        <time>2023-05-23T13:50:59.000Z</time>
      </trkpt>
      <trkpt lat="43.63898" lon="3.7431">
        <ele>145</ele>
        <time>2023-05-23T13:51:00.000Z</time>
      </trkpt>
      <trkpt lat="43.63897" lon="3.743">
        <ele>144.80000305176</ele>
        <time>2023-05-23T13:51:06.000Z</time>
      </trkpt>
      <trkpt lat="43.63896" lon="3.74293">
        <ele>144.19999694824</ele>
        <time>2023-05-23T13:51:11.000Z</time>
      </trkpt>
      <trkpt lat="43.63896" lon="3.74291">
        <ele>143</ele>
        <time>2023-05-23T13:51:12.000Z</time>
      </trkpt>
      <trkpt lat="43.63894" lon="3.74278">
        <ele>143.80000305176</ele>
        <time>2023-05-23T13:51:20.000Z</time>
      </trkpt>
      <trkpt lat="43.63895" lon="3.74268">
        <ele>142.39999389648</ele>
        <time>2023-05-23T13:51:26.000Z</time>
      </trkpt>
      <trkpt lat="43.63895" lon="3.74267">
        <ele>142.39999389648</ele>
        <time>2023-05-23T13:51:27.000Z</time>
      </trkpt>
      <trkpt lat="43.63895" lon="3.74261">
        <ele>143</ele>
        <time>2023-05-23T13:51:31.000Z</time>
      </trkpt>
      <trkpt lat="43.63894" lon="3.74257">
        <ele>142.60000610352</ele>
        <time>2023-05-23T13:51:34.000Z</time>
      </trkpt>
      <trkpt lat="43.63894" lon="3.74253">
        <ele>142.39999389648</ele>
        <time>2023-05-23T13:51:37.000Z</time>
      </trkpt>
      <trkpt lat="43.63894" lon="3.74249">
        <ele>142.19999694824</ele>
        <time>2023-05-23T13:51:40.000Z</time>
      </trkpt>
      <trkpt lat="43.63894" lon="3.74247">
        <ele>142</ele>
        <time>2023-05-23T13:51:42.000Z</time>
      </trkpt>
      <trkpt lat="43.63894" lon="3.74241">
        <ele>141</ele>
        <time>2023-05-23T13:51:47.000Z</time>
      </trkpt>
      <trkpt lat="43.63895" lon="3.74238">
        <ele>140.80000305176</ele>
        <time>2023-05-23T13:51:49.000Z</time>
      </trkpt>
      <trkpt lat="43.63895" lon="3.74232">
        <ele>138.60000610352</ele>
        <time>2023-05-23T13:51:53.000Z</time>
      </trkpt>
      <trkpt lat="43.63895" lon="3.7423">
        <ele>139.39999389648</ele>
        <time>2023-05-23T13:51:54.000Z</time>
      </trkpt>
      <trkpt lat="43.63894" lon="3.74225">
        <ele>142</ele>
        <time>2023-05-23T13:51:58.000Z</time>
      </trkpt>
      <trkpt lat="43.63893" lon="3.74222">
        <ele>141</ele>
        <time>2023-05-23T13:52:00.000Z</time>
      </trkpt>
      <trkpt lat="43.63893" lon="3.7422">
        <ele>140.60000610352</ele>
        <time>2023-05-23T13:52:02.000Z</time>
      </trkpt>
      <trkpt lat="43.63894" lon="3.74213">
        <ele>140.19999694824</ele>
        <time>2023-05-23T13:52:08.000Z</time>
      </trkpt>
      <trkpt lat="43.63894" lon="3.74212">
        <ele>140</ele>
        <time>2023-05-23T13:52:09.000Z</time>
      </trkpt>
      <trkpt lat="43.63895" lon="3.74208">
        <ele>139.80000305176</ele>
        <time>2023-05-23T13:52:12.000Z</time>
      </trkpt>
      <trkpt lat="43.63896" lon="3.74202">
        <ele>139.80000305176</ele>
        <time>2023-05-23T13:52:16.000Z</time>
      </trkpt>
      <trkpt lat="43.63896" lon="3.74191">
        <ele>139.80000305176</ele>
        <time>2023-05-23T13:52:23.000Z</time>
      </trkpt>
      <trkpt lat="43.63895" lon="3.74189">
        <ele>139.80000305176</ele>
        <time>2023-05-23T13:52:25.000Z</time>
      </trkpt>
      <trkpt lat="43.63893" lon="3.74182">
        <ele>139.60000610352</ele>
        <time>2023-05-23T13:52:30.000Z</time>
      </trkpt>
      <trkpt lat="43.63892" lon="3.7418">
        <ele>139.60000610352</ele>
        <time>2023-05-23T13:52:31.000Z</time>
      </trkpt>
      <trkpt lat="43.63889" lon="3.7417">
        <ele>139.39999389648</ele>
        <time>2023-05-23T13:52:38.000Z</time>
      </trkpt>
      <trkpt lat="43.63887" lon="3.74159">
        <ele>139.19999694824</ele>
        <time>2023-05-23T13:52:45.000Z</time>
      </trkpt>
      <trkpt lat="43.63885" lon="3.74152">
        <ele>138.80000305176</ele>
        <time>2023-05-23T13:52:50.000Z</time>
      </trkpt>
      <trkpt lat="43.63884" lon="3.74148">
        <ele>138.80000305176</ele>
        <time>2023-05-23T13:52:53.000Z</time>
      </trkpt>
      <trkpt lat="43.63884" lon="3.74141">
        <ele>138.80000305176</ele>
        <time>2023-05-23T13:52:58.000Z</time>
      </trkpt>
      <trkpt lat="43.63884" lon="3.7414">
        <ele>138.80000305176</ele>
        <time>2023-05-23T13:52:59.000Z</time>
      </trkpt>
      <trkpt lat="43.63885" lon="3.74136">
        <ele>138.60000610352</ele>
        <time>2023-05-23T13:53:02.000Z</time>
      </trkpt>
      <trkpt lat="43.63886" lon="3.74131">
        <ele>138.19999694824</ele>
        <time>2023-05-23T13:53:06.000Z</time>
      </trkpt>
      <trkpt lat="43.63887" lon="3.74126">
        <ele>138.39999389648</ele>
        <time>2023-05-23T13:53:10.000Z</time>
      </trkpt>
      <trkpt lat="43.63886" lon="3.74123">
        <ele>138.19999694824</ele>
        <time>2023-05-23T13:53:12.000Z</time>
      </trkpt>
      <trkpt lat="43.63883" lon="3.74113">
        <ele>138</ele>
        <time>2023-05-23T13:53:19.000Z</time>
      </trkpt>
      <trkpt lat="43.63883" lon="3.74112">
        <ele>137.80000305176</ele>
        <time>2023-05-23T13:53:20.000Z</time>
      </trkpt>
      <trkpt lat="43.63883" lon="3.74102">
        <ele>137.60000610352</ele>
        <time>2023-05-23T13:53:26.000Z</time>
      </trkpt>
      <trkpt lat="43.63882" lon="3.74095">
        <ele>137.60000610352</ele>
        <time>2023-05-23T13:53:32.000Z</time>
      </trkpt>
      <trkpt lat="43.6388" lon="3.74087">
        <ele>137.39999389648</ele>
        <time>2023-05-23T13:53:37.000Z</time>
      </trkpt>
      <trkpt lat="43.6388" lon="3.74085">
        <ele>137.19999694824</ele>
        <time>2023-05-23T13:53:38.000Z</time>
      </trkpt>
      <trkpt lat="43.6388" lon="3.74084">
        <ele>137.19999694824</ele>
        <time>2023-05-23T13:53:39.000Z</time>
      </trkpt>
      <trkpt lat="43.63879" lon="3.74075">
        <ele>136.80000305176</ele>
        <time>2023-05-23T13:53:44.000Z</time>
      </trkpt>
      <trkpt lat="43.63879" lon="3.74073">
        <ele>136.60000610352</ele>
        <time>2023-05-23T13:53:45.000Z</time>
      </trkpt>
      <trkpt lat="43.63877" lon="3.74056">
        <ele>136.39999389648</ele>
        <time>2023-05-23T13:53:54.000Z</time>
      </trkpt>
      <trkpt lat="43.63875" lon="3.74041">
        <ele>136.60000610352</ele>
        <time>2023-05-23T13:54:03.000Z</time>
      </trkpt>
      <trkpt lat="43.63875" lon="3.74036">
        <ele>136.39999389648</ele>
        <time>2023-05-23T13:54:06.000Z</time>
      </trkpt>
      <trkpt lat="43.63875" lon="3.7403">
        <ele>135.80000305176</ele>
        <time>2023-05-23T13:54:09.000Z</time>
      </trkpt>
      <trkpt lat="43.63876" lon="3.74027">
        <ele>135.60000610352</ele>
        <time>2023-05-23T13:54:11.000Z</time>
      </trkpt>
      <trkpt lat="43.63876" lon="3.74025">
        <ele>135.60000610352</ele>
        <time>2023-05-23T13:54:12.000Z</time>
      </trkpt>
      <trkpt lat="43.63877" lon="3.74021">
        <ele>136.19999694824</ele>
        <time>2023-05-23T13:54:15.000Z</time>
      </trkpt>
      <trkpt lat="43.63877" lon="3.74016">
        <ele>136.19999694824</ele>
        <time>2023-05-23T13:54:18.000Z</time>
      </trkpt>
      <trkpt lat="43.63877" lon="3.74011">
        <ele>136.19999694824</ele>
        <time>2023-05-23T13:54:21.000Z</time>
      </trkpt>
      <trkpt lat="43.63877" lon="3.74009">
        <ele>136.19999694824</ele>
        <time>2023-05-23T13:54:22.000Z</time>
      </trkpt>
      <trkpt lat="43.63878" lon="3.74001">
        <ele>136.39999389648</ele>
        <time>2023-05-23T13:54:27.000Z</time>
      </trkpt>
      <trkpt lat="43.63877" lon="3.74">
        <ele>136.19999694824</ele>
        <time>2023-05-23T13:54:28.000Z</time>
      </trkpt>
      <trkpt lat="43.63876" lon="3.73988">
        <ele>136</ele>
        <time>2023-05-23T13:54:35.000Z</time>
      </trkpt>
      <trkpt lat="43.63875" lon="3.73984">
        <ele>136.19999694824</ele>
        <time>2023-05-23T13:54:38.000Z</time>
      </trkpt>
      <trkpt lat="43.63875" lon="3.73983">
        <ele>136.19999694824</ele>
        <time>2023-05-23T13:54:40.000Z</time>
      </trkpt>
      <trkpt lat="43.63874" lon="3.73975">
        <ele>136</ele>
        <time>2023-05-23T13:54:45.000Z</time>
      </trkpt>
      <trkpt lat="43.63874" lon="3.73973">
        <ele>136</ele>
        <time>2023-05-23T13:54:46.000Z</time>
      </trkpt>
      <trkpt lat="43.63873" lon="3.7396">
        <ele>135.80000305176</ele>
        <time>2023-05-23T13:54:54.000Z</time>
      </trkpt>
      <trkpt lat="43.63872" lon="3.73947">
        <ele>135.60000610352</ele>
        <time>2023-05-23T13:55:02.000Z</time>
      </trkpt>
      <trkpt lat="43.63871" lon="3.73935">
        <ele>135.19999694824</ele>
        <time>2023-05-23T13:55:09.000Z</time>
      </trkpt>
      <trkpt lat="43.63871" lon="3.73923">
        <ele>134.80000305176</ele>
        <time>2023-05-23T13:55:17.000Z</time>
      </trkpt>
      <trkpt lat="43.6387" lon="3.73917">
        <ele>134.60000610352</ele>
        <time>2023-05-23T13:55:21.000Z</time>
      </trkpt>
      <trkpt lat="43.6387" lon="3.73912">
        <ele>134</ele>
        <time>2023-05-23T13:55:24.000Z</time>
      </trkpt>
      <trkpt lat="43.6387" lon="3.73907">
        <ele>131.39999389648</ele>
        <time>2023-05-23T13:55:27.000Z</time>
      </trkpt>
      <trkpt lat="43.63869" lon="3.739">
        <ele>133</ele>
        <time>2023-05-23T13:55:31.000Z</time>
      </trkpt>
      <trkpt lat="43.63869" lon="3.73899">
        <ele>134.39999389648</ele>
        <time>2023-05-23T13:55:32.000Z</time>
      </trkpt>
      <trkpt lat="43.63868" lon="3.73887">
        <ele>140.39999389648</ele>
        <time>2023-05-23T13:55:39.000Z</time>
      </trkpt>
      <trkpt lat="43.63867" lon="3.73885">
        <ele>135.80000305176</ele>
        <time>2023-05-23T13:55:40.000Z</time>
      </trkpt>
      <trkpt lat="43.63867" lon="3.73883">
        <ele>131.80000305176</ele>
        <time>2023-05-23T13:55:41.000Z</time>
      </trkpt>
      <trkpt lat="43.63866" lon="3.73878">
        <ele>125.40000152588</ele>
        <time>2023-05-23T13:55:44.000Z</time>
      </trkpt>
      <trkpt lat="43.63866" lon="3.73876">
        <ele>130.19999694824</ele>
        <time>2023-05-23T13:55:45.000Z</time>
      </trkpt>
      <trkpt lat="43.63866" lon="3.73875">
        <ele>134.19999694824</ele>
        <time>2023-05-23T13:55:46.000Z</time>
      </trkpt>
      <trkpt lat="43.63866" lon="3.73872">
        <ele>134.19999694824</ele>
        <time>2023-05-23T13:55:48.000Z</time>
      </trkpt>
      <trkpt lat="43.63867" lon="3.73871">
        <ele>134.19999694824</ele>
        <time>2023-05-23T13:55:49.000Z</time>
      </trkpt>
      <trkpt lat="43.63867" lon="3.73869">
        <ele>134</ele>
        <time>2023-05-23T13:55:51.000Z</time>
      </trkpt>
      <trkpt lat="43.63868" lon="3.73863">
        <ele>133.39999389648</ele>
        <time>2023-05-23T13:55:55.000Z</time>
      </trkpt>
      <trkpt lat="43.63868" lon="3.73861">
        <ele>133.19999694824</ele>
        <time>2023-05-23T13:55:57.000Z</time>
      </trkpt>
      <trkpt lat="43.63867" lon="3.73856">
        <ele>135.39999389648</ele>
        <time>2023-05-23T13:56:00.000Z</time>
      </trkpt>
      <trkpt lat="43.63867" lon="3.73852">
        <ele>135.19999694824</ele>
        <time>2023-05-23T13:56:02.000Z</time>
      </trkpt>
      <trkpt lat="43.63867" lon="3.73847">
        <ele>132.60000610352</ele>
        <time>2023-05-23T13:56:05.000Z</time>
      </trkpt>
      <trkpt lat="43.63866" lon="3.73835">
        <ele>132.60000610352</ele>
        <time>2023-05-23T13:56:12.000Z</time>
      </trkpt>
      <trkpt lat="43.63866" lon="3.73816">
        <ele>132.60000610352</ele>
        <time>2023-05-23T13:56:22.000Z</time>
      </trkpt>
      <trkpt lat="43.63868" lon="3.73801">
        <ele>132.39999389648</ele>
        <time>2023-05-23T13:56:31.000Z</time>
      </trkpt>
      <trkpt lat="43.63865" lon="3.7379">
        <ele>132.19999694824</ele>
        <time>2023-05-23T13:56:38.000Z</time>
      </trkpt>
      <trkpt lat="43.63862" lon="3.73782">
        <ele>131.60000610352</ele>
        <time>2023-05-23T13:56:43.000Z</time>
      </trkpt>
      <trkpt lat="43.63859" lon="3.73775">
        <ele>131.39999389648</ele>
        <time>2023-05-23T13:56:48.000Z</time>
      </trkpt>
      <trkpt lat="43.63854" lon="3.73765">
        <ele>131</ele>
        <time>2023-05-23T13:56:55.000Z</time>
      </trkpt>
      <trkpt lat="43.63849" lon="3.73753">
        <ele>130.80000305176</ele>
        <time>2023-05-23T13:57:04.000Z</time>
      </trkpt>
      <trkpt lat="43.6384" lon="3.73738">
        <ele>130.80000305176</ele>
        <time>2023-05-23T13:57:16.000Z</time>
      </trkpt>
      <trkpt lat="43.63839" lon="3.73729">
        <ele>130.80000305176</ele>
        <time>2023-05-23T13:57:22.000Z</time>
      </trkpt>
      <trkpt lat="43.63838" lon="3.7372">
        <ele>130.60000610352</ele>
        <time>2023-05-23T13:57:27.000Z</time>
      </trkpt>
      <trkpt lat="43.63839" lon="3.73717">
        <ele>130.60000610352</ele>
        <time>2023-05-23T13:57:29.000Z</time>
      </trkpt>
      <trkpt lat="43.63838" lon="3.73703">
        <ele>130.60000610352</ele>
        <time>2023-05-23T13:57:37.000Z</time>
      </trkpt>
      <trkpt lat="43.63838" lon="3.73691">
        <ele>130.80000305176</ele>
        <time>2023-05-23T13:57:44.000Z</time>
      </trkpt>
      <trkpt lat="43.63839" lon="3.73678">
        <ele>130.80000305176</ele>
        <time>2023-05-23T13:57:52.000Z</time>
      </trkpt>
      <trkpt lat="43.63839" lon="3.73665">
        <ele>130.60000610352</ele>
        <time>2023-05-23T13:58:00.000Z</time>
      </trkpt>
      <trkpt lat="43.63841" lon="3.73648">
        <ele>130.39999389648</ele>
        <time>2023-05-23T13:58:10.000Z</time>
      </trkpt>
      <trkpt lat="43.63841" lon="3.73633">
        <ele>130.19999694824</ele>
        <time>2023-05-23T13:58:19.000Z</time>
      </trkpt>
      <trkpt lat="43.63841" lon="3.73619">
        <ele>130.39999389648</ele>
        <time>2023-05-23T13:58:27.000Z</time>
      </trkpt>
      <trkpt lat="43.63841" lon="3.73605">
        <ele>130.60000610352</ele>
        <time>2023-05-23T13:58:36.000Z</time>
      </trkpt>
      <trkpt lat="43.63841" lon="3.73592">
        <ele>130.80000305176</ele>
        <time>2023-05-23T13:58:44.000Z</time>
      </trkpt>
      <trkpt lat="43.63842" lon="3.73579">
        <ele>130.80000305176</ele>
        <time>2023-05-23T13:58:52.000Z</time>
      </trkpt>
      <trkpt lat="43.63842" lon="3.73563">
        <ele>131.19999694824</ele>
        <time>2023-05-23T13:59:02.000Z</time>
      </trkpt>
      <trkpt lat="43.63842" lon="3.73548">
        <ele>131.19999694824</ele>
        <time>2023-05-23T13:59:11.000Z</time>
      </trkpt>
      <trkpt lat="43.6384" lon="3.73532">
        <ele>131</ele>
        <time>2023-05-23T13:59:21.000Z</time>
      </trkpt>
      <trkpt lat="43.6384" lon="3.73514">
        <ele>130.39999389648</ele>
        <time>2023-05-23T13:59:32.000Z</time>
      </trkpt>
      <trkpt lat="43.63839" lon="3.73499">
        <ele>130.19999694824</ele>
        <time>2023-05-23T13:59:41.000Z</time>
      </trkpt>
      <trkpt lat="43.63839" lon="3.73481">
        <ele>130.60000610352</ele>
        <time>2023-05-23T13:59:52.000Z</time>
      </trkpt>
      <trkpt lat="43.63839" lon="3.73465">
        <ele>130.39999389648</ele>
        <time>2023-05-23T14:00:02.000Z</time>
      </trkpt>
      <trkpt lat="43.6384" lon="3.73449">
        <ele>129.80000305176</ele>
        <time>2023-05-23T14:00:12.000Z</time>
      </trkpt>
      <trkpt lat="43.63841" lon="3.73434">
        <ele>129.80000305176</ele>
        <time>2023-05-23T14:00:21.000Z</time>
      </trkpt>
      <trkpt lat="43.63841" lon="3.73418">
        <ele>129.80000305176</ele>
        <time>2023-05-23T14:00:31.000Z</time>
      </trkpt>
      <trkpt lat="43.63842" lon="3.73404">
        <ele>129.60000610352</ele>
        <time>2023-05-23T14:00:40.000Z</time>
      </trkpt>
      <trkpt lat="43.63842" lon="3.73401">
        <ele>129.19999694824</ele>
        <time>2023-05-23T14:00:42.000Z</time>
      </trkpt>
      <trkpt lat="43.63842" lon="3.73387">
        <ele>127.59999847412</ele>
        <time>2023-05-23T14:00:50.000Z</time>
      </trkpt>
      <trkpt lat="43.63842" lon="3.73385">
        <ele>127.40000152588</ele>
        <time>2023-05-23T14:00:52.000Z</time>
      </trkpt>
      <trkpt lat="43.63843" lon="3.73379">
        <ele>128.80000305176</ele>
        <time>2023-05-23T14:00:56.000Z</time>
      </trkpt>
      <trkpt lat="43.63843" lon="3.73373">
        <ele>128.60000610352</ele>
        <time>2023-05-23T14:01:00.000Z</time>
      </trkpt>
      <trkpt lat="43.63843" lon="3.7336">
        <ele>128.39999389648</ele>
        <time>2023-05-23T14:01:08.000Z</time>
      </trkpt>
      <trkpt lat="43.63843" lon="3.73347">
        <ele>128.60000610352</ele>
        <time>2023-05-23T14:01:16.000Z</time>
      </trkpt>
      <trkpt lat="43.63845" lon="3.73339">
        <ele>131</ele>
        <time>2023-05-23T14:01:21.000Z</time>
      </trkpt>
      <trkpt lat="43.63845" lon="3.73331">
        <ele>128.60000610352</ele>
        <time>2023-05-23T14:01:26.000Z</time>
      </trkpt>
      <trkpt lat="43.63844" lon="3.73322">
        <ele>130</ele>
        <time>2023-05-23T14:01:32.000Z</time>
      </trkpt>
      <trkpt lat="43.63844" lon="3.7332">
        <ele>128.19999694824</ele>
        <time>2023-05-23T14:01:33.000Z</time>
      </trkpt>
      <trkpt lat="43.63844" lon="3.73318">
        <ele>129.39999389648</ele>
        <time>2023-05-23T14:01:34.000Z</time>
      </trkpt>
      <trkpt lat="43.63844" lon="3.73314">
        <ele>132.19999694824</ele>
        <time>2023-05-23T14:01:36.000Z</time>
      </trkpt>
      <trkpt lat="43.63844" lon="3.73309">
        <ele>133.39999389648</ele>
        <time>2023-05-23T14:01:39.000Z</time>
      </trkpt>
      <trkpt lat="43.63844" lon="3.73305">
        <ele>131.19999694824</ele>
        <time>2023-05-23T14:01:42.000Z</time>
      </trkpt>
      <trkpt lat="43.63844" lon="3.73303">
        <ele>129.60000610352</ele>
        <time>2023-05-23T14:01:43.000Z</time>
      </trkpt>
      <trkpt lat="43.63844" lon="3.73302">
        <ele>131</ele>
        <time>2023-05-23T14:01:44.000Z</time>
      </trkpt>
      <trkpt lat="43.63843" lon="3.73295">
        <ele>130.80000305176</ele>
        <time>2023-05-23T14:01:50.000Z</time>
      </trkpt>
      <trkpt lat="43.63844" lon="3.73294">
        <ele>129.80000305176</ele>
        <time>2023-05-23T14:01:56.000Z</time>
      </trkpt>
      <trkpt lat="43.63846" lon="3.73292">
        <ele>129.39999389648</ele>
        <time>2023-05-23T14:02:07.000Z</time>
      </trkpt>
      <trkpt lat="43.63847" lon="3.73284">
        <ele>129.19999694824</ele>
        <time>2023-05-23T14:02:12.000Z</time>
      </trkpt>
      <trkpt lat="43.63848" lon="3.73271">
        <ele>129.80000305176</ele>
        <time>2023-05-23T14:02:20.000Z</time>
      </trkpt>
      <trkpt lat="43.63847" lon="3.73257">
        <ele>130.80000305176</ele>
        <time>2023-05-23T14:02:29.000Z</time>
      </trkpt>
      <trkpt lat="43.63847" lon="3.73256">
        <ele>130.60000610352</ele>
        <time>2023-05-23T14:02:30.000Z</time>
      </trkpt>
      <trkpt lat="43.63847" lon="3.73248">
        <ele>129.19999694824</ele>
        <time>2023-05-23T14:02:36.000Z</time>
      </trkpt>
      <trkpt lat="43.63847" lon="3.73246">
        <ele>128.80000305176</ele>
        <time>2023-05-23T14:02:37.000Z</time>
      </trkpt>
      <trkpt lat="43.63846" lon="3.7324">
        <ele>128</ele>
        <time>2023-05-23T14:02:41.000Z</time>
      </trkpt>
      <trkpt lat="43.63846" lon="3.73237">
        <ele>128</ele>
        <time>2023-05-23T14:02:45.000Z</time>
      </trkpt>
      <trkpt lat="43.63846" lon="3.73234">
        <ele>127.59999847412</ele>
        <time>2023-05-23T14:02:47.000Z</time>
      </trkpt>
      <trkpt lat="43.63846" lon="3.73223">
        <ele>126.80000305176</ele>
        <time>2023-05-23T14:02:53.000Z</time>
      </trkpt>
      <trkpt lat="43.63845" lon="3.73221">
        <ele>126.59999847412</ele>
        <time>2023-05-23T14:02:54.000Z</time>
      </trkpt>
      <trkpt lat="43.63845" lon="3.73219">
        <ele>126.40000152588</ele>
        <time>2023-05-23T14:02:56.000Z</time>
      </trkpt>
      <trkpt lat="43.63845" lon="3.73218">
        <ele>126.19999694824</ele>
        <time>2023-05-23T14:02:58.000Z</time>
      </trkpt>
      <trkpt lat="43.63845" lon="3.73219">
        <ele>128.19999694824</ele>
        <time>2023-05-23T14:03:03.000Z</time>
      </trkpt>
      <trkpt lat="43.63845" lon="3.73218">
        <ele>127.59999847412</ele>
        <time>2023-05-23T14:03:05.000Z</time>
      </trkpt>
      <trkpt lat="43.63845" lon="3.73218">
        <ele>126</ele>
        <time>2023-05-23T14:03:08.000Z</time>
      </trkpt>
      <trkpt lat="43.63845" lon="3.73218">
        <ele>126.40000152588</ele>
        <time>2023-05-23T14:03:14.000Z</time>
      </trkpt>
      <trkpt lat="43.63845" lon="3.73219">
        <ele>125.80000305176</ele>
        <time>2023-05-23T14:03:23.000Z</time>
      </trkpt>
      <trkpt lat="43.63844" lon="3.73219">
        <ele>125.80000305176</ele>
        <time>2023-05-23T14:03:35.000Z</time>
      </trkpt>
      <trkpt lat="43.63844" lon="3.7322">
        <ele>126</ele>
        <time>2023-05-23T14:03:47.000Z</time>
      </trkpt>
      <trkpt lat="43.63844" lon="3.73221">
        <ele>126</ele>
        <time>2023-05-23T14:03:57.000Z</time>
      </trkpt>
      <trkpt lat="43.63844" lon="3.73221">
        <ele>125.80000305176</ele>
        <time>2023-05-23T14:04:08.000Z</time>
      </trkpt>
      <trkpt lat="43.63843" lon="3.73199">
        <ele>125.59999847412</ele>
        <time>2023-05-23T14:04:19.000Z</time>
      </trkpt>
      <trkpt lat="43.63844" lon="3.73179">
        <ele>125.19999694824</ele>
        <time>2023-05-23T14:04:29.000Z</time>
      </trkpt>
      <trkpt lat="43.63844" lon="3.73162">
        <ele>125.19999694824</ele>
        <time>2023-05-23T14:04:38.000Z</time>
      </trkpt>
      <trkpt lat="43.63845" lon="3.73153">
        <ele>125</ele>
        <time>2023-05-23T14:04:43.000Z</time>
      </trkpt>
      <trkpt lat="43.63845" lon="3.73148">
        <ele>125</ele>
        <time>2023-05-23T14:04:46.000Z</time>
      </trkpt>
      <trkpt lat="43.63847" lon="3.7313">
        <ele>124.80000305176</ele>
        <time>2023-05-23T14:04:56.000Z</time>
      </trkpt>
      <trkpt lat="43.63848" lon="3.73116">
        <ele>124.40000152588</ele>
        <time>2023-05-23T14:05:04.000Z</time>
      </trkpt>
      <trkpt lat="43.63849" lon="3.73101">
        <ele>124.19999694824</ele>
        <time>2023-05-23T14:05:13.000Z</time>
      </trkpt>
      <trkpt lat="43.63851" lon="3.73094">
        <ele>123.80000305176</ele>
        <time>2023-05-23T14:05:18.000Z</time>
      </trkpt>
      <trkpt lat="43.63853" lon="3.73089">
        <ele>123.80000305176</ele>
        <time>2023-05-23T14:05:22.000Z</time>
      </trkpt>
      <trkpt lat="43.63854" lon="3.73084">
        <ele>124.80000305176</ele>
        <time>2023-05-23T14:05:30.000Z</time>
      </trkpt>
      <trkpt lat="43.63853" lon="3.73084">
        <ele>122</ele>
        <time>2023-05-23T14:05:36.000Z</time>
      </trkpt>
      <trkpt lat="43.63853" lon="3.73084">
        <ele>122.80000305176</ele>
        <time>2023-05-23T14:05:38.000Z</time>
      </trkpt>
      <trkpt lat="43.63853" lon="3.73084">
        <ele>122.80000305176</ele>
        <time>2023-05-23T14:05:47.000Z</time>
      </trkpt>
      <trkpt lat="43.63854" lon="3.73074">
        <ele>122.19999694824</ele>
        <time>2023-05-23T14:05:54.000Z</time>
      </trkpt>
      <trkpt lat="43.63857" lon="3.73052">
        <ele>121.80000305176</ele>
        <time>2023-05-23T14:06:07.000Z</time>
      </trkpt>
      <trkpt lat="43.63859" lon="3.73036">
        <ele>122.40000152588</ele>
        <time>2023-05-23T14:06:16.000Z</time>
      </trkpt>
      <trkpt lat="43.63861" lon="3.73018">
        <ele>122.19999694824</ele>
        <time>2023-05-23T14:06:26.000Z</time>
      </trkpt>
      <trkpt lat="43.63863" lon="3.73">
        <ele>122.19999694824</ele>
        <time>2023-05-23T14:06:36.000Z</time>
      </trkpt>
      <trkpt lat="43.63866" lon="3.72987">
        <ele>122.59999847412</ele>
        <time>2023-05-23T14:06:44.000Z</time>
      </trkpt>
      <trkpt lat="43.63868" lon="3.72973">
        <ele>122.40000152588</ele>
        <time>2023-05-23T14:06:52.000Z</time>
      </trkpt>
      <trkpt lat="43.6387" lon="3.72955">
        <ele>122.40000152588</ele>
        <time>2023-05-23T14:07:02.000Z</time>
      </trkpt>
      <trkpt lat="43.6387" lon="3.72949">
        <ele>122.40000152588</ele>
        <time>2023-05-23T14:07:07.000Z</time>
      </trkpt>
      <trkpt lat="43.6387" lon="3.72948">
        <ele>122.40000152588</ele>
        <time>2023-05-23T14:07:08.000Z</time>
      </trkpt>
      <trkpt lat="43.63872" lon="3.72937">
        <ele>122.40000152588</ele>
        <time>2023-05-23T14:07:15.000Z</time>
      </trkpt>
      <trkpt lat="43.63874" lon="3.7292">
        <ele>122</ele>
        <time>2023-05-23T14:07:25.000Z</time>
      </trkpt>
      <trkpt lat="43.63876" lon="3.72909">
        <ele>121.80000305176</ele>
        <time>2023-05-23T14:07:32.000Z</time>
      </trkpt>
      <trkpt lat="43.63876" lon="3.72909">
        <ele>121.80000305176</ele>
        <time>2023-05-23T14:07:33.000Z</time>
      </trkpt>
      <trkpt lat="43.63876" lon="3.72901">
        <ele>121.80000305176</ele>
        <time>2023-05-23T14:07:38.000Z</time>
      </trkpt>
      <trkpt lat="43.6388" lon="3.72884">
        <ele>122</ele>
        <time>2023-05-23T14:07:48.000Z</time>
      </trkpt>
      <trkpt lat="43.63883" lon="3.72871">
        <ele>121.59999847412</ele>
        <time>2023-05-23T14:07:57.000Z</time>
      </trkpt>
      <trkpt lat="43.63886" lon="3.72857">
        <ele>121.59999847412</ele>
        <time>2023-05-23T14:08:06.000Z</time>
      </trkpt>
      <trkpt lat="43.63889" lon="3.72844">
        <ele>121.80000305176</ele>
        <time>2023-05-23T14:08:14.000Z</time>
      </trkpt>
      <trkpt lat="43.63892" lon="3.72834">
        <ele>121.80000305176</ele>
        <time>2023-05-23T14:08:20.000Z</time>
      </trkpt>
      <trkpt lat="43.63894" lon="3.72824">
        <ele>121.80000305176</ele>
        <time>2023-05-23T14:08:29.000Z</time>
      </trkpt>
      <trkpt lat="43.63893" lon="3.7282">
        <ele>121.59999847412</ele>
        <time>2023-05-23T14:08:35.000Z</time>
      </trkpt>
      <trkpt lat="43.63894" lon="3.72819">
        <ele>123</ele>
        <time>2023-05-23T14:08:36.000Z</time>
      </trkpt>
      <trkpt lat="43.63894" lon="3.72818">
        <ele>125.59999847412</ele>
        <time>2023-05-23T14:08:37.000Z</time>
      </trkpt>
      <trkpt lat="43.63895" lon="3.72815">
        <ele>122.59999847412</ele>
        <time>2023-05-23T14:08:39.000Z</time>
      </trkpt>
      <trkpt lat="43.63895" lon="3.72813">
        <ele>120.59999847412</ele>
        <time>2023-05-23T14:08:40.000Z</time>
      </trkpt>
      <trkpt lat="43.63895" lon="3.72809">
        <ele>119.19999694824</ele>
        <time>2023-05-23T14:08:42.000Z</time>
      </trkpt>
      <trkpt lat="43.63895" lon="3.72807">
        <ele>117.19999694824</ele>
        <time>2023-05-23T14:08:43.000Z</time>
      </trkpt>
      <trkpt lat="43.63895" lon="3.72806">
        <ele>119.59999847412</ele>
        <time>2023-05-23T14:08:44.000Z</time>
      </trkpt>
      <trkpt lat="43.63895" lon="3.72804">
        <ele>121.80000305176</ele>
        <time>2023-05-23T14:08:45.000Z</time>
      </trkpt>
      <trkpt lat="43.63896" lon="3.72793">
        <ele>121.59999847412</ele>
        <time>2023-05-23T14:08:51.000Z</time>
      </trkpt>
      <trkpt lat="43.63901" lon="3.72778">
        <ele>122</ele>
        <time>2023-05-23T14:09:01.000Z</time>
      </trkpt>
      <trkpt lat="43.63905" lon="3.72761">
        <ele>122</ele>
        <time>2023-05-23T14:09:11.000Z</time>
      </trkpt>
      <trkpt lat="43.63909" lon="3.72743">
        <ele>121.59999847412</ele>
        <time>2023-05-23T14:09:22.000Z</time>
      </trkpt>
      <trkpt lat="43.63911" lon="3.72734">
        <ele>121.80000305176</ele>
        <time>2023-05-23T14:09:28.000Z</time>
      </trkpt>
      <trkpt lat="43.63913" lon="3.72719">
        <ele>121.59999847412</ele>
        <time>2023-05-23T14:09:37.000Z</time>
      </trkpt>
      <trkpt lat="43.63916" lon="3.72703">
        <ele>121.40000152588</ele>
        <time>2023-05-23T14:09:47.000Z</time>
      </trkpt>
      <trkpt lat="43.63921" lon="3.72685">
        <ele>121</ele>
        <time>2023-05-23T14:09:58.000Z</time>
      </trkpt>
      <trkpt lat="43.63924" lon="3.72671">
        <ele>120.80000305176</ele>
        <time>2023-05-23T14:10:07.000Z</time>
      </trkpt>
      <trkpt lat="43.63925" lon="3.72668">
        <ele>120.80000305176</ele>
        <time>2023-05-23T14:10:09.000Z</time>
      </trkpt>
      <trkpt lat="43.63931" lon="3.72649">
        <ele>120.80000305176</ele>
        <time>2023-05-23T14:10:21.000Z</time>
      </trkpt>
      <trkpt lat="43.63937" lon="3.72631">
        <ele>120.59999847412</ele>
        <time>2023-05-23T14:10:33.000Z</time>
      </trkpt>
      <trkpt lat="43.63943" lon="3.72619">
        <ele>120.40000152588</ele>
        <time>2023-05-23T14:10:42.000Z</time>
      </trkpt>
      <trkpt lat="43.63947" lon="3.72608">
        <ele>120.40000152588</ele>
        <time>2023-05-23T14:10:50.000Z</time>
      </trkpt>
      <trkpt lat="43.63947" lon="3.72608">
        <ele>120.40000152588</ele>
        <time>2023-05-23T14:10:51.000Z</time>
      </trkpt>
      <trkpt lat="43.63948" lon="3.72606">
        <ele>120.40000152588</ele>
        <time>2023-05-23T14:11:04.000Z</time>
      </trkpt>
      <trkpt lat="43.63952" lon="3.72595">
        <ele>120.19999694824</ele>
        <time>2023-05-23T14:11:12.000Z</time>
      </trkpt>
      <trkpt lat="43.63957" lon="3.72582">
        <ele>120.19999694824</ele>
        <time>2023-05-23T14:11:21.000Z</time>
      </trkpt>
      <trkpt lat="43.63959" lon="3.72576">
        <ele>120</ele>
        <time>2023-05-23T14:11:25.000Z</time>
      </trkpt>
      <trkpt lat="43.6396" lon="3.72573">
        <ele>119.59999847412</ele>
        <time>2023-05-23T14:11:27.000Z</time>
      </trkpt>
      <trkpt lat="43.63965" lon="3.72562">
        <ele>119.80000305176</ele>
        <time>2023-05-23T14:11:35.000Z</time>
      </trkpt>
      <trkpt lat="43.63969" lon="3.72552">
        <ele>119.59999847412</ele>
        <time>2023-05-23T14:11:42.000Z</time>
      </trkpt>
      <trkpt lat="43.63969" lon="3.7255">
        <ele>119.59999847412</ele>
        <time>2023-05-23T14:11:43.000Z</time>
      </trkpt>
      <trkpt lat="43.63974" lon="3.72543">
        <ele>119.80000305176</ele>
        <time>2023-05-23T14:11:49.000Z</time>
      </trkpt>
      <trkpt lat="43.63982" lon="3.72532">
        <ele>119.40000152588</ele>
        <time>2023-05-23T14:11:58.000Z</time>
      </trkpt>
      <trkpt lat="43.63986" lon="3.7252">
        <ele>119.19999694824</ele>
        <time>2023-05-23T14:12:06.000Z</time>
      </trkpt>
      <trkpt lat="43.63993" lon="3.72501">
        <ele>118.80000305176</ele>
        <time>2023-05-23T14:12:18.000Z</time>
      </trkpt>
      <trkpt lat="43.63997" lon="3.72491">
        <ele>118.59999847412</ele>
        <time>2023-05-23T14:12:25.000Z</time>
      </trkpt>
      <trkpt lat="43.63998" lon="3.72489">
        <ele>118.59999847412</ele>
        <time>2023-05-23T14:12:26.000Z</time>
      </trkpt>
      <trkpt lat="43.64002" lon="3.7248">
        <ele>118.59999847412</ele>
        <time>2023-05-23T14:12:33.000Z</time>
      </trkpt>
      <trkpt lat="43.64007" lon="3.72467">
        <ele>118.19999694824</ele>
        <time>2023-05-23T14:12:42.000Z</time>
      </trkpt>
      <trkpt lat="43.64011" lon="3.72457">
        <ele>118.40000152588</ele>
        <time>2023-05-23T14:12:49.000Z</time>
      </trkpt>
      <trkpt lat="43.64015" lon="3.72444">
        <ele>118.19999694824</ele>
        <time>2023-05-23T14:12:58.000Z</time>
      </trkpt>
      <trkpt lat="43.64021" lon="3.72432">
        <ele>118</ele>
        <time>2023-05-23T14:13:07.000Z</time>
      </trkpt>
      <trkpt lat="43.64024" lon="3.72427">
        <ele>117.59999847412</ele>
        <time>2023-05-23T14:13:11.000Z</time>
      </trkpt>
      <trkpt lat="43.64027" lon="3.72419">
        <ele>117.80000305176</ele>
        <time>2023-05-23T14:13:16.000Z</time>
      </trkpt>
      <trkpt lat="43.64033" lon="3.72411">
        <ele>117.80000305176</ele>
        <time>2023-05-23T14:13:23.000Z</time>
      </trkpt>
      <trkpt lat="43.64038" lon="3.72406">
        <ele>117.59999847412</ele>
        <time>2023-05-23T14:13:29.000Z</time>
      </trkpt>
      <trkpt lat="43.64041" lon="3.72403">
        <ele>117.40000152588</ele>
        <time>2023-05-23T14:13:32.000Z</time>
      </trkpt>
      <trkpt lat="43.64041" lon="3.72402">
        <ele>117.19999694824</ele>
        <time>2023-05-23T14:13:33.000Z</time>
      </trkpt>
      <trkpt lat="43.64041" lon="3.72401">
        <ele>117.19999694824</ele>
        <time>2023-05-23T14:13:34.000Z</time>
      </trkpt>
      <trkpt lat="43.64043" lon="3.72397">
        <ele>117.40000152588</ele>
        <time>2023-05-23T14:13:37.000Z</time>
      </trkpt>
      <trkpt lat="43.64045" lon="3.72396">
        <ele>117.80000305176</ele>
        <time>2023-05-23T14:13:41.000Z</time>
      </trkpt>
      <trkpt lat="43.64045" lon="3.72395">
        <ele>116.40000152588</ele>
        <time>2023-05-23T14:13:47.000Z</time>
      </trkpt>
      <trkpt lat="43.64044" lon="3.72394">
        <ele>117.59999847412</ele>
        <time>2023-05-23T14:13:51.000Z</time>
      </trkpt>
      <trkpt lat="43.64045" lon="3.72393">
        <ele>118</ele>
        <time>2023-05-23T14:13:58.000Z</time>
      </trkpt>
      <trkpt lat="43.64045" lon="3.72393">
        <ele>119.59999847412</ele>
        <time>2023-05-23T14:13:59.000Z</time>
      </trkpt>
      <trkpt lat="43.64046" lon="3.72393">
        <ele>121.40000152588</ele>
        <time>2023-05-23T14:14:00.000Z</time>
      </trkpt>
      <trkpt lat="43.64045" lon="3.72392">
        <ele>122.59999847412</ele>
        <time>2023-05-23T14:14:01.000Z</time>
      </trkpt>
      <trkpt lat="43.64046" lon="3.72392">
        <ele>121.40000152588</ele>
        <time>2023-05-23T14:14:03.000Z</time>
      </trkpt>
      <trkpt lat="43.64046" lon="3.72392">
        <ele>120.19999694824</ele>
        <time>2023-05-23T14:14:04.000Z</time>
      </trkpt>
      <trkpt lat="43.64046" lon="3.72393">
        <ele>116.80000305176</ele>
        <time>2023-05-23T14:14:05.000Z</time>
      </trkpt>
      <trkpt lat="43.64045" lon="3.72392">
        <ele>116</ele>
        <time>2023-05-23T14:14:06.000Z</time>
      </trkpt>
      <trkpt lat="43.64046" lon="3.72391">
        <ele>115.59999847412</ele>
        <time>2023-05-23T14:14:07.000Z</time>
      </trkpt>
      <trkpt lat="43.64045" lon="3.72391">
        <ele>116.80000305176</ele>
        <time>2023-05-23T14:14:10.000Z</time>
      </trkpt>
      <trkpt lat="43.64047" lon="3.72386">
        <ele>116.80000305176</ele>
        <time>2023-05-23T14:14:15.000Z</time>
      </trkpt>
      <trkpt lat="43.64055" lon="3.72375">
        <ele>117</ele>
        <time>2023-05-23T14:14:24.000Z</time>
      </trkpt>
      <trkpt lat="43.64062" lon="3.72362">
        <ele>117</ele>
        <time>2023-05-23T14:14:34.000Z</time>
      </trkpt>
      <trkpt lat="43.6407" lon="3.72348">
        <ele>116.59999847412</ele>
        <time>2023-05-23T14:14:44.000Z</time>
      </trkpt>
      <trkpt lat="43.64076" lon="3.72338">
        <ele>116.59999847412</ele>
        <time>2023-05-23T14:14:52.000Z</time>
      </trkpt>
      <trkpt lat="43.64083" lon="3.72327">
        <ele>116.59999847412</ele>
        <time>2023-05-23T14:15:00.000Z</time>
      </trkpt>
      <trkpt lat="43.64091" lon="3.72315">
        <ele>116.40000152588</ele>
        <time>2023-05-23T14:15:09.000Z</time>
      </trkpt>
      <trkpt lat="43.64097" lon="3.72303">
        <ele>116.19999694824</ele>
        <time>2023-05-23T14:15:18.000Z</time>
      </trkpt>
      <trkpt lat="43.64104" lon="3.7229">
        <ele>116.19999694824</ele>
        <time>2023-05-23T14:15:27.000Z</time>
      </trkpt>
      <trkpt lat="43.64111" lon="3.72279">
        <ele>115.80000305176</ele>
        <time>2023-05-23T14:15:36.000Z</time>
      </trkpt>
      <trkpt lat="43.64114" lon="3.72272">
        <ele>115.80000305176</ele>
        <time>2023-05-23T14:15:41.000Z</time>
      </trkpt>
      <trkpt lat="43.64114" lon="3.72271">
        <ele>115.80000305176</ele>
        <time>2023-05-23T14:15:42.000Z</time>
      </trkpt>
      <trkpt lat="43.64117" lon="3.72266">
        <ele>115.80000305176</ele>
        <time>2023-05-23T14:15:46.000Z</time>
      </trkpt>
      <trkpt lat="43.64118" lon="3.72265">
        <ele>115.80000305176</ele>
        <time>2023-05-23T14:15:47.000Z</time>
      </trkpt>
      <trkpt lat="43.64119" lon="3.72262">
        <ele>115.59999847412</ele>
        <time>2023-05-23T14:15:49.000Z</time>
      </trkpt>
      <trkpt lat="43.64122" lon="3.72256">
        <ele>115.19999694824</ele>
        <time>2023-05-23T14:15:54.000Z</time>
      </trkpt>
      <trkpt lat="43.64124" lon="3.72254">
        <ele>114.80000305176</ele>
        <time>2023-05-23T14:16:00.000Z</time>
      </trkpt>
      <trkpt lat="43.64125" lon="3.72249">
        <ele>115</ele>
        <time>2023-05-23T14:16:07.000Z</time>
      </trkpt>
      <trkpt lat="43.64129" lon="3.72238">
        <ele>114.59999847412</ele>
        <time>2023-05-23T14:16:14.000Z</time>
      </trkpt>
      <trkpt lat="43.6413" lon="3.72235">
        <ele>114.59999847412</ele>
        <time>2023-05-23T14:16:16.000Z</time>
      </trkpt>
      <trkpt lat="43.64135" lon="3.72221">
        <ele>114.59999847412</ele>
        <time>2023-05-23T14:16:25.000Z</time>
      </trkpt>
      <trkpt lat="43.64141" lon="3.72208">
        <ele>114.59999847412</ele>
        <time>2023-05-23T14:16:34.000Z</time>
      </trkpt>
      <trkpt lat="43.64147" lon="3.72196">
        <ele>114.40000152588</ele>
        <time>2023-05-23T14:16:43.000Z</time>
      </trkpt>
      <trkpt lat="43.64154" lon="3.72183">
        <ele>114.40000152588</ele>
        <time>2023-05-23T14:16:53.000Z</time>
      </trkpt>
      <trkpt lat="43.64161" lon="3.7217">
        <ele>114.19999694824</ele>
        <time>2023-05-23T14:17:03.000Z</time>
      </trkpt>
      <trkpt lat="43.64164" lon="3.72167">
        <ele>113.80000305176</ele>
        <time>2023-05-23T14:17:06.000Z</time>
      </trkpt>
      <trkpt lat="43.64165" lon="3.72164">
        <ele>114</ele>
        <time>2023-05-23T14:17:08.000Z</time>
      </trkpt>
      <trkpt lat="43.64168" lon="3.72158">
        <ele>113.59999847412</ele>
        <time>2023-05-23T14:17:13.000Z</time>
      </trkpt>
      <trkpt lat="43.64169" lon="3.72157">
        <ele>113.40000152588</ele>
        <time>2023-05-23T14:17:14.000Z</time>
      </trkpt>
      <trkpt lat="43.64173" lon="3.72147">
        <ele>114</ele>
        <time>2023-05-23T14:17:21.000Z</time>
      </trkpt>
      <trkpt lat="43.64177" lon="3.7213">
        <ele>113.59999847412</ele>
        <time>2023-05-23T14:17:33.000Z</time>
      </trkpt>
      <trkpt lat="43.64181" lon="3.72119">
        <ele>113.59999847412</ele>
        <time>2023-05-23T14:17:41.000Z</time>
      </trkpt>
      <trkpt lat="43.64185" lon="3.72107">
        <ele>114.19999694824</ele>
        <time>2023-05-23T14:17:51.000Z</time>
      </trkpt>
      <trkpt lat="43.64187" lon="3.72102">
        <ele>115</ele>
        <time>2023-05-23T14:17:56.000Z</time>
      </trkpt>
      <trkpt lat="43.64188" lon="3.72101">
        <ele>113.80000305176</ele>
        <time>2023-05-23T14:17:57.000Z</time>
      </trkpt>
      <trkpt lat="43.64189" lon="3.72099">
        <ele>111</ele>
        <time>2023-05-23T14:17:58.000Z</time>
      </trkpt>
      <trkpt lat="43.64193" lon="3.72089">
        <ele>112</ele>
        <time>2023-05-23T14:18:05.000Z</time>
      </trkpt>
      <trkpt lat="43.64194" lon="3.72088">
        <ele>112</ele>
        <time>2023-05-23T14:18:06.000Z</time>
      </trkpt>
      <trkpt lat="43.64198" lon="3.7208">
        <ele>112.80000305176</ele>
        <time>2023-05-23T14:18:12.000Z</time>
      </trkpt>
      <trkpt lat="43.64198" lon="3.72079">
        <ele>113</ele>
        <time>2023-05-23T14:18:13.000Z</time>
      </trkpt>
      <trkpt lat="43.64203" lon="3.72071">
        <ele>114</ele>
        <time>2023-05-23T14:18:19.000Z</time>
      </trkpt>
      <trkpt lat="43.64204" lon="3.7207">
        <ele>114.19999694824</ele>
        <time>2023-05-23T14:18:20.000Z</time>
      </trkpt>
      <trkpt lat="43.64207" lon="3.72064">
        <ele>114.40000152588</ele>
        <time>2023-05-23T14:18:25.000Z</time>
      </trkpt>
      <trkpt lat="43.64208" lon="3.72061">
        <ele>114.40000152588</ele>
        <time>2023-05-23T14:18:27.000Z</time>
      </trkpt>
      <trkpt lat="43.64213" lon="3.72053">
        <ele>114.40000152588</ele>
        <time>2023-05-23T14:18:34.000Z</time>
      </trkpt>
      <trkpt lat="43.64216" lon="3.72042">
        <ele>114.40000152588</ele>
        <time>2023-05-23T14:18:41.000Z</time>
      </trkpt>
      <trkpt lat="43.64217" lon="3.72027">
        <ele>114.40000152588</ele>
        <time>2023-05-23T14:18:50.000Z</time>
      </trkpt>
      <trkpt lat="43.64218" lon="3.7201">
        <ele>114.80000305176</ele>
        <time>2023-05-23T14:19:00.000Z</time>
      </trkpt>
      <trkpt lat="43.6422" lon="3.71994">
        <ele>115</ele>
        <time>2023-05-23T14:19:10.000Z</time>
      </trkpt>
      <trkpt lat="43.64222" lon="3.71977">
        <ele>115</ele>
        <time>2023-05-23T14:19:21.000Z</time>
      </trkpt>
      <trkpt lat="43.64222" lon="3.71972">
        <ele>115.19999694824</ele>
        <time>2023-05-23T14:19:24.000Z</time>
      </trkpt>
      <trkpt lat="43.64224" lon="3.71959">
        <ele>115.40000152588</ele>
        <time>2023-05-23T14:19:32.000Z</time>
      </trkpt>
      <trkpt lat="43.64226" lon="3.71944">
        <ele>115.59999847412</ele>
        <time>2023-05-23T14:19:42.000Z</time>
      </trkpt>
      <trkpt lat="43.64227" lon="3.7194">
        <ele>116</ele>
        <time>2023-05-23T14:19:47.000Z</time>
      </trkpt>
      <trkpt lat="43.64227" lon="3.71928">
        <ele>116.80000305176</ele>
        <time>2023-05-23T14:19:55.000Z</time>
      </trkpt>
      <trkpt lat="43.64227" lon="3.71926">
        <ele>116.40000152588</ele>
        <time>2023-05-23T14:19:56.000Z</time>
      </trkpt>
      <trkpt lat="43.64227" lon="3.71923">
        <ele>115.40000152588</ele>
        <time>2023-05-23T14:19:58.000Z</time>
      </trkpt>
      <trkpt lat="43.64225" lon="3.71916">
        <ele>114.80000305176</ele>
        <time>2023-05-23T14:20:03.000Z</time>
      </trkpt>
      <trkpt lat="43.64225" lon="3.71915">
        <ele>112.19999694824</ele>
        <time>2023-05-23T14:20:04.000Z</time>
      </trkpt>
      <trkpt lat="43.64223" lon="3.71909">
        <ele>113.40000152588</ele>
        <time>2023-05-23T14:20:08.000Z</time>
      </trkpt>
      <trkpt lat="43.64222" lon="3.71906">
        <ele>114.80000305176</ele>
        <time>2023-05-23T14:20:10.000Z</time>
      </trkpt>
      <trkpt lat="43.64221" lon="3.71905">
        <ele>111.80000305176</ele>
        <time>2023-05-23T14:20:11.000Z</time>
      </trkpt>
      <trkpt lat="43.64221" lon="3.71904">
        <ele>114.19999694824</ele>
        <time>2023-05-23T14:20:12.000Z</time>
      </trkpt>
      <trkpt lat="43.64221" lon="3.71902">
        <ele>114.19999694824</ele>
        <time>2023-05-23T14:20:13.000Z</time>
      </trkpt>
      <trkpt lat="43.64224" lon="3.7189">
        <ele>115</ele>
        <time>2023-05-23T14:20:21.000Z</time>
      </trkpt>
      <trkpt lat="43.64225" lon="3.71886">
        <ele>115.19999694824</ele>
        <time>2023-05-23T14:20:24.000Z</time>
      </trkpt>
      <trkpt lat="43.64227" lon="3.71878">
        <ele>115.19999694824</ele>
        <time>2023-05-23T14:20:29.000Z</time>
      </trkpt>
      <trkpt lat="43.64231" lon="3.71866">
        <ele>116.19999694824</ele>
        <time>2023-05-23T14:20:38.000Z</time>
      </trkpt>
      <trkpt lat="43.64231" lon="3.71865">
        <ele>116.40000152588</ele>
        <time>2023-05-23T14:20:39.000Z</time>
      </trkpt>
      <trkpt lat="43.64234" lon="3.71858">
        <ele>117.40000152588</ele>
        <time>2023-05-23T14:20:45.000Z</time>
      </trkpt>
      <trkpt lat="43.64236" lon="3.71853">
        <ele>117.59999847412</ele>
        <time>2023-05-23T14:20:49.000Z</time>
      </trkpt>
      <trkpt lat="43.6424" lon="3.71844">
        <ele>118.59999847412</ele>
        <time>2023-05-23T14:20:57.000Z</time>
      </trkpt>
      <trkpt lat="43.6424" lon="3.71842">
        <ele>118.80000305176</ele>
        <time>2023-05-23T14:20:58.000Z</time>
      </trkpt>
      <trkpt lat="43.64242" lon="3.71837">
        <ele>119.59999847412</ele>
        <time>2023-05-23T14:21:02.000Z</time>
      </trkpt>
      <trkpt lat="43.64244" lon="3.71832">
        <ele>120</ele>
        <time>2023-05-23T14:21:06.000Z</time>
      </trkpt>
      <trkpt lat="43.64246" lon="3.71823">
        <ele>120.59999847412</ele>
        <time>2023-05-23T14:21:13.000Z</time>
      </trkpt>
      <trkpt lat="43.64247" lon="3.71819">
        <ele>120.59999847412</ele>
        <time>2023-05-23T14:21:16.000Z</time>
      </trkpt>
      <trkpt lat="43.64248" lon="3.71818">
        <ele>120.59999847412</ele>
        <time>2023-05-23T14:21:17.000Z</time>
      </trkpt>
      <trkpt lat="43.64249" lon="3.71811">
        <ele>120.59999847412</ele>
        <time>2023-05-23T14:21:22.000Z</time>
      </trkpt>
      <trkpt lat="43.64251" lon="3.71801">
        <ele>120.80000305176</ele>
        <time>2023-05-23T14:21:29.000Z</time>
      </trkpt>
      <trkpt lat="43.64251" lon="3.71799">
        <ele>120.80000305176</ele>
        <time>2023-05-23T14:21:30.000Z</time>
      </trkpt>
      <trkpt lat="43.64252" lon="3.71787">
        <ele>121.19999694824</ele>
        <time>2023-05-23T14:21:38.000Z</time>
      </trkpt>
      <trkpt lat="43.64254" lon="3.71772">
        <ele>119.80000305176</ele>
        <time>2023-05-23T14:21:48.000Z</time>
      </trkpt>
      <trkpt lat="43.64254" lon="3.71771">
        <ele>121.59999847412</ele>
        <time>2023-05-23T14:21:54.000Z</time>
      </trkpt>
      <trkpt lat="43.64254" lon="3.71772">
        <ele>121.80000305176</ele>
        <time>2023-05-23T14:21:55.000Z</time>
      </trkpt>
      <trkpt lat="43.64253" lon="3.71764">
        <ele>121.80000305176</ele>
        <time>2023-05-23T14:22:06.000Z</time>
      </trkpt>
      <trkpt lat="43.64253" lon="3.71758">
        <ele>121.80000305176</ele>
        <time>2023-05-23T14:22:14.000Z</time>
      </trkpt>
      <trkpt lat="43.64253" lon="3.71742">
        <ele>121.59999847412</ele>
        <time>2023-05-23T14:22:24.000Z</time>
      </trkpt>
      <trkpt lat="43.64253" lon="3.71729">
        <ele>122.80000305176</ele>
        <time>2023-05-23T14:22:32.000Z</time>
      </trkpt>
      <trkpt lat="43.64252" lon="3.71724">
        <ele>123</ele>
        <time>2023-05-23T14:22:35.000Z</time>
      </trkpt>
      <trkpt lat="43.64252" lon="3.7171">
        <ele>122.40000152588</ele>
        <time>2023-05-23T14:22:44.000Z</time>
      </trkpt>
      <trkpt lat="43.6425" lon="3.71695">
        <ele>122.40000152588</ele>
        <time>2023-05-23T14:22:54.000Z</time>
      </trkpt>
      <trkpt lat="43.64252" lon="3.71681">
        <ele>122.59999847412</ele>
        <time>2023-05-23T14:23:03.000Z</time>
      </trkpt>
      <trkpt lat="43.64254" lon="3.71675">
        <ele>122.59999847412</ele>
        <time>2023-05-23T14:23:08.000Z</time>
      </trkpt>
      <trkpt lat="43.64255" lon="3.71673">
        <ele>122.59999847412</ele>
        <time>2023-05-23T14:23:10.000Z</time>
      </trkpt>
      <trkpt lat="43.64255" lon="3.7167">
        <ele>122.80000305176</ele>
        <time>2023-05-23T14:23:12.000Z</time>
      </trkpt>
      <trkpt lat="43.64256" lon="3.71669">
        <ele>122.59999847412</ele>
        <time>2023-05-23T14:23:17.000Z</time>
      </trkpt>
      <trkpt lat="43.64256" lon="3.71662">
        <ele>122.80000305176</ele>
        <time>2023-05-23T14:23:23.000Z</time>
      </trkpt>
      <trkpt lat="43.64258" lon="3.71653">
        <ele>122.80000305176</ele>
        <time>2023-05-23T14:23:29.000Z</time>
      </trkpt>
      <trkpt lat="43.6426" lon="3.71641">
        <ele>122.59999847412</ele>
        <time>2023-05-23T14:23:37.000Z</time>
      </trkpt>
      <trkpt lat="43.64262" lon="3.71629">
        <ele>122.40000152588</ele>
        <time>2023-05-23T14:23:45.000Z</time>
      </trkpt>
      <trkpt lat="43.64263" lon="3.71624">
        <ele>122.40000152588</ele>
        <time>2023-05-23T14:23:48.000Z</time>
      </trkpt>
      <trkpt lat="43.64265" lon="3.71618">
        <ele>123</ele>
        <time>2023-05-23T14:23:52.000Z</time>
      </trkpt>
      <trkpt lat="43.64266" lon="3.71612">
        <ele>120.59999847412</ele>
        <time>2023-05-23T14:23:55.000Z</time>
      </trkpt>
      <trkpt lat="43.64268" lon="3.71603">
        <ele>123.19999694824</ele>
        <time>2023-05-23T14:24:00.000Z</time>
      </trkpt>
      <trkpt lat="43.64268" lon="3.71601">
        <ele>121</ele>
        <time>2023-05-23T14:24:01.000Z</time>
      </trkpt>
      <trkpt lat="43.64268" lon="3.71599">
        <ele>119.80000305176</ele>
        <time>2023-05-23T14:24:02.000Z</time>
      </trkpt>
      <trkpt lat="43.64269" lon="3.71596">
        <ele>118.59999847412</ele>
        <time>2023-05-23T14:24:04.000Z</time>
      </trkpt>
      <trkpt lat="43.64269" lon="3.71594">
        <ele>116.59999847412</ele>
        <time>2023-05-23T14:24:05.000Z</time>
      </trkpt>
      <trkpt lat="43.64271" lon="3.71584">
        <ele>118.59999847412</ele>
        <time>2023-05-23T14:24:11.000Z</time>
      </trkpt>
      <trkpt lat="43.64272" lon="3.71583">
        <ele>119.80000305176</ele>
        <time>2023-05-23T14:24:12.000Z</time>
      </trkpt>
      <trkpt lat="43.64272" lon="3.71581">
        <ele>122</ele>
        <time>2023-05-23T14:24:13.000Z</time>
      </trkpt>
      <trkpt lat="43.64274" lon="3.7157">
        <ele>122.80000305176</ele>
        <time>2023-05-23T14:24:19.000Z</time>
      </trkpt>
      <trkpt lat="43.64274" lon="3.71567">
        <ele>123</ele>
        <time>2023-05-23T14:24:21.000Z</time>
      </trkpt>
      <trkpt lat="43.64277" lon="3.71553">
        <ele>123.40000152588</ele>
        <time>2023-05-23T14:24:29.000Z</time>
      </trkpt>
      <trkpt lat="43.64279" lon="3.71544">
        <ele>123.40000152588</ele>
        <time>2023-05-23T14:24:35.000Z</time>
      </trkpt>
      <trkpt lat="43.6428" lon="3.71542">
        <ele>123.40000152588</ele>
        <time>2023-05-23T14:24:36.000Z</time>
      </trkpt>
      <trkpt lat="43.64281" lon="3.71528">
        <ele>123.59999847412</ele>
        <time>2023-05-23T14:24:44.000Z</time>
      </trkpt>
      <trkpt lat="43.64283" lon="3.71514">
        <ele>123.59999847412</ele>
        <time>2023-05-23T14:24:52.000Z</time>
      </trkpt>
      <trkpt lat="43.64286" lon="3.715">
        <ele>123.80000305176</ele>
        <time>2023-05-23T14:25:01.000Z</time>
      </trkpt>
      <trkpt lat="43.64288" lon="3.71493">
        <ele>124.19999694824</ele>
        <time>2023-05-23T14:25:06.000Z</time>
      </trkpt>
      <trkpt lat="43.6429" lon="3.71488">
        <ele>124.19999694824</ele>
        <time>2023-05-23T14:25:09.000Z</time>
      </trkpt>
      <trkpt lat="43.64293" lon="3.71478">
        <ele>124</ele>
        <time>2023-05-23T14:25:16.000Z</time>
      </trkpt>
      <trkpt lat="43.64296" lon="3.71467">
        <ele>123.59999847412</ele>
        <time>2023-05-23T14:25:23.000Z</time>
      </trkpt>
      <trkpt lat="43.64301" lon="3.71455">
        <ele>123.40000152588</ele>
        <time>2023-05-23T14:25:32.000Z</time>
      </trkpt>
      <trkpt lat="43.64307" lon="3.71443">
        <ele>123.40000152588</ele>
        <time>2023-05-23T14:25:41.000Z</time>
      </trkpt>
      <trkpt lat="43.64309" lon="3.71439">
        <ele>123.19999694824</ele>
        <time>2023-05-23T14:25:44.000Z</time>
      </trkpt>
      <trkpt lat="43.64314" lon="3.7143">
        <ele>122.59999847412</ele>
        <time>2023-05-23T14:25:51.000Z</time>
      </trkpt>
      <trkpt lat="43.64319" lon="3.71423">
        <ele>122.19999694824</ele>
        <time>2023-05-23T14:25:57.000Z</time>
      </trkpt>
      <trkpt lat="43.64321" lon="3.71419">
        <ele>122.19999694824</ele>
        <time>2023-05-23T14:26:00.000Z</time>
      </trkpt>
      <trkpt lat="43.64329" lon="3.71406">
        <ele>121.80000305176</ele>
        <time>2023-05-23T14:26:10.000Z</time>
      </trkpt>
      <trkpt lat="43.64336" lon="3.71395">
        <ele>121</ele>
        <time>2023-05-23T14:26:19.000Z</time>
      </trkpt>
      <trkpt lat="43.64336" lon="3.71394">
        <ele>121</ele>
        <time>2023-05-23T14:26:20.000Z</time>
      </trkpt>
      <trkpt lat="43.64344" lon="3.7138">
        <ele>120.59999847412</ele>
        <time>2023-05-23T14:26:30.000Z</time>
      </trkpt>
      <trkpt lat="43.64349" lon="3.71367">
        <ele>120</ele>
        <time>2023-05-23T14:26:39.000Z</time>
      </trkpt>
      <trkpt lat="43.64351" lon="3.71362">
        <ele>119.80000305176</ele>
        <time>2023-05-23T14:26:42.000Z</time>
      </trkpt>
      <trkpt lat="43.64354" lon="3.71351">
        <ele>118.80000305176</ele>
        <time>2023-05-23T14:26:49.000Z</time>
      </trkpt>
      <trkpt lat="43.64354" lon="3.71349">
        <ele>117.40000152588</ele>
        <time>2023-05-23T14:26:50.000Z</time>
      </trkpt>
      <trkpt lat="43.64355" lon="3.71347">
        <ele>116.19999694824</ele>
        <time>2023-05-23T14:26:51.000Z</time>
      </trkpt>
      <trkpt lat="43.64355" lon="3.71346">
        <ele>112.40000152588</ele>
        <time>2023-05-23T14:26:52.000Z</time>
      </trkpt>
      <trkpt lat="43.64355" lon="3.71344">
        <ele>109.19999694824</ele>
        <time>2023-05-23T14:26:53.000Z</time>
      </trkpt>
      <trkpt lat="43.64356" lon="3.71342">
        <ele>108.59999847412</ele>
        <time>2023-05-23T14:26:54.000Z</time>
      </trkpt>
      <trkpt lat="43.64356" lon="3.71341">
        <ele>110.40000152588</ele>
        <time>2023-05-23T14:26:55.000Z</time>
      </trkpt>
      <trkpt lat="43.64357" lon="3.71339">
        <ele>115.40000152588</ele>
        <time>2023-05-23T14:26:56.000Z</time>
      </trkpt>
      <trkpt lat="43.64357" lon="3.71338">
        <ele>120.40000152588</ele>
        <time>2023-05-23T14:26:57.000Z</time>
      </trkpt>
      <trkpt lat="43.6436" lon="3.71328">
        <ele>120</ele>
        <time>2023-05-23T14:27:03.000Z</time>
      </trkpt>
      <trkpt lat="43.6436" lon="3.71325">
        <ele>120</ele>
        <time>2023-05-23T14:27:06.000Z</time>
      </trkpt>
      <trkpt lat="43.64361" lon="3.71321">
        <ele>120.40000152588</ele>
        <time>2023-05-23T14:27:09.000Z</time>
      </trkpt>
      <trkpt lat="43.64362" lon="3.7132">
        <ele>120.40000152588</ele>
        <time>2023-05-23T14:27:10.000Z</time>
      </trkpt>
      <trkpt lat="43.64368" lon="3.71306">
        <ele>120</ele>
        <time>2023-05-23T14:27:20.000Z</time>
      </trkpt>
      <trkpt lat="43.64372" lon="3.71295">
        <ele>119.59999847412</ele>
        <time>2023-05-23T14:27:28.000Z</time>
      </trkpt>
      <trkpt lat="43.64374" lon="3.71288">
        <ele>119.19999694824</ele>
        <time>2023-05-23T14:27:33.000Z</time>
      </trkpt>
      <trkpt lat="43.64374" lon="3.71283">
        <ele>119</ele>
        <time>2023-05-23T14:27:36.000Z</time>
      </trkpt>
      <trkpt lat="43.64376" lon="3.71269">
        <ele>118.59999847412</ele>
        <time>2023-05-23T14:27:44.000Z</time>
      </trkpt>
      <trkpt lat="43.64378" lon="3.71263">
        <ele>118.40000152588</ele>
        <time>2023-05-23T14:27:48.000Z</time>
      </trkpt>
      <trkpt lat="43.64378" lon="3.71261">
        <ele>118.19999694824</ele>
        <time>2023-05-23T14:27:49.000Z</time>
      </trkpt>
      <trkpt lat="43.64378" lon="3.71259">
        <ele>117.59999847412</ele>
        <time>2023-05-23T14:27:52.000Z</time>
      </trkpt>
      <trkpt lat="43.64379" lon="3.71256">
        <ele>117</ele>
        <time>2023-05-23T14:27:55.000Z</time>
      </trkpt>
      <trkpt lat="43.64379" lon="3.71251">
        <ele>116.59999847412</ele>
        <time>2023-05-23T14:27:58.000Z</time>
      </trkpt>
      <trkpt lat="43.6438" lon="3.71243">
        <ele>116</ele>
        <time>2023-05-23T14:28:02.000Z</time>
      </trkpt>
      <trkpt lat="43.64381" lon="3.71232">
        <ele>115</ele>
        <time>2023-05-23T14:28:08.000Z</time>
      </trkpt>
      <trkpt lat="43.64381" lon="3.7123">
        <ele>115</ele>
        <time>2023-05-23T14:28:09.000Z</time>
      </trkpt>
      <trkpt lat="43.64383" lon="3.71215">
        <ele>114.59999847412</ele>
        <time>2023-05-23T14:28:18.000Z</time>
      </trkpt>
      <trkpt lat="43.64384" lon="3.712">
        <ele>114</ele>
        <time>2023-05-23T14:28:26.000Z</time>
      </trkpt>
      <trkpt lat="43.64386" lon="3.71184">
        <ele>113.40000152588</ele>
        <time>2023-05-23T14:28:36.000Z</time>
      </trkpt>
      <trkpt lat="43.64388" lon="3.71168">
        <ele>113</ele>
        <time>2023-05-23T14:28:45.000Z</time>
      </trkpt>
      <trkpt lat="43.64388" lon="3.71167">
        <ele>112.80000305176</ele>
        <time>2023-05-23T14:28:46.000Z</time>
      </trkpt>
      <trkpt lat="43.6439" lon="3.71152">
        <ele>112.19999694824</ele>
        <time>2023-05-23T14:28:56.000Z</time>
      </trkpt>
      <trkpt lat="43.64391" lon="3.7114">
        <ele>111.80000305176</ele>
        <time>2023-05-23T14:29:03.000Z</time>
      </trkpt>
      <trkpt lat="43.64392" lon="3.7113">
        <ele>111.59999847412</ele>
        <time>2023-05-23T14:29:08.000Z</time>
      </trkpt>
      <trkpt lat="43.64394" lon="3.71114">
        <ele>115.59999847412</ele>
        <time>2023-05-23T14:29:17.000Z</time>
      </trkpt>
      <trkpt lat="43.64394" lon="3.71112">
        <ele>115.40000152588</ele>
        <time>2023-05-23T14:29:18.000Z</time>
      </trkpt>
      <trkpt lat="43.64395" lon="3.71105">
        <ele>111.40000152588</ele>
        <time>2023-05-23T14:29:22.000Z</time>
      </trkpt>
      <trkpt lat="43.64395" lon="3.71095">
        <ele>111</ele>
        <time>2023-05-23T14:29:27.000Z</time>
      </trkpt>
      <trkpt lat="43.64397" lon="3.71081">
        <ele>110.59999847412</ele>
        <time>2023-05-23T14:29:35.000Z</time>
      </trkpt>
      <trkpt lat="43.64398" lon="3.71068">
        <ele>110.40000152588</ele>
        <time>2023-05-23T14:29:42.000Z</time>
      </trkpt>
      <trkpt lat="43.64399" lon="3.71063">
        <ele>110.19999694824</ele>
        <time>2023-05-23T14:29:45.000Z</time>
      </trkpt>
      <trkpt lat="43.644" lon="3.7105">
        <ele>110</ele>
        <time>2023-05-23T14:29:53.000Z</time>
      </trkpt>
      <trkpt lat="43.64402" lon="3.71044">
        <ele>109.80000305176</ele>
        <time>2023-05-23T14:29:57.000Z</time>
      </trkpt>
      <trkpt lat="43.64403" lon="3.7104">
        <ele>109.80000305176</ele>
        <time>2023-05-23T14:30:00.000Z</time>
      </trkpt>
      <trkpt lat="43.64404" lon="3.71037">
        <ele>109.80000305176</ele>
        <time>2023-05-23T14:30:02.000Z</time>
      </trkpt>
      <trkpt lat="43.64405" lon="3.71032">
        <ele>109.80000305176</ele>
        <time>2023-05-23T14:30:06.000Z</time>
      </trkpt>
      <trkpt lat="43.64406" lon="3.71031">
        <ele>109.80000305176</ele>
        <time>2023-05-23T14:30:07.000Z</time>
      </trkpt>
      <trkpt lat="43.64412" lon="3.7102">
        <ele>109.40000152588</ele>
        <time>2023-05-23T14:30:15.000Z</time>
      </trkpt>
      <trkpt lat="43.64418" lon="3.7101">
        <ele>109.40000152588</ele>
        <time>2023-05-23T14:30:22.000Z</time>
      </trkpt>
      <trkpt lat="43.64419" lon="3.71008">
        <ele>109.19999694824</ele>
        <time>2023-05-23T14:30:25.000Z</time>
      </trkpt>
      <trkpt lat="43.64423" lon="3.71002">
        <ele>109</ele>
        <time>2023-05-23T14:30:32.000Z</time>
      </trkpt>
      <trkpt lat="43.64432" lon="3.70989">
        <ele>109</ele>
        <time>2023-05-23T14:30:42.000Z</time>
      </trkpt>
      <trkpt lat="43.64436" lon="3.70982">
        <ele>108.59999847412</ele>
        <time>2023-05-23T14:30:47.000Z</time>
      </trkpt>
      <trkpt lat="43.64437" lon="3.70979">
        <ele>108.40000152588</ele>
        <time>2023-05-23T14:30:49.000Z</time>
      </trkpt>
      <trkpt lat="43.64442" lon="3.70971">
        <ele>108</ele>
        <time>2023-05-23T14:30:55.000Z</time>
      </trkpt>
      <trkpt lat="43.64449" lon="3.70959">
        <ele>107.59999847412</ele>
        <time>2023-05-23T14:31:03.000Z</time>
      </trkpt>
      <trkpt lat="43.64452" lon="3.70954">
        <ele>107.19999694824</ele>
        <time>2023-05-23T14:31:07.000Z</time>
      </trkpt>
      <trkpt lat="43.64457" lon="3.70947">
        <ele>107</ele>
        <time>2023-05-23T14:31:12.000Z</time>
      </trkpt>
      <trkpt lat="43.64462" lon="3.7094">
        <ele>106.59999847412</ele>
        <time>2023-05-23T14:31:19.000Z</time>
      </trkpt>
      <trkpt lat="43.64464" lon="3.70936">
        <ele>106.19999694824</ele>
        <time>2023-05-23T14:31:23.000Z</time>
      </trkpt>
      <trkpt lat="43.64468" lon="3.7093">
        <ele>106</ele>
        <time>2023-05-23T14:31:28.000Z</time>
      </trkpt>
      <trkpt lat="43.64478" lon="3.70916">
        <ele>105.40000152588</ele>
        <time>2023-05-23T14:31:39.000Z</time>
      </trkpt>
      <trkpt lat="43.6448" lon="3.70913">
        <ele>105.19999694824</ele>
        <time>2023-05-23T14:31:41.000Z</time>
      </trkpt>
      <trkpt lat="43.64486" lon="3.70901">
        <ele>104.59999847412</ele>
        <time>2023-05-23T14:31:49.000Z</time>
      </trkpt>
      <trkpt lat="43.64491" lon="3.70893">
        <ele>104.19999694824</ele>
        <time>2023-05-23T14:31:55.000Z</time>
      </trkpt>
      <trkpt lat="43.64492" lon="3.70892">
        <ele>104</ele>
        <time>2023-05-23T14:31:56.000Z</time>
      </trkpt>
      <trkpt lat="43.64497" lon="3.7088">
        <ele>103.40000152588</ele>
        <time>2023-05-23T14:32:04.000Z</time>
      </trkpt>
      <trkpt lat="43.645" lon="3.70874">
        <ele>103.19999694824</ele>
        <time>2023-05-23T14:32:08.000Z</time>
      </trkpt>
      <trkpt lat="43.64502" lon="3.70868">
        <ele>102.80000305176</ele>
        <time>2023-05-23T14:32:12.000Z</time>
      </trkpt>
      <trkpt lat="43.64508" lon="3.70852">
        <ele>102.19999694824</ele>
        <time>2023-05-23T14:32:23.000Z</time>
      </trkpt>
      <trkpt lat="43.6451" lon="3.70848">
        <ele>102.19999694824</ele>
        <time>2023-05-23T14:32:26.000Z</time>
      </trkpt>
      <trkpt lat="43.64514" lon="3.70838">
        <ele>101.80000305176</ele>
        <time>2023-05-23T14:32:33.000Z</time>
      </trkpt>
      <trkpt lat="43.64519" lon="3.70823">
        <ele>101.19999694824</ele>
        <time>2023-05-23T14:32:42.000Z</time>
      </trkpt>
      <trkpt lat="43.6452" lon="3.70821">
        <ele>101</ele>
        <time>2023-05-23T14:32:43.000Z</time>
      </trkpt>
      <trkpt lat="43.64522" lon="3.70814">
        <ele>100.59999847412</ele>
        <time>2023-05-23T14:32:50.000Z</time>
      </trkpt>
      <trkpt lat="43.64524" lon="3.70808">
        <ele>100.59999847412</ele>
        <time>2023-05-23T14:32:56.000Z</time>
      </trkpt>
      <trkpt lat="43.64525" lon="3.70804">
        <ele>100.40000152588</ele>
        <time>2023-05-23T14:33:03.000Z</time>
      </trkpt>
      <trkpt lat="43.64528" lon="3.70798">
        <ele>100.40000152588</ele>
        <time>2023-05-23T14:33:10.000Z</time>
      </trkpt>
      <trkpt lat="43.6453" lon="3.70791">
        <ele>100</ele>
        <time>2023-05-23T14:33:14.000Z</time>
      </trkpt>
      <trkpt lat="43.64535" lon="3.70781">
        <ele>99.599998474121</ele>
        <time>2023-05-23T14:33:21.000Z</time>
      </trkpt>
      <trkpt lat="43.64539" lon="3.70768">
        <ele>99</ele>
        <time>2023-05-23T14:33:30.000Z</time>
      </trkpt>
      <trkpt lat="43.64545" lon="3.70754">
        <ele>98.599998474121</ele>
        <time>2023-05-23T14:33:40.000Z</time>
      </trkpt>
      <trkpt lat="43.64549" lon="3.7074">
        <ele>98.599998474121</ele>
        <time>2023-05-23T14:33:49.000Z</time>
      </trkpt>
      <trkpt lat="43.64554" lon="3.70724">
        <ele>98.199996948242</ele>
        <time>2023-05-23T14:34:00.000Z</time>
      </trkpt>
      <trkpt lat="43.64557" lon="3.70712">
        <ele>98</ele>
        <time>2023-05-23T14:34:09.000Z</time>
      </trkpt>
      <trkpt lat="43.64561" lon="3.70702">
        <ele>97.599998474121</ele>
        <time>2023-05-23T14:34:17.000Z</time>
      </trkpt>
      <trkpt lat="43.64563" lon="3.70695">
        <ele>97.400001525879</ele>
        <time>2023-05-23T14:34:24.000Z</time>
      </trkpt>
      <trkpt lat="43.64566" lon="3.70684">
        <ele>97.400001525879</ele>
        <time>2023-05-23T14:34:34.000Z</time>
      </trkpt>
      <trkpt lat="43.64568" lon="3.70677">
        <ele>97.400001525879</ele>
        <time>2023-05-23T14:34:43.000Z</time>
      </trkpt>
      <trkpt lat="43.6457" lon="3.70669">
        <ele>97</ele>
        <time>2023-05-23T14:34:48.000Z</time>
      </trkpt>
      <trkpt lat="43.64572" lon="3.70661">
        <ele>96.800003051758</ele>
        <time>2023-05-23T14:34:53.000Z</time>
      </trkpt>
      <trkpt lat="43.64577" lon="3.70643">
        <ele>96.599998474121</ele>
        <time>2023-05-23T14:35:05.000Z</time>
      </trkpt>
      <trkpt lat="43.64583" lon="3.70624">
        <ele>96.599998474121</ele>
        <time>2023-05-23T14:35:18.000Z</time>
      </trkpt>
      <trkpt lat="43.64586" lon="3.70611">
        <ele>96.599998474121</ele>
        <time>2023-05-23T14:35:27.000Z</time>
      </trkpt>
      <trkpt lat="43.6459" lon="3.70598">
        <ele>96.599998474121</ele>
        <time>2023-05-23T14:35:36.000Z</time>
      </trkpt>
      <trkpt lat="43.64595" lon="3.70586">
        <ele>96.599998474121</ele>
        <time>2023-05-23T14:35:45.000Z</time>
      </trkpt>
      <trkpt lat="43.64598" lon="3.70577">
        <ele>96.599998474121</ele>
        <time>2023-05-23T14:35:52.000Z</time>
      </trkpt>
      <trkpt lat="43.64603" lon="3.70568">
        <ele>96.599998474121</ele>
        <time>2023-05-23T14:35:59.000Z</time>
      </trkpt>
      <trkpt lat="43.64608" lon="3.70556">
        <ele>96.599998474121</ele>
        <time>2023-05-23T14:36:08.000Z</time>
      </trkpt>
      <trkpt lat="43.64614" lon="3.70546">
        <ele>96.800003051758</ele>
        <time>2023-05-23T14:36:17.000Z</time>
      </trkpt>
      <trkpt lat="43.64618" lon="3.70537">
        <ele>96.800003051758</ele>
        <time>2023-05-23T14:36:25.000Z</time>
      </trkpt>
      <trkpt lat="43.64622" lon="3.70528">
        <ele>96.599998474121</ele>
        <time>2023-05-23T14:36:33.000Z</time>
      </trkpt>
      <trkpt lat="43.64622" lon="3.70527">
        <ele>96.599998474121</ele>
        <time>2023-05-23T14:36:34.000Z</time>
      </trkpt>
      <trkpt lat="43.64624" lon="3.70524">
        <ele>97</ele>
        <time>2023-05-23T14:36:39.000Z</time>
      </trkpt>
      <trkpt lat="43.64629" lon="3.70517">
        <ele>97</ele>
        <time>2023-05-23T14:36:45.000Z</time>
      </trkpt>
      <trkpt lat="43.64634" lon="3.70508">
        <ele>97</ele>
        <time>2023-05-23T14:36:53.000Z</time>
      </trkpt>
      <trkpt lat="43.64638" lon="3.70496">
        <ele>97</ele>
        <time>2023-05-23T14:37:02.000Z</time>
      </trkpt>
      <trkpt lat="43.64639" lon="3.70494">
        <ele>97</ele>
        <time>2023-05-23T14:37:04.000Z</time>
      </trkpt>
      <trkpt lat="43.64642" lon="3.70488">
        <ele>96.800003051758</ele>
        <time>2023-05-23T14:37:08.000Z</time>
      </trkpt>
      <trkpt lat="43.64642" lon="3.70487">
        <ele>96.800003051758</ele>
        <time>2023-05-23T14:37:09.000Z</time>
      </trkpt>
      <trkpt lat="43.64645" lon="3.70477">
        <ele>96.800003051758</ele>
        <time>2023-05-23T14:37:15.000Z</time>
      </trkpt>
      <trkpt lat="43.64646" lon="3.70474">
        <ele>96.800003051758</ele>
        <time>2023-05-23T14:37:17.000Z</time>
      </trkpt>
      <trkpt lat="43.64653" lon="3.70461">
        <ele>97</ele>
        <time>2023-05-23T14:37:26.000Z</time>
      </trkpt>
      <trkpt lat="43.64659" lon="3.70449">
        <ele>97</ele>
        <time>2023-05-23T14:37:35.000Z</time>
      </trkpt>
      <trkpt lat="43.64661" lon="3.70446">
        <ele>95.800003051758</ele>
        <time>2023-05-23T14:37:41.000Z</time>
      </trkpt>
      <trkpt lat="43.64662" lon="3.70445">
        <ele>93.400001525879</ele>
        <time>2023-05-23T14:37:42.000Z</time>
      </trkpt>
      <trkpt lat="43.64663" lon="3.70445">
        <ele>95.199996948242</ele>
        <time>2023-05-23T14:37:43.000Z</time>
      </trkpt>
      <trkpt lat="43.64666" lon="3.70443">
        <ele>95</ele>
        <time>2023-05-23T14:37:46.000Z</time>
      </trkpt>
      <trkpt lat="43.64673" lon="3.70434">
        <ele>95.599998474121</ele>
        <time>2023-05-23T14:37:55.000Z</time>
      </trkpt>
      <trkpt lat="43.64675" lon="3.70431">
        <ele>95.800003051758</ele>
        <time>2023-05-23T14:37:57.000Z</time>
      </trkpt>
      <trkpt lat="43.64678" lon="3.70427">
        <ele>95.800003051758</ele>
        <time>2023-05-23T14:38:01.000Z</time>
      </trkpt>
      <trkpt lat="43.64684" lon="3.70425">
        <ele>95.599998474121</ele>
        <time>2023-05-23T14:38:07.000Z</time>
      </trkpt>
      <trkpt lat="43.64685" lon="3.70423">
        <ele>95.400001525879</ele>
        <time>2023-05-23T14:38:09.000Z</time>
      </trkpt>
      <trkpt lat="43.64688" lon="3.70418">
        <ele>96</ele>
        <time>2023-05-23T14:38:13.000Z</time>
      </trkpt>
      <trkpt lat="43.64688" lon="3.70417">
        <ele>96.199996948242</ele>
        <time>2023-05-23T14:38:14.000Z</time>
      </trkpt>
      <trkpt lat="43.6469" lon="3.70412">
        <ele>96.599998474121</ele>
        <time>2023-05-23T14:38:19.000Z</time>
      </trkpt>
      <trkpt lat="43.6469" lon="3.70412">
        <ele>96.800003051758</ele>
        <time>2023-05-23T14:38:21.000Z</time>
      </trkpt>
      <trkpt lat="43.64689" lon="3.70411">
        <ele>97.400001525879</ele>
        <time>2023-05-23T14:38:26.000Z</time>
      </trkpt>
      <trkpt lat="43.64689" lon="3.70411">
        <ele>98.400001525879</ele>
        <time>2023-05-23T14:38:33.000Z</time>
      </trkpt>
      <trkpt lat="43.64689" lon="3.7041">
        <ele>98.800003051758</ele>
        <time>2023-05-23T14:38:35.000Z</time>
      </trkpt>
      <trkpt lat="43.64688" lon="3.70409">
        <ele>101.19999694824</ele>
        <time>2023-05-23T14:38:46.000Z</time>
      </trkpt>
      <trkpt lat="43.64687" lon="3.70409">
        <ele>97.599998474121</ele>
        <time>2023-05-23T14:38:49.000Z</time>
      </trkpt>
      <trkpt lat="43.64688" lon="3.70408">
        <ele>90.800003051758</ele>
        <time>2023-05-23T14:38:50.000Z</time>
      </trkpt>
      <trkpt lat="43.64687" lon="3.70408">
        <ele>94.400001525879</ele>
        <time>2023-05-23T14:38:51.000Z</time>
      </trkpt>
      <trkpt lat="43.64686" lon="3.70405">
        <ele>94.400001525879</ele>
        <time>2023-05-23T14:38:55.000Z</time>
      </trkpt>
      <trkpt lat="43.64686" lon="3.70402">
        <ele>94</ele>
        <time>2023-05-23T14:39:03.000Z</time>
      </trkpt>
      <trkpt lat="43.64685" lon="3.70403">
        <ele>95</ele>
        <time>2023-05-23T14:39:11.000Z</time>
      </trkpt>
      <trkpt lat="43.64685" lon="3.70403">
        <ele>95.400001525879</ele>
        <time>2023-05-23T14:39:15.000Z</time>
      </trkpt>
      <trkpt lat="43.64684" lon="3.70403">
        <ele>96.199996948242</ele>
        <time>2023-05-23T14:39:24.000Z</time>
      </trkpt>
      <trkpt lat="43.64684" lon="3.70403">
        <ele>96.599998474121</ele>
        <time>2023-05-23T14:39:26.000Z</time>
      </trkpt>
      <trkpt lat="43.64684" lon="3.70403">
        <ele>97.400001525879</ele>
        <time>2023-05-23T14:39:36.000Z</time>
      </trkpt>
      <trkpt lat="43.64684" lon="3.70403">
        <ele>97.599998474121</ele>
        <time>2023-05-23T14:39:38.000Z</time>
      </trkpt>
      <trkpt lat="43.64685" lon="3.70402">
        <ele>99</ele>
        <time>2023-05-23T14:39:44.000Z</time>
      </trkpt>
      <trkpt lat="43.64686" lon="3.704">
        <ele>97.400001525879</ele>
        <time>2023-05-23T14:39:46.000Z</time>
      </trkpt>
      <trkpt lat="43.64686" lon="3.70398">
        <ele>95.199996948242</ele>
        <time>2023-05-23T14:39:48.000Z</time>
      </trkpt>
      <trkpt lat="43.64687" lon="3.70397">
        <ele>94.199996948242</ele>
        <time>2023-05-23T14:39:49.000Z</time>
      </trkpt>
      <trkpt lat="43.64688" lon="3.70396">
        <ele>92.400001525879</ele>
        <time>2023-05-23T14:39:51.000Z</time>
      </trkpt>
      <trkpt lat="43.64689" lon="3.70394">
        <ele>89.800003051758</ele>
        <time>2023-05-23T14:39:54.000Z</time>
      </trkpt>
      <trkpt lat="43.64689" lon="3.70394">
        <ele>89.400001525879</ele>
        <time>2023-05-23T14:39:55.000Z</time>
      </trkpt>
      <trkpt lat="43.64689" lon="3.70393">
        <ele>91.599998474121</ele>
        <time>2023-05-23T14:39:58.000Z</time>
      </trkpt>
      <trkpt lat="43.64689" lon="3.70393">
        <ele>93.800003051758</ele>
        <time>2023-05-23T14:39:59.000Z</time>
      </trkpt>
      <trkpt lat="43.64689" lon="3.70393">
        <ele>95.599998474121</ele>
        <time>2023-05-23T14:40:00.000Z</time>
      </trkpt>
      <trkpt lat="43.64689" lon="3.70393">
        <ele>96.800003051758</ele>
        <time>2023-05-23T14:40:01.000Z</time>
      </trkpt>
      <trkpt lat="43.64689" lon="3.70393">
        <ele>98</ele>
        <time>2023-05-23T14:40:02.000Z</time>
      </trkpt>
      <trkpt lat="43.6469" lon="3.7039">
        <ele>97</ele>
        <time>2023-05-23T14:40:05.000Z</time>
      </trkpt>
      <trkpt lat="43.64691" lon="3.70387">
        <ele>93.400001525879</ele>
        <time>2023-05-23T14:40:07.000Z</time>
      </trkpt>
      <trkpt lat="43.64692" lon="3.70386">
        <ele>91.400001525879</ele>
        <time>2023-05-23T14:40:08.000Z</time>
      </trkpt>
      <trkpt lat="43.64692" lon="3.70384">
        <ele>89.800003051758</ele>
        <time>2023-05-23T14:40:09.000Z</time>
      </trkpt>
      <trkpt lat="43.64693" lon="3.70383">
        <ele>86.800003051758</ele>
        <time>2023-05-23T14:40:10.000Z</time>
      </trkpt>
      <trkpt lat="43.64693" lon="3.70381">
        <ele>84.800003051758</ele>
        <time>2023-05-23T14:40:11.000Z</time>
      </trkpt>
      <trkpt lat="43.64693" lon="3.70379">
        <ele>85.800003051758</ele>
        <time>2023-05-23T14:40:12.000Z</time>
      </trkpt>
      <trkpt lat="43.64694" lon="3.70378">
        <ele>88.599998474121</ele>
        <time>2023-05-23T14:40:13.000Z</time>
      </trkpt>
      <trkpt lat="43.64695" lon="3.70377">
        <ele>88.599998474121</ele>
        <time>2023-05-23T14:40:15.000Z</time>
      </trkpt>
      <trkpt lat="43.64695" lon="3.70376">
        <ele>88.199996948242</ele>
        <time>2023-05-23T14:40:25.000Z</time>
      </trkpt>
      <trkpt lat="43.64695" lon="3.70376">
        <ele>89.599998474121</ele>
        <time>2023-05-23T14:40:35.000Z</time>
      </trkpt>
      <trkpt lat="43.64694" lon="3.70373">
        <ele>90.599998474121</ele>
        <time>2023-05-23T14:40:40.000Z</time>
      </trkpt>
      <trkpt lat="43.64695" lon="3.70371">
        <ele>91</ele>
        <time>2023-05-23T14:40:47.000Z</time>
      </trkpt>
      <trkpt lat="43.64695" lon="3.70369">
        <ele>91.800003051758</ele>
        <time>2023-05-23T14:40:51.000Z</time>
      </trkpt>
      <trkpt lat="43.64694" lon="3.70368">
        <ele>92.800003051758</ele>
        <time>2023-05-23T14:40:56.000Z</time>
      </trkpt>
      <trkpt lat="43.64694" lon="3.70369">
        <ele>93</ele>
        <time>2023-05-23T14:40:57.000Z</time>
      </trkpt>
      <trkpt lat="43.64692" lon="3.70366">
        <ele>93.800003051758</ele>
        <time>2023-05-23T14:41:03.000Z</time>
      </trkpt>
      <trkpt lat="43.64691" lon="3.70365">
        <ele>94</ele>
        <time>2023-05-23T14:41:04.000Z</time>
      </trkpt>
      <trkpt lat="43.64692" lon="3.70359">
        <ele>94.599998474121</ele>
        <time>2023-05-23T14:41:10.000Z</time>
      </trkpt>
      <trkpt lat="43.64693" lon="3.70358">
        <ele>94.800003051758</ele>
        <time>2023-05-23T14:41:11.000Z</time>
      </trkpt>
      <trkpt lat="43.64697" lon="3.70352">
        <ele>96</ele>
        <time>2023-05-23T14:41:17.000Z</time>
      </trkpt>
      <trkpt lat="43.64697" lon="3.70351">
        <ele>96.199996948242</ele>
        <time>2023-05-23T14:41:18.000Z</time>
      </trkpt>
      <trkpt lat="43.647" lon="3.70347">
        <ele>97</ele>
        <time>2023-05-23T14:41:22.000Z</time>
      </trkpt>
      <trkpt lat="43.64701" lon="3.70344">
        <ele>97.599998474121</ele>
        <time>2023-05-23T14:41:26.000Z</time>
      </trkpt>
      <trkpt lat="43.64702" lon="3.70344">
        <ele>98</ele>
        <time>2023-05-23T14:41:29.000Z</time>
      </trkpt>
      <trkpt lat="43.64704" lon="3.7034">
        <ele>99</ele>
        <time>2023-05-23T14:41:35.000Z</time>
      </trkpt>
      <trkpt lat="43.64704" lon="3.70339">
        <ele>99.199996948242</ele>
        <time>2023-05-23T14:41:36.000Z</time>
      </trkpt>
      <trkpt lat="43.64709" lon="3.70331">
        <ele>100.19999694824</ele>
        <time>2023-05-23T14:41:43.000Z</time>
      </trkpt>
      <trkpt lat="43.64709" lon="3.70331">
        <ele>100.19999694824</ele>
        <time>2023-05-23T14:41:44.000Z</time>
      </trkpt>
      <trkpt lat="43.64709" lon="3.7033">
        <ele>101</ele>
        <time>2023-05-23T14:41:55.000Z</time>
      </trkpt>
      <trkpt lat="43.64709" lon="3.7033">
        <ele>101.19999694824</ele>
        <time>2023-05-23T14:42:02.000Z</time>
      </trkpt>
      <trkpt lat="43.64711" lon="3.70326">
        <ele>100.80000305176</ele>
        <time>2023-05-23T14:42:07.000Z</time>
      </trkpt>
      <trkpt lat="43.64712" lon="3.70324">
        <ele>100.59999847412</ele>
        <time>2023-05-23T14:42:14.000Z</time>
      </trkpt>
      <trkpt lat="43.64715" lon="3.70319">
        <ele>100.59999847412</ele>
        <time>2023-05-23T14:42:25.000Z</time>
      </trkpt>
      <trkpt lat="43.64717" lon="3.70315">
        <ele>100.19999694824</ele>
        <time>2023-05-23T14:42:28.000Z</time>
      </trkpt>
      <trkpt lat="43.6472" lon="3.70307">
        <ele>99.800003051758</ele>
        <time>2023-05-23T14:42:34.000Z</time>
      </trkpt>
      <trkpt lat="43.64723" lon="3.70298">
        <ele>99.199996948242</ele>
        <time>2023-05-23T14:42:40.000Z</time>
      </trkpt>
      <trkpt lat="43.64724" lon="3.70294">
        <ele>99</ele>
        <time>2023-05-23T14:42:43.000Z</time>
      </trkpt>
      <trkpt lat="43.64725" lon="3.70292">
        <ele>99</ele>
        <time>2023-05-23T14:42:45.000Z</time>
      </trkpt>
      <trkpt lat="43.64727" lon="3.70287">
        <ele>99.800003051758</ele>
        <time>2023-05-23T14:42:49.000Z</time>
      </trkpt>
      <trkpt lat="43.64729" lon="3.70284">
        <ele>100.40000152588</ele>
        <time>2023-05-23T14:42:52.000Z</time>
      </trkpt>
      <trkpt lat="43.64732" lon="3.70277">
        <ele>101</ele>
        <time>2023-05-23T14:42:57.000Z</time>
      </trkpt>
      <trkpt lat="43.64734" lon="3.70274">
        <ele>101.40000152588</ele>
        <time>2023-05-23T14:43:00.000Z</time>
      </trkpt>
      <trkpt lat="43.64738" lon="3.70267">
        <ele>101.80000305176</ele>
        <time>2023-05-23T14:43:06.000Z</time>
      </trkpt>
      <trkpt lat="43.64744" lon="3.7026">
        <ele>102.19999694824</ele>
        <time>2023-05-23T14:43:14.000Z</time>
      </trkpt>
      <trkpt lat="43.64749" lon="3.70252">
        <ele>102.40000152588</ele>
        <time>2023-05-23T14:43:22.000Z</time>
      </trkpt>
      <trkpt lat="43.64749" lon="3.70251">
        <ele>102.59999847412</ele>
        <time>2023-05-23T14:43:31.000Z</time>
      </trkpt>
      <trkpt lat="43.64749" lon="3.70251">
        <ele>103.59999847412</ele>
        <time>2023-05-23T14:43:33.000Z</time>
      </trkpt>
      <trkpt lat="43.64749" lon="3.70251">
        <ele>105.19999694824</ele>
        <time>2023-05-23T14:43:35.000Z</time>
      </trkpt>
      <trkpt lat="43.64749" lon="3.70251">
        <ele>108</ele>
        <time>2023-05-23T14:43:36.000Z</time>
      </trkpt>
      <trkpt lat="43.64749" lon="3.70251">
        <ele>109.40000152588</ele>
        <time>2023-05-23T14:43:37.000Z</time>
      </trkpt>
      <trkpt lat="43.64749" lon="3.70251">
        <ele>110.59999847412</ele>
        <time>2023-05-23T14:43:39.000Z</time>
      </trkpt>
      <trkpt lat="43.6475" lon="3.70251">
        <ele>109</ele>
        <time>2023-05-23T14:43:42.000Z</time>
      </trkpt>
      <trkpt lat="43.64751" lon="3.70249">
        <ele>110.19999694824</ele>
        <time>2023-05-23T14:43:44.000Z</time>
      </trkpt>
      <trkpt lat="43.64753" lon="3.70246">
        <ele>112.59999847412</ele>
        <time>2023-05-23T14:43:46.000Z</time>
      </trkpt>
      <trkpt lat="43.64755" lon="3.70243">
        <ele>110.80000305176</ele>
        <time>2023-05-23T14:43:49.000Z</time>
      </trkpt>
      <trkpt lat="43.64756" lon="3.70242">
        <ele>108.80000305176</ele>
        <time>2023-05-23T14:43:50.000Z</time>
      </trkpt>
      <trkpt lat="43.64757" lon="3.70241">
        <ele>106.59999847412</ele>
        <time>2023-05-23T14:43:51.000Z</time>
      </trkpt>
      <trkpt lat="43.64757" lon="3.7024">
        <ele>103.80000305176</ele>
        <time>2023-05-23T14:43:52.000Z</time>
      </trkpt>
      <trkpt lat="43.64758" lon="3.70239">
        <ele>103.40000152588</ele>
        <time>2023-05-23T14:43:53.000Z</time>
      </trkpt>
      <trkpt lat="43.6476" lon="3.70238">
        <ele>105</ele>
        <time>2023-05-23T14:43:54.000Z</time>
      </trkpt>
      <trkpt lat="43.6476" lon="3.70237">
        <ele>107.40000152588</ele>
        <time>2023-05-23T14:43:55.000Z</time>
      </trkpt>
      <trkpt lat="43.64762" lon="3.70236">
        <ele>108.80000305176</ele>
        <time>2023-05-23T14:43:56.000Z</time>
      </trkpt>
      <trkpt lat="43.64762" lon="3.70235">
        <ele>110.80000305176</ele>
        <time>2023-05-23T14:43:57.000Z</time>
      </trkpt>
      <trkpt lat="43.64763" lon="3.70233">
        <ele>112.19999694824</ele>
        <time>2023-05-23T14:43:58.000Z</time>
      </trkpt>
      <trkpt lat="43.64764" lon="3.70232">
        <ele>112</ele>
        <time>2023-05-23T14:43:59.000Z</time>
      </trkpt>
      <trkpt lat="43.64765" lon="3.70231">
        <ele>111</ele>
        <time>2023-05-23T14:44:00.000Z</time>
      </trkpt>
      <trkpt lat="43.64767" lon="3.70227">
        <ele>109</ele>
        <time>2023-05-23T14:44:03.000Z</time>
      </trkpt>
      <trkpt lat="43.64768" lon="3.70226">
        <ele>108</ele>
        <time>2023-05-23T14:44:04.000Z</time>
      </trkpt>
      <trkpt lat="43.64769" lon="3.70223">
        <ele>107.80000305176</ele>
        <time>2023-05-23T14:44:06.000Z</time>
      </trkpt>
      <trkpt lat="43.64772" lon="3.70217">
        <ele>107</ele>
        <time>2023-05-23T14:44:11.000Z</time>
      </trkpt>
      <trkpt lat="43.64775" lon="3.70213">
        <ele>106.80000305176</ele>
        <time>2023-05-23T14:44:14.000Z</time>
      </trkpt>
      <trkpt lat="43.64779" lon="3.70203">
        <ele>106.40000152588</ele>
        <time>2023-05-23T14:44:21.000Z</time>
      </trkpt>
      <trkpt lat="43.64781" lon="3.70198">
        <ele>106.40000152588</ele>
        <time>2023-05-23T14:44:25.000Z</time>
      </trkpt>
      <trkpt lat="43.64784" lon="3.70195">
        <ele>106</ele>
        <time>2023-05-23T14:44:28.000Z</time>
      </trkpt>
      <trkpt lat="43.64784" lon="3.70193">
        <ele>106</ele>
        <time>2023-05-23T14:44:29.000Z</time>
      </trkpt>
      <trkpt lat="43.64789" lon="3.70184">
        <ele>106.59999847412</ele>
        <time>2023-05-23T14:44:36.000Z</time>
      </trkpt>
      <trkpt lat="43.6479" lon="3.70182">
        <ele>106.59999847412</ele>
        <time>2023-05-23T14:44:38.000Z</time>
      </trkpt>
      <trkpt lat="43.64792" lon="3.70179">
        <ele>106.19999694824</ele>
        <time>2023-05-23T14:44:41.000Z</time>
      </trkpt>
      <trkpt lat="43.64794" lon="3.70176">
        <ele>106</ele>
        <time>2023-05-23T14:44:43.000Z</time>
      </trkpt>
      <trkpt lat="43.64798" lon="3.70172">
        <ele>107</ele>
        <time>2023-05-23T14:44:47.000Z</time>
      </trkpt>
      <trkpt lat="43.64799" lon="3.70171">
        <ele>107.19999694824</ele>
        <time>2023-05-23T14:44:48.000Z</time>
      </trkpt>
      <trkpt lat="43.64805" lon="3.7016">
        <ele>106.40000152588</ele>
        <time>2023-05-23T14:44:56.000Z</time>
      </trkpt>
      <trkpt lat="43.64808" lon="3.70156">
        <ele>106</ele>
        <time>2023-05-23T14:45:00.000Z</time>
      </trkpt>
      <trkpt lat="43.64809" lon="3.70153">
        <ele>105.80000305176</ele>
        <time>2023-05-23T14:45:03.000Z</time>
      </trkpt>
      <trkpt lat="43.64815" lon="3.70144">
        <ele>105.59999847412</ele>
        <time>2023-05-23T14:45:11.000Z</time>
      </trkpt>
      <trkpt lat="43.6482" lon="3.70138">
        <ele>106</ele>
        <time>2023-05-23T14:45:17.000Z</time>
      </trkpt>
      <trkpt lat="43.6482" lon="3.70136">
        <ele>106</ele>
        <time>2023-05-23T14:45:18.000Z</time>
      </trkpt>
      <trkpt lat="43.64825" lon="3.70127">
        <ele>106.19999694824</ele>
        <time>2023-05-23T14:45:25.000Z</time>
      </trkpt>
      <trkpt lat="43.64832" lon="3.70116">
        <ele>106.40000152588</ele>
        <time>2023-05-23T14:45:33.000Z</time>
      </trkpt>
      <trkpt lat="43.6484" lon="3.70104">
        <ele>106.59999847412</ele>
        <time>2023-05-23T14:45:43.000Z</time>
      </trkpt>
      <trkpt lat="43.64841" lon="3.70102">
        <ele>106.59999847412</ele>
        <time>2023-05-23T14:45:45.000Z</time>
      </trkpt>
      <trkpt lat="43.64844" lon="3.70098">
        <ele>106.80000305176</ele>
        <time>2023-05-23T14:45:48.000Z</time>
      </trkpt>
      <trkpt lat="43.64851" lon="3.70087">
        <ele>106.80000305176</ele>
        <time>2023-05-23T14:45:57.000Z</time>
      </trkpt>
      <trkpt lat="43.64858" lon="3.70075">
        <ele>106.59999847412</ele>
        <time>2023-05-23T14:46:07.000Z</time>
      </trkpt>
      <trkpt lat="43.6486" lon="3.70071">
        <ele>106.59999847412</ele>
        <time>2023-05-23T14:46:15.000Z</time>
      </trkpt>
      <trkpt lat="43.64863" lon="3.70064">
        <ele>106.59999847412</ele>
        <time>2023-05-23T14:46:23.000Z</time>
      </trkpt>
      <trkpt lat="43.64865" lon="3.7006">
        <ele>106.80000305176</ele>
        <time>2023-05-23T14:46:29.000Z</time>
      </trkpt>
      <trkpt lat="43.64871" lon="3.70058">
        <ele>106.59999847412</ele>
        <time>2023-05-23T14:46:35.000Z</time>
      </trkpt>
      <trkpt lat="43.64878" lon="3.70055">
        <ele>109.59999847412</ele>
        <time>2023-05-23T14:46:43.000Z</time>
      </trkpt>
      <trkpt lat="43.64878" lon="3.70055">
        <ele>110.19999694824</ele>
        <time>2023-05-23T14:46:45.000Z</time>
      </trkpt>
      <trkpt lat="43.64878" lon="3.70055">
        <ele>108</ele>
        <time>2023-05-23T14:46:46.000Z</time>
      </trkpt>
      <trkpt lat="43.64877" lon="3.70055">
        <ele>106.19999694824</ele>
        <time>2023-05-23T14:46:47.000Z</time>
      </trkpt>
      <trkpt lat="43.64878" lon="3.70055">
        <ele>103.40000152588</ele>
        <time>2023-05-23T14:46:48.000Z</time>
      </trkpt>
      <trkpt lat="43.64877" lon="3.70055">
        <ele>98.800003051758</ele>
        <time>2023-05-23T14:46:50.000Z</time>
      </trkpt>
      <trkpt lat="43.64878" lon="3.70055">
        <ele>97.400001525879</ele>
        <time>2023-05-23T14:46:51.000Z</time>
      </trkpt>
      <trkpt lat="43.64881" lon="3.70055">
        <ele>99.199996948242</ele>
        <time>2023-05-23T14:46:52.000Z</time>
      </trkpt>
      <trkpt lat="43.64877" lon="3.70055">
        <ele>99.199996948242</ele>
        <time>2023-05-23T14:46:54.000Z</time>
      </trkpt>
      <trkpt lat="43.64879" lon="3.70057">
        <ele>103.40000152588</ele>
        <time>2023-05-23T14:46:55.000Z</time>
      </trkpt>
      <trkpt lat="43.64878" lon="3.70055">
        <ele>106.19999694824</ele>
        <time>2023-05-23T14:46:56.000Z</time>
      </trkpt>
      <trkpt lat="43.64879" lon="3.70053">
        <ele>108.19999694824</ele>
        <time>2023-05-23T14:46:57.000Z</time>
      </trkpt>
      <trkpt lat="43.64879" lon="3.70053">
        <ele>109</ele>
        <time>2023-05-23T14:47:02.000Z</time>
      </trkpt>
      <trkpt lat="43.64879" lon="3.70053">
        <ele>109.40000152588</ele>
        <time>2023-05-23T14:47:04.000Z</time>
      </trkpt>
      <trkpt lat="43.6488" lon="3.70054">
        <ele>110</ele>
        <time>2023-05-23T14:47:11.000Z</time>
      </trkpt>
      <trkpt lat="43.6488" lon="3.70053">
        <ele>110</ele>
        <time>2023-05-23T14:47:21.000Z</time>
      </trkpt>
      <trkpt lat="43.64881" lon="3.70053">
        <ele>110.19999694824</ele>
        <time>2023-05-23T14:47:30.000Z</time>
      </trkpt>
      <trkpt lat="43.6488" lon="3.70053">
        <ele>110.59999847412</ele>
        <time>2023-05-23T14:47:31.000Z</time>
      </trkpt>
      <trkpt lat="43.64881" lon="3.70052">
        <ele>110.40000152588</ele>
        <time>2023-05-23T14:47:34.000Z</time>
      </trkpt>
      <trkpt lat="43.64878" lon="3.70052">
        <ele>111.40000152588</ele>
        <time>2023-05-23T14:47:41.000Z</time>
      </trkpt>
      <trkpt lat="43.64873" lon="3.70052">
        <ele>111.59999847412</ele>
        <time>2023-05-23T14:47:45.000Z</time>
      </trkpt>
      <trkpt lat="43.64868" lon="3.70054">
        <ele>111.80000305176</ele>
        <time>2023-05-23T14:47:49.000Z</time>
      </trkpt>
      <trkpt lat="43.64862" lon="3.70059">
        <ele>112.19999694824</ele>
        <time>2023-05-23T14:47:56.000Z</time>
      </trkpt>
      <trkpt lat="43.64862" lon="3.70058">
        <ele>112.19999694824</ele>
        <time>2023-05-23T14:47:57.000Z</time>
      </trkpt>
      <trkpt lat="43.64861" lon="3.70058">
        <ele>111.40000152588</ele>
        <time>2023-05-23T14:48:04.000Z</time>
      </trkpt>
      <trkpt lat="43.6486" lon="3.70058">
        <ele>112.40000152588</ele>
        <time>2023-05-23T14:48:17.000Z</time>
      </trkpt>
      <trkpt lat="43.6486" lon="3.70058">
        <ele>112.80000305176</ele>
        <time>2023-05-23T14:48:20.000Z</time>
      </trkpt>
      <trkpt lat="43.6486" lon="3.70058">
        <ele>113.19999694824</ele>
        <time>2023-05-23T14:48:23.000Z</time>
      </trkpt>
    </trkseg>
  </trk>
</gpx>